GFSGL_sfc_wetblb_000.txt.gz
Wetbulb
30.90 32.04 31.48 30.80 31.65 31.50 30.50 30.75 30.68 29.46 28.27 27.41 28.10 27.33 26.54 26.39 26.30 26.00 25.47 24.39 24.29 23.43 23.59 23.67 23.36 23.54 22.26 21.34 21.60 21.09 20.84 20.75 17.21 19.00 20.95 20.90 20.68 20.21 21.23 21.67 22.30 22.35 23.20
32.07 31.81 30.48 31.25 30.32 30.06 30.45 30.38 30.01 28.98 28.15 28.24 27.87 27.09 26.86 26.84 26.16 26.03 24.57 24.35 23.63 22.76 22.97 22.69 21.64 22.03 19.51 19.18 18.82 18.40 18.54 19.22 17.60 15.29 17.61 18.04 18.35 19.07 19.29 19.32 21.20 23.50 23.34
34.87 31.77 31.10 30.87 29.77 30.99 31.70 31.03 29.89 29.69 28.26 28.22 27.70 26.91 26.67 26.57 25.71 26.17 25.57 24.39 24.01 23.81 23.01 21.83 20.48 19.55 17.50 17.10 16.56 16.34 16.46 18.01 16.88 15.63 14.68 17.62 17.67 18.93 18.83 20.32 21.10 22.26 24.12
33.50 32.10 31.28 30.33 31.01 32.61 32.93 31.55 29.50 29.67 28.34 27.77 27.69 27.56 27.10 26.83 26.26 26.11 25.39 24.24 23.62 23.27 22.76 21.83 19.89 18.94 18.01 16.19 15.92 15.64 15.93 14.90 15.35 14.74 14.84 15.33 16.76 19.35 20.08 19.66 19.43 21.75 21.54
32.42 32.82 32.99 32.28 30.91 31.54 31.56 31.68 29.09 28.72 28.90 28.33 27.27 26.93 26.74 26.47 26.17 25.59 25.50 23.82 22.46 21.77 21.05 20.84 19.67 19.47 21.83 19.06 16.54 15.26 15.22 13.48 13.39 12.88 14.17 15.73 17.44 18.88 18.36 19.83 18.77 19.70 21.11
31.49 31.27 32.33 32.15 31.39 29.77 31.09 30.74 28.00 27.79 27.69 27.15 26.84 26.23 25.07 26.24 29.91 30.29 27.04 23.77 22.82 21.19 19.43 19.30 18.92 19.80 22.61 23.92 23.49 21.57 17.46 10.38 5.09 8.24 16.11 16.86 18.14 18.89 19.52 18.83 19.03 18.45 17.25
30.93 31.22 30.44 30.06 29.81 30.58 28.29 27.56 27.06 26.71 27.28 26.44 26.19 25.79 24.93 25.71 30.65 31.42 30.36 24.10 22.59 21.02 19.95 18.97 17.89 18.82 19.07 21.02 24.54 23.53 22.86 23.73 19.47 17.12 18.02 18.97 18.38 19.13 19.68 19.47 20.45 20.41 18.79
30.29 29.72 29.45 28.25 27.78 27.48 25.20 26.20 25.16 25.10 25.64 25.04 25.52 25.34 25.31 25.00 30.66 32.25 30.53 23.47 22.32 20.81 19.83 19.42 18.75 17.86 18.20 19.20 20.59 21.40 21.36 20.93 21.33 21.33 19.96 19.66 20.11 21.26 21.87 23.03 20.94 16.50 16.59
30.22 29.93 28.82 27.20 25.90 25.36 23.52 23.80 24.47 24.99 25.11 25.95 26.02 25.10 24.74 24.67 30.12 32.24 29.36 21.99 21.78 19.70 19.67 19.72 19.33 18.13 21.08 22.98 18.06 16.21 17.47 18.46 22.50 24.54 25.29 25.99 26.18 25.55 24.40 16.42 8.21 6.87 8.78
27.47 28.67 27.50 25.18 23.03 22.65 21.48 20.08 21.92 24.52 24.72 24.27 23.85 24.36 23.94 23.57 29.18 31.50 29.12 21.16 19.12 18.45 19.09 19.15 21.29 19.49 23.36 24.69 17.01 14.90 12.85 16.56 18.97 16.52 19.28 19.77 19.13 17.79 19.57 17.56 10.67 1.91 8.20
23.37 23.24 27.47 27.00 23.59 22.42 23.20 18.67 20.15 21.23 20.05 19.26 19.76 21.59 22.21 22.31 24.97 30.98 30.72 21.42 19.90 18.23 17.68 17.10 18.83 23.90 24.68 26.07 23.02 17.40 16.09 18.84 18.35 13.34 12.27 12.11 13.15 13.70 14.38 15.52 16.11 14.07 10.48
20.59 21.50 23.37 25.05 24.78 22.34 20.94 19.63 19.91 20.09 18.77 16.62 16.84 16.05 17.58 19.41 24.15 30.39 31.52 24.71 23.68 18.93 17.57 17.98 18.79 24.67 24.88 26.13 25.04 23.20 24.05 17.28 7.47 3.96 2.33 6.07 9.47 10.77 12.84 14.47 15.52 16.06 16.36
16.55 17.55 18.70 21.28 25.17 22.37 21.28 20.37 18.77 19.02 17.83 14.83 15.45 14.87 15.24 17.59 20.37 28.14 31.31 27.75 25.23 19.93 19.46 20.08 22.00 25.39 25.35 25.75 26.49 25.67 18.82 10.68 6.71 -0.27 2.99 7.41 10.39 12.20 13.60 13.25 13.85 13.53 13.79
11.33 11.81 13.51 15.51 18.88 22.91 20.77 21.11 19.39 18.55 18.06 17.88 16.20 16.10 16.00 15.77 17.68 22.43 27.52 27.88 25.03 20.35 21.52 20.84 22.15 24.20 25.10 19.22 21.23 20.62 12.97 10.84 9.35 7.14 7.28 9.53 10.75 10.13 9.35 10.77 8.72 9.20 7.85
7.79 8.46 9.35 12.02 14.42 20.06 20.45 20.11 19.21 20.74 21.02 19.06 18.73 18.76 16.52 14.99 17.16 22.92 27.56 25.58 22.50 18.80 19.42 19.44 19.80 17.34 14.90 12.00 11.11 10.57 10.19 9.91 8.40 7.91 7.53 7.13 7.48 7.64 7.90 9.30 8.29 6.59 4.40
3.43 4.82 6.74 9.31 11.86 15.62 19.59 18.91 23.48 24.44 24.30 26.16 25.72 22.02 20.24 22.00 23.20 25.43 29.17 29.17 25.63 24.66 17.47 16.44 14.16 12.99 11.74 9.93 8.54 7.87 8.32 8.22 8.78 8.14 6.90 6.13 5.65 5.57 5.36 6.12 6.44 4.24 3.30
0.75 2.13 3.83 6.40 8.81 12.18 17.55 16.48 15.75 18.54 25.83 26.35 26.82 26.79 25.40 22.66 24.92 25.78 28.11 29.66 27.17 24.76 15.07 13.29 11.89 10.78 10.50 9.83 8.67 7.95 7.05 7.48 7.74 6.26 5.68 5.17 4.62 3.76 3.25 2.87 3.38 4.33 3.37
0.35 1.67 2.74 4.82 7.39 10.47 14.45 16.65 15.56 15.67 14.71 19.31 25.52 26.01 27.52 25.76 26.16 26.11 28.07 29.21 24.72 21.40 13.31 11.94 10.55 9.94 8.96 7.98 7.14 6.23 5.72 4.77 4.18 3.91 3.13 1.48 -0.74 -2.01 -1.37 -0.68 1.23 1.17 2.09
-0.16 0.97 2.95 5.13 8.11 10.63 12.88 16.52 14.95 15.08 15.26 16.98 19.38 23.45 25.94 27.15 25.08 26.60 27.97 24.06 21.21 11.70 11.08 11.05 9.89 8.25 7.14 6.20 5.38 3.99 2.20 0.46 -0.23 -1.82 -3.37 -5.58 -5.01 -5.64 -3.85 -1.41 0.94 2.47 2.95
0.44 1.44 3.27 4.46 5.65 7.28 10.76 14.74 13.21 12.33 13.78 15.66 16.55 18.68 22.38 22.70 20.30 21.87 23.69 23.62 15.24 11.96 10.55 7.76 6.50 5.70 4.12 2.70 0.93 -0.87 -3.14 -4.49 -5.42 -6.70 -8.02 -8.32 -6.78 -5.79 -2.40 -1.59 0.13 0.97 1.19
1.03 1.21 2.13 3.89 6.04 8.38 11.60 12.31 12.09 11.79 12.48 14.43 16.00 19.44 23.05 19.71 19.12 20.58 22.63 15.07 11.73 8.52 7.90 5.39 2.86 1.92 0.45 -1.67 -3.36 -5.17 -6.08 -4.08 -6.90 -9.03 -8.91 -10.75 -8.41 -6.81 -3.51 -0.52 -0.09 1.13 3.90
2.79 2.15 2.21 3.00 6.35 9.71 11.92 11.59 11.50 11.74 12.29 13.69 15.78 18.43 24.66 19.40 18.11 11.44 11.52 10.39 8.79 7.06 5.26 2.97 0.75 -0.79 -2.77 -4.10 -4.68 -6.46 -6.86 -8.52 -10.89 -10.51 -11.29 -10.18 -7.94 -5.67 -4.24 -2.01 0.44 3.22 4.84
5.53 6.33 7.40 8.54 9.42 10.87 10.59 10.78 10.91 11.36 12.27 13.33 14.96 16.83 17.28 10.81 9.67 7.12 2.63 2.08 1.61 0.13 0.59 0.12 -2.25 -4.88 -5.65 -5.30 -6.72 -5.02 -5.67 -8.12 -10.09 -13.86 -13.49 -11.53 -9.32 -7.62 -4.77 -2.17 0.87 3.50 3.50
4.48 5.34 6.04 6.61 7.05 7.09 6.87 7.27 8.27 9.44 9.75 12.20 7.26 5.87 5.11 4.57 1.53 0.52 -0.05 -0.68 -1.78 -3.18 -3.39 -3.49 -4.26 -5.21 -6.90 -9.78 -10.90 -11.50 -13.73 -13.08 -14.89 -13.95 -14.55 -11.99 -7.82 -6.55 -3.69 -0.52 3.25 3.87 2.82
2.70 2.93 3.04 4.43 5.35 5.62 5.04 5.18 6.25 5.38 3.76 3.09 2.01 1.63 1.32 1.12 -0.78 -1.26 -1.33 -2.28 -3.86 -5.10 -6.48 -6.09 -5.94 -6.57 -8.31 -9.68 -10.79 -13.51 -13.56 -5.31 -7.65 -10.08 -12.28 -7.73 -8.08 -6.03 -1.11 0.76 3.52 3.17 0.65
1.04 1.38 1.77 2.45 2.85 3.80 3.63 2.50 1.69 1.74 0.82 0.73 0.97 0.95 0.33 -0.82 -1.53 -2.14 -2.86 -3.90 -4.78 -5.15 -6.06 -6.54 -7.00 -7.76 -9.34 -9.14 -9.78 -8.86 -7.63 -4.08 -5.92 -5.22 -6.63 -4.64 0.33 5.57 -1.03 0.87 2.87 1.16 -1.34

GFSGL_sfc_wetblb_003.txt.gz
Wetbulb
35.92 35.84 33.99 33.74 34.05 33.91 31.95 32.07 32.71 32.64 31.62 30.86 30.81 30.99 30.10 29.75 29.74 29.60 29.97 28.73 28.40 28.23 28.20 28.10 27.50 27.74 27.87 27.51 27.94 28.03 27.34 26.89 26.63 23.19 25.52 25.81 24.94 24.82 25.03 25.14 25.38 26.04 27.16
35.17 35.36 35.06 34.22 33.00 32.20 32.79 32.47 32.37 31.74 31.13 31.09 30.39 30.24 29.93 29.72 29.26 29.16 28.33 28.08 28.11 26.96 26.85 26.89 26.43 25.93 25.78 26.00 26.13 25.58 25.68 25.26 24.66 23.13 21.68 22.88 23.02 23.32 23.68 23.34 23.92 25.26 26.18
34.09 33.62 34.27 34.31 34.39 33.26 32.93 33.33 32.10 32.24 31.11 30.79 30.25 29.67 29.24 29.31 29.03 29.25 29.43 28.48 28.27 28.32 27.26 26.19 25.65 25.13 24.09 24.10 23.93 23.29 23.20 23.01 22.92 21.89 20.83 21.06 21.76 22.87 23.24 23.84 24.07 25.37 25.69
33.20 32.59 32.51 32.81 33.15 33.59 33.95 33.99 33.26 31.88 31.47 30.75 30.52 30.30 29.92 29.37 29.09 28.80 28.92 28.38 27.77 27.89 27.42 27.00 25.53 24.49 24.07 22.99 22.08 21.97 21.52 21.18 20.96 20.13 19.21 19.12 20.01 21.89 22.33 21.91 22.66 24.73 24.43
32.34 31.84 31.79 32.17 32.32 32.29 32.55 32.81 33.24 32.07 31.47 30.99 30.52 30.27 30.20 29.16 28.65 28.35 28.51 28.20 27.46 26.93 26.44 26.13 25.53 25.23 26.49 24.45 22.21 20.82 20.29 19.86 19.44 18.61 18.08 18.37 19.43 19.86 20.50 22.75 21.34 23.11 24.94
31.39 31.20 31.68 31.40 30.79 30.44 31.33 30.85 31.02 31.52 30.88 30.81 29.64 29.45 28.98 28.96 31.94 32.50 29.83 27.83 27.19 26.29 24.56 24.85 24.88 24.40 26.15 26.86 26.38 24.65 22.14 18.13 16.82 17.90 18.52 17.79 19.76 21.44 21.98 21.19 21.25 21.50 21.23
29.40 30.31 30.86 30.84 29.35 28.65 29.48 29.49 28.94 29.90 30.28 29.10 29.38 29.08 28.54 29.12 33.25 33.59 32.56 27.95 26.75 26.28 25.31 24.01 22.73 22.84 24.02 24.67 27.06 26.02 25.12 24.88 22.16 20.14 20.25 20.49 21.20 22.02 22.04 21.26 22.02 21.94 20.79
27.42 27.45 28.49 27.02 26.36 27.56 27.58 27.76 27.86 28.08 28.26 28.26 28.67 28.89 28.73 29.05 32.27 33.84 32.75 28.49 26.77 26.31 25.22 24.08 22.98 21.89 23.08 23.29 24.09 23.48 22.88 23.19 22.14 22.22 22.76 23.42 23.59 23.83 23.54 23.92 21.75 19.47 19.02
24.31 24.52 24.67 23.96 22.75 26.00 26.15 26.19 26.47 25.62 26.29 27.64 28.56 28.45 27.99 28.54 31.65 33.31 33.05 29.19 25.67 25.40 24.52 24.28 23.61 22.03 24.44 26.68 23.69 22.01 21.23 21.58 25.71 26.78 25.97 25.90 25.94 26.67 26.44 20.92 16.96 15.37 14.10
22.31 22.54 21.89 21.38 21.76 25.28 25.15 25.83 26.03 24.31 24.96 26.04 25.89 26.57 26.98 27.07 30.50 31.74 33.24 29.92 25.02 23.92 23.07 22.66 24.34 22.77 25.83 27.40 22.98 22.13 20.79 21.56 22.46 23.65 23.51 25.37 26.69 22.81 21.65 20.26 17.12 13.12 13.50
19.36 18.44 17.36 18.13 19.20 21.29 22.47 24.75 24.71 23.58 23.50 23.23 22.84 23.90 23.78 25.19 26.08 30.66 32.91 29.74 24.58 23.22 21.33 20.67 21.29 25.82 26.57 28.01 25.20 21.92 21.69 22.16 22.45 21.28 21.50 19.82 18.42 18.05 17.69 18.24 18.48 16.57 13.66
14.74 13.75 13.41 13.59 15.31 17.62 18.23 21.11 23.37 22.16 21.84 21.02 20.86 21.10 21.70 22.77 24.74 28.08 31.31 33.16 27.42 23.18 21.20 21.28 21.36 26.37 26.96 28.59 25.87 23.04 24.31 22.24 21.44 18.42 17.09 15.44 14.95 14.51 15.90 16.83 17.36 17.64 18.04
9.71 8.54 8.99 9.96 11.19 12.74 13.81 16.60 20.88 22.33 19.97 21.38 20.02 19.61 20.32 21.12 22.62 27.36 29.02 32.35 28.81 23.42 23.08 22.97 23.40 26.71 27.54 28.53 27.49 24.16 23.09 18.47 16.42 13.71 13.39 13.75 14.21 15.30 15.53 15.12 15.05 14.14 14.12
4.76 4.99 6.01 6.03 7.19 8.95 11.50 14.51 17.72 21.25 20.92 20.46 20.29 19.39 19.78 19.19 19.71 21.56 25.49 29.32 28.00 25.83 23.83 22.76 23.50 25.79 26.82 26.50 25.94 24.84 19.73 17.72 15.62 15.08 13.08 13.34 13.88 12.75 12.08 12.70 11.05 11.32 10.12
1.90 2.39 2.39 3.19 3.95 5.67 8.68 11.60 15.53 21.14 22.52 21.03 21.27 21.02 20.19 18.46 19.08 22.50 24.10 26.68 26.43 24.00 20.85 20.87 21.21 22.84 22.41 22.44 21.59 17.09 15.47 14.07 13.82 13.15 11.68 10.62 10.76 10.71 10.42 11.12 10.49 9.19 7.05
-1.37 -0.70 -0.14 0.82 1.90 3.43 4.79 7.23 15.59 19.91 24.16 26.97 27.25 25.98 22.52 25.01 25.66 25.87 27.04 28.92 29.28 25.55 19.39 18.76 19.60 21.10 16.47 17.66 15.15 13.56 13.03 11.93 12.48 11.18 10.60 9.83 9.11 9.16 8.94 8.86 8.64 7.22 5.67
-2.06 -1.26 -0.75 -0.03 0.32 0.81 2.50 4.96 6.68 13.62 23.07 26.57 27.41 28.45 28.41 25.69 26.07 26.81 27.88 29.35 29.97 26.04 18.93 18.68 19.20 19.19 17.09 16.58 14.26 12.27 10.75 11.50 12.02 10.86 9.51 8.82 7.94 7.42 6.46 6.20 6.42 6.35 5.61
-1.34 -1.01 -1.28 -1.10 -0.65 0.07 1.75 4.30 7.11 9.62 12.78 17.61 22.62 25.39 28.61 28.50 28.01 27.21 27.88 29.29 25.24 24.78 19.99 19.20 18.46 17.54 15.22 13.42 12.69 11.94 10.77 10.20 9.85 9.38 8.50 7.38 5.96 5.08 3.75 3.98 4.61 3.46 3.70
-1.60 -1.36 -0.89 -0.50 -0.14 0.66 2.12 3.36 6.33 8.13 10.67 16.63 16.28 20.80 23.78 29.04 29.54 26.79 27.86 25.56 23.47 21.26 18.09 17.59 16.24 15.26 13.96 13.66 12.36 11.50 9.87 8.18 7.83 6.51 5.13 3.13 2.10 1.64 1.03 2.11 2.69 2.71 3.01
-0.74 0.14 0.93 1.01 1.03 1.03 2.17 3.47 4.79 7.37 11.04 14.69 15.38 16.81 20.43 24.13 24.79 22.72 24.18 24.16 25.52 21.87 15.94 15.17 14.54 14.23 12.93 11.17 9.38 7.66 6.03 4.76 3.44 2.63 1.63 0.98 0.62 1.19 1.89 0.49 1.31 2.28 2.39
0.25 0.40 0.95 0.82 0.22 0.64 1.35 3.07 5.95 8.55 12.28 13.08 13.71 16.83 21.25 21.89 22.91 21.40 22.08 23.22 19.70 14.54 14.60 11.92 10.82 9.60 8.55 7.00 5.40 4.27 3.33 2.37 1.52 0.51 0.06 -0.50 -1.47 -1.58 -0.44 1.26 1.56 1.10 1.23
1.84 1.78 2.15 2.41 2.68 1.26 2.37 5.11 7.75 10.78 11.86 11.11 12.83 15.20 21.10 22.11 21.66 20.83 18.12 14.19 13.63 12.86 11.01 8.28 6.15 5.38 4.88 4.66 3.77 2.87 1.82 0.53 -0.24 -0.24 -0.66 -1.45 -2.06 -1.92 -2.64 -0.89 -0.83 0.78 1.88
1.36 1.77 2.67 4.27 6.22 6.43 4.63 7.02 10.19 10.54 10.49 11.74 13.26 15.11 15.84 12.86 8.52 6.75 5.70 6.04 6.20 6.20 6.17 4.57 2.48 1.09 2.05 2.29 3.52 3.24 1.56 0.03 -0.08 -0.95 -1.93 -2.85 -4.05 -3.50 -4.58 -3.03 -1.87 -1.12 1.14
1.08 1.46 2.02 3.28 4.88 5.21 6.20 6.78 7.79 8.48 6.19 4.21 4.48 4.82 4.48 4.38 3.24 2.16 1.98 1.97 2.26 2.83 3.81 3.29 2.33 0.73 -1.14 -1.22 -1.25 -0.78 -0.28 -1.56 -2.55 -3.21 -3.21 -4.05 -4.75 -5.86 -5.09 -4.40 -2.25 -0.29 2.60
0.10 0.49 1.04 1.21 1.76 2.51 2.77 1.89 2.14 1.89 1.89 2.01 1.73 1.80 1.23 1.40 0.84 0.60 0.55 0.72 0.75 0.79 0.16 0.31 0.22 -1.53 -2.68 -4.22 -4.77 -5.46 -5.86 -1.73 -7.49 -7.64 -8.48 -8.38 -7.39 -6.12 -5.81 -3.97 -0.51 2.23 3.32
-2.23 -1.58 -1.14 -0.49 -0.66 -0.41 -0.51 -0.35 -0.25 -0.07 -0.26 0.16 0.26 0.21 0.07 -0.20 -0.13 -0.20 -0.22 -0.55 -1.52 -2.20 -2.69 -2.75 -3.35 -3.77 -4.17 -4.45 -5.52 -5.99 -6.03 -4.11 -4.77 -4.83 -8.68 -7.75 -5.32 -4.27 -3.84 -0.37 0.87 2.60 3.42

GFSGL_sfc_wetblb_006.txt.gz
Wetbulb
36.54 37.27 37.62 38.02 38.37 38.38 37.68 38.37 38.10 37.98 38.04 37.58 37.70 37.32 37.55 37.15 37.19 36.53 36.83 36.51 34.79 35.41 34.64 34.91 34.84 35.55 34.89 34.84 35.33 35.09 34.44 35.65 35.64 30.60 33.29 33.27 32.02 31.08 28.63 29.37 29.72 30.05 31.18
35.69 35.58 35.25 35.67 36.04 35.95 36.65 37.56 37.93 37.16 37.60 36.68 36.94 35.96 35.72 35.20 36.13 35.32 34.93 34.51 33.58 33.41 33.68 33.27 33.59 32.00 33.84 34.02 33.65 33.07 33.13 33.43 34.00 28.46 28.34 28.43 28.41 29.26 29.29 28.35 27.63 27.97 29.71
35.00 34.69 34.36 33.97 33.93 33.53 33.42 35.54 36.27 36.48 35.35 36.50 35.42 35.19 34.45 34.06 34.05 34.36 34.50 34.11 32.99 33.98 33.60 31.96 31.99 30.78 30.95 31.81 31.87 32.04 32.12 29.80 31.37 31.48 26.61 28.01 27.38 27.71 26.36 27.10 27.68 28.88 29.13
33.18 33.67 33.34 33.42 33.21 32.69 32.18 32.75 33.85 34.96 35.39 34.66 34.62 34.24 34.50 34.31 33.62 33.58 33.01 33.55 33.31 33.23 33.99 32.93 31.62 29.84 30.37 30.23 29.64 30.61 30.78 30.16 28.95 27.79 27.48 24.62 25.38 25.73 26.36 26.41 25.88 28.39 28.53
31.52 31.97 32.34 33.42 33.58 32.51 31.87 31.68 32.52 32.47 32.93 33.97 33.27 32.90 32.80 32.53 32.03 32.58 32.10 31.98 32.15 31.75 32.12 31.95 31.55 30.71 31.57 31.45 29.41 29.45 28.91 28.80 27.78 26.77 25.27 24.91 23.92 22.76 23.00 26.34 25.97 27.17 28.52
29.81 29.52 31.10 31.77 31.49 29.92 29.79 29.98 30.49 30.63 31.22 32.31 31.72 32.30 32.18 31.51 33.68 34.86 33.18 31.10 31.13 30.55 31.00 31.32 30.68 29.68 30.58 32.78 32.99 32.00 29.76 27.35 26.02 26.05 24.92 23.32 24.44 25.13 25.82 24.76 24.56 24.22 25.84
28.52 28.31 29.03 29.20 28.31 27.51 27.22 28.62 29.38 28.85 30.33 29.69 30.62 31.37 31.27 32.29 34.32 34.93 34.19 31.88 31.27 31.11 30.98 30.44 29.17 28.70 28.55 29.07 31.60 31.54 30.06 31.01 30.46 27.62 25.97 25.41 25.22 25.78 26.15 24.15 24.51 24.99 25.20
27.71 26.65 27.70 27.34 25.59 25.00 24.81 25.66 28.73 29.03 28.63 28.69 29.15 30.23 30.67 31.17 33.37 34.48 34.00 32.40 31.73 31.38 30.78 30.58 29.54 28.32 27.18 27.62 27.83 27.62 26.79 27.39 27.88 26.81 28.01 27.14 27.81 27.84 27.10 26.76 26.02 26.50 25.34
25.68 25.11 25.85 25.49 22.85 21.73 20.32 22.17 25.24 26.24 27.43 28.59 28.98 29.55 30.32 31.33 32.62 33.31 33.55 32.16 30.89 30.56 30.39 30.60 30.16 28.86 28.13 29.76 27.14 26.23 25.23 25.06 28.34 27.85 27.35 28.75 28.80 28.80 27.73 26.76 23.40 20.97 19.29
23.59 23.69 24.06 23.26 20.11 18.53 19.74 19.94 21.99 24.02 25.39 27.04 27.72 28.69 29.36 29.63 31.35 32.06 31.96 31.93 31.00 30.68 30.10 28.99 29.41 29.29 29.28 29.93 27.19 26.34 23.65 23.59 23.49 23.49 24.96 27.31 27.43 26.99 27.39 25.81 24.07 19.80 19.97
21.89 21.19 20.27 19.67 17.87 17.36 17.08 18.05 18.70 19.45 20.93 22.12 24.51 26.90 28.03 28.83 29.44 30.96 31.58 30.68 30.75 30.99 30.11 28.32 27.50 29.53 29.77 29.17 29.95 27.01 26.16 25.23 24.71 23.37 24.91 25.01 24.77 26.19 25.94 24.47 22.73 20.85 19.07
17.16 15.50 14.88 14.22 14.12 14.30 12.66 13.37 14.23 15.45 16.22 18.21 22.05 24.52 26.86 27.74 27.69 28.96 30.78 31.32 31.90 30.78 30.12 28.72 27.52 28.03 29.41 29.09 29.74 28.67 28.84 26.09 24.64 24.67 23.37 22.62 21.74 21.70 21.53 20.73 20.94 21.37 21.68
10.71 8.72 8.62 9.28 9.43 9.64 9.19 9.70 11.13 12.80 14.02 16.08 19.27 22.64 24.64 26.86 27.89 28.10 29.56 30.24 30.93 30.56 30.83 29.20 27.67 27.32 28.96 28.29 30.34 28.95 27.16 24.16 23.61 22.08 21.50 20.57 21.17 20.67 19.79 19.02 19.29 19.47 18.30
4.71 4.60 5.34 4.68 5.35 6.09 7.67 8.31 8.36 9.79 11.50 14.08 17.06 20.76 23.60 25.49 26.12 26.32 25.55 26.63 29.36 29.91 31.02 27.81 26.81 26.12 27.83 27.24 27.22 28.85 26.24 22.63 22.51 21.02 20.28 20.23 19.51 17.44 16.91 17.21 15.31 14.56 13.86
2.67 2.83 2.92 3.41 3.03 3.46 4.90 5.64 6.96 9.21 11.07 11.06 14.18 18.49 21.36 22.50 25.28 26.76 25.68 24.88 27.84 29.08 26.68 25.14 23.97 23.44 23.77 24.94 25.85 24.25 23.50 20.54 19.83 20.29 18.69 16.20 15.99 15.65 14.96 15.16 14.67 13.28 11.44
1.62 2.09 2.54 2.45 2.71 2.97 2.73 3.07 8.61 11.03 13.36 15.46 17.70 18.10 19.25 23.46 27.07 27.30 27.88 27.54 28.20 30.36 23.55 22.49 22.17 22.20 23.06 24.17 24.48 21.71 20.28 18.47 18.90 17.40 15.97 15.14 14.42 13.65 13.05 13.00 13.07 11.55 10.90
-0.88 0.24 1.22 1.48 1.72 1.38 1.62 1.28 0.21 5.06 10.53 12.95 15.76 18.30 20.97 24.26 26.23 28.54 28.45 28.64 28.05 29.29 22.75 22.54 22.39 22.40 23.58 24.25 22.01 18.12 17.50 18.46 17.53 15.95 14.46 13.56 13.43 12.67 12.00 10.89 10.56 10.24 9.23
-0.95 -0.57 0.17 0.79 1.20 1.27 1.22 1.17 1.52 0.97 0.74 4.74 12.13 16.82 19.99 26.31 28.87 29.71 30.13 28.63 25.21 26.81 24.14 22.25 22.63 23.17 23.89 21.85 19.99 17.93 17.06 15.56 15.53 14.24 13.04 12.31 11.74 11.12 9.87 9.65 9.42 8.32 7.97
0.43 1.17 1.82 2.14 2.22 2.26 2.45 2.26 2.11 1.98 2.58 3.88 7.86 12.62 18.07 23.12 24.28 25.97 30.25 26.46 24.48 24.30 23.91 22.31 22.83 23.50 21.97 21.94 18.59 16.91 15.35 14.44 13.47 12.04 10.89 9.96 9.79 8.99 8.64 8.92 8.90 7.58 7.09
2.18 2.35 2.63 2.57 2.52 2.48 2.79 2.63 3.06 3.16 4.26 5.17 7.56 10.99 18.59 19.95 20.13 23.52 28.29 26.08 25.41 26.21 24.56 22.17 21.97 19.86 18.91 17.46 16.66 14.66 13.62 11.87 11.04 10.12 8.58 8.00 7.66 8.49 7.25 6.82 7.19 6.99 6.21
2.10 2.90 3.18 4.04 3.95 3.88 3.66 3.34 3.40 3.33 4.20 6.41 9.29 16.05 19.51 18.97 19.76 21.79 25.69 25.44 25.34 26.24 20.75 18.47 17.29 16.97 16.49 14.79 13.05 11.94 10.71 9.35 8.48 7.31 6.22 6.04 5.50 5.29 7.19 7.34 6.99 5.89 6.01
3.13 2.93 3.23 3.58 5.20 6.23 7.26 7.49 5.06 5.55 6.87 9.36 13.37 15.47 18.40 17.83 19.60 22.48 24.19 22.49 19.63 19.01 18.51 17.26 14.75 13.34 12.16 11.28 10.61 9.73 8.18 7.04 6.95 6.37 5.70 4.88 4.57 5.26 5.07 5.72 5.60 5.93 5.71
2.37 2.47 3.51 4.46 5.66 6.54 7.97 9.59 8.79 9.55 11.32 12.26 12.23 12.89 13.05 13.14 12.66 13.02 11.83 12.81 13.31 12.65 12.32 11.05 9.18 8.54 9.38 9.64 10.56 9.75 7.56 6.62 6.74 6.71 5.07 4.21 4.16 4.25 4.36 4.70 4.10 3.57 4.44
1.42 1.79 2.32 3.27 3.64 3.72 4.92 5.52 5.66 5.72 6.07 6.38 6.18 6.22 6.07 6.18 5.63 5.60 6.55 7.57 7.79 7.82 7.95 7.37 6.85 6.08 6.16 6.71 7.75 8.43 7.52 6.49 6.21 6.25 5.78 4.46 3.31 3.19 3.57 3.15 3.44 3.45 4.16
-0.21 -0.15 0.94 1.11 1.20 1.46 2.13 3.03 3.17 3.83 4.07 3.30 3.14 3.46 3.66 3.43 3.20 4.16 4.82 5.20 5.35 5.61 5.48 5.86 5.77 4.96 4.19 3.98 3.33 2.52 5.82 4.51 3.34 3.04 2.95 3.75 3.08 1.90 2.05 2.40 3.31 4.27 4.98
-1.70 -1.49 -0.92 -0.28 -0.08 0.09 0.07 0.25 0.71 1.29 1.26 1.72 1.52 1.41 1.64 1.54 2.08 2.22 2.37 2.48 2.24 2.57 2.94 3.26 3.45 2.69 2.27 1.73 0.59 1.97 2.25 1.47 -1.60 -0.81 -0.58 0.34 0.38 1.22 1.67 1.49 1.65 3.67 5.24

GFSGL_sfc_wetblb_009.txt.gz
Wetbulb
35.89 36.06 36.17 35.78 35.61 35.79 35.11 36.19 36.87 37.79 38.07 37.85 37.50 37.39 37.52 37.45 38.40 37.84 37.37 37.33 36.55 36.81 36.65 36.39 36.57 37.09 36.30 36.19 35.67 35.89 35.13 36.53 37.37 30.79 34.47 34.75 33.31 31.52 29.85 29.44 30.39 29.27 30.55
34.80 35.10 35.14 35.15 34.84 33.87 32.97 33.40 34.61 34.94 36.13 36.71 36.38 35.96 35.81 36.06 36.57 36.23 35.62 34.90 35.49 35.11 35.22 34.69 35.08 34.34 34.75 35.27 34.56 34.01 33.60 34.25 35.08 28.57 30.71 30.81 31.02 31.24 29.04 27.31 27.11 28.27 29.12
34.09 33.83 34.17 34.00 33.85 32.92 32.15 32.18 32.48 33.13 33.22 34.24 35.43 34.94 34.80 34.99 34.90 35.35 35.42 34.72 34.80 35.20 35.08 34.54 33.88 33.80 32.77 34.06 33.52 32.86 32.64 29.56 32.39 30.29 27.20 29.25 28.44 29.51 28.19 27.32 27.29 26.91 27.63
33.51 32.50 32.21 32.68 32.82 32.90 31.83 31.37 31.23 32.01 31.95 32.27 32.65 33.54 34.04 34.01 33.56 33.97 33.40 33.36 33.73 34.20 34.18 34.41 33.68 33.10 32.60 33.05 32.34 32.27 31.59 30.58 30.33 30.20 26.52 26.27 25.99 26.67 26.42 24.74 24.14 26.67 26.79
31.87 31.65 31.10 31.52 31.73 31.77 30.64 29.64 29.71 30.66 31.36 31.61 31.41 31.56 32.23 32.79 32.19 32.19 32.59 32.22 31.82 32.31 33.16 32.65 33.66 33.39 33.87 34.16 32.27 32.15 31.50 30.85 29.54 28.71 26.95 24.94 24.15 22.95 22.76 25.22 25.42 26.27 27.11
29.91 29.67 29.89 29.16 29.39 29.19 28.83 27.85 27.48 28.09 29.83 30.40 29.83 29.81 30.27 31.39 33.86 34.89 34.09 31.89 31.34 30.79 30.85 32.44 32.48 32.03 32.90 34.93 35.90 36.12 33.75 31.34 29.28 28.56 27.84 25.90 25.05 24.90 24.85 24.71 25.07 25.12 23.23
28.14 28.43 28.57 27.87 27.41 27.68 27.24 26.06 25.31 25.32 26.94 27.96 28.14 28.97 29.00 30.09 33.05 34.01 34.90 32.61 31.79 31.27 30.72 30.81 30.86 30.98 31.30 31.23 34.22 35.62 35.39 36.16 35.47 31.03 29.10 27.88 26.10 25.80 25.45 25.64 25.19 25.49 26.42
26.75 26.19 27.35 26.88 25.44 26.00 25.31 23.80 23.25 23.98 24.04 24.66 25.52 26.87 27.97 29.00 32.02 33.34 33.92 32.71 31.97 31.83 31.52 30.96 30.43 30.82 30.97 29.69 29.44 30.85 31.55 31.31 33.00 32.35 31.54 30.60 29.33 28.28 27.96 27.50 26.56 27.14 25.69
24.44 24.44 24.83 24.85 23.26 23.25 21.85 21.16 21.45 21.29 21.29 21.28 22.62 23.59 25.12 26.65 30.43 32.01 32.26 31.80 31.24 31.25 31.82 31.96 31.28 30.55 32.63 33.60 28.78 28.89 29.38 29.77 32.66 34.81 32.47 32.75 32.23 31.62 30.05 27.45 24.60 23.56 21.67
22.57 22.61 22.73 22.13 20.57 19.41 19.75 19.11 19.59 18.87 18.52 19.51 19.73 21.20 21.83 22.37 27.43 29.78 30.33 30.12 30.06 30.27 31.26 31.38 31.67 31.63 33.07 34.03 29.13 28.25 27.37 28.18 27.24 28.61 27.40 29.43 30.44 30.39 31.11 27.76 26.45 22.79 21.48
19.83 18.91 17.76 17.50 16.04 15.65 15.33 15.72 15.00 14.19 14.66 13.83 14.91 16.44 17.85 19.95 22.12 27.24 29.84 28.72 29.21 29.26 30.04 30.66 31.45 33.45 33.69 33.91 32.96 28.74 28.55 29.79 28.42 27.05 24.98 25.48 26.33 26.68 26.64 26.55 26.49 24.90 21.45
14.36 12.53 11.46 10.49 10.53 11.00 9.12 9.30 9.43 9.26 8.79 9.31 10.57 12.57 16.11 18.83 22.52 25.92 28.85 30.17 30.86 29.16 28.96 30.47 31.37 33.79 32.72 33.59 32.67 31.35 31.52 30.87 26.81 25.30 23.20 23.81 23.88 24.31 25.12 24.83 24.53 24.14 24.66
8.82 6.56 6.16 6.53 6.57 6.56 5.44 5.23 5.13 5.96 6.06 6.90 8.22 9.07 11.74 16.66 19.86 24.76 27.85 30.19 30.78 29.18 30.22 31.29 32.66 33.30 32.72 31.44 32.87 32.18 30.23 28.44 24.12 22.83 22.14 23.23 24.07 24.58 24.55 21.98 21.58 21.62 21.24
4.26 4.17 4.74 4.07 4.23 4.63 5.35 5.35 4.11 3.67 3.65 4.23 4.67 6.25 8.88 12.28 15.74 20.28 24.40 26.92 27.69 28.20 29.70 29.53 31.49 32.82 31.24 29.00 28.06 30.76 28.68 27.96 23.92 23.06 23.06 24.17 24.21 22.10 19.09 19.21 17.41 17.42 15.19
3.50 3.42 3.18 3.56 3.36 3.66 4.70 4.49 4.48 5.55 5.90 3.83 4.53 5.77 5.73 6.51 10.70 16.78 20.87 22.62 26.15 26.09 26.05 27.58 28.51 28.88 25.56 25.33 26.06 26.80 27.50 27.19 23.97 24.40 24.15 22.48 19.64 18.43 17.28 17.68 16.34 14.72 13.10
0.93 1.12 1.23 1.06 1.43 2.19 2.15 2.57 8.61 10.80 12.34 13.31 14.25 12.74 11.14 15.28 17.44 18.93 20.75 22.41 24.36 27.99 25.81 24.70 25.71 25.37 23.21 23.22 24.57 24.22 26.33 25.60 23.79 23.94 22.87 19.51 17.41 16.90 15.24 15.67 15.62 13.64 12.48
-0.52 -0.29 0.02 0.46 0.68 0.35 0.98 0.98 -0.15 4.57 10.56 11.82 12.67 13.37 14.28 15.05 17.15 18.88 20.29 22.04 25.16 25.47 25.27 24.13 24.36 23.93 23.19 23.55 24.75 24.45 24.49 22.31 23.00 21.20 17.98 17.24 16.55 15.93 14.14 13.41 13.35 12.77 12.19
-0.05 0.04 0.27 0.56 1.36 1.99 2.21 2.12 2.32 1.33 0.63 2.01 8.08 10.00 12.18 14.37 16.03 18.26 20.53 23.07 20.48 23.86 25.73 24.18 24.20 23.90 23.26 23.41 24.42 24.63 22.20 20.24 19.07 17.73 17.25 16.85 15.99 14.48 13.41 12.32 11.96 10.70 10.38
-0.50 -0.10 1.20 2.17 2.55 2.95 3.19 3.20 3.38 3.26 2.91 3.14 4.71 8.19 10.22 14.41 17.80 20.41 24.89 22.36 23.16 23.05 24.12 24.16 24.81 24.57 23.50 24.57 23.16 21.72 19.64 18.38 17.93 17.11 16.42 15.60 14.73 13.56 12.00 11.63 11.02 10.58 10.28
0.68 0.92 2.23 2.43 3.20 3.66 4.21 4.33 4.62 4.44 4.16 4.02 4.25 5.17 8.06 10.86 13.70 17.21 18.75 20.66 21.36 24.71 24.02 25.17 23.95 24.59 24.25 21.95 19.72 19.04 17.54 17.11 16.12 15.32 13.95 13.11 12.49 12.34 10.50 10.07 9.31 8.04 8.14
1.15 2.25 2.64 2.76 3.07 3.90 4.99 5.92 7.33 8.35 6.51 4.94 5.38 8.36 15.27 15.79 14.72 16.00 18.06 20.41 25.54 24.73 25.76 24.35 23.28 21.97 20.85 20.11 17.92 16.93 15.91 14.63 13.95 12.68 11.49 10.79 11.11 9.92 10.06 10.30 9.14 8.33 7.88
1.78 1.35 2.07 2.13 3.86 4.72 5.01 6.43 7.38 7.73 8.13 8.27 9.62 11.83 15.76 12.87 14.01 14.95 17.20 19.28 20.36 20.71 20.42 19.49 19.89 20.08 18.94 16.78 16.18 14.54 13.03 11.47 10.30 9.85 9.00 8.97 9.47 8.71 9.01 8.22 7.67 6.94 6.51
0.95 0.63 0.65 1.81 3.35 3.65 4.00 4.77 5.20 5.41 5.53 5.75 6.32 6.28 6.59 6.44 7.02 8.23 9.71 11.46 12.98 14.01 15.83 15.97 13.57 12.87 13.83 13.91 14.60 13.03 10.54 9.25 9.61 9.58 7.71 7.52 7.08 6.92 7.45 6.48 6.76 6.15 5.86
0.21 -0.12 -0.14 0.42 0.98 1.39 2.42 2.74 3.48 3.32 3.39 3.18 2.82 3.87 4.08 4.48 5.18 5.77 6.53 7.66 7.97 7.92 8.29 8.64 9.53 9.94 10.32 10.76 11.15 11.20 10.70 10.11 9.99 9.19 8.59 7.32 6.10 6.42 6.60 5.76 5.30 5.62 5.83
-0.16 -0.79 -0.82 -0.83 -0.94 -0.61 0.18 0.90 1.88 1.59 1.31 1.75 1.72 2.11 2.69 3.12 2.94 3.38 4.18 5.04 5.56 5.83 5.73 6.07 6.38 6.58 6.26 6.85 6.83 7.46 9.77 9.39 8.42 8.68 8.17 7.17 5.67 5.35 4.91 4.76 4.60 4.68 4.82
-0.75 -1.18 -1.43 -1.46 -1.59 -1.49 -1.17 -1.10 -0.30 0.44 0.69 0.89 1.11 1.57 1.90 1.74 1.93 2.14 2.56 2.90 2.72 2.81 3.19 3.72 3.59 3.30 3.76 4.54 3.98 6.07 6.80 7.07 4.78 6.28 6.40 5.30 3.78 3.19 3.26 3.25 3.07 3.94 4.43

GFSGL_sfc_wetblb_012.txt.gz
Wetbulb
30.75 31.39 31.13 31.13 31.42 30.88 29.32 29.63 30.20 30.92 31.87 32.65 33.41 32.88 32.44 32.55 33.14 32.51 32.58 32.63 32.15 31.81 32.05 31.57 31.95 32.70 31.85 31.88 32.09 31.50 31.65 31.15 29.11 26.27 28.26 30.24 31.30 30.56 30.24 28.26 28.89 27.97 27.76
30.55 29.92 30.62 30.86 30.44 29.57 29.18 29.15 29.02 30.23 31.22 31.75 31.98 32.18 32.12 32.06 32.04 31.31 31.51 31.57 30.86 31.01 31.37 31.32 31.45 32.88 31.60 31.14 32.39 32.76 32.87 30.51 28.33 23.98 26.26 27.48 28.27 29.79 27.90 26.61 26.35 27.45 26.35
30.35 28.98 28.50 28.19 27.97 28.01 27.95 27.70 28.03 28.50 29.52 30.05 30.45 30.65 31.13 31.32 31.51 31.93 31.21 31.70 31.59 31.13 31.60 31.38 32.72 30.20 31.73 32.74 31.69 33.03 32.04 31.64 29.48 24.57 24.36 25.56 25.42 28.56 24.44 24.56 24.20 24.00 26.23
28.42 27.45 25.98 26.10 26.80 27.09 27.53 27.14 25.98 26.56 26.53 26.50 28.69 29.49 29.77 30.67 31.04 31.00 30.85 30.91 31.44 31.89 31.84 32.02 32.47 31.77 31.73 31.85 32.39 32.07 31.99 31.05 31.44 25.11 23.58 24.94 23.25 25.97 27.28 24.55 23.18 24.09 23.99
27.08 25.61 26.03 26.79 26.78 26.11 25.21 25.57 25.23 24.67 25.23 25.71 26.67 27.72 28.55 29.07 29.53 29.75 29.92 30.43 30.85 31.16 31.59 31.51 32.11 32.62 33.66 33.88 32.19 32.42 31.82 31.44 31.61 29.67 23.52 21.54 23.01 24.11 25.29 25.44 24.22 24.03 23.86
25.25 24.60 25.93 26.23 26.66 25.81 25.46 25.55 25.25 24.29 23.03 23.20 23.68 24.56 25.55 27.52 30.95 33.03 32.88 30.73 31.38 31.03 30.54 31.21 31.62 31.67 32.56 35.47 36.41 36.64 34.28 31.62 31.64 30.45 29.63 26.42 25.92 26.47 26.66 24.86 24.72 22.68 20.76
22.31 22.52 22.98 23.90 24.59 24.83 24.32 24.10 24.20 23.43 23.19 21.91 21.90 22.27 22.66 23.93 28.84 30.26 31.86 29.98 30.24 30.63 30.74 30.76 30.95 30.89 31.24 31.24 34.02 36.32 36.44 36.96 36.36 32.56 30.89 29.56 28.00 26.82 26.04 25.09 25.39 25.65 25.42
21.98 21.00 21.23 22.41 21.70 22.12 21.89 21.43 21.66 21.90 21.24 20.70 20.36 20.49 20.35 21.41 26.06 27.59 29.22 28.35 28.17 28.88 30.03 30.51 30.35 30.62 31.04 30.50 30.43 30.52 31.69 33.05 34.28 34.26 32.71 33.21 31.53 28.63 28.08 28.05 27.32 26.65 24.22
21.18 21.01 20.92 20.22 18.65 18.62 17.29 17.54 18.25 17.74 17.37 17.36 18.69 18.08 17.49 18.12 23.49 24.97 25.34 23.68 24.90 26.45 28.37 29.71 30.34 30.25 32.38 34.27 30.86 29.35 29.65 30.44 34.30 36.44 36.75 36.70 36.57 33.84 30.64 28.35 25.20 22.87 17.04
18.69 18.66 18.02 16.59 14.04 13.30 13.73 13.24 13.66 13.05 13.65 14.51 14.21 15.05 15.32 14.45 19.61 21.53 22.04 20.04 20.08 22.74 25.71 27.70 30.25 31.05 33.19 34.46 31.49 30.43 27.89 28.71 29.99 30.74 32.44 34.95 34.25 32.63 32.77 29.94 26.97 23.72 22.53
15.30 14.07 12.46 11.88 9.87 9.31 8.93 9.12 8.35 7.72 8.64 7.24 7.97 8.89 9.61 11.25 12.29 18.23 20.23 18.07 18.47 19.84 22.05 24.70 27.48 31.90 33.98 34.85 35.05 30.93 29.89 30.42 31.00 30.43 29.17 30.28 28.92 28.75 29.10 29.42 29.23 29.12 24.98
10.79 9.01 7.44 6.04 6.12 7.03 4.60 4.64 4.50 4.16 3.58 3.38 3.56 4.33 6.90 9.32 13.29 15.64 18.40 20.10 21.48 19.69 21.01 24.31 26.68 30.84 33.04 34.74 34.41 34.51 34.63 32.65 29.79 29.37 27.53 28.04 26.71 26.49 27.65 27.88 27.74 28.44 28.50
6.23 4.11 3.73 4.29 4.62 4.67 3.09 2.74 2.47 2.82 2.02 1.86 2.60 2.43 3.65 7.08 8.22 13.08 15.72 17.56 19.59 19.19 22.24 25.63 29.55 30.37 31.62 32.22 33.54 34.15 32.83 31.52 28.83 27.10 25.66 26.22 26.51 27.29 27.27 25.87 26.05 23.44 22.69
2.22 2.70 3.60 2.76 2.20 2.35 3.34 3.79 2.44 1.70 1.41 1.78 1.38 1.18 2.05 3.62 5.03 6.88 7.82 8.61 13.13 13.88 20.00 23.61 27.90 29.66 30.43 30.35 29.92 32.51 31.79 30.92 28.41 27.31 25.71 26.13 26.17 25.92 24.96 24.34 21.61 21.35 19.02
2.59 2.59 1.50 1.39 0.43 0.38 1.32 1.19 2.14 4.01 5.38 4.49 5.96 7.24 6.94 6.75 8.89 13.19 13.60 12.14 12.10 14.70 16.67 18.89 19.86 23.56 24.02 26.27 29.29 29.14 29.99 29.88 27.70 27.82 25.26 24.09 24.05 23.88 23.58 22.82 21.79 19.78 17.44
0.91 1.19 0.79 0.49 0.13 0.35 0.21 0.64 7.70 10.50 12.52 14.06 15.32 13.75 11.67 15.46 16.79 16.87 17.24 17.84 18.29 19.01 15.30 15.07 16.83 20.01 22.52 24.34 26.35 25.41 26.55 27.82 27.46 26.70 24.76 23.52 22.99 21.74 20.48 19.79 19.79 17.51 16.26
0.27 0.33 0.38 0.19 -0.62 -0.97 -0.58 -0.63 -0.98 4.26 11.13 12.73 13.61 14.47 15.33 15.53 16.35 16.77 17.29 17.73 18.57 18.60 14.83 14.80 16.38 18.89 21.63 24.90 24.32 24.51 24.34 26.36 27.75 24.79 24.08 23.67 21.49 19.60 17.45 16.74 16.00 16.77 15.87
-0.30 -0.14 -0.91 -1.10 -1.06 -0.19 0.21 0.40 1.20 0.67 0.40 2.37 9.33 11.95 14.41 16.43 17.16 18.01 18.84 18.81 13.91 14.69 14.24 15.33 15.31 18.31 22.35 22.44 22.12 23.30 24.76 25.65 25.66 23.81 23.64 21.20 19.86 18.45 15.84 15.53 15.42 15.37 15.22
-1.65 -0.87 -0.38 -0.37 0.53 1.40 1.95 2.27 2.62 2.96 3.22 4.18 6.17 9.62 10.32 14.14 15.88 17.49 19.56 16.47 15.30 14.90 14.83 16.44 17.35 19.16 22.57 22.75 22.86 24.25 25.09 22.24 22.61 21.02 19.88 18.96 18.67 16.97 15.81 15.68 15.20 14.99 14.17
-2.30 -1.23 0.79 0.68 0.46 0.48 1.66 2.21 3.29 3.80 4.42 6.20 6.69 7.14 8.16 9.18 9.89 12.25 14.83 15.79 16.05 17.22 19.31 20.10 20.57 23.09 23.34 21.79 23.25 23.90 21.03 20.82 19.55 19.05 18.36 17.54 17.41 16.73 14.97 13.38 12.61 11.55 11.54
-1.80 -0.11 -0.61 -0.34 -0.88 0.09 1.67 2.31 2.62 3.58 3.72 4.05 4.76 6.99 14.61 7.92 5.76 6.18 8.27 10.69 11.51 18.91 19.50 21.22 23.33 22.09 23.31 20.92 20.73 21.06 19.98 18.83 18.39 17.88 16.54 15.68 15.27 13.61 13.21 12.82 12.02 11.62 10.64
-1.79 -3.21 -1.47 -2.30 -1.13 -0.47 0.09 1.42 2.12 2.38 2.12 1.83 2.67 3.72 10.76 4.40 4.34 5.03 5.96 7.30 8.19 9.51 13.56 17.08 15.26 14.78 17.44 17.81 18.99 18.02 17.03 15.66 14.76 14.23 13.24 13.16 12.80 11.99 11.32 10.35 9.95 9.64 9.61
-3.95 -2.63 -2.83 -2.75 -2.08 -1.65 -1.29 -0.55 0.09 0.94 0.34 0.74 1.38 1.54 2.00 2.06 2.78 3.28 3.70 5.53 6.61 7.13 8.76 9.81 10.87 11.88 13.67 14.82 16.21 16.69 14.20 12.87 12.74 12.80 11.92 11.01 10.63 10.13 10.11 9.07 8.30 7.54 7.27
-7.03 -4.21 -3.91 -3.66 -3.39 -3.18 -2.66 -2.13 -1.21 -0.16 -0.19 -0.06 0.44 0.97 1.24 1.33 1.35 1.88 2.74 3.95 5.10 5.59 6.32 7.31 8.17 9.19 10.10 10.47 11.40 11.88 11.83 11.89 11.86 11.93 11.58 10.48 9.74 9.68 9.30 8.27 7.94 7.26 7.08
-9.70 -8.62 -7.72 -6.63 -5.67 -4.41 -4.19 -3.75 -2.46 -2.03 -0.91 -0.09 0.04 0.94 1.20 1.42 1.21 1.32 1.81 2.60 2.35 2.52 2.73 3.48 4.84 5.68 6.59 7.58 8.61 9.89 12.24 11.03 10.70 11.21 10.62 9.87 8.76 8.16 7.60 7.19 6.92 6.96 7.02
-9.84 -10.56 -11.66 -9.62 -7.22 -5.99 -4.75 -4.42 -4.17 -3.07 -3.19 -1.80 -1.17 -0.51 0.17 0.15 0.63 1.15 1.46 1.62 1.52 1.80 2.08 2.37 2.97 4.39 5.46 6.19 7.25 9.21 10.24 10.76 9.02 9.55 9.16 8.44 6.90 6.57 6.57 5.74 5.72 5.68 5.73

GFSGL_sfc_wetblb_015.txt.gz
Wetbulb
28.86 29.25 29.38 29.09 29.28 28.73 27.60 27.40 27.15 27.11 27.96 28.19 29.01 28.77 29.32 29.84 29.64 29.64 30.08 30.50 30.11 30.43 30.94 30.54 31.25 31.65 33.70 35.28 31.98 32.41 33.34 29.62 33.61 31.92 27.86 28.59 31.22 32.56 31.40 30.83 30.04 30.20 31.52
28.62 27.84 27.76 28.42 28.10 27.05 27.25 26.89 26.22 25.90 26.31 26.83 27.82 27.98 28.13 28.61 28.96 28.93 29.44 30.88 29.82 30.34 30.73 30.31 30.61 32.35 30.38 32.23 32.97 32.96 33.59 32.13 33.78 33.44 26.43 27.42 29.50 32.53 30.94 29.33 28.27 29.31 28.58
27.86 27.00 26.47 26.21 25.74 25.78 25.78 26.63 26.86 25.94 25.14 25.06 25.54 25.47 26.27 27.50 27.86 28.50 28.86 29.12 29.90 30.77 31.26 31.22 31.30 31.21 30.73 31.82 31.35 32.07 33.23 33.01 30.98 29.77 27.08 25.89 27.78 30.42 26.65 28.18 26.89 26.80 27.06
26.20 25.32 23.93 24.06 24.59 24.82 25.09 24.89 25.06 25.16 24.11 23.85 24.17 24.89 25.34 26.21 26.57 27.53 28.31 28.57 28.82 29.80 30.79 31.26 31.30 30.97 31.23 31.54 31.67 31.83 32.18 32.49 31.84 29.59 25.18 24.63 24.94 26.62 28.78 26.78 24.47 25.88 25.95
25.98 25.14 24.52 24.67 25.53 25.14 24.68 24.89 24.66 24.19 24.51 24.00 23.62 23.32 23.32 23.82 25.20 25.24 26.25 26.68 27.53 28.59 29.67 30.25 30.99 31.41 32.92 33.75 31.88 32.04 32.23 31.71 31.81 31.21 29.56 23.02 23.41 24.92 26.25 26.43 26.75 26.49 26.10
24.51 23.83 24.75 24.30 25.01 24.90 24.64 24.82 24.62 24.19 23.65 23.51 23.25 22.74 21.91 23.41 26.73 28.15 27.62 25.21 25.87 26.45 26.82 28.46 30.04 30.50 31.77 34.59 35.78 36.33 34.79 31.93 31.13 31.19 31.12 29.03 28.29 28.92 28.29 26.90 26.80 23.75 21.91
20.97 20.01 20.82 22.02 22.05 22.57 22.73 22.27 21.42 20.59 20.88 20.45 20.75 21.00 20.75 21.28 25.57 26.46 26.74 24.46 23.53 23.54 24.56 26.24 27.80 29.38 30.04 30.23 32.81 35.67 35.95 36.79 37.01 33.02 31.14 31.25 30.04 29.68 28.69 27.65 27.15 26.66 27.51
20.12 18.68 18.86 20.43 18.61 18.77 18.26 17.39 17.26 17.42 17.01 17.10 17.24 17.38 17.17 18.45 22.96 23.94 24.15 21.91 21.39 21.74 22.47 23.88 25.39 26.77 28.45 29.12 29.28 29.55 30.71 32.47 33.93 34.49 34.18 33.29 33.59 30.92 30.29 30.54 29.09 28.66 26.55
19.67 19.29 18.26 16.17 13.96 14.19 12.26 12.46 13.14 12.78 12.39 11.96 13.25 12.65 12.32 12.88 18.08 19.12 19.20 16.79 17.15 17.49 19.45 20.50 21.71 22.91 27.50 31.02 29.09 28.23 28.61 29.90 33.56 35.99 36.51 37.08 37.23 37.34 31.95 29.64 27.23 25.39 23.64
17.16 16.61 15.46 13.75 9.86 9.63 9.92 8.88 9.20 8.62 9.35 9.93 9.11 9.33 8.97 7.64 13.30 15.34 16.03 13.37 12.08 13.82 15.55 18.01 20.97 21.92 25.67 28.30 26.78 27.56 26.99 27.98 29.46 30.41 32.25 34.96 36.26 35.76 35.68 30.21 29.45 25.53 26.36
13.56 12.30 10.68 10.15 7.81 6.92 6.54 6.86 5.86 5.04 5.95 4.33 4.91 5.59 5.86 7.14 7.60 13.58 15.65 13.89 13.19 12.98 13.79 15.21 18.10 22.43 24.49 26.55 29.02 28.08 28.10 30.19 30.46 29.63 29.97 30.73 32.11 32.94 33.10 31.48 30.31 29.16 27.75
8.44 6.94 5.81 3.54 3.96 6.02 3.14 3.35 3.24 2.70 1.88 1.78 2.03 2.95 5.35 6.94 10.13 12.20 14.67 16.09 16.37 11.96 11.47 14.03 16.23 21.61 23.59 25.56 26.72 29.42 32.57 33.04 30.58 28.42 28.72 28.97 29.40 30.51 32.03 32.35 30.27 30.41 31.23
1.32 -1.13 -0.54 1.77 3.65 3.69 1.38 0.91 0.57 1.08 0.87 1.16 1.74 1.46 2.70 5.95 6.90 12.14 14.35 15.27 15.36 12.00 12.14 13.91 17.77 18.93 20.70 22.36 26.13 29.16 29.71 29.88 29.76 29.38 28.03 27.79 28.70 30.15 30.65 30.41 30.42 30.32 29.16
-5.67 0.14 2.67 2.38 1.53 1.40 2.41 2.12 0.21 -0.60 -0.61 0.28 0.42 1.01 3.23 6.27 8.93 10.85 10.88 9.09 11.75 11.98 13.12 11.51 13.48 16.50 19.19 20.74 20.22 26.37 28.06 29.19 30.27 29.69 29.09 28.20 28.86 28.81 28.42 28.21 26.32 24.41 24.88
-0.43 1.94 1.63 1.91 0.88 0.82 1.71 1.12 1.89 3.89 5.31 5.33 7.38 8.56 8.07 8.09 10.28 15.83 17.04 15.15 15.15 16.13 14.19 11.34 11.28 13.56 14.22 15.24 16.95 25.55 26.65 27.15 27.89 30.44 29.40 27.83 27.02 26.69 25.96 26.60 25.65 23.36 23.02
-0.49 1.15 1.21 1.01 0.86 0.91 0.17 0.05 7.24 10.24 12.59 14.31 15.44 13.96 12.29 16.36 18.05 18.71 19.81 20.70 21.54 21.87 16.15 12.10 11.20 11.27 11.32 13.02 15.50 19.34 22.40 23.91 27.12 29.00 28.40 27.75 25.66 24.30 24.48 24.18 24.51 21.98 21.56
-4.06 -0.31 -0.04 0.18 -0.81 -1.12 -0.99 -1.40 -1.91 3.36 10.95 12.34 13.56 14.97 15.96 17.02 18.95 19.30 19.64 20.71 21.76 21.33 14.99 11.41 10.21 10.88 12.20 13.97 15.93 18.97 22.65 24.39 27.17 28.17 27.82 26.32 24.80 24.11 23.69 22.18 21.95 20.28 20.06
-8.59 -1.65 -1.80 -1.61 -1.49 -1.22 -1.17 -0.26 0.52 -0.34 -0.19 2.15 9.23 12.05 14.94 15.56 16.60 18.32 19.61 19.18 13.91 15.29 14.34 13.31 12.02 11.26 12.83 14.52 15.74 18.08 23.71 25.16 25.60 27.39 26.91 25.50 24.46 23.81 22.11 20.13 20.11 18.37 18.64
-5.02 -2.21 -1.49 -2.20 -1.30 0.11 0.23 0.13 0.69 1.29 1.73 1.85 3.78 7.39 8.20 12.32 15.15 14.62 14.29 7.55 8.16 9.07 11.79 14.17 13.91 13.28 14.22 15.44 17.06 19.88 21.89 22.55 23.76 25.47 23.77 24.64 23.70 21.59 20.01 19.66 18.72 18.67 18.24
-8.01 -2.08 -0.40 -1.62 -2.20 -1.72 -1.08 -0.80 0.17 0.12 0.58 0.94 1.06 1.33 3.31 8.01 1.97 2.14 4.09 5.55 6.11 7.15 8.29 10.16 16.19 19.00 16.73 16.21 18.16 21.86 22.06 22.75 23.08 24.28 23.33 22.11 21.45 21.17 18.74 17.84 17.24 16.68 16.15
-4.12 -2.51 -2.90 -3.98 -4.06 -3.04 -2.07 -2.22 -1.58 -0.87 -0.84 -0.35 -0.10 2.35 12.08 3.98 1.21 1.65 2.40 3.14 4.25 5.23 6.60 9.13 12.29 18.79 21.81 23.00 22.46 22.38 22.65 21.40 21.30 20.97 20.02 19.49 19.63 17.81 18.41 17.62 16.65 16.44 14.92
-5.11 -6.47 -5.56 -5.80 -4.07 -3.58 -3.70 -2.78 -2.90 -2.21 -1.30 -1.15 -0.06 1.61 9.19 2.14 1.19 0.96 1.52 2.12 3.51 5.04 5.94 6.96 8.99 10.97 12.28 15.35 18.71 19.37 19.01 18.16 18.06 17.67 17.15 16.90 16.84 15.36 14.98 14.28 13.99 12.96 12.47
-6.99 -7.50 -6.70 -7.71 -6.42 -4.67 -4.89 -5.30 -4.45 -3.18 -2.27 -1.32 -0.26 0.11 0.62 0.48 0.84 0.69 0.66 1.63 2.26 2.76 3.70 4.80 5.49 7.02 10.20 11.71 12.96 14.16 14.00 13.76 14.81 15.44 14.65 13.66 13.14 12.78 12.67 11.82 11.24 11.11 10.73
-7.61 -10.09 -9.46 -11.58 -11.96 -7.39 -7.29 -6.41 -5.67 -4.42 -3.67 -2.70 -1.99 -1.61 -0.66 -0.28 0.14 0.75 1.36 1.90 2.20 2.39 2.91 3.54 4.75 4.78 6.75 8.74 10.04 11.13 11.76 12.66 13.73 13.78 13.74 12.54 11.33 11.48 11.02 10.37 10.15 10.14 9.51
-9.07 -11.54 -11.82 -13.67 -16.06 -13.00 -10.76 -8.73 -6.73 -6.82 -5.47 -3.54 -3.34 -2.72 -2.24 -1.43 -0.99 -0.17 0.84 1.69 2.16 2.30 2.60 3.32 4.52 6.43 6.95 7.69 8.31 9.47 11.44 11.66 11.65 12.44 12.31 11.73 10.59 9.95 9.55 9.00 8.55 8.70 8.56
-9.91 -11.69 -15.33 -16.57 -16.86 -17.30 -16.26 -12.43 -10.88 -9.21 -8.68 -6.41 -5.25 -4.64 -4.02 -3.89 -2.71 -1.22 -0.14 0.54 0.87 1.62 2.04 2.90 3.84 5.04 7.10 8.12 10.01 11.06 11.49 11.78 10.32 10.97 10.72 9.90 8.51 8.22 8.33 7.88 7.83 7.44 6.94

GFSGL_sfc_wetblb_018.txt.gz
Wetbulb
27.48 27.13 27.07 27.18 26.85 26.62 25.95 25.71 25.49 25.33 25.53 25.69 26.02 26.13 26.26 26.30 26.72 26.18 25.97 26.46 26.39 27.11 28.20 28.61 29.24 30.00 30.59 30.89 30.82 31.75 33.11 34.02 31.88 34.43 29.03 28.84 28.62 31.16 31.38 34.11 33.32 32.85 35.49
27.48 26.52 26.15 25.90 25.51 25.22 24.64 25.06 25.28 25.18 25.66 25.06 24.98 24.67 24.56 24.59 25.04 25.15 25.40 25.30 25.30 26.11 27.10 27.71 28.46 30.86 28.98 29.29 30.13 30.41 31.01 32.02 32.52 31.63 34.52 27.06 27.92 29.87 32.11 31.46 31.54 31.80 31.80
26.74 26.00 25.25 24.92 24.31 24.18 24.28 24.66 24.80 24.65 24.44 24.49 24.47 23.75 23.82 24.02 23.92 24.18 24.23 24.71 25.57 26.11 26.62 26.89 27.57 27.77 28.56 29.37 30.43 30.75 30.96 32.01 31.61 30.47 30.96 28.89 27.76 28.04 27.49 29.36 30.34 29.54 29.57
25.26 25.04 23.88 23.44 23.81 23.97 24.25 23.60 23.32 23.47 22.95 22.87 23.10 23.29 23.22 23.23 23.36 23.20 23.32 23.79 24.45 25.42 26.29 26.99 27.42 27.61 27.74 28.10 29.19 30.40 31.44 31.17 31.20 30.32 30.00 30.05 25.56 26.66 29.07 28.61 27.36 27.88 26.99
25.16 24.91 24.23 24.13 24.03 23.61 23.19 22.93 23.19 23.32 23.10 22.66 22.10 22.04 22.32 22.73 23.65 23.18 23.97 23.61 23.31 23.34 24.22 24.97 25.93 27.80 30.81 31.31 29.33 28.99 29.75 30.84 30.99 30.38 29.82 30.31 26.18 24.39 26.69 27.89 28.60 27.97 27.56
23.85 22.63 22.91 22.47 22.60 22.44 22.25 22.05 21.43 20.74 20.18 20.06 19.74 19.56 19.27 21.60 24.76 25.71 24.95 22.35 22.52 22.46 22.18 23.19 23.83 24.50 26.17 29.60 31.77 34.11 33.02 29.79 29.04 30.69 30.45 29.56 30.07 28.06 29.46 28.90 27.68 26.74 24.95
19.87 18.30 18.59 20.05 19.68 19.80 18.91 18.15 17.49 16.67 16.98 16.28 16.48 16.73 16.48 17.17 21.32 22.36 22.88 20.80 19.85 19.57 20.10 20.95 21.72 23.25 23.92 24.62 28.15 30.81 31.88 33.91 35.71 32.05 30.28 30.88 30.79 31.83 30.14 28.42 27.61 29.10 28.96
18.41 16.25 16.82 18.20 15.30 15.67 15.02 13.98 13.88 13.89 13.29 13.04 12.93 12.86 12.59 14.13 18.46 19.14 19.12 16.92 16.14 16.21 16.67 17.52 18.03 18.75 20.04 21.15 21.85 22.90 25.94 27.98 29.21 30.95 33.29 33.01 33.39 33.76 31.38 30.37 30.59 29.52 30.82
17.78 17.77 16.20 14.11 11.16 12.03 9.43 10.02 10.70 10.14 9.51 8.92 10.32 9.60 8.75 9.10 14.53 16.03 16.34 13.47 13.38 13.35 14.79 15.27 15.40 15.72 18.84 21.45 19.43 18.95 20.76 23.36 30.24 33.59 34.55 35.72 37.04 37.87 36.14 31.94 28.79 27.56 26.04
16.56 15.22 13.97 12.44 6.20 7.73 8.43 7.30 7.76 6.94 8.01 8.36 7.44 7.47 6.91 5.50 11.46 14.12 15.07 12.30 10.07 11.30 12.89 14.72 17.39 17.50 20.04 21.65 19.53 18.49 17.27 19.91 23.64 26.76 28.75 31.06 34.41 34.48 36.95 34.41 30.73 27.50 26.83
12.80 11.53 9.82 9.41 6.71 5.99 5.48 5.88 4.90 4.09 5.21 3.42 3.94 4.47 4.78 6.09 6.62 13.17 15.35 13.23 11.92 10.69 10.71 12.03 14.50 17.89 18.88 19.83 21.08 18.85 19.32 22.38 23.86 25.09 27.24 28.36 29.03 30.58 32.00 34.37 33.93 30.43 28.24
8.19 6.24 4.84 2.24 3.32 5.63 1.69 2.16 2.13 1.48 0.61 0.21 0.53 1.97 4.57 6.18 9.55 12.13 15.00 16.59 17.06 12.90 11.89 13.01 13.27 17.17 18.41 19.63 19.65 20.95 21.79 22.24 23.02 23.86 25.83 26.81 27.91 28.34 29.64 31.49 33.11 32.52 32.66
0.78 -3.69 -3.08 -0.36 2.33 3.01 -0.24 0.55 0.09 0.10 -0.81 -0.50 0.66 0.50 1.89 5.42 6.76 12.55 15.48 16.74 17.40 14.44 14.15 15.33 19.29 20.57 21.21 20.04 19.43 19.14 18.29 16.02 17.17 19.44 23.29 25.79 28.19 29.60 29.87 30.04 31.41 33.04 31.42
-10.15 -4.21 -0.36 -1.16 -0.01 -0.59 2.15 2.46 0.55 -0.70 -0.91 0.44 0.31 1.25 4.25 8.26 10.26 11.63 11.93 12.13 15.89 16.54 17.05 14.41 16.21 18.46 19.83 18.93 16.45 17.00 16.23 16.57 16.44 16.82 20.53 27.07 29.23 29.10 28.58 29.48 28.96 30.44 28.65
-5.46 -0.72 -1.16 -0.92 -3.13 0.03 1.50 1.40 1.99 3.86 5.21 5.46 7.75 9.47 9.02 8.31 10.53 16.75 18.09 16.55 17.31 18.89 19.32 18.63 17.16 10.77 8.30 8.74 10.02 12.63 13.95 14.23 14.72 16.72 22.33 25.00 27.47 28.06 27.70 28.62 28.52 28.34 25.74
-3.58 -0.69 -0.69 -0.05 -0.30 0.50 -0.05 -0.01 7.24 10.44 12.82 14.27 15.88 14.58 12.76 16.51 17.98 19.51 19.86 20.18 21.19 22.08 17.67 15.83 15.52 15.70 14.43 12.87 11.42 10.85 12.37 14.42 16.64 18.30 23.39 25.72 26.98 27.42 26.82 27.60 27.24 26.62 22.94
-11.18 -3.30 -1.84 -0.93 -1.78 -1.93 -1.44 -2.01 -3.15 2.46 10.36 11.31 12.81 14.27 14.91 16.13 16.66 17.27 18.50 19.57 18.55 16.25 8.34 9.08 10.60 12.24 13.68 14.30 13.00 11.66 12.05 14.90 17.71 21.85 23.82 25.49 25.58 26.17 25.89 25.35 24.42 24.76 22.46
-13.45 -5.39 -4.96 -3.85 -3.70 -3.01 -2.89 -1.93 -1.23 -2.47 -2.29 -0.03 7.04 10.07 12.18 12.99 14.58 16.75 15.74 13.84 2.36 5.19 5.73 6.76 6.99 8.33 8.79 13.33 11.96 11.85 13.36 15.16 16.37 19.47 23.02 24.95 25.63 25.42 24.13 24.32 23.09 22.87 21.65
-10.48 -7.59 -7.78 -5.93 -3.85 -2.34 -1.81 -2.09 -1.82 -1.67 -1.13 -1.20 0.38 4.44 5.09 10.35 13.37 11.45 11.27 2.22 1.79 1.94 3.50 4.56 6.24 7.93 11.44 13.75 14.21 13.17 13.82 15.69 18.07 21.46 23.82 26.09 25.67 24.74 23.98 23.76 21.99 21.96 21.17
-13.45 -7.29 -4.36 -8.07 -5.14 -4.86 -3.47 -3.74 -3.13 -3.18 -2.82 -2.42 -1.83 -0.99 1.01 6.79 -0.22 0.11 1.27 0.93 0.75 0.93 2.34 3.08 4.49 6.82 10.33 13.66 16.15 15.52 15.28 16.72 18.86 21.56 22.78 22.83 23.91 24.41 24.02 22.38 21.48 20.11 20.16
-16.19 -13.58 -7.00 -10.34 -10.07 -7.05 -5.67 -5.47 -4.43 -4.20 -4.21 -3.75 -2.44 0.61 11.86 1.74 -0.79 -0.43 0.05 0.52 0.39 0.67 1.06 1.71 2.84 4.95 7.38 9.77 11.97 17.81 18.03 19.17 22.02 23.06 23.49 22.56 23.05 21.56 23.00 21.78 20.48 19.91 19.70
-16.24 -16.79 -16.51 -14.74 -6.09 -6.79 -8.50 -5.83 -6.30 -6.40 -5.27 -4.65 -3.17 -0.75 7.82 -0.62 -1.01 -0.51 0.25 1.23 1.83 2.42 2.98 2.67 3.02 4.67 6.23 7.79 8.97 10.25 12.93 14.11 15.96 16.47 17.63 18.17 18.90 19.04 19.04 18.27 18.07 17.52 15.99
-15.10 -14.83 -12.41 -8.01 -6.39 -8.30 -9.22 -11.89 -10.80 -8.70 -7.24 -6.39 -5.13 -3.61 -3.16 -2.99 -2.33 -1.24 -0.78 0.81 2.23 2.56 3.39 3.58 3.58 4.67 6.98 8.27 9.64 10.11 9.39 9.91 11.87 14.80 13.93 13.74 14.46 14.83 15.45 14.89 14.45 13.60 12.64
-14.48 -12.33 -7.55 -6.11 -7.59 -11.34 -12.94 -11.70 -11.35 -9.53 -9.60 -8.56 -9.21 -6.50 -4.95 -4.66 -4.06 -3.00 -1.64 -0.12 1.27 1.75 2.80 3.32 4.29 4.93 6.51 7.83 9.17 9.83 11.06 11.95 12.29 12.75 12.81 11.71 11.26 12.11 12.40 12.36 12.53 12.28 12.01
-10.51 -7.13 -6.44 -7.51 -13.25 -13.93 -15.44 -16.56 -13.80 -16.72 -15.41 -12.76 -10.32 -8.91 -7.84 -7.38 -6.96 -6.29 -4.56 -3.12 -1.02 0.08 0.87 2.19 4.03 4.86 6.11 9.50 8.98 9.25 10.29 10.50 10.77 12.13 12.00 11.56 10.74 10.65 10.52 10.28 10.27 10.48 10.49
-6.76 -6.55 -6.83 -9.11 -12.68 -14.45 -18.15 -18.74 -18.56 -16.67 -15.95 -12.74 -11.75 -11.19 -10.11 -9.14 -8.07 -7.38 -6.44 -5.14 -3.24 -1.57 -1.10 0.61 1.97 2.84 5.01 9.40 11.02 13.87 14.05 13.07 10.25 10.82 10.43 10.11 9.28 9.05 9.25 8.82 8.71 8.32 8.08

GFSGL_sfc_wetblb_021.txt.gz
Wetbulb
26.74 26.00 25.65 25.05 24.95 25.16 24.41 23.81 23.98 24.07 24.38 24.53 24.59 24.05 23.71 23.50 23.73 23.28 23.29 23.80 23.49 24.00 24.45 24.26 25.38 26.40 26.97 27.62 28.08 29.02 30.55 30.76 29.52 31.99 32.79 30.23 28.97 29.46 30.72 32.24 33.99 34.32 35.58
25.76 24.80 25.14 24.53 24.39 23.84 23.57 23.79 23.93 23.71 24.29 24.21 24.38 23.82 23.28 23.08 22.83 21.98 22.15 22.56 22.00 22.50 23.71 24.35 24.51 26.66 25.15 25.99 26.68 27.27 28.20 29.34 29.21 28.18 31.16 31.65 28.02 28.48 29.66 30.56 31.78 33.20 33.18
25.34 24.82 24.59 24.33 23.45 23.20 23.46 23.90 23.82 23.52 23.12 23.01 23.37 22.39 22.30 22.38 22.34 22.25 22.06 22.08 22.06 22.72 23.33 23.71 24.11 24.50 24.47 25.13 25.02 26.44 27.40 29.54 29.36 28.64 28.45 30.68 30.61 27.41 27.86 29.07 29.95 32.13 31.83
24.71 24.43 23.70 23.14 23.06 22.73 23.16 22.61 22.21 22.16 21.16 20.71 20.70 20.70 20.79 21.07 21.50 21.86 22.42 22.45 22.69 23.25 23.54 23.40 23.23 23.25 23.54 24.22 25.19 25.66 26.64 26.68 27.47 27.99 28.16 28.57 29.43 29.13 27.93 28.35 27.55 29.31 29.52
23.56 23.72 23.23 23.04 22.79 22.11 21.60 21.26 20.68 20.13 19.70 19.42 19.02 18.86 19.03 19.50 21.34 21.05 21.43 20.80 20.48 20.50 21.50 22.30 22.82 23.60 26.16 26.49 24.94 24.54 25.29 25.63 25.84 25.94 26.24 27.10 27.99 24.71 26.83 28.94 28.54 29.98 29.11
23.50 21.99 21.64 21.27 21.20 20.61 19.67 18.73 18.22 17.85 17.12 16.95 16.50 16.18 15.69 18.09 20.99 21.99 21.54 19.25 19.47 19.15 18.47 19.34 20.16 20.85 22.52 25.25 26.50 27.53 27.10 24.41 25.10 26.23 26.18 25.72 26.60 28.22 28.81 29.56 28.88 27.99 25.83
19.60 16.95 17.14 18.47 17.71 17.00 16.34 15.83 15.29 14.30 14.48 13.74 13.69 13.65 12.99 13.38 18.22 20.34 20.45 17.82 16.65 15.87 16.05 16.57 17.27 18.66 18.23 18.51 20.96 23.15 23.81 25.35 27.02 25.84 26.25 27.62 27.43 28.80 29.20 27.85 29.02 29.41 29.38
17.28 14.92 15.90 16.23 13.79 13.88 13.09 12.17 12.05 12.03 11.38 10.96 10.84 10.54 10.60 12.19 16.89 17.86 18.16 16.01 14.77 14.48 14.37 14.62 14.63 14.87 15.88 16.53 16.55 16.33 17.70 19.00 20.45 21.74 22.95 25.71 28.32 29.85 30.94 31.02 29.95 29.88 30.65
17.18 16.83 14.95 13.28 10.65 10.84 7.43 8.53 9.45 8.90 8.30 7.49 9.37 8.54 7.32 7.80 13.70 15.81 16.18 13.43 13.04 12.84 13.70 14.14 14.42 14.22 16.86 19.40 17.63 16.34 16.85 17.97 22.22 24.47 25.30 26.95 28.77 31.02 33.06 30.89 29.56 27.90 27.12
16.33 15.51 13.63 12.23 6.01 5.55 7.69 6.68 7.11 5.03 7.45 7.90 7.13 6.85 6.18 4.73 10.98 14.02 15.28 12.80 10.43 11.53 12.91 14.06 16.74 16.48 19.10 20.59 17.64 15.83 13.43 14.87 16.66 17.71 19.82 22.32 24.56 25.51 29.85 31.65 30.57 28.95 27.91
12.76 11.49 10.56 9.41 5.46 5.16 3.83 4.74 3.74 2.95 4.74 2.54 3.28 3.78 3.75 5.04 5.89 13.52 15.82 13.65 12.35 11.50 11.86 13.00 14.92 18.56 19.67 20.65 21.24 17.35 16.25 17.96 18.31 17.54 16.91 17.77 20.67 23.10 24.91 28.21 29.93 30.01 29.58
8.98 8.88 6.50 0.55 1.74 3.79 -5.40 -0.86 -1.53 -1.06 -1.20 -0.81 -0.54 0.73 3.70 5.62 9.58 12.82 15.61 17.41 18.07 14.29 13.26 14.11 14.58 19.04 20.53 21.68 21.36 22.47 23.89 23.52 20.17 17.98 15.80 15.47 17.26 20.98 23.73 26.56 29.27 30.31 31.89
3.70 2.06 -3.75 -1.48 0.84 0.72 -5.59 -1.28 -1.04 -2.73 -2.81 -0.95 0.71 0.58 2.07 5.90 7.13 12.94 16.08 17.67 18.57 16.16 16.21 17.83 21.33 22.35 23.08 21.77 21.83 21.71 19.86 16.67 14.70 11.99 11.11 12.54 15.18 18.08 21.63 25.34 28.56 30.05 30.36
-0.31 0.26 -0.71 -2.32 -2.03 -2.25 1.45 1.91 -0.33 -1.81 -1.60 -0.06 0.22 1.25 4.11 8.63 10.78 12.00 12.28 13.16 16.93 17.90 18.75 17.77 19.47 22.01 23.08 21.84 18.69 19.35 17.91 17.51 16.23 14.74 13.67 14.56 15.97 16.21 17.92 20.52 25.67 27.34 27.55
-1.05 0.59 -1.21 -2.89 -4.33 -1.43 0.13 0.45 1.28 2.77 4.03 4.30 7.65 9.82 9.04 8.31 10.62 17.24 18.10 16.56 16.69 18.25 19.40 16.73 12.91 12.08 11.62 12.73 14.71 14.15 13.59 13.53 12.30 12.67 12.54 12.66 13.66 14.39 15.23 18.82 25.33 26.88 25.83
-0.10 0.70 -1.36 -1.48 -1.52 -0.12 -0.59 -0.78 6.59 10.90 13.36 14.93 16.13 14.50 12.71 15.87 17.41 18.64 18.77 20.06 20.57 19.99 12.86 5.81 4.39 6.23 7.43 8.35 8.31 10.43 14.30 13.60 12.71 13.19 12.75 13.01 13.33 13.68 16.22 20.34 25.72 26.45 25.43
-5.46 -3.69 -3.46 -1.39 -2.58 -3.17 -3.38 -3.64 -4.72 0.85 9.67 11.00 12.04 13.56 14.24 15.47 16.01 17.24 18.50 17.72 16.07 12.48 1.62 2.07 2.90 4.26 4.97 6.24 7.63 8.99 9.53 13.86 15.41 14.03 14.16 14.66 15.92 16.98 18.22 21.31 22.47 26.48 25.91
-10.70 -6.01 -8.17 -5.96 -6.84 -7.38 -6.34 -5.18 -4.11 -4.67 -4.83 -2.15 4.86 8.65 11.74 12.87 14.63 15.60 14.53 9.60 -1.03 1.41 0.61 0.15 0.50 2.32 3.51 4.80 6.38 9.27 13.41 13.49 13.15 13.79 14.81 16.07 17.62 19.49 23.20 21.97 24.51 25.45 25.51
-10.53 -8.17 -8.88 -8.89 -8.71 -6.53 -5.32 -4.51 -4.61 -4.13 -3.91 -3.73 -2.43 2.42 3.78 9.44 12.40 10.73 10.29 -3.65 -1.68 -1.79 -0.71 -0.30 0.55 1.29 2.18 3.98 5.96 8.95 11.40 13.88 13.14 13.61 14.98 16.57 18.78 21.22 23.69 23.70 23.75 22.86 23.85
-13.68 -8.81 -7.64 -11.11 -10.28 -10.43 -7.43 -7.63 -5.73 -4.94 -4.98 -5.44 -4.73 -3.85 -1.34 3.65 -1.85 -2.40 -1.57 -1.19 -0.97 -0.91 -0.02 0.21 0.84 1.61 2.13 3.55 5.01 7.30 9.10 12.42 15.48 15.85 16.91 18.59 20.47 21.63 22.23 24.26 24.41 22.54 22.82
-13.88 -16.23 -9.29 -13.21 -16.67 -15.05 -12.91 -10.34 -6.89 -5.43 -6.82 -7.43 -5.81 -2.05 9.82 1.17 -4.12 -3.58 -2.93 -1.77 -0.83 -0.19 0.53 1.53 2.04 2.17 3.15 4.69 5.95 6.92 8.13 9.57 11.86 13.79 16.61 20.06 22.68 22.83 21.92 21.50 21.97 22.47 22.28
-14.51 -14.56 -20.09 -17.97 -14.76 -12.96 -13.37 -9.40 -5.87 -6.74 -8.90 -8.29 -5.97 -3.88 6.08 -3.98 -4.98 -4.79 -3.69 -2.90 -1.65 0.33 2.15 2.17 2.35 3.14 4.83 5.44 6.64 7.10 7.19 8.39 9.80 10.79 12.61 13.18 13.97 17.21 17.55 18.01 19.07 20.04 19.09
-14.00 -16.02 -17.24 -17.77 -15.19 -13.04 -12.76 -10.30 -8.55 -10.50 -11.82 -10.81 -8.75 -7.48 -7.49 -7.79 -7.51 -7.08 -6.39 -5.33 -3.83 -2.01 0.32 1.91 2.40 3.03 5.27 6.23 9.72 9.47 7.93 7.96 9.74 10.64 10.67 10.73 11.03 10.12 10.25 11.59 11.80 12.67 13.98
-16.67 -16.10 -14.14 -15.24 -15.17 -13.66 -10.70 -8.52 -9.28 -10.15 -11.79 -12.05 -14.82 -14.46 -10.13 -9.44 -9.92 -9.33 -8.11 -6.91 -5.64 -4.40 -2.11 -0.45 0.96 2.37 3.11 4.84 9.04 11.98 11.00 11.44 10.68 10.05 10.25 10.11 9.28 10.61 11.62 11.22 11.67 11.47 12.56
-20.46 -16.80 -14.55 -14.31 -16.67 -11.70 -9.88 -10.25 -11.77 -17.04 -16.65 -15.44 -15.06 -17.31 -13.70 -12.48 -10.88 -10.60 -9.32 -8.22 -7.29 -6.29 -4.81 -2.20 0.29 1.20 2.31 3.04 6.51 11.09 13.04 12.24 10.40 10.67 9.82 9.13 8.68 8.56 9.57 10.07 10.81 11.62 11.46
-8.79 -11.91 -13.77 -14.36 -13.11 -10.24 -9.85 -12.49 -13.91 -15.51 -16.15 -15.77 -16.33 -16.72 -15.52 -13.84 -12.15 -11.70 -10.79 -9.96 -8.96 -8.65 -7.52 -4.24 -2.56 -1.93 -0.52 2.90 4.76 12.66 13.50 15.75 10.77 10.55 9.58 9.19 8.07 8.17 8.43 7.82 8.12 8.60 8.89

GFSGL_sfc_wetblb_024.txt.gz
Wetbulb
25.78 24.79 24.47 24.00 23.40 23.33 23.22 22.87 22.91 23.16 23.19 23.31 23.65 23.25 22.78 22.29 22.19 21.18 21.05 21.65 21.02 21.44 21.76 22.19 23.11 23.76 23.90 24.60 25.14 25.31 25.56 25.90 24.86 26.91 29.76 31.48 30.31 30.37 32.63 31.49 31.85 32.41 33.75
24.29 23.98 24.56 23.62 23.53 22.91 22.63 22.90 23.14 22.67 23.34 23.13 23.18 22.66 22.23 21.88 21.76 21.02 20.78 20.73 20.25 20.72 21.48 21.86 22.02 24.40 22.63 23.33 23.78 23.77 24.26 25.17 24.75 23.22 26.45 27.79 28.63 30.61 29.41 29.77 31.69 31.68 31.91
24.25 23.69 23.55 23.53 22.93 22.61 22.71 23.05 22.99 22.33 21.76 21.63 21.21 20.36 20.14 20.27 20.18 20.29 20.62 21.26 21.38 21.48 21.84 21.73 21.82 21.91 21.59 22.08 22.31 22.65 23.50 25.27 24.88 24.25 24.38 27.40 28.29 29.10 29.08 28.89 29.01 30.34 31.07
24.07 23.55 23.19 22.81 22.64 22.02 22.15 21.75 21.12 20.61 19.27 18.69 18.86 18.85 18.84 18.86 19.30 20.21 20.60 20.14 19.83 20.34 20.68 20.75 20.79 20.92 20.84 20.87 21.54 21.87 23.15 23.44 24.30 24.08 24.06 24.61 26.04 28.04 26.49 27.27 28.06 27.59 29.16
23.08 23.10 22.92 23.24 22.03 21.11 20.29 19.30 18.77 18.52 18.09 17.84 17.27 16.80 17.11 17.45 20.11 19.39 19.64 19.12 18.58 18.48 18.98 19.38 19.64 20.32 22.51 22.52 21.19 20.77 21.58 21.58 21.76 21.82 21.65 23.04 24.23 24.96 25.10 27.48 26.80 28.38 28.84
22.68 22.62 22.22 21.06 20.79 19.41 18.43 17.72 17.28 16.64 15.72 15.50 14.88 14.25 13.54 16.34 19.51 21.22 21.19 18.53 17.66 16.67 15.71 16.52 17.04 17.29 18.78 20.81 21.84 22.67 22.42 19.82 19.27 20.41 21.59 22.10 23.54 25.47 27.28 26.79 27.02 26.52 25.27
20.88 18.40 18.03 18.14 17.15 16.11 15.52 15.14 14.54 13.36 13.39 12.52 12.35 12.20 11.54 12.11 18.18 20.35 20.28 17.43 16.19 15.33 14.96 14.77 15.07 16.57 16.04 16.05 17.70 19.58 19.94 20.77 21.96 19.28 17.49 18.32 19.34 22.26 24.56 26.28 27.77 27.01 26.95
18.65 15.80 15.71 15.66 13.42 13.39 12.40 11.62 11.54 11.34 10.52 10.01 9.96 9.67 10.11 11.48 16.91 18.09 18.80 16.21 14.30 14.14 14.13 14.18 13.85 14.02 14.80 15.59 15.64 15.83 16.81 17.92 18.99 19.33 18.30 18.20 19.19 20.32 20.49 21.82 23.51 26.35 28.58
17.49 16.62 14.83 13.05 10.25 10.27 6.78 8.04 8.84 8.12 7.68 6.63 9.40 7.45 6.61 7.43 13.85 16.58 16.67 13.99 13.56 13.20 13.89 14.12 14.07 13.75 16.46 19.20 17.32 16.18 16.58 17.40 21.01 22.69 23.37 24.26 25.04 25.66 25.72 23.41 21.08 21.08 21.21
16.62 16.53 13.88 11.62 6.33 5.45 7.87 6.09 6.32 3.37 7.42 7.76 7.27 6.50 5.93 4.39 11.04 14.74 15.97 13.99 11.50 12.37 12.96 14.23 17.23 17.39 19.93 21.33 18.24 16.62 14.55 15.68 16.77 16.25 17.40 19.36 21.36 20.57 23.32 21.10 19.60 17.61 19.83
13.83 11.78 10.18 9.40 5.28 4.53 3.53 4.03 1.01 -0.10 4.37 0.79 2.82 3.46 3.32 4.82 5.37 13.65 16.73 15.20 13.75 12.96 13.82 14.62 15.72 19.54 20.83 21.87 22.60 18.95 17.74 19.46 19.41 18.47 17.77 17.96 18.50 18.88 18.98 19.81 20.57 19.92 18.34
9.73 8.90 8.06 3.43 5.39 4.06 -5.39 -3.91 -4.54 -5.09 -3.95 -2.76 -1.91 0.26 3.70 5.68 9.75 13.30 17.05 18.78 19.28 15.14 14.30 15.66 16.40 20.67 22.76 24.31 23.96 24.62 25.06 23.97 20.21 17.43 15.80 14.97 15.33 15.92 17.35 18.60 19.93 21.29 23.09
5.25 4.60 2.21 3.03 3.44 3.80 -2.73 -0.60 -3.72 -7.19 -5.89 -2.13 0.56 0.76 2.51 6.51 7.57 14.59 17.40 18.44 19.52 17.14 17.64 19.27 22.06 22.47 22.99 22.04 21.46 21.94 20.36 18.40 17.89 16.27 14.97 15.30 16.30 17.20 17.90 17.31 18.10 18.41 19.09
-1.67 2.82 3.64 2.02 1.95 1.71 3.01 2.54 -5.29 -5.93 -2.85 -0.95 -0.58 0.26 2.55 6.72 10.92 11.49 12.25 15.32 18.71 17.43 18.40 17.57 19.01 17.67 17.18 16.48 12.51 14.10 13.68 13.79 13.96 14.00 14.16 15.89 17.57 17.61 16.36 16.31 14.01 14.22 13.59
-0.61 3.02 2.57 2.85 1.25 1.38 1.21 -0.24 0.75 1.64 2.26 -0.36 1.75 5.55 9.35 8.44 10.48 17.43 18.22 16.50 17.05 19.01 16.95 10.38 6.04 4.85 5.11 6.49 7.45 8.43 9.36 9.81 10.02 12.08 12.37 12.62 13.37 13.60 13.51 14.88 14.31 13.67 11.96
1.51 2.86 2.64 2.09 1.56 1.03 -0.34 -0.76 6.68 11.32 14.16 15.65 17.03 15.77 12.98 15.73 17.39 18.64 19.16 19.95 19.36 16.66 8.33 -0.22 0.04 1.31 2.13 3.26 3.74 4.72 6.62 7.85 9.50 11.20 11.67 12.26 12.04 12.59 12.81 13.71 14.29 13.20 12.08
-2.78 2.47 1.14 0.91 -0.67 -1.63 -3.27 -3.33 -4.73 -0.03 8.53 10.76 12.62 13.45 14.18 15.44 16.08 17.16 17.61 17.32 12.45 9.59 -6.52 -3.22 -1.92 -0.87 0.15 1.67 2.48 3.42 3.91 6.56 10.14 11.57 13.10 13.05 13.57 13.64 13.45 13.80 14.86 15.55 14.15
-2.61 0.13 -2.18 -1.59 -3.39 -6.04 -5.65 -5.77 -5.90 -6.75 -7.09 -4.61 3.14 7.41 11.23 12.37 14.30 15.55 14.39 8.17 -2.93 -2.19 -12.91 -4.08 -2.69 -1.08 -0.03 0.58 1.59 2.13 3.73 5.51 7.68 9.67 13.33 12.97 13.19 13.87 13.95 14.68 16.52 20.12 16.84
-3.39 -3.10 -3.56 -4.35 -5.93 -6.77 -6.47 -5.57 -6.28 -6.83 -6.47 -6.73 -4.73 0.33 2.15 8.23 10.91 10.42 8.90 -12.19 -6.56 -3.96 -2.61 -2.23 -0.75 0.02 0.66 1.36 1.95 3.01 4.21 5.48 7.33 8.81 10.93 13.96 14.08 14.35 14.89 17.16 19.63 21.69 22.25
-6.31 -3.27 -3.77 -9.20 -10.74 -10.56 -7.91 -8.45 -7.24 -8.35 -8.76 -9.27 -7.22 -5.44 -3.19 -2.87 -10.26 -10.73 -11.83 -13.24 -9.13 -4.01 -2.53 -1.81 -0.49 0.68 1.15 1.71 2.27 3.52 4.61 5.94 6.89 7.87 8.92 10.62 13.38 16.16 17.55 19.07 20.02 21.00 22.98
-9.47 -10.30 -8.46 -13.63 -14.27 -13.74 -13.72 -12.18 -8.93 -11.04 -9.98 -10.71 -6.95 -2.30 7.96 0.26 -8.21 -7.68 -7.93 -9.72 -9.00 -5.73 -3.98 -2.20 -0.81 0.26 1.54 2.12 3.21 3.44 5.12 6.55 7.60 7.87 8.32 9.13 10.71 11.27 14.16 16.81 19.70 21.68 20.37
-12.18 -13.37 -18.40 -16.35 -14.34 -13.78 -14.05 -11.37 -10.88 -11.29 -10.76 -8.51 -4.99 -4.18 4.40 -6.22 -7.08 -8.48 -8.45 -8.90 -7.72 -6.84 -4.61 -2.93 -2.01 -0.17 1.23 2.33 3.31 3.67 5.15 7.47 7.79 8.21 8.08 8.62 9.79 10.94 12.22 13.50 15.23 15.45 15.38
-9.76 -10.05 -10.78 -14.58 -15.75 -14.83 -15.26 -16.22 -14.71 -13.60 -11.03 -8.02 -7.42 -8.09 -9.46 -11.98 -12.50 -11.89 -10.76 -9.87 -8.92 -7.59 -6.31 -5.71 -4.23 -2.39 -0.14 2.25 3.19 4.58 5.18 7.99 10.21 9.30 7.63 7.71 8.71 9.88 10.77 11.30 12.04 12.60 12.50
-11.92 -11.16 -9.85 -11.75 -17.70 -16.04 -14.68 -14.57 -12.07 -9.35 -8.34 -7.81 -12.51 -13.85 -11.93 -11.73 -15.82 -15.08 -13.04 -11.09 -9.85 -8.94 -7.82 -7.19 -5.75 -5.22 -2.87 -1.80 1.15 3.09 5.30 8.60 12.29 9.10 8.58 7.68 7.83 8.82 9.19 9.76 10.66 11.73 12.93
-21.27 -16.18 -14.82 -14.66 -15.47 -11.87 -12.40 -11.63 -8.65 -8.39 -9.74 -10.56 -12.33 -15.92 -14.59 -15.95 -15.50 -16.32 -14.56 -13.49 -11.80 -10.64 -9.52 -8.74 -6.81 -6.08 -5.40 -4.75 -3.59 -1.24 3.13 9.19 9.72 9.08 7.93 7.87 7.67 7.97 8.14 8.40 8.79 10.31 11.04
-9.43 -9.00 -8.34 -8.94 -10.52 -11.11 -10.47 -8.65 -7.14 -7.63 -9.18 -11.72 -13.78 -15.27 -16.49 -16.63 -15.56 -15.08 -14.06 -14.13 -12.60 -11.55 -11.67 -9.38 -7.72 -8.81 -7.41 -4.80 -3.01 2.18 5.77 13.08 12.13 8.66 6.59 6.92 6.74 7.13 7.68 7.31 7.35 8.11 8.11

GFSGL_sfc_wetblb_027.txt.gz
Wetbulb
27.44 26.77 26.73 26.11 25.76 25.99 25.87 25.72 25.64 25.70 25.37 25.13 24.86 24.58 24.32 23.99 24.07 23.67 23.49 24.02 23.30 23.58 24.12 24.39 24.20 25.23 25.11 25.65 26.05 26.15 25.70 25.98 23.89 26.54 29.38 30.57 30.77 31.21 32.39 34.47 35.64 35.64 36.51
26.96 26.33 26.37 25.76 25.71 25.41 25.10 25.10 25.41 24.69 24.82 24.49 23.80 23.20 22.87 22.57 22.61 22.04 21.76 22.35 22.33 22.27 22.79 22.98 22.93 24.11 23.48 24.12 24.26 23.80 24.12 25.25 24.30 22.41 25.77 27.47 28.25 30.47 31.49 31.53 32.11 33.61 34.70
26.08 25.96 25.33 25.19 24.92 24.80 24.71 24.81 24.59 23.74 23.06 22.58 21.99 21.07 20.89 20.84 20.77 21.27 21.81 21.63 21.59 21.39 21.50 21.19 21.19 21.49 21.11 22.38 22.43 22.37 23.34 23.79 24.26 23.27 22.56 26.73 27.98 29.28 28.93 30.45 31.27 32.53 33.36
25.56 25.12 24.96 24.79 24.74 24.47 24.31 23.55 22.70 22.08 20.94 20.24 20.17 19.69 19.47 19.52 20.10 21.17 21.24 20.91 20.96 21.09 21.02 20.81 20.31 19.89 19.57 19.90 20.42 20.64 21.69 21.58 22.11 21.62 21.86 22.69 24.63 26.64 28.01 27.22 27.65 31.17 31.16
25.23 24.90 24.96 25.51 24.34 23.38 22.50 21.22 20.40 19.83 19.44 18.89 18.34 17.49 17.63 18.24 20.69 20.82 21.19 20.70 19.63 19.17 19.24 19.13 19.44 19.77 20.57 20.74 20.34 20.18 20.19 19.61 19.68 19.11 19.23 20.93 22.12 23.00 23.53 27.17 27.11 29.07 30.49
25.18 25.09 24.73 23.95 22.36 21.33 20.14 19.33 18.51 17.72 16.86 16.39 15.62 14.84 14.40 16.96 19.23 21.97 22.09 19.60 18.56 17.30 16.64 17.34 17.74 17.56 18.42 19.86 20.50 21.25 21.11 18.42 16.99 17.56 17.84 17.22 18.20 19.50 21.66 22.04 22.82 22.76 22.44
23.33 21.64 21.64 21.29 20.57 19.13 17.72 16.82 16.09 14.81 14.50 13.59 13.38 13.16 12.61 13.22 18.41 20.97 20.96 18.76 17.52 16.32 15.45 15.38 15.56 16.78 16.52 16.16 17.49 19.09 19.34 19.97 21.25 19.51 17.72 17.72 17.69 18.75 19.29 18.57 18.97 19.53 19.62
22.14 20.57 18.94 18.83 17.06 15.32 14.12 13.50 13.09 12.87 11.97 11.55 11.31 11.14 11.51 12.29 17.31 18.98 19.80 17.64 15.79 15.38 15.35 15.16 14.70 14.92 15.77 16.43 16.32 17.15 17.69 18.41 19.03 19.73 19.31 19.53 20.23 21.26 21.06 20.82 20.42 20.76 22.13
21.05 20.17 18.39 16.93 13.93 13.14 10.75 10.69 10.81 10.20 9.80 9.27 11.43 9.42 8.21 8.68 14.05 17.82 18.12 16.07 14.60 14.23 15.26 15.77 15.61 15.33 17.49 20.06 19.30 18.59 18.68 19.08 22.13 23.68 24.24 24.88 25.43 25.84 25.34 22.92 19.86 18.38 16.81
20.35 19.64 16.75 14.19 10.20 9.01 10.54 8.84 9.00 7.38 9.48 9.36 8.48 8.04 6.84 6.27 11.59 15.62 17.12 16.24 14.01 14.63 15.69 15.93 18.46 18.90 21.30 22.47 20.01 18.84 16.68 17.94 19.25 19.44 20.14 21.59 23.07 22.85 24.43 22.92 21.08 16.99 16.68
17.07 15.27 12.98 11.84 8.89 8.54 6.90 7.45 5.22 4.46 5.92 2.58 4.21 4.92 4.90 6.28 7.22 14.68 17.52 16.81 16.02 15.79 16.65 16.85 17.58 20.50 21.94 23.20 24.04 21.79 21.35 23.04 23.91 22.96 21.95 22.17 22.07 21.77 21.30 21.20 21.23 19.88 17.28
13.10 11.33 9.40 6.01 8.79 6.83 1.39 2.37 1.42 1.15 0.95 0.59 0.80 2.91 6.07 7.32 10.75 14.41 17.84 19.78 20.45 17.37 16.65 17.57 18.21 21.70 24.37 24.53 22.57 22.46 22.71 22.00 18.55 16.69 16.43 17.18 18.45 19.30 20.34 21.04 21.80 21.90 22.05
8.79 5.95 3.71 3.59 4.84 3.82 0.14 1.84 2.98 0.89 0.50 1.21 3.12 3.37 4.84 8.18 9.34 14.51 17.34 18.83 20.04 18.58 19.04 19.94 22.40 20.57 20.07 17.38 17.53 18.65 17.16 14.44 13.31 12.21 12.29 13.73 16.41 18.62 20.15 20.67 21.20 21.06 20.72
4.25 4.39 3.77 2.80 3.87 2.31 5.53 4.54 2.31 1.35 1.91 2.28 1.27 2.16 4.03 6.38 8.61 13.14 13.38 14.98 19.22 18.86 19.83 15.29 15.11 13.22 13.02 12.60 9.98 11.65 11.12 11.34 10.48 9.84 10.52 12.98 15.22 15.68 15.58 17.38 16.58 17.63 16.77
3.98 4.82 4.46 2.98 2.15 4.30 4.74 4.35 4.59 4.86 3.80 -1.77 0.16 2.72 4.51 6.09 11.75 17.29 18.86 17.89 18.91 18.83 13.61 6.08 3.55 3.84 3.74 4.95 5.89 6.43 7.82 8.35 7.93 9.27 9.67 10.63 12.03 13.12 14.07 16.19 15.83 15.63 14.00
3.88 3.57 3.14 3.39 2.77 3.46 3.13 3.06 8.08 11.89 14.20 16.02 17.49 16.91 15.79 17.43 17.89 18.68 19.51 20.25 19.94 16.63 3.79 -1.11 -0.39 0.68 1.06 2.13 2.60 3.44 5.14 5.52 6.84 7.85 8.11 9.74 10.75 13.18 14.05 15.17 15.68 14.93 13.63
2.14 3.01 2.91 3.23 1.86 1.24 0.69 0.26 -0.99 2.82 8.29 10.90 12.87 14.60 15.71 15.58 17.04 17.14 18.30 18.17 13.48 9.79 -2.18 -2.23 -1.89 -0.83 0.27 1.64 2.33 2.98 2.96 4.96 6.26 6.90 7.83 9.09 10.21 13.16 13.87 13.84 14.32 14.74 14.50
-5.84 0.28 -0.42 -0.27 -0.57 -1.27 -1.54 -1.95 -1.53 -3.16 -6.22 -3.47 2.78 7.24 10.71 13.73 13.78 15.63 15.60 9.21 -2.33 -2.06 -4.64 -3.74 -2.57 -0.95 0.42 1.29 2.23 2.65 3.34 4.33 5.45 6.78 7.79 8.70 9.94 11.15 11.83 13.78 14.49 14.47 15.61
-5.01 -3.89 -3.29 -3.38 -3.66 -2.81 -2.39 -3.01 -3.04 -4.90 -5.20 -5.96 -4.74 0.26 2.42 7.48 10.98 11.34 8.46 -3.81 -6.70 -5.45 -3.81 -3.03 -1.64 -0.90 0.39 1.52 2.14 2.68 3.27 3.93 4.97 6.20 8.03 8.43 9.28 10.10 10.19 12.26 14.19 15.81 17.84
-9.60 -3.83 -4.27 -6.33 -6.10 -5.78 -4.86 -5.90 -5.15 -6.08 -6.37 -7.15 -6.12 -5.20 -5.42 -5.17 -3.15 -3.53 -7.08 -8.38 -8.24 -7.04 -4.86 -4.46 -3.02 -1.65 -0.38 0.65 1.75 2.48 3.22 3.95 4.81 6.88 8.32 8.97 9.26 9.83 9.61 10.75 12.20 13.56 16.03
-11.07 -10.34 -6.42 -9.00 -8.60 -10.62 -9.96 -6.66 -5.58 -7.46 -8.03 -7.94 -7.25 -3.30 5.99 4.62 -2.04 -4.63 -7.52 -7.85 -8.61 -7.73 -6.50 -5.67 -4.59 -3.35 -2.10 -0.29 0.66 1.81 2.06 3.21 4.79 6.44 8.82 9.42 8.63 7.89 9.56 11.25 12.11 13.53 15.52
-15.19 -14.18 -13.14 -11.94 -9.00 -9.01 -9.30 -7.79 -8.35 -9.50 -8.43 -8.25 -6.07 -4.51 5.78 -2.00 -3.98 -6.20 -6.74 -7.65 -8.46 -8.45 -7.53 -6.90 -6.16 -4.91 -3.83 -2.47 -0.61 0.61 0.76 1.89 4.13 5.83 8.49 8.37 7.88 8.46 9.35 10.12 11.19 12.64 14.12
-11.44 -10.02 -12.57 -13.37 -11.63 -10.58 -10.22 -10.31 -10.38 -11.59 -10.57 -10.54 -8.69 -6.93 -6.72 -6.90 -7.41 -8.76 -9.06 -9.67 -9.82 -9.09 -7.61 -8.77 -7.51 -6.88 -4.34 -3.29 -1.65 -0.86 -0.10 0.77 4.45 5.17 8.54 7.66 7.20 7.64 8.56 8.97 10.09 11.18 12.73
-14.91 -15.65 -14.24 -13.97 -12.29 -9.58 -8.60 -8.38 -9.27 -9.34 -9.92 -9.72 -11.07 -10.53 -8.36 -7.68 -9.86 -11.74 -11.49 -11.02 -10.90 -10.28 -9.73 -9.53 -8.55 -8.39 -7.41 -5.87 -3.83 -2.44 -1.57 0.46 4.11 6.82 9.48 7.53 6.74 7.41 7.90 8.31 9.06 10.11 11.89
-22.47 -18.60 -15.58 -13.40 -16.32 -13.88 -13.93 -9.21 -8.01 -8.71 -9.03 -8.35 -7.78 -8.01 -8.41 -10.41 -12.16 -13.18 -13.41 -13.58 -13.44 -11.90 -10.91 -10.35 -9.00 -8.45 -8.68 -7.77 -7.28 -6.60 -3.64 -0.01 4.52 10.91 8.09 6.79 6.15 5.44 6.51 7.40 7.50 9.00 9.28
-19.11 -18.00 -14.93 -9.93 -8.29 -8.05 -9.60 -8.44 -7.25 -6.38 -5.73 -5.65 -6.36 -7.68 -10.10 -12.02 -12.77 -13.42 -14.45 -15.74 -14.00 -12.54 -12.90 -11.16 -9.99 -10.44 -9.96 -7.20 -5.87 -1.95 1.56 7.10 12.96 9.11 5.57 4.96 4.69 5.36 5.91 5.59 5.92 7.23 7.45

GFSGL_sfc_wetblb_030.txt.gz
Wetbulb
33.24 33.11 32.60 32.30 32.40 32.70 32.29 32.03 31.73 31.29 30.97 30.20 29.56 29.17 28.64 28.33 28.28 28.35 27.98 27.91 27.06 27.51 28.44 27.82 27.67 28.47 28.25 28.70 28.86 28.65 28.03 27.87 25.12 28.25 30.16 31.56 31.12 31.20 32.65 33.68 34.74 34.46 36.22
33.36 32.51 32.21 32.22 32.10 32.12 31.86 31.51 31.19 30.40 29.68 28.96 28.08 27.64 27.12 26.74 26.65 26.19 25.82 26.16 25.59 25.64 26.03 25.85 25.82 26.30 25.78 26.67 26.85 26.18 26.18 26.68 24.78 23.31 26.45 27.57 28.42 30.15 31.07 30.94 31.84 32.73 33.85
32.68 32.26 31.72 31.54 31.75 31.78 31.04 30.46 29.91 29.02 28.30 27.26 26.50 25.79 25.26 25.04 24.78 25.06 25.31 25.08 25.15 25.16 25.14 24.53 24.48 24.35 23.37 24.26 24.18 23.86 24.39 24.56 24.45 23.69 23.40 25.59 26.81 28.23 28.42 29.33 29.81 31.00 32.82
31.98 31.65 31.21 31.45 31.48 31.26 30.51 29.46 28.43 27.60 26.66 25.68 25.09 24.34 23.87 23.64 23.67 24.46 24.48 24.72 24.83 24.80 24.58 24.09 23.45 22.77 22.14 22.04 21.74 21.91 22.42 22.26 22.39 22.06 22.45 22.82 23.30 25.03 25.86 25.78 26.75 29.63 29.56
31.20 31.09 31.24 31.38 31.08 30.37 28.79 27.49 26.01 25.11 25.22 24.42 23.51 22.40 22.30 22.20 23.59 23.69 24.22 24.17 23.49 23.04 23.14 22.81 22.80 22.31 21.13 21.36 20.62 20.84 20.65 20.23 19.70 19.17 18.99 20.39 20.54 21.12 20.45 22.83 22.42 24.49 25.97
31.32 30.62 31.60 30.49 28.86 27.44 26.72 24.89 23.74 23.04 22.24 21.62 20.72 19.96 19.63 21.04 19.86 21.96 23.05 22.62 22.11 21.21 20.68 21.12 21.31 20.62 20.96 21.10 21.25 21.69 21.27 19.42 18.02 18.62 17.87 17.20 18.47 20.38 21.73 21.23 20.73 19.93 18.48
29.87 29.75 28.77 28.62 27.02 26.28 24.83 22.86 21.83 21.21 21.05 19.62 19.20 18.76 18.27 18.78 18.38 21.30 21.73 21.28 20.97 20.61 19.45 19.08 19.12 20.03 19.74 19.32 19.81 20.65 20.86 21.55 22.32 20.40 18.66 18.42 18.73 20.15 20.90 19.65 19.75 20.16 20.28
29.28 28.82 27.72 27.12 26.20 24.57 21.98 20.82 20.82 20.06 18.96 18.51 18.10 17.40 17.24 17.59 17.84 19.31 20.61 20.71 20.08 19.55 19.14 18.70 18.29 18.58 19.41 19.08 18.84 19.23 19.54 20.62 21.23 21.64 21.30 21.52 21.97 22.99 22.67 22.38 22.00 22.13 23.16
28.05 27.96 26.97 25.95 24.28 22.04 19.60 19.31 19.32 18.44 17.57 16.96 16.78 16.00 14.49 15.00 15.85 18.11 19.15 19.42 18.89 18.31 18.85 19.19 19.19 18.47 20.07 22.33 21.45 20.50 20.82 21.51 24.10 25.12 25.62 26.28 26.79 27.17 26.72 24.89 22.76 21.58 19.82
27.23 27.38 26.46 25.02 22.36 20.14 19.36 17.77 18.22 16.98 16.20 15.87 15.44 14.91 12.86 11.70 14.22 16.54 18.64 19.24 18.02 18.49 19.24 19.84 21.38 21.21 22.41 23.49 21.86 21.32 19.85 21.56 23.22 23.91 24.25 24.94 25.56 24.96 25.53 24.52 22.90 19.15 18.99
26.64 24.61 22.74 21.85 19.60 19.13 17.58 16.80 15.00 14.12 13.56 12.58 11.71 12.88 11.50 11.58 12.66 15.98 18.42 18.93 18.70 18.77 19.38 19.42 20.23 21.96 23.02 24.44 25.15 22.39 20.27 22.17 21.08 20.31 20.74 21.08 21.42 22.10 22.96 24.17 24.03 22.04 19.28
23.21 21.37 19.47 17.28 17.50 15.59 13.40 13.23 11.40 11.31 10.14 10.70 11.03 12.13 13.86 12.68 13.33 16.37 18.39 19.97 20.85 19.26 18.62 19.58 20.44 22.97 22.02 22.02 20.76 20.45 20.69 20.08 17.51 16.56 16.52 16.69 17.52 18.61 19.79 21.15 22.34 23.30 24.13
19.00 17.49 15.65 14.12 14.61 13.36 11.36 11.22 11.50 11.18 10.94 12.70 12.41 13.15 13.57 13.87 14.87 16.11 17.67 18.87 20.39 19.75 20.26 21.25 20.85 19.53 17.80 16.16 16.68 17.01 15.24 13.53 12.97 12.50 12.13 13.27 15.24 17.12 17.62 17.99 19.65 20.91 21.55
16.97 14.95 13.18 11.20 11.90 10.66 12.08 12.27 12.14 12.56 12.31 12.40 12.28 12.17 12.79 13.45 14.59 15.82 17.23 18.43 19.88 20.50 20.95 16.55 15.55 14.32 13.94 13.60 11.69 12.50 11.76 11.41 10.10 9.65 10.82 12.89 14.32 14.76 14.98 16.65 16.19 17.43 17.37
15.94 14.24 14.31 13.54 11.12 12.69 12.06 13.32 12.54 13.46 13.44 12.31 11.82 12.16 12.97 13.67 15.18 18.04 19.67 19.18 20.45 20.87 16.06 12.90 10.43 9.36 8.69 9.45 9.73 9.67 10.32 10.29 9.35 10.22 9.95 10.05 11.19 12.27 13.56 16.02 16.92 17.37 15.77
15.23 14.28 15.01 14.25 12.89 12.43 12.31 11.87 14.24 15.40 16.10 17.64 19.04 18.61 17.93 18.32 20.11 19.08 19.70 20.39 20.65 17.49 12.71 8.07 6.65 6.87 6.52 6.96 7.07 7.60 8.82 8.60 9.29 8.79 8.64 9.51 10.00 10.77 11.82 13.48 15.45 16.29 15.45
16.85 15.25 14.18 11.90 12.25 11.45 10.42 10.16 10.06 11.81 12.69 14.36 15.57 16.17 16.83 17.47 17.46 17.73 18.63 19.13 14.96 12.02 7.07 5.12 4.75 5.20 5.38 6.08 6.69 6.94 6.74 8.29 8.44 8.63 8.64 9.22 10.00 10.66 10.74 11.57 12.95 13.93 15.36
11.26 8.89 12.54 12.09 11.45 10.92 9.89 9.26 8.14 7.08 6.71 7.90 8.82 9.52 11.24 13.61 15.71 15.70 16.74 15.55 8.24 5.86 3.64 3.02 3.12 3.95 4.59 4.91 5.63 5.79 6.28 7.14 7.17 7.86 8.09 8.72 9.60 10.38 10.17 10.36 11.50 11.43 13.02
8.23 9.30 8.62 8.80 7.89 7.10 7.10 6.24 5.60 5.13 4.29 3.78 4.55 6.64 6.49 8.03 10.54 13.01 11.72 6.41 3.00 1.60 2.21 2.43 3.29 3.14 3.39 4.01 4.47 5.02 5.30 5.50 6.11 6.42 7.78 8.78 10.19 10.88 10.21 10.40 10.92 10.46 11.54
3.88 2.07 3.44 5.78 5.43 4.27 4.38 3.60 3.53 3.24 2.58 2.27 2.78 3.54 4.47 1.74 3.34 5.37 4.88 2.62 1.33 0.89 1.12 0.70 1.47 1.74 2.03 2.35 3.07 3.94 3.96 4.69 5.53 6.62 7.54 8.76 9.90 11.43 10.02 9.68 10.25 10.51 11.54
3.72 3.14 0.80 2.68 2.28 2.64 2.02 1.31 1.77 1.82 1.12 1.25 1.76 3.41 6.19 3.96 5.92 5.26 3.74 2.14 1.43 0.62 0.17 0.17 0.44 0.71 0.87 1.10 1.60 2.31 2.72 3.23 4.55 5.66 6.86 8.46 8.46 9.38 10.18 10.60 10.64 11.19 11.88
0.61 0.62 -0.16 -0.58 0.60 0.46 0.36 0.39 0.22 0.13 0.27 -0.12 0.89 2.20 6.06 4.83 4.93 3.08 1.84 1.13 0.71 -0.26 -1.00 -1.44 -1.14 -0.24 0.00 -0.18 0.34 0.79 1.01 1.41 2.83 4.89 5.88 6.36 7.84 10.12 9.96 9.82 9.94 10.77 11.63
-1.60 -1.42 -0.93 -1.41 -1.62 -2.86 -2.83 -2.04 -1.61 -1.46 -1.63 -1.16 -0.83 -0.65 -0.04 0.02 0.19 0.09 0.03 -0.60 -1.79 -2.51 -2.03 -2.13 -2.36 -2.52 -0.92 -0.49 0.67 0.70 -0.21 0.02 2.06 3.29 2.75 4.93 8.15 9.48 9.20 9.08 9.46 9.37 10.45
-0.88 -1.07 -1.24 -1.02 -1.35 -1.65 -1.78 -1.61 -1.07 -2.79 -3.04 -2.04 -1.68 -1.65 -1.59 -1.02 -0.95 -1.05 -2.15 -2.84 -3.65 -3.92 -3.53 -3.96 -4.19 -4.11 -3.69 -3.45 -1.22 0.10 0.77 0.74 2.09 2.10 3.22 5.93 9.04 8.81 8.27 8.06 8.57 8.84 10.00
-1.86 -1.93 -2.38 -2.52 -2.93 -2.96 -2.98 -2.75 -2.58 -2.16 -1.95 -1.45 -1.43 -1.13 -0.68 -1.17 -2.15 -2.64 -3.33 -4.60 -6.21 -6.36 -5.70 -5.22 -4.74 -4.22 -4.40 -4.96 -4.83 -4.26 -3.17 -1.58 -0.73 3.30 8.03 10.38 8.60 7.29 7.84 7.76 7.63 8.29 8.62
-2.32 -3.10 -3.00 -2.91 -3.22 -2.83 -2.65 -2.76 -2.44 -1.90 -1.89 -1.05 -0.48 -0.60 -0.99 -1.98 -2.88 -3.91 -5.00 -6.36 -7.18 -6.86 -6.57 -5.66 -5.38 -5.97 -6.10 -4.91 -3.80 -1.87 -0.69 3.45 5.92 10.21 10.34 10.18 8.30 8.11 8.00 7.35 6.83 7.65 7.35

GFSGL_sfc_wetblb_033.txt.gz
Wetbulb
35.45 35.15 34.78 34.28 34.38 34.46 34.14 33.75 33.31 32.88 32.48 31.72 31.40 30.89 30.27 29.78 29.42 29.48 29.04 28.44 27.73 28.19 28.89 28.13 27.67 28.51 27.61 27.82 28.16 28.08 27.32 26.88 23.19 25.30 27.84 29.12 28.32 28.36 29.45 30.27 30.53 29.85 31.21
35.06 34.53 34.09 33.82 33.74 33.54 33.24 33.29 33.40 32.06 32.02 30.73 29.96 29.41 28.79 28.33 28.13 27.44 26.95 27.28 26.33 26.11 26.65 26.33 26.07 27.04 25.72 26.12 26.25 25.33 25.07 25.50 23.32 21.03 23.96 24.59 25.29 26.23 26.64 26.62 28.66 30.37 29.52
34.71 34.04 33.36 32.98 32.96 33.10 33.04 32.64 32.54 31.38 30.29 28.88 28.57 27.81 27.22 26.90 26.48 26.51 26.37 26.06 26.06 26.03 26.06 25.35 24.95 24.75 23.59 24.13 23.74 23.16 23.33 23.71 23.01 21.58 20.84 23.80 24.08 24.82 23.88 24.97 25.44 26.25 29.11
34.34 33.30 32.84 32.60 32.89 33.33 32.59 31.56 30.88 30.44 29.06 28.08 27.47 26.63 26.04 25.69 25.29 25.38 25.32 25.49 25.79 25.87 25.92 25.37 24.54 23.56 22.72 22.31 21.41 21.39 21.89 21.28 21.30 20.15 19.78 19.92 20.82 22.51 23.06 21.52 21.28 23.76 23.48
33.45 32.72 32.63 33.08 33.18 32.94 31.13 30.18 29.07 28.27 27.98 27.27 26.10 25.18 24.76 24.11 24.38 24.81 24.80 24.80 24.42 24.24 24.43 24.17 23.99 23.85 22.96 22.68 21.13 20.78 20.49 19.15 18.70 17.80 17.18 17.77 18.26 18.66 18.65 20.89 20.08 21.11 22.02
32.87 32.10 32.88 32.13 30.93 30.06 29.00 28.08 26.67 25.72 25.06 24.08 23.01 22.73 22.27 23.32 24.00 22.72 23.75 23.17 23.28 22.68 22.15 22.88 22.74 22.61 22.37 23.10 23.09 23.28 22.31 18.94 16.91 17.04 17.08 16.23 17.53 18.92 19.81 19.38 19.36 18.12 16.03
31.12 30.42 30.11 30.39 28.74 28.15 27.87 26.28 24.92 24.27 24.15 22.91 22.29 21.90 20.94 21.60 22.87 22.33 23.61 22.24 21.80 21.90 21.72 21.05 20.80 21.53 21.35 20.44 21.51 22.50 22.50 23.03 23.91 21.24 18.66 18.59 18.38 19.81 20.09 19.03 19.07 18.93 18.49
30.51 29.97 29.31 28.80 27.55 27.34 26.04 24.50 24.09 23.91 22.57 21.52 21.20 21.01 20.41 20.54 22.10 21.95 22.25 21.07 21.23 21.37 21.08 20.54 19.73 19.66 20.42 20.44 19.84 20.03 21.03 21.83 22.05 22.16 21.31 21.25 21.67 22.24 21.84 21.32 20.63 20.98 22.38
29.46 29.50 28.52 28.03 26.96 26.01 23.91 23.13 23.43 22.65 21.60 20.94 20.70 19.33 18.35 18.57 20.89 20.90 20.69 19.98 20.19 20.35 20.86 20.74 20.32 19.86 21.54 23.59 21.69 19.60 20.17 21.20 25.14 27.21 27.36 27.53 27.46 27.91 26.82 24.30 21.13 18.57 17.00
29.22 29.53 29.04 28.17 26.61 25.03 23.98 22.59 23.15 22.22 21.41 20.63 19.63 19.13 17.50 15.97 18.73 20.08 20.15 19.42 18.37 19.41 20.55 21.20 23.04 22.76 23.81 24.42 22.13 21.55 18.99 18.61 19.60 20.06 20.66 21.42 22.89 22.75 24.75 22.43 20.47 17.32 17.73
28.33 27.31 26.69 26.49 25.30 24.81 23.53 22.84 20.97 19.49 18.79 17.41 16.77 17.01 16.21 15.45 14.76 19.25 20.64 19.07 18.92 19.02 19.45 20.12 21.22 23.00 23.74 24.50 23.95 19.13 17.36 20.02 18.85 16.28 15.45 16.06 17.40 18.58 19.74 21.13 21.85 20.05 17.55
26.12 24.64 23.28 22.67 23.02 22.38 20.04 19.24 18.08 17.09 15.41 14.33 14.30 14.77 16.32 15.53 15.92 17.52 20.29 21.53 21.66 18.93 18.44 19.85 20.36 22.74 22.81 22.45 20.19 20.09 20.40 18.31 12.70 12.30 11.73 12.13 13.31 14.35 16.64 17.89 18.76 18.88 19.29
22.52 20.95 20.26 19.42 20.33 19.14 17.13 16.60 14.96 14.85 14.99 15.27 15.50 15.39 16.60 17.68 15.95 18.88 20.16 21.09 21.35 19.68 20.21 20.96 23.12 20.48 19.94 17.57 17.42 17.76 15.35 12.11 10.71 8.93 8.58 10.08 12.66 14.34 15.21 15.13 16.51 17.44 18.03
20.56 19.12 18.11 16.32 17.29 15.93 16.93 17.24 16.12 16.34 15.06 15.15 16.05 15.89 16.47 16.52 15.95 17.03 17.10 17.72 20.05 20.77 21.46 18.56 16.93 17.43 16.62 15.56 12.83 13.46 12.55 11.65 10.06 9.21 9.96 11.36 12.27 11.39 10.95 12.93 12.48 13.67 13.52
20.49 18.58 18.75 17.35 15.56 15.62 15.70 16.59 15.91 17.28 18.24 16.49 16.68 16.50 14.94 14.55 17.16 18.91 18.63 18.85 19.09 20.34 20.72 14.76 11.71 10.79 9.69 10.06 10.23 10.12 10.81 10.60 9.37 10.13 9.10 8.16 8.79 9.88 10.23 11.81 12.01 11.68 10.58
19.73 18.66 19.14 18.22 16.56 16.77 16.07 14.74 19.42 19.73 19.27 19.48 19.39 16.63 16.89 19.37 20.81 21.50 22.51 21.63 22.10 19.91 13.24 9.07 8.71 8.12 7.44 7.77 7.41 7.72 8.81 8.69 9.27 8.57 7.38 8.51 7.92 8.14 8.56 9.64 10.89 10.15 9.43
20.96 20.14 19.30 16.70 17.19 15.68 14.90 14.55 13.86 16.91 19.35 19.99 20.39 20.84 20.88 20.38 20.49 20.77 20.62 20.60 19.58 13.02 7.73 7.06 6.16 6.07 5.96 6.83 6.78 6.86 6.40 7.81 7.96 7.43 7.46 7.12 7.29 7.21 7.58 8.30 9.23 9.58 8.79
17.22 12.44 17.64 15.61 16.22 15.45 14.58 14.03 13.36 11.96 11.40 12.06 15.38 15.22 15.80 16.53 17.07 17.98 19.24 18.59 12.52 9.16 4.62 3.70 3.39 4.04 4.91 5.10 5.31 5.22 5.45 5.68 5.49 5.73 5.39 5.30 6.34 6.81 6.96 7.28 8.66 8.07 7.95
13.41 13.04 12.78 13.31 12.40 11.00 11.21 10.46 9.66 8.67 8.04 7.88 8.32 9.60 10.99 13.25 14.24 15.18 16.66 10.49 6.69 3.78 3.01 2.92 3.09 3.15 3.64 3.40 3.38 3.54 3.36 3.40 3.87 3.33 4.12 5.00 6.15 6.19 6.25 7.13 8.19 7.95 8.14
7.05 5.78 7.62 8.90 8.54 6.84 7.18 6.78 6.37 6.32 6.12 5.85 5.30 5.66 7.59 2.21 2.85 5.54 7.31 6.45 4.05 2.65 2.51 1.50 1.13 1.75 1.69 1.17 1.20 1.32 1.46 1.75 2.36 2.81 3.18 4.19 5.44 6.44 5.81 6.16 7.81 7.44 7.37
7.34 5.25 4.18 5.32 5.24 5.32 5.29 4.80 4.74 4.40 3.70 3.84 4.36 6.28 9.88 3.37 3.21 5.05 6.27 6.29 4.59 2.39 1.44 0.67 0.22 0.78 0.21 -0.12 -0.66 -0.52 -0.26 0.70 0.97 1.18 2.06 3.07 4.42 3.50 4.97 7.84 8.18 8.06 8.09
4.52 4.16 3.18 2.54 3.24 3.03 2.83 3.23 2.76 2.24 2.00 1.82 2.74 4.12 9.11 6.50 6.46 6.90 7.00 5.90 3.91 2.96 -0.08 -2.28 -1.74 -0.73 -0.91 -1.54 -1.91 -1.67 -1.96 -1.68 -0.96 0.11 0.89 1.51 1.50 2.76 4.45 7.57 7.10 7.04 7.28
2.10 1.77 1.44 1.19 1.00 -0.03 -0.96 -0.57 -0.32 -0.06 0.22 0.49 0.67 0.74 0.86 0.79 1.78 2.54 2.51 2.92 2.63 1.19 -1.92 -2.94 -2.30 -2.37 -2.29 -3.01 -1.76 -1.33 -2.13 -2.65 -1.96 0.17 -0.61 -1.09 -0.05 1.37 5.42 6.72 5.93 5.41 5.82
1.72 1.35 1.12 1.11 0.91 0.31 -0.08 -0.40 0.02 -1.91 -1.30 -1.55 -1.47 -0.84 -0.38 0.60 1.13 1.58 2.19 2.38 0.92 -0.62 -3.87 -4.64 -3.88 -5.45 -5.37 -5.87 -4.08 -3.25 -2.41 -1.87 -1.36 -0.80 -0.56 -0.79 -1.19 2.36 7.24 5.68 5.31 5.40 5.00
0.29 0.02 -0.30 -0.31 -0.91 -1.00 -1.17 -1.22 -0.97 -1.15 -0.97 -0.66 -0.57 -0.05 0.80 1.05 1.04 1.18 1.37 0.65 -1.64 -3.60 -5.86 -5.40 -4.71 -6.04 -7.04 -8.25 -7.47 -7.72 -5.76 -2.94 -4.84 -2.78 -1.50 0.02 3.10 7.25 6.06 5.25 3.84 4.27 4.20
0.05 -0.54 -0.66 -0.70 -1.42 -1.54 -1.62 -1.55 -1.46 -1.17 -1.53 -1.06 -0.58 0.03 0.79 0.67 0.64 0.51 0.03 -1.51 -3.74 -4.99 -7.81 -5.83 -6.12 -7.69 -8.37 -7.59 -7.55 -5.44 -3.98 -0.18 -0.70 1.86 6.15 9.15 8.75 4.96 0.09 0.01 0.14 2.05 1.51

GFSGL_sfc_wetblb_039.txt.gz
Wetbulb
31.86 30.71 30.23 29.75 30.00 29.53 28.37 27.60 26.73 26.24 26.21 26.08 25.88 25.20 24.68 23.98 23.95 22.97 22.71 22.93 22.69 22.53 22.43 22.35 22.18 22.24 20.84 20.43 20.68 20.84 20.53 19.66 17.19 19.59 20.28 22.13 21.17 20.96 22.36 22.88 23.54 22.82 23.70
31.00 30.16 29.12 29.15 28.54 27.93 27.48 26.51 25.97 26.15 26.03 25.68 25.36 24.59 23.93 23.49 23.32 22.74 22.74 22.51 21.94 22.16 22.41 22.11 21.47 23.94 20.28 19.87 19.31 18.75 18.55 18.67 17.28 16.65 19.04 19.48 19.48 20.37 20.40 19.77 22.42 24.04 22.56
29.95 29.04 27.75 27.39 26.99 26.91 26.46 26.35 25.92 25.30 24.78 24.66 24.25 23.32 23.12 22.98 22.75 22.70 22.90 22.71 22.58 22.55 22.38 21.92 21.45 21.05 20.42 19.67 18.57 17.74 17.87 19.99 18.01 17.70 16.94 19.09 19.15 19.80 19.20 20.34 20.57 21.08 23.56
29.28 28.27 27.22 26.95 26.90 26.96 26.53 26.02 25.71 25.17 24.32 23.13 23.09 22.95 22.88 22.61 22.82 22.63 22.52 22.32 22.21 22.64 23.03 22.63 21.91 20.95 20.21 19.21 19.01 18.73 19.58 18.41 18.36 17.39 16.88 17.10 18.02 19.83 19.62 18.31 18.56 20.89 20.69
29.08 27.70 27.27 26.74 26.58 26.01 26.04 25.92 25.49 25.25 23.51 22.99 22.33 22.02 21.91 22.02 22.85 21.73 22.39 21.84 21.58 21.28 21.91 22.46 22.00 21.70 24.10 24.01 21.11 19.47 18.99 16.88 17.26 16.53 16.33 17.02 17.15 17.97 17.82 19.53 18.47 19.57 20.57
28.73 27.72 26.93 26.78 26.89 26.61 26.53 26.46 25.44 24.03 22.85 22.31 21.50 20.89 19.98 22.76 26.65 27.62 23.72 21.75 22.41 21.83 20.65 20.89 21.17 21.16 21.90 24.69 25.11 25.38 24.22 17.24 4.81 8.41 17.44 17.37 18.43 18.51 19.73 19.22 18.85 17.72 16.10
27.85 26.84 26.60 26.99 26.70 26.46 26.43 25.57 23.77 22.87 21.79 20.97 20.33 20.12 19.72 20.08 27.68 28.22 27.23 22.57 21.78 20.79 20.40 20.65 20.96 21.33 19.92 19.41 21.33 23.36 23.41 23.80 24.71 22.37 19.42 18.80 18.85 20.80 20.43 19.81 20.03 18.76 17.46
27.47 27.11 26.44 27.24 26.64 25.59 24.98 23.57 21.93 21.35 20.75 20.19 19.63 19.46 19.25 19.73 26.89 28.19 27.56 21.94 20.60 20.14 19.77 19.90 19.57 19.41 19.26 19.24 18.81 18.43 19.21 19.98 20.98 22.12 22.55 21.31 20.68 22.04 20.89 18.96 17.43 16.52 16.98
27.66 27.78 27.64 27.37 26.23 24.45 23.66 22.16 21.14 20.69 19.03 18.73 18.29 17.15 17.41 17.46 26.69 27.59 26.32 20.49 20.24 19.29 20.06 19.81 19.43 18.92 21.48 24.01 20.82 17.15 20.00 20.21 23.69 24.18 24.38 24.26 23.73 22.90 20.92 16.74 12.14 11.31 10.05
28.43 28.52 27.69 26.91 25.82 24.06 23.95 21.33 17.70 18.66 21.18 20.03 19.67 17.44 16.56 14.71 24.34 26.73 25.91 19.67 12.21 17.39 18.00 19.70 22.31 21.64 23.82 25.28 22.09 16.14 17.07 15.97 17.15 14.72 12.80 15.17 16.38 16.11 18.40 15.92 13.37 9.00 9.77
27.47 25.40 24.92 24.99 24.50 24.19 22.43 18.84 16.87 18.33 17.65 15.92 16.58 15.14 14.82 14.93 15.40 25.54 26.39 20.65 17.45 14.52 15.53 16.50 18.97 22.82 23.99 24.90 25.63 22.47 16.47 19.90 9.03 6.21 8.27 10.00 11.27 12.04 13.07 14.72 15.16 12.81 9.32
24.78 23.93 23.02 22.29 23.09 21.17 20.21 15.07 15.90 16.71 16.79 14.02 13.15 12.36 13.89 14.88 17.81 22.26 24.77 25.43 23.77 14.77 13.80 17.43 18.33 22.81 23.67 24.63 24.95 23.57 23.39 20.25 0.98 -0.79 0.80 6.62 8.17 9.77 12.24 12.96 13.75 13.79 14.17
21.84 21.18 20.20 17.42 19.04 18.86 18.56 16.11 15.44 15.61 17.01 14.81 14.10 13.62 12.19 14.21 14.36 22.14 23.29 24.42 25.35 22.42 19.91 20.32 22.87 23.91 24.82 23.79 20.34 21.27 17.40 6.97 2.17 -1.58 3.32 7.05 9.66 11.46 12.00 11.07 12.10 12.65 12.58
19.31 17.08 14.86 16.67 13.74 12.20 16.42 17.14 16.98 14.61 13.95 12.95 12.07 12.65 9.74 11.39 13.05 13.56 15.40 16.88 21.77 22.32 22.09 19.18 20.37 21.87 21.83 19.42 12.53 13.98 11.52 8.21 7.21 6.16 7.03 9.19 10.54 8.72 7.50 9.49 7.95 8.25 7.15
15.02 14.95 14.77 14.24 15.20 13.09 13.65 13.35 14.42 11.15 15.32 9.96 11.41 9.46 6.88 8.91 12.55 16.51 15.09 9.88 9.48 13.84 13.69 4.21 5.78 10.90 11.97 9.30 5.27 4.60 6.25 6.26 4.78 5.03 5.48 5.75 6.33 6.43 6.99 7.80 7.11 6.26 4.84
14.89 14.71 14.31 14.44 11.90 11.41 10.96 8.25 20.56 19.90 21.70 23.02 22.17 14.26 8.24 18.08 20.94 22.20 23.14 23.81 24.23 23.12 17.26 14.83 10.20 11.77 9.66 7.74 4.42 3.80 4.98 4.55 5.19 4.45 0.77 2.91 4.16 4.37 4.26 4.52 5.49 4.75 3.78
15.80 13.67 12.69 12.63 11.49 10.36 8.22 8.99 8.28 11.61 23.71 23.91 23.98 24.26 24.48 22.06 22.88 23.52 24.27 25.70 25.82 25.25 21.13 10.97 8.64 7.45 6.49 6.82 5.24 4.51 4.24 5.96 2.00 -0.82 -0.27 -0.06 2.21 1.76 0.79 1.59 2.84 3.76 3.05
9.24 12.66 12.30 11.33 10.26 7.85 7.40 6.32 5.34 4.63 5.03 6.85 15.02 18.49 19.41 20.60 21.32 21.93 22.24 22.23 17.75 17.05 8.22 3.81 5.88 4.78 3.89 4.57 3.48 4.05 2.88 2.95 -2.34 -2.99 -3.35 -6.65 -7.11 -2.34 -0.62 -0.61 0.74 1.05 1.87
7.96 6.71 6.81 5.18 4.07 5.65 5.56 4.91 3.67 3.72 3.85 5.76 8.29 11.15 10.91 14.37 15.82 16.74 17.54 7.39 3.15 5.01 1.15 1.15 1.69 2.44 2.54 0.99 0.80 -0.79 -2.44 -2.82 -4.81 -11.93 -12.51 -12.45 -9.84 -6.58 -2.24 -1.51 0.60 1.01 0.99
4.67 6.96 4.65 3.37 2.85 3.02 3.23 2.95 5.10 5.71 3.42 2.53 -0.11 0.26 -2.37 -3.40 -6.63 -5.57 -6.22 -7.68 -6.00 -5.44 -4.68 -1.75 -2.68 -3.36 -0.15 -1.62 -3.28 -3.45 -5.48 -5.87 -6.79 -14.76 -11.14 -11.18 -10.61 -8.28 -2.10 -1.76 -0.94 -1.47 -1.17
0.45 1.13 2.40 0.26 -0.80 1.39 4.10 3.73 3.47 0.75 -2.14 -5.86 -5.71 -1.33 9.65 -2.03 -2.74 -7.65 -10.14 -9.04 -6.47 -5.06 -1.79 -5.67 -9.08 -10.14 -5.79 -3.05 -4.16 -5.05 -5.13 -3.84 -5.78 -15.64 -13.00 -14.83 -15.50 -9.99 -6.75 -2.38 -2.73 -2.48 -0.83
-2.24 -3.01 -3.89 0.30 1.38 1.81 0.34 -0.19 -2.18 -5.84 -9.25 -9.35 -8.26 -6.25 7.30 -7.63 -11.42 -13.55 -13.44 -11.65 -10.05 -4.35 -1.87 -1.70 -3.31 -3.80 -2.02 -1.84 -2.24 -2.41 -4.50 -4.64 -7.62 -17.33 -15.03 -13.73 -14.21 -10.54 -10.78 -5.38 -4.69 -3.70 -0.98
-0.49 -1.01 -3.16 -4.67 -3.32 -2.74 -6.19 -11.12 -12.37 -13.48 -13.93 -15.46 -13.31 -9.63 -13.29 -15.29 -13.19 -11.87 -10.67 -10.51 -11.21 -9.64 -8.57 -3.68 -1.90 -3.51 -3.81 -1.14 -1.25 -2.02 -4.17 -4.16 -7.00 -15.17 -15.54 -15.59 -14.59 -13.50 -15.05 -6.95 -5.92 -4.60 -0.32
-3.50 -5.98 -8.22 -11.37 -10.48 -12.75 -14.00 -15.83 -15.18 -12.99 -14.36 -15.38 -19.29 -16.94 -11.79 -11.98 -12.90 -11.90 -10.78 -9.62 -10.71 -11.33 -12.47 -6.07 -3.00 -2.10 -2.54 -1.94 -3.56 -5.67 -6.91 -7.28 -13.78 -15.23 -15.32 -14.27 -9.73 -10.10 -9.45 -6.43 -5.71 -3.72 1.45
-13.94 -12.50 -12.13 -13.41 -16.45 -15.93 -16.83 -17.64 -15.15 -18.93 -18.67 -16.34 -13.60 -15.75 -13.99 -12.59 -11.77 -11.71 -10.96 -9.14 -7.82 -10.55 -10.71 -9.90 -3.71 -2.59 -3.31 -3.78 -5.32 -7.20 -8.80 -4.47 -8.72 -12.59 -19.25 -19.72 -12.81 -12.85 -9.23 -6.38 -4.98 -2.61 1.54
-12.31 -13.26 -15.84 -17.09 -17.42 -19.00 -19.07 -17.37 -17.46 -16.51 -15.70 -13.21 -13.25 -13.83 -13.60 -12.13 -10.80 -10.95 -9.99 -10.24 -9.82 -11.11 -12.79 -9.42 -3.65 -3.96 -5.30 -5.47 -6.76 -6.12 -6.22 -3.99 -7.37 -7.43 -11.78 -14.38 -12.67 -9.41 -7.04 -4.62 0.52 1.92 1.07

GFSGL_sfc_wetblb_042.txt.gz
Wetbulb
32.55 32.27 30.79 29.41 29.35 29.27 28.10 27.20 26.95 26.31 26.01 25.76 25.70 25.13 25.13 24.80 24.42 23.09 22.80 22.97 22.69 22.62 22.11 22.25 22.00 22.08 20.84 20.18 20.39 20.43 20.13 19.31 16.84 18.51 19.70 20.61 19.93 20.12 21.30 21.82 22.51 21.83 22.70
31.95 30.92 30.34 29.65 28.74 27.97 27.42 27.11 26.31 26.54 25.85 25.64 25.49 24.90 24.31 24.03 23.50 22.54 22.44 22.55 22.10 22.10 22.17 21.86 21.45 23.51 20.18 19.83 19.24 18.70 18.50 18.46 17.01 15.84 18.29 18.21 18.56 19.80 19.85 19.31 21.92 23.61 22.24
29.91 29.56 28.20 28.20 28.12 27.87 27.10 26.36 26.17 25.64 25.31 25.22 25.01 24.14 23.67 23.46 23.10 22.82 23.09 22.75 22.54 22.58 22.36 21.80 21.42 21.02 20.16 19.53 18.53 18.03 17.83 19.91 17.64 17.17 16.46 18.44 19.02 19.94 19.55 20.63 21.06 21.65 23.78
29.36 28.56 27.92 27.48 27.88 27.29 26.59 25.89 26.10 25.92 25.13 24.37 24.10 23.87 23.72 23.64 23.27 22.98 23.04 22.51 22.36 22.52 22.93 22.43 21.75 20.86 20.22 19.18 18.97 18.41 19.22 18.20 18.20 17.13 16.89 17.23 18.22 20.09 20.02 18.93 18.64 21.03 20.81
28.96 27.84 27.48 27.62 27.28 26.23 26.07 26.05 26.00 25.66 25.39 24.78 23.69 23.46 23.15 22.71 23.43 22.39 22.70 21.70 21.31 21.18 21.64 22.36 21.92 21.71 24.08 23.36 20.38 19.21 18.69 17.02 17.27 16.67 16.13 16.87 17.20 18.27 17.57 19.32 18.66 19.43 20.48
29.09 27.94 27.31 27.10 26.91 26.82 26.79 26.15 25.39 24.98 23.53 23.46 23.14 22.43 20.94 23.45 27.24 28.83 24.24 21.68 22.02 21.34 20.46 20.69 21.03 20.98 22.71 26.12 26.63 26.59 24.18 15.58 2.59 6.38 17.12 17.53 18.15 18.25 19.85 18.20 18.00 17.17 12.98
28.16 27.95 27.05 27.39 27.02 26.79 26.78 25.96 24.96 24.35 23.79 23.01 22.66 21.06 20.28 20.47 28.70 30.12 29.21 21.88 21.39 20.74 20.53 20.71 20.70 21.50 20.12 19.31 22.29 24.62 24.49 24.84 25.10 21.99 19.48 18.73 18.33 19.78 19.11 18.89 16.40 15.23 14.01
28.05 28.19 28.12 27.42 27.06 26.65 25.85 25.41 24.68 24.43 23.47 22.36 21.43 20.70 20.24 20.72 28.17 30.20 29.76 22.38 21.09 20.73 20.10 19.86 19.81 19.50 19.44 18.93 18.30 17.81 18.39 18.88 19.90 20.97 21.03 21.75 21.02 21.97 20.72 18.24 15.85 13.59 13.55
27.89 28.05 28.21 28.00 27.52 25.70 25.50 25.14 24.73 23.93 22.63 20.70 20.98 19.19 19.58 18.49 28.01 29.49 28.62 21.60 21.39 20.17 20.26 19.85 19.19 18.86 21.68 24.45 20.90 16.07 17.89 19.68 24.20 26.29 25.98 25.21 24.02 23.49 20.88 15.61 7.25 7.76 6.55
28.53 28.80 28.48 28.76 28.51 26.65 26.83 25.79 25.02 24.18 23.24 21.58 20.97 19.36 18.55 16.73 25.86 29.03 28.51 21.70 15.41 18.92 19.00 19.71 22.50 20.92 22.97 24.55 21.43 17.85 16.06 17.44 18.18 12.62 13.58 14.94 16.45 15.29 18.02 15.20 12.27 7.05 7.88
30.04 28.88 28.45 28.40 28.42 27.90 27.48 25.15 21.98 21.78 20.26 19.36 18.76 16.85 15.92 16.08 16.94 27.83 29.14 21.27 19.79 17.02 17.04 17.09 18.64 23.28 24.82 25.69 26.40 20.68 19.30 19.47 15.63 8.07 6.95 9.21 11.04 11.43 12.23 13.77 14.49 11.95 8.22
29.42 27.41 27.04 27.70 27.53 26.32 25.05 21.42 20.57 21.06 20.06 16.43 13.85 10.87 14.44 15.46 19.09 24.53 27.97 28.52 25.63 16.92 15.90 17.81 17.97 22.95 24.41 25.52 25.33 25.88 26.70 23.28 1.91 -1.64 -0.47 5.51 7.81 9.11 11.28 12.69 13.04 12.91 13.20
26.70 26.84 26.33 25.03 24.25 23.70 22.66 19.26 17.58 17.63 18.88 16.17 15.66 16.15 15.77 15.16 15.68 24.25 25.01 27.22 27.75 24.60 21.12 19.89 23.05 24.16 25.08 25.24 26.49 26.04 19.76 8.01 2.14 -1.95 1.03 6.64 9.14 10.74 12.04 10.69 10.94 11.68 11.38
26.18 23.15 21.92 22.23 19.55 19.11 19.82 19.00 18.45 17.14 16.55 17.07 15.40 16.31 10.61 11.30 13.45 14.25 15.72 18.03 22.46 24.16 23.94 21.68 22.89 24.64 24.38 22.65 16.77 19.33 13.51 10.79 8.45 5.36 5.83 8.80 9.93 8.76 6.96 8.23 6.90 6.93 5.47
22.55 19.33 18.93 18.91 18.41 15.46 14.39 15.68 17.24 11.96 17.95 13.91 14.43 12.65 8.26 9.10 11.79 17.15 15.89 11.87 12.96 15.54 16.43 2.69 4.77 10.80 13.52 14.06 10.41 10.45 11.40 9.87 7.45 5.62 3.84 5.08 6.62 6.02 5.66 6.88 5.61 3.85 2.05
17.60 16.70 16.09 15.61 13.28 12.59 11.93 8.59 21.10 20.46 23.03 24.11 22.30 13.81 7.43 17.99 20.93 22.29 23.59 24.37 24.51 23.87 18.56 14.63 11.87 11.09 12.27 13.45 13.54 11.97 9.09 8.31 7.51 5.65 2.42 2.29 4.26 3.19 2.73 3.02 2.94 1.30 0.86
16.71 13.83 12.64 12.41 11.44 10.07 8.19 11.52 10.00 13.28 23.84 23.81 24.74 25.37 24.90 19.63 23.35 24.26 25.00 25.54 26.12 26.57 22.22 20.62 16.75 13.17 11.84 12.25 11.08 8.96 6.73 7.42 6.94 5.23 4.44 2.72 2.05 0.13 -1.08 -2.01 -0.19 0.57 -0.64
7.81 11.77 11.42 10.41 10.40 9.06 8.93 8.32 6.71 4.78 5.59 6.16 16.37 19.63 20.83 20.77 20.93 21.34 21.99 21.64 11.05 9.20 2.84 2.51 5.18 7.56 9.45 9.52 8.22 6.93 5.29 4.43 3.35 3.02 1.51 -1.03 -3.29 -9.36 -6.42 -4.43 -3.10 -3.14 -1.86
7.99 6.48 5.78 5.86 6.11 7.41 5.65 4.47 3.71 3.83 2.32 0.21 6.25 11.92 9.87 14.59 14.53 14.94 14.74 -4.26 -8.14 -9.07 -7.71 -5.67 -3.16 -0.70 3.17 2.40 1.83 0.68 0.92 -0.13 -1.05 -0.89 -3.52 -7.03 -5.40 -13.84 -11.52 -6.20 -3.45 -1.97 -1.45
4.28 7.21 5.72 5.27 5.06 5.19 5.33 4.06 2.75 2.11 3.44 4.97 3.44 4.42 0.98 -4.53 -8.14 -11.16 -12.84 -15.40 -16.54 -15.45 -15.78 -16.43 -10.53 -10.41 -6.30 -7.96 -6.84 -4.95 -4.89 -6.62 -3.67 -3.13 -5.50 -6.50 -7.97 -10.32 -8.45 -7.05 -4.70 -3.95 -4.35
2.34 2.23 3.10 0.90 0.55 0.12 -0.19 0.47 3.20 3.25 2.61 -2.56 -6.34 -3.16 8.94 -7.22 -8.24 -12.08 -14.78 -16.01 -17.59 -17.07 -13.51 -14.44 -13.39 -12.86 -6.92 -6.78 -5.65 -6.21 -6.01 -3.12 -3.01 -3.01 -5.84 -8.52 -11.10 -14.60 -15.74 -5.30 -4.39 -5.35 -4.87
-1.43 -3.15 -2.72 -3.21 -1.48 0.44 2.38 2.66 1.50 -2.20 -8.14 -8.39 -7.55 -6.58 6.43 -8.89 -14.58 -16.11 -17.46 -19.04 -16.74 -16.16 -13.39 -14.27 -8.91 -11.34 -6.51 -6.77 -4.44 -4.52 -4.60 -5.13 -4.12 -3.19 -7.61 -9.25 -11.52 -16.87 -19.11 -10.56 -7.97 -6.95 -6.39
-2.97 -2.97 -2.78 -1.33 -0.42 -1.71 -4.56 -8.47 -11.67 -11.64 -12.47 -14.25 -13.54 -11.08 -14.95 -17.63 -18.16 -17.94 -17.75 -17.37 -17.15 -13.84 -12.01 -16.61 -11.06 -8.51 -11.72 -10.63 -2.38 -1.69 -3.51 -4.11 -2.39 -3.96 -8.44 -10.84 -15.87 -20.08 -22.52 -16.72 -10.68 -9.12 -8.06
-1.76 -1.62 -3.81 -8.52 -9.41 -10.82 -11.60 -13.43 -12.95 -11.36 -12.55 -15.94 -20.49 -20.11 -15.64 -17.56 -20.31 -17.80 -16.23 -14.91 -14.25 -13.38 -14.57 -13.75 -11.08 -9.45 -11.36 -11.81 -8.74 -4.56 -4.11 -3.58 -4.23 -7.20 -9.60 -11.79 -15.42 -20.31 -20.80 -19.02 -13.14 -9.03 -6.23
-7.89 -7.34 -7.96 -9.80 -13.06 -12.06 -11.73 -15.15 -14.31 -18.12 -18.17 -17.22 -18.04 -18.61 -18.62 -19.02 -18.30 -18.26 -16.65 -15.09 -13.83 -13.06 -10.99 -10.99 -12.10 -11.32 -9.66 -9.16 -7.11 -4.92 -5.20 -2.03 -3.25 -8.14 -12.66 -18.52 -18.82 -20.91 -23.39 -20.35 -12.40 -8.76 -6.76
-10.62 -9.70 -8.54 -8.12 -8.08 -10.27 -14.31 -12.05 -13.12 -15.43 -17.56 -17.21 -18.52 -19.73 -18.48 -16.27 -15.01 -16.01 -14.61 -14.57 -12.48 -11.32 -11.85 -12.43 -12.38 -10.74 -10.84 -10.28 -10.00 -6.67 -3.36 -1.29 -4.77 -5.95 -13.39 -17.51 -18.07 -18.14 -19.96 -15.38 -13.31 -8.33 -3.40

GFSGL_sfc_wetblb_045.txt.gz
Wetbulb
33.04 32.14 30.82 29.90 30.53 29.39 28.69 27.67 26.85 26.75 26.08 26.05 26.04 25.67 25.65 25.09 24.52 23.89 23.55 23.30 23.11 22.79 22.24 22.36 22.17 22.17 20.85 20.12 20.60 20.25 19.87 19.62 16.81 18.13 19.21 19.37 19.22 19.58 21.12 21.41 22.33 21.79 22.71
32.68 31.45 30.48 29.56 28.78 28.27 27.65 27.06 26.72 26.34 26.11 25.97 25.72 25.83 25.49 24.97 24.21 23.77 23.19 23.03 22.41 22.32 22.24 21.88 21.25 22.92 19.91 19.81 19.35 18.97 18.79 18.59 17.33 15.53 17.43 17.44 17.93 19.27 19.54 19.11 21.84 23.86 22.67
31.01 30.73 29.34 28.61 28.15 27.79 26.98 26.58 26.79 26.02 25.52 25.46 25.54 25.22 24.95 24.68 24.06 23.41 23.76 23.33 22.88 22.95 22.57 21.55 21.17 20.86 19.83 19.08 18.35 17.79 17.90 20.05 17.45 16.61 16.12 18.05 18.51 19.80 19.65 20.71 21.00 21.41 23.51
30.74 29.69 28.50 28.07 28.46 28.11 27.20 26.30 26.48 25.96 25.43 25.37 25.40 24.95 24.95 24.72 24.55 24.05 23.72 22.91 22.70 22.90 22.99 22.40 21.47 20.52 20.25 19.27 18.81 18.25 18.47 17.52 17.72 16.77 16.53 16.93 17.73 19.71 19.61 18.36 18.27 20.54 19.95
29.77 29.07 29.11 28.61 28.67 27.42 26.14 26.24 26.07 25.63 26.08 26.05 24.75 24.34 24.29 24.61 24.91 24.14 23.66 22.48 22.08 21.26 21.63 22.43 21.88 21.71 24.73 22.67 19.71 18.53 18.34 16.90 16.99 16.22 16.10 16.47 16.97 17.86 17.42 18.95 17.68 18.32 19.22
29.67 29.29 29.11 27.87 27.43 27.19 26.94 26.35 26.12 25.73 24.93 24.88 24.43 23.98 23.46 25.00 28.57 29.42 24.80 22.43 22.23 21.18 20.34 20.56 21.17 21.43 23.80 27.04 27.85 28.08 23.67 15.92 7.10 7.21 16.67 16.53 17.70 18.41 18.98 18.11 18.05 15.50 12.71
29.04 28.41 27.47 27.79 27.16 27.10 26.94 26.09 25.75 25.14 24.99 24.35 23.90 23.59 23.41 23.95 29.63 30.81 30.05 22.25 21.75 20.73 20.58 20.98 20.82 21.25 20.16 19.62 23.41 26.29 26.20 27.01 26.45 20.78 18.81 19.50 18.63 19.17 19.66 18.91 17.22 15.05 13.25
28.43 27.89 27.77 27.84 27.43 26.70 26.34 25.86 25.25 25.06 24.13 23.81 23.45 23.69 23.55 23.10 29.56 31.10 31.33 22.57 20.89 20.79 20.55 20.72 20.10 19.72 19.72 19.01 18.44 17.82 18.52 18.48 19.44 20.84 20.59 20.29 20.82 22.45 22.59 19.77 15.96 10.78 12.59
27.68 27.74 27.87 28.07 27.37 26.33 26.06 25.50 25.26 24.94 24.19 23.92 24.70 23.86 23.14 22.76 29.11 30.74 30.08 23.24 22.47 21.54 21.19 20.34 19.69 19.27 22.18 25.41 21.26 16.90 17.41 18.98 23.19 26.36 27.29 27.75 27.74 25.34 22.84 16.29 0.01 -2.68 5.58
28.17 28.35 28.52 28.57 28.33 26.96 26.88 26.00 26.15 26.17 25.42 24.64 24.46 24.25 23.20 23.40 27.53 30.34 29.94 23.40 20.47 21.35 20.72 20.72 23.44 21.22 23.59 25.26 21.91 14.96 14.43 17.77 18.52 16.30 17.71 17.82 18.14 15.96 19.13 15.37 10.98 -0.03 6.60
28.96 28.10 27.98 28.39 28.69 28.03 27.79 27.13 26.38 25.64 24.87 24.11 23.54 23.05 21.85 21.49 21.12 29.58 30.91 23.96 23.05 19.93 19.64 19.39 19.88 24.52 26.50 27.15 27.39 21.15 19.42 20.70 18.14 17.65 13.02 11.65 11.42 12.13 12.27 13.30 13.92 12.42 7.67
28.24 27.91 28.30 29.16 28.96 28.77 28.57 27.25 26.31 25.83 24.57 23.45 21.84 19.91 19.23 19.08 21.51 26.42 29.72 30.53 27.01 19.68 19.15 19.62 18.80 23.88 25.33 26.22 25.74 26.58 27.55 27.01 12.20 6.16 1.52 6.01 7.90 9.20 10.99 12.34 13.25 13.13 12.75
30.22 30.59 30.50 29.87 29.68 29.74 29.17 27.50 24.74 24.44 23.19 22.04 19.76 20.01 19.42 17.44 17.50 25.58 26.41 28.84 29.76 26.82 21.86 21.63 24.17 24.90 25.88 25.65 26.98 27.58 26.15 16.51 11.90 8.28 8.74 8.05 9.31 10.61 11.80 11.03 10.87 10.89 10.80
29.64 28.39 28.32 28.06 26.27 26.03 26.38 23.89 23.54 21.63 21.31 20.58 19.07 19.57 16.52 14.00 14.87 15.86 17.49 18.16 23.15 24.75 24.23 21.86 24.03 26.08 25.62 25.08 20.81 21.98 21.26 15.99 13.42 10.70 8.73 9.14 10.09 8.82 6.13 7.97 5.80 6.18 3.91
25.80 22.85 23.41 23.35 22.75 20.47 19.25 20.03 20.78 16.85 21.77 18.88 17.35 15.63 11.96 10.67 12.91 17.78 15.43 9.64 8.22 15.51 14.89 2.60 5.14 11.65 15.53 16.53 17.35 16.36 16.61 14.46 11.99 11.05 9.34 5.89 6.10 6.06 5.61 6.19 5.01 -0.11 -1.10
20.60 20.17 20.24 19.57 18.24 18.31 16.99 13.08 22.62 21.98 25.09 24.92 22.70 16.49 9.44 19.02 21.07 22.53 23.84 24.59 24.80 24.27 15.86 12.01 13.79 14.75 14.39 14.38 13.75 13.81 11.03 11.86 11.72 10.35 7.47 3.54 3.25 3.92 2.87 1.74 3.15 -1.00 -1.98
20.11 17.51 16.50 16.18 15.36 14.49 13.01 15.87 13.86 15.49 24.20 25.06 25.48 25.20 22.75 19.43 23.50 24.12 24.78 25.36 25.94 24.42 19.38 11.08 9.89 8.94 10.36 11.59 11.73 11.14 11.44 9.17 10.82 7.77 6.48 3.68 -0.34 -0.99 -1.75 -4.22 -0.68 -0.56 -3.21
12.62 12.93 12.66 10.30 10.66 9.67 10.03 10.16 11.17 11.22 11.10 7.32 20.63 22.45 23.12 22.59 21.46 20.87 20.84 13.93 5.15 6.00 2.05 -1.94 -5.84 -3.89 0.78 3.97 6.36 6.30 5.00 5.88 5.21 4.19 3.45 1.27 -1.70 -2.26 -8.89 -5.94 -3.21 -9.91 -6.50
10.83 8.63 7.06 6.65 5.64 7.21 6.98 5.45 5.12 5.23 3.10 1.49 4.06 9.87 8.91 16.25 16.47 15.21 11.25 -3.51 -11.52 -12.77 -14.21 -13.83 -14.53 -13.93 -11.78 -10.09 -5.05 -4.29 -2.22 -0.49 -0.15 -2.67 -3.75 -2.86 -4.54 -6.89 -8.74 -5.44 -4.52 -3.74 -3.90
6.29 8.28 5.95 4.64 3.06 3.50 4.33 3.60 2.59 2.26 1.54 2.00 1.57 1.37 1.04 1.97 -1.25 -2.89 -13.84 -17.00 -18.41 -18.65 -19.19 -19.99 -18.41 -20.39 -19.46 -16.58 -13.45 -11.02 -11.51 -11.51 -8.82 -6.82 -4.77 -4.74 -5.20 -5.90 -5.66 -6.55 -6.85 -6.22 -11.35
1.18 1.24 2.01 0.53 -0.32 -0.77 -0.34 0.93 1.46 0.46 -0.07 -2.97 1.28 3.42 7.62 -1.02 -6.97 -12.70 -14.19 -16.73 -19.01 -20.99 -19.86 -20.91 -19.77 -21.02 -18.43 -17.78 -16.67 -16.67 -17.25 -13.35 -12.67 -5.04 -4.41 -6.27 -7.08 -9.83 -6.60 -5.77 -6.72 -10.66 -7.62
-3.10 -4.20 -3.10 -3.87 -2.16 -1.05 -2.86 -1.61 -2.62 -1.88 -1.46 -1.06 -2.60 -1.07 7.76 -7.23 -12.58 -14.10 -17.38 -20.12 -21.08 -22.31 -21.10 -22.15 -19.59 -19.36 -17.36 -16.51 -13.08 -13.97 -14.17 -12.36 -12.36 -4.32 -3.19 -6.03 -7.85 -7.47 -8.45 -9.28 -11.08 -13.84 -10.88
-3.21 -3.41 -4.51 -6.84 -5.26 -4.40 -6.50 -9.22 -8.39 -7.84 -8.13 -7.92 -10.15 -8.34 -12.83 -16.82 -18.50 -19.56 -19.32 -21.53 -22.38 -19.60 -19.64 -22.66 -21.02 -16.55 -16.71 -19.52 -17.09 -9.66 -7.89 -11.43 -9.06 -3.63 -4.51 -6.63 -6.51 -7.90 -11.40 -14.19 -19.57 -22.60 -17.11
-5.21 -5.24 -5.36 -8.42 -9.95 -10.24 -10.95 -12.88 -8.74 -9.48 -13.24 -15.87 -18.74 -19.68 -15.16 -18.59 -21.80 -19.59 -19.92 -20.09 -21.46 -20.86 -22.33 -21.11 -19.52 -16.59 -16.51 -17.76 -20.12 -16.35 -11.23 -9.82 -11.03 -5.20 -5.52 -6.43 -7.07 -8.90 -12.88 -20.93 -22.66 -20.26 -14.72
-10.06 -8.04 -8.74 -10.58 -12.88 -11.29 -11.03 -13.83 -11.12 -16.96 -18.88 -16.35 -18.56 -18.79 -18.09 -20.26 -20.61 -21.01 -21.24 -20.94 -21.22 -21.60 -16.37 -15.40 -16.76 -15.75 -13.69 -12.97 -13.63 -16.00 -15.67 -4.06 -7.27 -6.36 -7.79 -9.17 -10.14 -14.82 -23.87 -25.03 -23.49 -21.39 -16.48
-12.22 -10.48 -13.09 -13.67 -14.53 -15.53 -11.81 -10.79 -15.39 -14.63 -15.57 -16.85 -17.81 -19.92 -18.13 -16.21 -16.85 -19.46 -18.55 -19.94 -17.64 -16.33 -16.18 -15.62 -15.80 -15.08 -13.91 -12.82 -12.90 -9.72 -8.29 -3.00 -4.50 -4.19 -7.35 -10.60 -15.27 -19.39 -24.45 -22.95 -23.50 -18.80 -14.59

GFSGL_sfc_wetblb_048.txt.gz
Wetbulb
36.17 34.11 32.96 34.07 34.16 32.69 32.11 31.03 30.18 29.19 26.24 26.17 26.10 25.59 25.50 25.22 25.12 24.60 24.23 23.91 23.78 23.19 22.89 23.31 22.78 22.61 21.16 20.49 21.00 20.17 19.67 19.58 16.96 18.28 19.26 18.88 19.13 19.57 20.85 20.97 21.93 21.56 22.52
34.46 32.52 31.61 31.75 32.24 31.52 31.39 30.17 28.94 28.28 26.67 26.62 25.89 25.74 25.56 25.46 25.04 24.75 24.16 23.92 23.08 22.69 22.94 22.20 21.47 23.00 20.17 19.76 19.39 19.21 18.99 18.98 17.72 15.49 16.90 17.23 17.87 19.11 19.26 18.90 21.87 23.72 22.45
32.94 31.97 30.09 29.59 30.74 30.92 30.19 29.52 28.70 27.28 26.25 25.54 25.76 25.63 25.41 25.58 24.97 25.22 25.06 24.50 24.03 24.14 23.51 22.02 21.25 20.66 19.54 18.93 18.22 17.90 18.06 20.06 17.35 16.42 15.23 17.55 18.12 18.85 19.11 20.22 20.51 20.94 23.20
32.51 31.27 29.80 29.37 30.21 30.36 29.61 28.58 28.30 26.63 25.61 25.42 26.06 26.15 25.95 25.56 25.78 25.72 25.39 24.60 24.32 24.10 23.67 22.69 21.39 20.80 20.42 19.20 18.73 18.21 18.39 17.09 17.03 16.19 15.98 16.23 16.88 18.89 18.75 17.93 18.12 20.41 19.74
31.76 30.94 30.68 29.71 29.77 30.07 28.71 27.96 27.60 26.33 26.41 26.49 25.65 25.53 25.75 25.76 25.73 25.25 25.21 24.34 23.60 22.84 22.51 22.97 22.04 22.22 25.16 22.91 20.01 18.64 18.12 16.81 16.95 16.07 15.77 15.64 16.26 16.91 17.26 18.32 17.71 18.28 19.29
31.81 31.05 30.73 29.05 28.87 28.85 28.00 27.12 26.56 25.93 25.47 25.43 24.90 24.62 24.39 25.70 29.39 29.89 26.02 24.14 23.52 22.44 21.65 21.59 22.04 22.96 24.94 27.79 28.23 26.83 21.99 16.54 6.76 9.00 16.65 16.32 17.39 17.56 18.53 17.98 17.68 16.92 13.70
31.59 30.56 29.10 28.63 27.54 27.96 27.75 26.66 26.16 25.41 25.60 24.92 24.57 24.52 24.35 24.64 30.60 31.50 29.92 24.05 23.46 22.37 21.85 22.16 21.75 22.05 21.19 20.56 25.82 29.01 28.60 29.68 27.36 19.18 18.07 18.45 18.13 19.29 19.06 18.53 18.59 16.35 14.51
30.43 29.32 28.52 28.27 28.09 27.52 26.74 26.37 26.12 25.54 24.97 24.76 24.46 24.81 24.63 24.39 30.89 32.09 31.06 24.07 22.84 22.51 21.93 22.01 21.66 21.08 20.73 19.88 19.37 18.65 19.46 19.33 20.43 21.21 20.39 20.03 19.93 21.10 20.87 21.67 17.13 11.03 13.32
28.96 28.60 28.22 28.70 27.70 26.69 26.47 25.99 25.82 25.19 24.97 24.90 25.15 24.42 24.57 24.04 30.52 31.75 31.26 26.34 23.73 22.31 21.96 21.90 21.52 20.99 23.60 27.00 21.67 17.85 18.14 19.12 23.00 26.54 27.24 27.54 28.39 29.08 24.78 15.62 2.53 -1.28 6.53
28.20 27.97 28.02 29.07 28.47 27.49 27.38 26.16 26.09 26.28 25.55 25.34 25.33 25.69 25.25 25.43 29.83 32.31 31.91 26.79 24.48 23.56 22.51 22.24 24.42 22.82 25.22 26.81 23.38 18.28 16.46 18.34 18.49 17.15 19.27 21.74 21.89 17.66 20.23 17.07 13.30 1.66 4.77
26.94 26.77 26.63 27.66 28.39 28.37 27.26 26.84 26.53 26.26 25.44 25.27 24.73 24.51 25.18 25.28 25.77 31.92 32.31 26.55 25.84 24.32 23.29 21.77 21.89 26.59 28.44 28.70 28.50 22.21 19.85 21.37 18.59 20.88 16.38 16.11 14.99 14.30 14.19 14.35 14.39 12.89 8.93
25.46 25.13 26.33 28.15 28.02 27.96 27.56 27.15 26.92 26.25 25.39 24.64 24.34 23.94 23.21 23.53 25.42 29.30 31.25 31.84 29.20 24.82 22.29 22.38 21.53 25.75 27.25 27.95 27.17 27.76 28.34 27.64 22.64 12.41 10.04 10.64 10.99 11.29 12.28 13.01 13.71 13.89 13.75
25.72 26.18 27.91 28.40 28.54 28.92 28.13 27.29 26.16 26.60 25.93 24.90 23.48 23.53 22.62 20.25 20.86 27.62 28.09 30.61 31.45 28.40 24.41 23.61 24.68 26.06 27.43 27.19 27.99 27.95 26.61 24.30 17.24 11.87 9.21 10.45 11.77 12.96 12.47 12.01 12.20 11.47 10.75
29.83 29.75 29.53 29.17 29.05 29.61 29.95 28.62 27.90 26.14 25.37 24.62 22.93 23.65 23.17 17.90 18.08 18.50 21.52 23.67 26.63 27.19 25.96 20.12 24.63 26.50 26.68 25.80 20.49 22.56 21.26 20.44 18.17 15.86 15.09 13.90 12.11 10.51 9.14 9.36 4.96 4.99 1.35
28.67 26.48 27.96 27.78 27.55 26.34 24.67 25.64 25.57 22.97 26.68 24.72 24.19 23.52 18.53 16.95 17.95 20.39 19.10 14.47 14.82 17.04 10.37 4.49 7.43 9.40 10.23 11.23 12.15 17.00 18.52 18.79 15.85 15.08 13.46 10.36 9.50 8.93 7.92 7.55 5.27 -1.92 -5.05
22.05 22.53 23.21 22.69 21.91 21.28 20.11 18.42 24.34 24.23 27.25 26.60 25.61 21.00 14.17 21.27 23.52 24.90 25.12 24.49 23.24 22.42 8.76 5.82 6.95 9.50 13.10 14.16 13.69 12.80 10.03 10.29 9.94 10.19 8.69 8.86 8.04 6.96 5.81 4.12 3.35 -4.88 -6.31
19.76 18.77 18.28 17.66 17.72 17.30 16.81 17.29 17.40 21.56 27.04 26.85 25.49 23.97 22.10 21.63 24.28 24.42 24.72 25.27 24.07 21.24 12.73 6.42 4.97 2.53 2.47 5.71 5.55 5.84 6.00 7.12 7.26 5.34 6.16 4.38 6.05 3.93 2.61 -1.54 -1.50 -2.07 -7.51
13.93 14.45 14.33 13.18 14.01 13.71 14.38 14.03 15.95 17.00 14.71 11.40 24.11 24.88 26.59 25.19 24.83 24.45 23.04 17.26 8.71 8.36 5.66 4.02 1.98 0.39 -3.80 -3.17 -2.91 -2.70 -2.68 -0.92 -0.52 0.38 0.59 -0.53 -0.85 -1.49 -4.07 -7.91 -5.03 -7.12 -5.46
12.02 10.42 10.24 9.85 10.18 11.02 10.43 9.00 8.73 8.30 8.49 6.47 8.44 11.86 12.48 21.64 20.46 16.96 12.95 4.44 2.18 -0.70 -3.44 -8.13 -13.73 -15.02 -14.09 -15.71 -15.25 -14.86 -12.19 -9.98 -8.85 -11.18 -12.03 -9.91 -6.21 -6.51 -8.28 -4.90 -3.45 -2.32 -2.49
6.27 8.45 5.47 5.06 4.31 4.61 5.50 4.66 3.18 2.60 2.88 3.28 0.46 -3.05 -4.62 -0.05 -1.73 -4.99 -4.76 -5.66 -4.16 -5.28 -8.00 -16.60 -19.73 -23.36 -23.03 -22.42 -21.55 -20.57 -18.21 -18.50 -17.96 -18.34 -16.99 -11.99 -6.38 -5.51 -4.27 -6.33 -5.14 -4.73 -5.00
1.88 2.26 2.12 0.89 -1.06 -1.58 -1.45 0.26 0.50 -0.39 -0.81 -3.49 -3.91 0.49 7.33 2.00 0.65 -4.60 -9.79 -12.49 -14.00 -18.54 -19.95 -22.07 -22.38 -24.14 -25.24 -25.03 -24.26 -21.62 -21.84 -16.96 -20.55 -19.68 -17.81 -14.95 -10.34 -13.17 -6.79 -4.47 -4.33 -5.05 -5.41
-1.57 -3.24 -3.06 -4.70 -2.96 -1.65 -3.71 -2.38 -2.82 -2.41 -2.70 0.37 0.20 2.33 9.31 -1.49 -5.26 -6.61 -8.46 -16.11 -20.46 -21.23 -23.52 -23.30 -23.79 -24.99 -23.12 -21.80 -20.84 -20.00 -19.21 -17.67 -20.42 -20.49 -16.25 -15.13 -14.31 -12.06 -8.64 -6.41 -6.67 -6.24 -7.77
-2.66 -3.07 -4.49 -6.70 -5.33 -5.29 -5.51 -5.71 -2.02 -2.34 -3.02 -4.13 -4.80 -3.36 -7.05 -10.49 -8.65 -10.72 -14.84 -20.42 -22.22 -21.32 -24.72 -26.80 -24.57 -21.31 -21.40 -21.45 -19.82 -14.42 -13.82 -13.57 -13.74 -17.14 -14.53 -16.76 -14.38 -10.58 -8.63 -8.85 -8.43 -11.79 -15.12
-5.54 -5.64 -6.14 -9.35 -8.19 -8.61 -8.68 -11.22 -9.90 -7.33 -7.00 -9.58 -13.26 -12.81 -9.23 -12.00 -15.84 -17.32 -19.74 -22.25 -22.20 -23.96 -26.77 -25.77 -22.31 -19.57 -19.08 -18.87 -21.93 -22.49 -19.62 -15.58 -19.64 -14.29 -11.56 -11.56 -12.10 -8.67 -8.37 -10.22 -12.07 -17.53 -20.03
-11.07 -9.79 -10.40 -11.87 -13.66 -13.82 -13.66 -14.07 -12.72 -15.06 -14.81 -11.63 -10.30 -11.43 -12.72 -14.13 -14.18 -15.45 -14.51 -20.49 -22.15 -23.34 -19.02 -20.02 -20.07 -18.63 -15.97 -15.41 -16.38 -19.68 -18.85 -7.39 -14.13 -13.84 -17.09 -16.25 -16.23 -14.39 -18.35 -22.71 -24.36 -25.73 -23.27
-14.68 -14.27 -16.56 -17.04 -17.43 -18.64 -16.62 -13.92 -14.64 -10.62 -9.76 -7.95 -10.04 -11.88 -11.69 -12.01 -11.24 -16.86 -17.95 -20.40 -19.07 -17.82 -17.74 -17.32 -17.20 -16.23 -15.34 -14.39 -14.40 -11.75 -10.74 -5.50 -8.78 -8.14 -13.01 -13.96 -15.23 -18.47 -23.31 -23.94 -26.71 -23.80 -20.03

GFSGL_sfc_wetblb_051.txt.gz
Wetbulb
40.35 39.39 38.79 38.69 37.37 36.09 35.76 35.42 33.04 31.56 30.37 29.79 29.06 29.24 28.80 28.41 28.29 28.71 28.82 28.11 28.26 27.66 27.60 27.71 26.63 26.97 26.49 26.31 26.59 25.94 25.44 25.61 24.63 25.63 25.56 25.62 24.65 25.09 25.48 25.99 25.99 26.02 27.06
39.44 37.63 37.14 36.83 36.15 34.36 35.15 33.84 31.93 30.69 30.01 29.72 28.47 28.47 28.37 27.99 27.93 28.14 27.32 27.49 27.25 26.78 26.61 26.17 25.27 25.29 25.24 25.20 25.00 24.48 24.75 24.64 24.42 21.78 23.05 23.34 22.70 24.23 24.61 23.95 24.50 25.75 26.16
37.45 35.83 34.87 34.34 34.79 34.72 34.28 32.64 31.04 30.47 29.46 28.54 27.91 27.62 27.76 27.81 27.37 27.93 28.02 27.30 27.30 27.31 26.60 25.71 25.05 25.00 23.82 23.54 23.25 23.41 23.63 23.29 23.08 21.75 21.31 22.49 22.91 23.52 23.41 24.42 24.32 25.02 25.26
35.65 35.05 33.89 33.53 33.85 33.90 33.17 31.75 30.51 30.21 28.78 27.92 27.87 27.84 28.07 27.70 27.60 27.44 27.10 26.69 26.70 26.46 26.14 25.85 25.26 24.79 24.39 23.38 22.64 23.01 22.56 22.02 21.67 20.53 20.22 20.69 21.37 22.54 22.59 21.51 22.26 24.46 23.19
35.30 34.64 34.28 33.49 32.83 32.80 31.65 30.80 30.25 29.11 29.04 28.48 27.44 27.20 27.58 27.27 27.03 26.86 26.76 26.13 25.68 25.02 24.89 25.11 25.22 25.23 26.19 25.18 23.61 23.14 22.27 21.78 21.33 20.44 19.63 20.03 20.52 20.21 20.21 22.16 20.59 22.05 22.89
35.53 34.85 34.62 31.83 30.90 31.12 30.56 29.29 28.50 27.65 27.49 27.10 26.57 26.39 26.32 26.93 30.41 30.59 27.57 25.79 25.32 24.54 23.69 24.39 24.76 25.62 26.65 28.67 28.70 27.14 24.48 21.85 19.61 20.08 20.78 19.69 20.63 20.89 21.41 21.05 20.48 19.20 17.77
34.23 33.77 32.25 30.66 29.99 29.87 29.63 28.26 27.35 26.86 26.88 26.43 26.31 26.01 25.91 26.80 31.63 31.74 29.83 25.92 25.23 24.43 24.46 24.15 23.65 23.82 24.34 24.61 28.75 29.97 29.58 29.11 27.20 22.28 21.62 21.89 21.54 21.98 22.12 21.15 20.38 19.80 18.43
32.51 32.03 30.71 29.79 29.43 28.22 27.80 27.74 27.26 26.84 26.09 25.88 25.57 25.88 25.85 26.08 32.34 32.34 30.19 25.65 25.36 24.86 24.95 24.12 23.96 23.40 23.08 22.60 22.31 22.38 23.05 23.63 25.16 26.20 25.53 24.58 23.91 24.11 23.58 22.84 21.68 19.00 17.12
30.72 30.64 29.68 29.40 28.16 27.38 26.87 27.22 27.12 26.55 26.01 26.06 26.02 25.70 25.60 25.67 32.11 32.66 30.99 26.19 25.59 25.70 25.07 23.90 23.91 23.25 24.97 28.08 22.81 21.32 21.56 21.82 24.19 27.31 28.02 28.20 28.33 29.01 29.20 22.19 17.60 14.85 15.87
28.86 29.08 28.51 28.68 27.20 26.84 27.36 26.98 27.46 27.24 26.40 25.71 25.61 26.15 26.28 25.70 31.75 32.88 32.01 29.32 27.65 26.48 25.07 23.46 25.19 24.10 26.47 28.31 26.28 23.91 21.03 22.30 21.67 22.14 22.13 23.76 25.94 23.33 25.17 22.35 19.29 14.74 12.81
27.15 26.75 26.75 27.48 26.67 26.94 26.30 26.91 27.00 26.00 25.62 25.63 25.41 25.84 26.19 26.77 28.62 32.52 33.40 30.09 29.79 27.76 26.58 25.07 23.85 27.99 29.04 28.93 29.20 25.81 23.53 24.76 22.74 23.63 20.89 20.64 21.13 19.98 19.57 19.52 18.56 16.80 13.74
24.82 24.64 24.63 25.38 26.87 27.55 26.62 26.72 27.10 26.46 25.77 25.06 24.94 24.37 25.39 25.57 27.73 31.52 32.99 34.05 31.93 28.33 26.78 25.62 24.81 27.67 29.12 29.99 29.61 29.89 29.96 29.17 27.79 24.14 21.43 18.66 17.75 17.82 17.69 17.46 17.15 16.61 16.46
22.82 22.98 25.28 25.81 26.89 27.68 27.27 26.79 26.43 26.89 26.04 25.44 25.74 25.82 24.45 23.94 25.02 30.31 32.00 33.30 34.68 31.17 27.76 26.51 27.16 28.27 29.11 29.00 29.56 29.58 28.00 26.91 25.59 20.67 18.16 16.89 17.12 18.38 17.11 15.61 15.45 15.26 14.48
27.46 27.29 27.41 26.78 27.27 27.67 28.19 28.11 28.08 28.02 27.84 26.93 26.40 26.63 25.97 22.43 23.05 24.11 26.95 28.95 30.32 30.75 30.42 28.15 28.09 27.84 27.48 26.59 23.81 25.42 23.63 23.14 21.82 20.45 19.18 18.46 16.19 14.56 13.80 14.14 11.37 10.65 8.39
29.54 28.02 28.65 28.83 28.25 28.25 27.26 28.70 28.51 28.96 30.42 28.60 27.23 27.19 25.99 23.00 23.65 25.20 24.57 23.43 24.15 24.43 15.45 15.88 16.79 18.04 19.07 18.85 18.10 18.58 19.55 20.03 19.07 18.38 16.99 15.54 13.79 13.02 12.27 12.06 10.33 7.81 5.17
25.26 26.35 26.49 26.42 26.13 24.64 24.01 22.13 27.37 27.58 30.55 30.62 29.34 27.05 21.13 24.54 26.85 27.51 27.05 25.92 24.65 24.67 14.98 14.57 15.30 15.35 15.88 16.02 15.79 15.11 15.17 14.22 14.17 13.59 12.70 11.71 10.87 10.34 9.75 9.30 8.27 5.04 3.09
18.88 20.97 21.21 20.99 20.74 20.62 20.04 20.06 19.45 22.97 28.10 26.55 26.18 25.94 24.29 24.85 26.08 26.91 27.22 26.87 26.82 25.54 15.49 14.48 13.27 12.57 10.79 10.77 10.49 9.49 8.80 9.48 8.60 8.98 8.64 7.96 7.64 7.37 6.11 5.22 4.87 3.46 1.77
12.63 12.62 13.39 13.17 14.32 15.01 15.26 15.46 18.17 21.31 21.31 21.56 26.02 24.96 25.37 26.08 25.88 26.07 26.53 19.99 12.90 11.55 9.89 8.97 8.03 7.37 6.58 5.24 4.07 3.60 3.47 3.37 3.85 4.30 3.83 2.99 2.51 2.96 2.09 1.53 0.63 -0.64 -0.63
11.41 9.78 8.87 10.06 10.47 11.31 12.19 12.57 12.36 12.72 12.48 11.08 14.51 17.22 16.05 25.60 21.47 17.33 15.31 9.56 8.22 7.18 5.08 4.20 2.22 0.39 -1.00 -2.02 -2.87 -3.58 -4.15 -1.45 -0.97 -1.70 -1.46 -3.17 -2.26 -1.33 -1.94 -2.49 -1.09 -1.30 -1.21
8.67 8.59 6.98 6.99 7.40 8.23 8.35 7.87 7.55 8.26 8.12 6.71 6.89 5.27 4.23 6.56 2.15 -0.52 -0.00 1.53 2.56 0.83 -1.15 -1.36 -4.88 -6.35 -6.69 -6.87 -7.20 -8.04 -6.43 -6.23 -4.63 -4.93 -4.48 -5.00 -3.32 -3.34 -2.13 -3.95 -3.20 -2.78 -2.55
3.03 3.21 3.40 3.39 2.14 2.41 3.15 3.24 3.37 3.51 3.87 2.25 2.31 4.05 7.91 3.31 2.01 1.33 -0.97 -2.30 -1.33 -2.75 -4.95 -5.44 -8.39 -9.51 -11.08 -11.13 -11.02 -9.19 -9.15 -5.40 -8.06 -8.21 -7.37 -6.20 -6.72 -5.58 -5.02 -2.98 -2.90 -3.71 -3.33
0.76 -1.39 -0.93 -1.11 -0.48 -0.16 -1.83 -0.37 -0.09 0.05 -0.46 0.30 0.91 7.10 9.70 1.76 -0.28 -1.77 -3.64 -4.91 -7.38 -8.71 -10.31 -9.71 -9.56 -10.36 -9.86 -9.52 -8.19 -8.04 -8.15 -7.59 -8.12 -9.11 -8.61 -9.11 -8.07 -6.75 -6.96 -5.54 -5.81 -4.56 -4.56
0.38 -1.14 -2.96 -5.30 -3.12 -3.47 -3.62 -4.77 -2.67 -1.90 -2.52 -2.86 -1.30 -1.42 -2.73 -3.88 -4.54 -4.11 -5.48 -8.84 -9.33 -9.63 -12.93 -15.02 -11.32 -10.42 -11.23 -14.43 -12.77 -8.98 -7.87 -7.76 -7.40 -9.23 -8.52 -8.82 -8.97 -7.59 -7.60 -7.00 -7.22 -8.12 -7.55
-3.83 -4.33 -4.75 -8.29 -7.66 -7.34 -7.63 -8.67 -7.37 -7.92 -6.95 -8.56 -8.93 -8.99 -6.24 -9.11 -9.40 -6.68 -6.59 -8.19 -9.78 -9.93 -12.72 -13.11 -12.56 -11.55 -11.32 -13.56 -14.21 -14.91 -13.83 -11.17 -11.63 -10.73 -10.29 -9.02 -9.09 -9.62 -7.71 -8.68 -8.64 -9.59 -10.19
-10.53 -9.91 -10.74 -12.35 -14.42 -13.91 -13.08 -13.96 -11.44 -15.32 -14.76 -11.41 -13.06 -11.27 -11.02 -10.10 -8.65 -8.73 -8.24 -11.11 -10.38 -10.79 -9.23 -10.52 -11.79 -12.66 -11.84 -12.64 -12.74 -14.12 -15.91 -7.81 -8.26 -12.72 -13.26 -11.29 -10.64 -11.67 -11.87 -11.02 -11.68 -13.09 -15.36
-14.24 -14.17 -18.31 -17.59 -17.48 -19.35 -18.08 -15.14 -16.47 -14.32 -15.27 -12.55 -12.15 -12.89 -12.16 -11.98 -10.46 -8.90 -8.48 -10.36 -10.20 -9.07 -9.38 -9.73 -11.15 -11.89 -12.80 -12.17 -12.39 -10.87 -10.76 -6.63 -8.35 -9.38 -10.60 -11.02 -12.00 -12.50 -14.23 -15.32 -16.93 -16.78 -15.74

GFSGL_sfc_wetblb_054.txt.gz
Wetbulb
46.79 47.63 47.61 47.91 47.61 47.03 45.40 44.46 42.68 39.58 39.02 37.31 33.97 33.24 32.40 32.90 35.11 36.53 35.68 34.83 34.61 33.46 33.74 33.04 31.76 32.06 31.70 30.53 30.09 30.53 30.80 31.82 30.26 29.39 30.09 30.14 29.20 29.94 30.20 30.99 30.37 30.14 30.72
46.53 46.54 46.10 46.63 46.49 45.51 43.50 41.88 39.70 38.14 37.80 36.65 32.33 31.34 31.02 31.68 31.58 34.98 33.69 33.30 33.23 31.84 31.89 31.60 30.44 28.99 29.31 28.52 28.68 29.04 30.39 30.52 29.76 27.33 28.17 28.11 27.86 29.93 29.51 28.72 28.25 28.66 29.36
45.77 45.17 44.75 44.92 44.77 44.28 43.25 41.21 38.98 39.03 36.78 34.94 32.09 30.77 29.84 30.04 30.18 32.39 33.46 32.91 32.82 32.71 31.77 30.84 29.41 28.71 26.85 26.94 27.43 28.44 29.16 26.74 27.93 27.03 27.02 27.32 27.63 28.53 27.97 28.80 28.89 29.01 28.98
44.54 43.73 43.56 43.55 43.55 43.55 42.48 39.59 37.06 37.71 34.46 32.37 31.56 30.43 29.66 29.41 29.43 29.94 31.33 31.72 31.82 31.45 31.00 30.56 28.89 27.77 26.90 26.51 26.59 27.64 27.43 26.79 26.22 25.40 25.59 26.00 26.77 27.57 26.59 25.44 26.18 29.35 27.99
42.89 42.47 42.40 42.63 42.60 42.66 40.82 37.10 35.38 34.90 32.98 31.96 30.06 29.22 28.94 28.68 28.40 28.85 28.84 30.02 29.56 29.09 28.91 28.30 28.47 28.00 28.85 27.91 27.09 27.65 26.81 26.24 25.74 25.32 24.46 24.99 25.44 25.28 24.21 26.84 24.70 26.37 27.40
42.00 41.49 42.09 41.18 38.83 37.69 36.67 34.77 32.83 32.48 30.46 29.28 28.50 28.14 27.58 27.87 31.39 31.92 29.50 28.05 28.27 27.63 26.92 27.23 27.64 27.63 27.51 29.19 29.77 29.74 28.58 27.33 26.47 26.17 25.38 24.38 25.12 25.54 26.16 25.02 24.38 23.03 21.82
39.74 38.81 37.91 36.64 34.89 34.98 34.54 33.19 31.75 31.08 29.94 28.15 28.10 28.05 27.37 27.85 31.94 32.40 31.06 27.92 27.60 27.54 27.02 26.88 26.64 26.90 26.99 27.37 30.09 30.60 29.72 29.61 29.36 26.58 24.54 25.29 25.37 26.72 26.52 24.63 23.96 23.23 22.53
37.04 36.69 36.06 34.84 34.15 33.92 32.98 32.06 31.36 30.20 28.86 27.74 27.38 27.53 27.33 27.17 32.44 32.39 29.99 27.93 28.15 28.07 27.84 28.78 29.28 27.59 25.96 25.44 25.76 26.47 27.66 28.57 29.06 29.14 28.60 28.30 28.82 28.75 27.26 26.02 25.16 24.63 24.15
35.36 35.62 34.92 34.15 33.12 32.33 31.32 31.50 31.05 29.44 28.25 28.06 27.87 27.24 26.89 27.54 32.68 32.76 30.25 28.00 27.28 26.57 28.61 29.15 29.00 27.80 27.44 28.64 25.28 25.08 25.25 25.20 27.16 29.60 30.22 30.28 30.09 29.77 28.96 27.57 25.14 20.42 20.19
33.91 34.21 33.66 33.30 32.23 31.04 31.53 30.97 31.49 30.49 28.43 26.92 26.81 27.28 26.75 29.32 33.00 32.97 30.62 27.84 27.27 27.26 28.59 28.46 27.95 28.20 28.67 29.06 28.01 26.08 23.73 24.82 25.46 25.19 24.62 26.06 27.55 27.41 28.39 26.92 26.24 22.29 21.51
32.25 31.71 31.66 32.08 31.35 31.87 31.46 31.30 30.25 28.95 26.89 26.23 25.88 26.53 26.90 29.62 31.59 33.29 33.11 29.33 28.86 29.32 30.56 29.05 27.93 30.72 30.94 29.85 30.10 27.78 27.22 28.26 27.10 26.54 24.83 24.65 24.68 24.39 24.26 24.91 24.43 22.79 20.60
30.01 29.50 29.23 29.88 30.51 30.64 29.45 29.68 28.80 28.04 26.38 25.71 25.25 25.48 26.81 27.63 30.80 33.18 33.93 32.28 32.75 31.94 31.43 30.48 29.13 30.12 30.77 31.30 30.26 30.37 30.63 30.31 29.81 28.52 25.87 25.16 24.24 23.38 23.60 23.04 21.96 21.41 21.22
27.48 26.60 28.20 29.60 30.17 29.80 29.44 28.54 28.49 28.17 27.23 26.64 26.17 25.75 25.70 27.02 28.52 32.26 33.34 34.29 34.30 32.12 31.99 30.92 30.07 30.39 30.73 30.43 30.92 31.03 29.69 29.37 28.21 26.57 25.52 24.21 22.85 22.08 21.23 19.79 19.66 19.27 18.33
27.56 27.64 28.20 28.49 28.93 29.40 30.00 29.96 29.49 28.88 28.35 27.70 27.91 28.13 28.10 27.62 28.07 29.67 31.27 33.41 33.36 32.99 33.02 31.34 30.58 30.00 29.49 29.07 26.84 28.54 28.36 27.49 25.93 24.58 23.21 22.24 20.43 18.78 18.21 18.25 16.39 15.88 14.34
29.51 28.97 29.32 29.21 29.50 28.94 29.59 30.11 30.07 31.68 31.85 30.94 31.17 31.40 30.07 26.79 27.06 28.25 28.63 29.60 30.88 31.36 25.83 25.44 25.18 25.09 24.93 24.90 24.31 23.86 23.87 23.14 21.95 21.95 20.06 18.82 17.63 17.28 16.39 16.36 14.51 12.83 10.59
28.99 28.90 29.25 29.52 29.43 28.59 27.94 26.50 30.41 31.53 32.24 31.66 31.75 31.71 30.04 29.63 30.70 30.78 30.56 30.68 30.34 29.56 23.10 23.74 23.59 23.87 23.50 22.88 20.99 20.27 19.50 17.58 17.99 16.96 16.35 15.46 14.07 13.17 12.38 12.44 12.55 9.84 7.88
29.21 27.08 26.29 26.29 26.33 25.91 25.46 26.48 25.22 27.83 28.50 27.87 27.78 28.21 27.12 27.00 27.84 28.32 29.36 29.08 27.68 27.10 23.41 21.92 22.60 21.36 20.22 18.62 17.25 15.70 14.78 14.49 11.81 12.01 11.73 11.07 10.54 9.77 8.41 8.25 8.35 7.34 5.72
23.93 23.76 27.17 26.37 26.40 25.74 25.62 25.55 27.02 27.03 24.76 24.77 26.17 25.85 26.12 26.73 27.02 28.08 28.26 24.95 21.17 20.32 20.37 19.43 18.15 16.95 15.54 13.75 12.15 11.30 10.50 9.56 9.05 9.22 8.63 7.96 6.68 6.42 5.77 5.55 5.46 3.39 3.37
21.38 20.66 21.46 21.37 21.99 21.92 22.70 23.07 23.63 23.66 23.72 21.63 22.25 21.98 25.28 23.70 22.34 21.94 20.78 20.12 18.19 15.85 14.30 13.70 13.48 11.89 10.51 9.41 7.74 6.46 5.87 6.27 6.32 5.52 5.56 4.01 4.38 4.13 3.60 3.49 3.12 1.31 0.65
15.90 15.11 18.53 19.40 19.43 19.29 19.68 19.87 20.22 20.38 20.17 20.32 21.69 17.92 16.22 18.59 18.08 13.42 11.41 12.19 13.46 12.73 11.30 10.42 7.56 5.94 5.17 4.41 3.75 3.47 3.41 2.49 3.25 3.33 3.54 3.34 3.47 2.91 2.36 1.62 1.39 1.07 1.39
14.96 13.63 12.83 16.22 16.72 17.37 17.73 18.27 17.99 18.03 17.25 16.33 14.97 13.20 12.43 15.71 12.98 11.95 9.98 9.10 9.03 8.14 6.18 5.77 3.59 2.57 1.75 1.59 1.44 1.80 1.23 3.81 2.30 1.43 1.66 1.70 1.01 0.33 1.19 1.57 1.28 0.54 -0.16
11.96 11.75 12.61 12.08 12.24 12.75 12.79 13.66 14.41 14.32 13.42 12.76 11.59 12.63 14.10 11.42 10.34 8.78 7.37 5.58 3.84 3.64 3.19 3.26 2.62 2.09 1.41 0.72 1.18 1.94 1.33 1.22 1.71 0.31 0.47 -1.00 -1.09 -0.04 -0.91 -0.51 -0.99 -0.62 -0.96
9.83 9.49 8.85 7.90 7.99 6.96 9.03 9.44 10.06 10.76 10.83 11.37 10.58 9.00 7.97 7.57 6.18 5.58 4.84 3.31 1.82 1.13 -0.18 -1.20 0.04 -0.73 -0.75 -2.49 -0.30 0.87 0.87 0.87 1.16 0.95 -0.52 -0.77 -1.39 -0.94 -1.34 -1.59 -1.69 -3.27 -2.95
7.03 7.11 6.46 5.79 5.60 6.59 6.77 6.43 5.63 2.51 5.64 5.65 5.69 5.22 4.71 3.30 3.05 2.43 1.80 1.97 0.43 -0.14 -1.49 -2.60 -2.73 -2.08 -1.05 -1.85 -1.87 -2.41 -2.74 -2.17 -0.59 -1.90 -2.87 -2.06 -2.01 -2.29 -3.12 -2.88 -3.19 -3.82 -4.17
3.37 3.11 2.02 2.04 2.16 2.07 3.37 2.45 2.32 1.69 1.91 2.07 1.95 1.58 1.94 1.27 0.67 0.57 0.78 -0.80 -2.26 -1.56 -1.81 -2.71 -2.98 -2.88 -3.58 -4.44 -3.68 -3.72 -3.59 -2.35 -1.91 -4.39 -4.23 -4.46 -4.27 -4.24 -5.04 -4.87 -4.67 -4.40 -6.47
1.22 1.07 0.54 1.06 1.16 0.75 1.23 1.59 1.54 1.04 0.92 1.48 0.91 0.55 0.36 0.32 0.30 0.42 -0.30 -2.11 -3.09 -3.01 -2.94 -2.02 -2.27 -3.79 -3.92 -3.61 -4.01 -3.69 -4.39 -3.14 -5.31 -6.80 -3.95 -3.72 -4.67 -4.89 -5.11 -6.64 -7.78 -7.43 -7.50

GFSGL_sfc_wetblb_057.txt.gz
Wetbulb
49.96 49.95 49.84 50.52 51.36 51.61 50.59 50.70 50.34 49.90 47.89 44.30 42.78 40.76 37.84 36.92 38.46 38.71 37.07 37.66 36.82 36.43 35.92 34.42 32.89 32.99 32.20 31.50 31.43 30.98 29.84 31.05 29.60 27.32 30.28 30.72 29.85 29.38 28.97 28.32 30.24 29.46 29.72
49.51 48.83 48.64 49.48 50.02 49.59 49.32 49.51 49.25 47.42 45.18 43.13 41.39 39.08 37.87 35.70 35.38 35.97 34.77 34.92 34.30 32.93 33.43 32.47 31.20 31.46 30.53 30.22 30.07 29.31 29.30 29.27 28.70 27.09 27.47 27.52 27.07 29.25 29.06 27.87 27.65 28.35 28.45
48.72 48.08 47.67 47.88 48.02 48.41 48.40 48.31 47.39 45.03 41.09 39.45 37.53 35.52 35.18 34.00 32.27 33.59 33.62 32.96 33.08 32.18 32.37 31.12 30.09 29.76 28.23 28.55 28.65 28.00 28.66 26.77 27.48 27.29 26.73 27.26 27.27 27.90 27.01 27.47 27.60 28.50 29.09
47.87 47.11 46.30 46.59 46.78 47.47 47.64 46.64 44.84 42.40 38.56 37.53 34.79 34.39 34.35 33.07 31.25 31.49 31.03 31.34 31.55 31.64 31.16 31.17 29.48 29.05 28.11 27.83 27.37 27.56 27.16 26.18 26.43 25.71 25.68 25.75 26.14 27.22 26.33 24.25 24.80 27.67 26.80
46.71 45.95 45.51 45.70 46.21 46.39 45.15 44.15 42.05 39.83 37.90 36.47 33.26 32.43 31.64 30.83 30.10 30.34 30.04 30.22 29.93 29.06 29.12 28.68 29.07 29.69 30.94 29.73 27.41 26.91 26.90 26.95 26.22 25.38 24.46 24.97 24.91 24.93 24.00 25.54 24.80 25.13 26.41
45.73 44.77 45.20 43.37 42.15 41.50 41.40 39.30 36.87 35.74 34.76 32.58 31.20 30.43 29.37 29.20 32.68 33.81 30.73 29.07 28.64 27.73 26.57 26.96 28.40 29.58 31.04 31.49 30.76 30.52 29.03 28.08 27.27 26.75 25.55 24.33 24.86 25.34 25.75 24.96 24.45 23.12 21.13
42.12 39.95 39.17 39.33 38.44 38.10 37.23 35.56 34.28 33.76 32.79 30.54 30.18 29.48 29.26 28.98 32.58 33.94 32.36 28.65 27.86 27.47 26.89 27.27 28.37 29.63 29.02 29.05 30.85 30.64 30.56 31.45 31.02 27.86 25.94 25.90 25.18 26.13 26.21 25.44 24.83 23.68 22.65
39.01 36.98 36.85 36.83 35.95 35.39 34.87 34.00 33.91 33.21 31.06 30.25 29.24 28.93 28.78 28.37 32.38 33.47 31.56 28.24 27.79 27.55 27.37 28.10 29.68 28.38 28.10 27.31 27.64 28.49 28.79 28.37 28.62 28.81 27.75 26.75 26.90 28.28 28.21 27.03 25.55 24.30 24.23
37.10 37.15 36.61 36.06 34.27 34.14 32.94 32.81 32.83 31.43 30.31 29.68 29.56 28.89 28.12 27.94 32.27 33.43 29.97 28.35 27.77 27.27 28.46 29.64 31.21 29.33 30.49 31.46 26.87 26.19 25.97 26.69 30.15 32.01 32.33 32.33 32.42 32.39 30.81 27.20 23.69 22.73 21.83
35.23 35.48 35.70 34.73 32.96 32.45 32.61 31.96 31.88 31.58 29.94 28.14 28.22 28.80 27.87 28.28 32.61 33.13 30.19 28.58 26.95 26.77 28.27 29.84 30.77 31.12 32.50 32.76 28.48 26.46 24.54 25.11 25.39 25.16 24.81 26.59 28.31 27.55 29.61 27.26 25.77 22.70 22.52
33.00 32.67 32.41 32.91 31.84 32.32 31.96 31.73 30.55 29.01 27.98 27.46 26.94 27.27 28.20 30.46 31.59 33.70 32.53 29.15 28.92 27.45 27.37 28.56 29.65 33.34 33.56 33.13 32.48 28.84 27.74 27.85 27.80 26.60 25.29 24.85 24.90 24.63 24.33 24.46 24.98 24.95 22.13
30.94 30.38 30.10 30.48 31.25 31.47 30.11 30.07 28.96 27.81 27.14 26.35 26.00 25.72 27.18 29.62 31.44 34.11 34.31 31.33 31.25 28.35 28.10 29.12 30.40 32.39 34.10 34.10 32.72 32.30 32.09 30.70 28.18 26.76 26.45 25.86 25.34 24.51 24.23 24.43 23.62 22.92 22.61
27.87 27.51 29.13 29.68 30.05 30.30 29.60 28.45 28.54 28.28 27.11 25.78 25.66 25.41 25.92 27.54 30.35 33.78 34.78 33.08 32.12 30.42 31.47 32.46 32.66 33.17 33.85 33.50 34.02 33.38 30.70 29.61 29.05 27.85 26.51 25.71 24.50 22.63 21.57 20.95 21.05 19.47 18.62
27.74 27.86 28.72 28.62 29.37 29.89 30.40 30.05 29.56 28.86 28.36 27.56 27.48 27.13 26.80 26.73 27.91 30.44 31.97 33.31 32.70 32.65 33.01 32.47 32.03 31.98 32.13 31.13 29.20 30.08 29.51 29.34 27.78 26.30 24.70 22.29 20.90 19.73 18.95 18.86 15.83 15.23 13.07
28.64 28.83 29.16 29.61 29.53 29.53 29.87 30.47 30.11 31.22 31.64 30.06 30.56 30.72 28.97 27.34 28.28 29.92 30.70 30.93 32.23 33.06 31.35 30.91 30.32 29.07 28.21 27.74 26.62 26.74 26.79 24.56 22.87 22.92 20.90 20.26 19.29 18.25 17.51 16.81 14.71 11.19 7.81
29.49 29.62 29.66 29.30 29.02 28.16 27.72 28.49 32.72 33.00 32.97 33.07 33.32 33.12 31.25 31.73 31.77 31.44 31.23 31.84 32.31 33.37 27.37 27.05 26.48 26.62 25.81 25.05 23.75 21.91 21.53 19.62 19.82 18.04 17.42 16.81 15.68 13.99 12.45 11.61 9.90 6.05 4.65
30.14 29.14 28.66 28.35 27.88 27.67 27.27 27.30 25.23 27.41 29.57 29.26 29.53 29.54 28.60 29.14 30.19 31.10 31.81 32.24 32.33 31.10 24.57 25.14 25.07 24.94 24.49 23.49 20.84 19.67 17.53 16.15 13.45 13.75 13.08 11.49 11.51 10.36 7.98 5.65 5.75 5.08 1.36
29.28 29.68 29.84 28.76 28.54 28.21 28.25 28.24 27.26 26.38 25.24 24.34 27.00 26.68 27.73 27.81 28.07 28.65 29.23 27.76 23.71 24.54 23.66 22.04 21.90 21.45 20.38 18.34 15.79 14.26 13.02 11.21 10.60 10.47 9.76 8.50 5.56 4.34 2.14 1.18 1.90 -2.32 -2.23
25.62 25.14 26.10 26.31 26.88 26.10 26.60 26.89 27.46 26.13 24.27 22.32 23.00 23.87 25.15 26.47 25.77 25.30 24.99 22.67 20.78 17.73 16.37 16.26 16.09 15.00 13.47 12.64 11.48 10.36 10.10 9.06 8.49 6.39 4.95 0.84 0.12 -0.45 -2.51 -1.36 -0.20 -0.96 -2.48
18.93 19.93 22.27 22.59 22.43 22.48 22.69 22.75 22.96 23.04 22.60 23.11 23.03 18.86 17.74 18.86 19.08 14.63 14.22 14.81 14.31 14.19 12.81 11.62 10.19 9.85 9.14 7.92 6.82 5.77 4.41 1.67 1.74 1.14 1.39 0.09 -0.85 -1.46 -2.47 -5.03 -4.60 -4.18 -4.87
17.68 16.99 18.49 19.70 19.53 19.75 20.91 20.67 20.30 20.87 19.98 20.50 16.55 15.95 16.51 17.40 14.39 12.98 10.65 10.36 10.01 9.01 7.33 6.95 4.58 3.59 3.29 3.19 2.92 2.54 1.89 3.63 1.73 0.28 -0.68 -1.62 -3.97 -6.63 -4.98 -1.96 -4.44 -5.60 -6.52
15.63 15.06 14.79 14.70 14.92 13.64 14.74 15.67 16.00 16.12 15.39 14.46 13.12 14.52 14.51 12.42 11.79 10.06 8.72 6.20 4.04 3.73 3.34 2.66 1.65 0.61 -0.94 -1.10 0.11 1.95 0.68 -0.75 -0.08 -1.55 -1.25 -5.13 -6.27 -6.87 -7.36 -5.87 -6.37 -5.83 -6.63
13.54 12.73 11.66 11.22 11.67 11.25 11.20 11.00 10.79 11.99 11.76 11.90 11.42 9.73 8.71 7.28 5.96 6.05 4.68 2.35 0.98 0.01 -1.43 -2.12 -1.25 -3.86 -3.05 -5.01 -2.13 -1.07 -0.84 -0.98 -0.60 -1.77 -1.99 -4.95 -7.60 -8.26 -8.06 -8.12 -8.20 -9.76 -10.12
10.10 9.72 8.71 7.10 6.85 6.80 7.23 6.95 7.08 4.16 5.38 6.08 6.14 5.72 5.16 3.46 2.73 1.26 -0.08 0.56 -0.74 -2.17 -3.22 -5.62 -5.54 -5.59 -5.71 -5.92 -5.36 -6.35 -6.55 -4.18 -1.68 -4.17 -6.11 -6.39 -9.23 -8.55 -10.28 -10.08 -9.61 -10.12 -9.18
6.28 5.01 4.18 4.11 3.87 4.35 5.03 4.24 3.94 3.14 2.94 3.09 2.89 2.34 1.88 1.17 0.21 -0.44 -0.55 -2.02 -4.90 -4.16 -4.27 -5.86 -5.75 -6.35 -7.11 -8.78 -7.82 -6.77 -3.10 0.51 -4.11 -4.56 -7.39 -9.97 -11.56 -12.84 -13.82 -13.78 -13.25 -12.30 -12.11
4.44 3.84 3.56 3.70 3.15 2.77 2.50 2.54 2.38 2.20 1.18 1.80 1.48 1.03 0.27 -0.40 -0.59 -0.90 -2.06 -3.98 -5.42 -5.91 -6.22 -4.84 -4.58 -6.15 -7.30 -6.27 -6.99 -5.41 -3.31 -0.38 -3.89 -3.16 -5.55 -5.83 -7.31 -10.65 -12.85 -13.82 -16.33 -15.05 -15.09

GFSGL_sfc_wetblb_060.txt.gz
Wetbulb
45.68 45.88 45.96 46.14 47.11 47.70 47.86 47.36 47.25 46.65 45.91 45.23 44.83 44.71 42.89 42.08 42.20 43.20 41.18 40.85 40.83 39.48 36.63 35.48 33.10 32.21 31.17 30.68 29.01 28.75 28.48 28.36 25.50 25.10 27.38 28.21 28.79 27.85 27.59 26.86 26.94 27.09 27.18
45.24 45.38 45.27 45.56 45.88 46.10 46.37 46.26 45.40 45.04 42.94 41.38 39.62 37.61 36.75 36.53 38.52 40.58 38.51 39.93 38.64 36.70 34.64 32.86 31.70 31.82 30.03 29.51 29.07 27.87 27.80 28.51 28.20 24.19 25.29 25.48 26.34 27.44 27.19 25.30 26.45 27.59 26.33
44.77 44.40 44.28 44.10 44.52 44.98 45.22 45.14 44.56 43.49 40.97 38.83 37.63 36.60 34.10 35.23 34.97 38.35 37.78 37.15 37.29 36.79 34.54 32.96 31.30 30.18 28.63 28.30 27.75 27.48 27.09 27.35 27.40 26.53 24.01 25.75 25.98 26.12 24.72 25.16 25.09 25.47 27.65
44.08 43.80 42.80 42.53 43.88 44.11 44.40 44.02 43.24 41.64 37.60 35.52 34.75 35.62 34.06 33.40 32.22 34.93 34.03 34.17 34.25 33.49 32.68 32.59 30.58 29.79 28.32 27.73 27.29 26.96 26.38 26.02 25.66 24.88 24.77 24.53 24.59 25.53 24.91 23.57 23.40 25.81 25.25
43.39 43.16 43.73 41.82 42.80 42.89 41.35 40.05 39.12 37.37 36.36 34.36 32.63 32.08 31.84 31.60 31.45 32.11 32.22 32.02 31.82 30.65 30.03 29.28 29.05 28.94 30.69 29.94 27.79 26.76 26.50 25.64 25.19 24.88 24.01 23.84 23.84 24.03 23.51 24.72 23.72 24.54 24.69
42.38 42.42 43.05 39.87 38.33 37.83 37.41 37.17 36.10 34.50 33.40 32.19 30.88 32.11 31.01 31.19 34.87 35.46 32.32 30.69 30.45 29.62 27.82 27.62 28.80 29.47 31.33 32.31 31.62 31.20 29.33 27.13 25.81 26.12 25.19 23.87 24.25 24.88 25.31 24.74 23.95 22.18 19.87
37.80 34.27 34.10 35.10 35.06 35.99 35.71 34.86 33.35 32.25 31.07 29.92 29.55 30.32 29.58 29.62 33.91 34.80 33.79 29.69 29.52 29.19 27.90 28.12 28.77 29.79 30.23 29.85 32.18 32.19 31.68 33.29 31.48 28.70 26.38 25.68 25.16 26.08 25.88 24.65 24.41 23.24 22.19
32.59 32.57 31.11 33.61 31.95 31.42 31.78 32.10 31.27 30.62 29.04 27.65 28.18 29.26 28.90 28.58 33.44 34.38 32.33 28.91 28.44 28.09 28.06 28.44 28.92 29.14 29.27 29.17 29.10 28.74 28.93 29.99 30.74 30.30 28.03 27.65 27.10 27.30 27.32 26.94 24.59 20.09 21.14
33.73 33.14 32.38 30.32 29.38 29.62 28.49 28.41 28.38 27.55 25.56 24.98 29.68 28.96 28.63 28.68 33.14 34.07 31.07 28.49 27.62 27.20 28.42 29.04 30.09 29.83 31.44 31.76 28.87 28.19 27.89 28.39 31.94 32.99 31.98 31.99 32.32 31.74 30.25 26.08 19.14 15.92 19.75
32.23 32.75 32.14 28.94 27.44 26.56 27.66 26.46 25.51 24.99 28.41 28.55 28.67 29.02 28.40 28.62 33.09 34.01 30.51 28.27 26.64 26.65 27.97 29.13 30.70 30.65 33.04 33.61 28.50 27.46 25.45 26.20 26.78 26.50 27.92 29.74 31.71 29.72 31.51 27.56 20.88 21.39 22.26
28.21 27.74 27.03 27.56 26.13 26.96 25.99 24.62 23.54 23.78 27.51 27.31 27.11 27.32 27.83 29.14 31.49 33.92 31.62 28.53 27.68 26.88 27.21 27.93 30.40 34.16 34.68 34.76 31.63 28.19 28.20 28.85 28.11 26.11 25.46 25.02 24.65 24.21 23.47 23.69 23.97 21.03 19.55
25.29 25.06 23.59 22.46 26.21 25.65 24.25 22.55 21.99 21.43 25.30 25.88 25.53 25.57 27.21 28.62 30.98 34.01 33.54 31.27 31.87 28.19 27.33 28.34 29.60 34.10 34.83 35.26 34.24 32.50 33.44 32.02 26.91 24.97 24.26 23.18 22.80 22.77 22.89 22.20 22.92 22.02 22.06
23.52 23.66 23.75 23.61 24.86 24.11 23.72 22.12 22.64 20.88 22.84 24.71 24.73 24.01 24.78 26.89 28.63 32.93 34.00 33.29 33.08 29.41 29.49 29.94 31.32 32.60 34.29 34.76 35.33 34.61 32.32 30.63 27.36 25.05 24.16 24.96 24.69 22.42 21.64 20.42 20.27 19.54 18.68
22.28 23.00 26.68 27.81 23.87 22.05 24.14 24.58 23.68 23.39 23.17 24.10 25.42 25.00 24.83 25.59 26.20 29.26 31.31 31.93 31.79 30.89 31.36 30.74 31.78 31.91 32.78 32.83 30.08 32.36 30.52 28.90 27.94 27.10 24.88 21.55 20.20 18.58 16.51 17.98 12.54 10.93 5.31
23.16 26.19 27.73 28.06 27.68 25.01 25.61 25.07 27.68 27.91 26.68 24.13 24.02 25.06 23.24 21.32 23.62 29.01 30.90 30.88 31.82 31.75 31.56 31.02 30.40 29.34 28.32 26.91 25.23 25.68 26.33 23.91 23.26 21.86 18.76 17.64 18.51 17.83 17.79 16.43 12.03 4.07 0.53
26.68 25.42 27.35 27.30 27.14 26.94 28.24 29.66 33.08 33.05 33.64 33.62 33.32 31.57 29.78 30.08 31.19 31.35 31.86 32.27 32.68 33.45 28.23 26.19 25.67 23.88 24.28 23.59 22.21 19.71 19.50 19.56 17.77 16.74 15.99 16.07 15.64 14.83 12.55 10.50 8.43 0.25 -2.33
28.30 26.97 27.21 26.46 26.01 25.20 25.70 25.55 24.66 27.67 30.33 30.38 30.43 30.33 30.96 30.90 32.13 31.93 31.96 32.26 32.70 31.42 22.69 22.05 19.05 18.50 17.70 19.21 18.74 16.60 14.80 13.17 12.16 12.87 12.57 11.30 10.75 10.12 7.01 7.26 5.60 1.78 -4.59
29.12 28.42 27.82 27.30 27.00 27.00 26.94 25.51 24.93 22.98 21.31 21.10 27.53 27.52 28.91 29.00 29.18 29.72 31.02 28.50 20.70 22.76 22.49 21.08 21.08 20.10 15.63 13.94 11.19 8.81 8.67 6.67 8.09 10.05 9.25 6.88 5.28 3.17 0.02 -1.19 -1.46 -8.22 -9.09
24.27 24.51 24.85 24.59 25.55 25.50 25.35 25.54 25.35 23.24 21.03 20.74 20.42 21.81 23.51 27.97 26.99 26.00 25.23 15.90 10.60 5.11 5.38 6.88 4.31 3.35 2.25 2.98 2.54 3.11 6.07 6.36 5.54 5.10 3.00 0.33 -0.77 -3.08 -5.82 -4.23 -3.50 -4.03 -7.68
19.20 21.24 21.07 20.52 19.74 19.26 19.56 20.30 20.17 19.17 20.00 21.37 15.45 14.26 13.70 13.76 8.30 6.95 9.45 8.17 6.30 0.78 -0.09 -2.23 -3.34 -3.61 -4.33 -3.90 -2.97 -1.81 -3.29 -3.78 -2.44 -1.84 -2.58 -1.87 -4.89 -4.78 -6.84 -8.06 -10.65 -10.74 -13.83
16.99 17.16 17.50 16.82 16.10 16.73 17.07 17.21 17.39 16.76 17.34 13.16 11.93 15.13 20.36 10.40 6.12 2.47 1.72 1.66 0.11 -1.63 -1.12 -2.66 -4.22 -4.42 -4.63 -4.29 -6.13 -8.23 -9.35 -7.60 -8.51 -8.32 -9.63 -8.99 -7.92 -10.39 -10.22 -5.63 -12.13 -14.36 -14.32
13.84 13.09 12.54 11.59 11.72 12.31 12.25 13.00 12.65 11.86 10.56 9.49 9.32 10.82 14.48 7.60 4.80 2.47 -2.41 -7.29 -9.32 -9.54 -8.77 -6.52 -6.32 -8.87 -11.32 -12.10 -13.00 -12.60 -12.42 -12.76 -13.42 -12.53 -11.82 -12.76 -13.18 -11.53 -10.19 -11.02 -11.82 -9.61 -14.18
12.13 10.95 10.33 10.16 10.13 8.69 7.53 6.66 7.51 7.37 6.37 5.12 3.77 2.85 0.86 -2.65 -4.42 -5.55 -8.43 -10.73 -10.44 -11.06 -12.94 -13.72 -13.74 -13.52 -14.78 -15.01 -14.47 -12.28 -11.84 -12.85 -12.81 -11.88 -13.24 -14.50 -15.19 -14.96 -12.13 -9.98 -10.51 -13.91 -15.72
9.21 8.15 6.93 6.12 5.63 5.39 4.90 3.18 2.65 1.29 0.37 0.27 -2.33 -4.79 -2.93 -7.58 -10.01 -9.70 -11.40 -13.23 -12.71 -15.37 -15.72 -15.28 -15.07 -14.70 -15.66 -15.83 -15.50 -15.08 -14.30 -14.94 -15.75 -13.23 -12.46 -12.49 -12.95 -8.99 -11.61 -11.55 -9.52 -9.17 -8.95
5.24 4.47 3.97 3.04 2.49 1.88 1.71 0.49 -1.34 -3.14 -7.07 -6.69 -9.41 -7.41 -9.94 -9.69 -10.40 -12.67 -13.15 -13.05 -13.94 -14.38 -13.36 -14.27 -14.59 -12.93 -11.43 -10.44 -11.83 -12.41 -10.97 -0.11 -10.01 -9.11 -15.25 -16.06 -16.33 -12.55 -11.63 -11.32 -11.40 -13.00 -12.11
3.54 2.87 1.88 1.01 -0.03 -1.49 -2.69 -3.28 -8.32 -7.39 -7.76 -8.08 -9.14 -11.26 -10.80 -10.93 -11.50 -12.39 -12.68 -13.43 -13.29 -14.00 -14.45 -13.55 -10.97 -8.28 -8.18 -6.62 -6.44 -4.93 -3.85 0.52 -2.30 -2.82 -9.18 -10.18 -12.13 -11.83 -12.62 -11.84 -12.19 -12.00 -14.00

GFSGL_sfc_wetblb_063.txt.gz
Wetbulb
44.39 44.61 44.70 45.49 46.42 46.92 47.69 47.91 46.74 45.82 47.22 46.13 45.15 46.47 46.70 46.36 46.14 46.36 46.23 44.83 43.18 43.12 42.86 41.99 41.23 41.34 38.59 34.95 32.16 30.99 30.61 30.13 27.01 25.73 27.64 28.94 28.80 28.58 28.26 28.29 28.32 28.26 28.09
43.98 44.06 44.04 44.50 44.86 44.90 45.68 45.52 45.04 45.59 44.40 45.43 44.34 43.57 44.43 44.97 44.40 45.04 43.79 43.66 42.37 41.38 40.79 39.78 39.69 34.32 33.77 32.94 32.04 30.81 31.09 29.62 27.70 25.18 25.86 26.28 26.72 26.67 26.30 26.22 26.55 27.33 26.24
43.31 43.20 43.28 43.52 43.36 44.29 44.57 43.96 43.97 43.61 42.67 40.49 40.24 40.61 38.92 39.49 40.50 42.45 43.20 41.45 41.14 41.26 40.45 38.69 37.21 33.05 31.94 30.83 30.88 30.32 29.73 29.35 28.18 26.01 24.24 25.30 25.07 25.54 25.26 25.75 25.92 25.78 26.82
42.53 42.53 42.37 42.94 43.27 43.97 43.16 43.02 42.69 42.03 40.71 38.52 37.40 37.99 35.97 34.50 36.74 37.76 38.72 39.14 38.91 39.48 38.36 37.49 34.68 32.73 32.20 30.08 29.80 29.39 28.50 27.81 27.08 25.85 24.29 24.29 24.34 25.41 25.28 24.37 23.53 25.13 25.55
41.72 41.74 42.55 41.91 41.48 41.71 40.56 39.58 39.09 38.63 39.14 36.97 35.18 34.04 33.43 33.29 34.87 34.75 34.69 36.05 35.83 35.37 33.33 33.62 32.51 32.19 33.12 32.14 29.87 28.21 28.14 27.01 26.29 25.33 23.92 23.93 24.03 24.04 23.67 24.33 23.58 24.62 24.55
40.77 40.76 41.82 39.33 37.50 37.23 37.05 37.09 36.59 35.98 34.69 33.54 32.68 32.34 31.13 33.80 36.67 36.72 34.40 32.76 32.66 31.89 30.41 30.03 29.98 30.48 31.83 33.23 32.88 32.27 30.48 27.14 25.78 26.11 25.47 25.94 25.92 26.38 25.27 24.96 24.73 23.02 20.32
35.97 34.82 33.69 34.77 34.81 35.83 35.53 35.22 34.90 34.10 32.47 32.12 31.36 30.49 30.05 30.77 35.19 36.41 35.74 30.87 31.17 31.09 29.77 28.80 28.89 29.71 30.44 30.67 32.81 32.79 32.02 33.01 31.98 29.40 28.18 27.22 26.66 27.18 26.88 25.88 24.89 23.83 22.55
33.15 32.89 33.10 31.80 31.16 30.28 30.49 31.80 32.66 31.43 29.63 29.13 27.56 27.71 27.76 29.15 34.42 35.61 35.08 29.90 30.00 30.11 29.41 29.43 29.19 29.06 30.23 30.12 29.98 29.28 29.55 30.87 31.76 31.25 30.56 29.20 29.04 28.00 28.89 28.28 26.44 24.80 22.93
33.07 33.05 33.36 31.38 28.55 28.43 27.50 27.43 27.66 26.31 25.11 24.59 26.30 26.30 29.73 29.05 34.10 34.88 33.74 29.24 28.81 28.15 28.88 29.40 29.53 29.24 31.72 32.88 29.06 27.73 28.22 29.28 33.00 33.61 32.14 32.28 31.91 31.11 30.69 27.80 21.45 22.07 18.18
31.18 31.81 31.60 28.36 25.50 25.09 26.79 25.22 24.52 23.71 25.68 28.32 29.04 29.63 29.15 29.31 33.72 34.43 31.45 28.62 27.10 27.07 28.13 29.09 30.13 30.51 33.39 33.18 29.49 29.17 27.64 28.09 28.19 28.72 29.97 32.37 33.15 32.02 34.29 29.52 25.98 21.64 22.53
27.02 26.68 26.04 26.16 24.19 24.68 23.23 22.96 21.52 25.03 28.03 27.69 27.42 27.44 28.02 28.89 31.08 34.44 31.72 28.66 27.36 26.96 27.23 28.08 30.25 33.73 34.59 34.66 32.87 30.00 29.90 29.46 29.79 27.52 26.64 26.17 26.25 26.15 25.95 26.13 25.61 23.21 17.46
23.27 22.96 21.46 20.30 24.67 23.06 22.25 18.25 19.11 23.46 26.60 25.90 25.74 26.08 27.10 27.81 31.14 34.46 32.08 30.65 30.81 27.51 27.20 28.55 30.36 34.63 35.01 34.96 32.28 32.97 33.65 31.15 27.30 26.37 24.11 23.89 23.76 23.90 24.75 24.69 24.42 23.68 22.98
21.75 24.44 22.82 21.31 22.27 21.75 23.21 21.65 20.28 21.93 25.59 24.61 24.69 24.94 25.56 27.40 29.33 34.40 33.52 33.02 32.72 28.79 29.09 29.80 31.90 33.94 35.03 34.91 35.48 34.89 31.94 31.19 25.63 23.61 23.30 23.28 24.07 24.41 24.10 21.99 21.28 20.23 18.95
26.19 26.07 26.87 25.77 22.60 19.48 22.18 21.94 21.08 19.93 24.18 24.35 24.34 24.32 24.25 24.43 25.19 28.88 31.43 31.83 31.45 30.08 30.43 30.56 31.42 31.98 32.88 32.52 30.90 32.99 32.26 31.21 28.26 25.41 24.00 21.32 21.14 20.26 18.56 18.44 15.15 14.59 11.29
25.93 26.65 27.17 27.31 23.29 21.47 24.41 26.95 26.58 26.39 26.36 23.19 21.04 22.14 20.86 20.36 21.66 30.01 31.34 30.54 30.33 30.10 30.27 29.80 29.80 29.28 28.79 29.35 29.03 28.30 26.56 22.82 24.84 20.90 19.55 18.31 18.68 18.36 17.19 16.25 13.83 9.94 9.02
25.10 26.71 26.93 27.19 25.59 26.15 28.99 29.87 33.96 33.56 33.06 32.23 31.46 27.96 27.43 27.40 30.12 31.74 32.40 33.15 33.23 32.78 29.94 28.43 27.67 28.02 27.32 27.06 25.55 20.66 19.65 19.66 18.79 17.95 17.36 16.89 16.48 16.06 13.04 12.69 11.18 7.40 5.71
27.61 26.72 26.50 25.68 25.62 26.32 26.03 26.38 25.20 28.31 31.28 31.39 31.95 32.19 32.23 32.42 32.16 32.05 32.25 32.84 33.01 33.05 25.92 25.56 25.23 24.44 23.77 22.20 19.14 16.29 14.54 13.96 13.77 14.85 14.39 12.68 12.13 12.67 11.21 9.80 8.61 5.80 0.79
27.80 27.42 26.66 25.72 25.71 25.86 25.16 23.98 23.04 20.62 21.33 23.11 28.77 28.72 30.31 30.81 31.08 32.06 31.94 27.83 21.38 22.36 23.04 22.22 21.73 21.43 20.04 15.00 12.74 9.08 8.36 9.38 8.94 8.25 9.17 9.42 8.51 7.08 4.83 4.47 3.75 -2.71 -4.31
26.14 25.70 25.92 26.05 25.84 26.18 25.91 24.73 21.03 19.73 20.45 18.69 19.97 21.49 20.76 25.36 24.85 24.64 22.95 15.89 13.67 11.05 9.01 10.75 9.66 7.08 3.84 5.75 5.24 4.43 4.53 5.41 6.00 5.34 3.71 2.37 2.52 0.31 -3.10 -2.32 -0.66 -0.56 -5.20
22.77 23.09 23.36 22.99 22.56 22.11 22.22 21.35 19.32 19.98 18.43 14.58 13.75 12.35 10.61 10.61 7.46 6.38 6.61 4.50 3.12 -1.98 -6.13 -3.90 -5.09 -4.84 -4.30 -1.42 0.49 2.16 1.00 2.16 4.85 3.63 1.72 -1.53 -6.18 -5.73 -6.83 -10.07 -8.57 -8.18 -10.87
18.25 17.97 18.06 17.55 17.49 17.55 17.77 17.39 17.00 16.30 13.71 12.11 10.82 17.57 16.21 7.28 3.65 0.53 -1.22 -2.10 -2.27 -5.04 -5.38 -8.99 -8.67 -7.94 -8.83 -8.94 -8.39 -6.09 -4.61 -2.68 -8.43 -12.15 -13.91 -13.54 -15.07 -14.47 -15.05 -8.04 -12.26 -11.95 -10.36
14.91 14.45 14.50 13.96 14.23 14.02 13.52 13.17 12.16 11.20 10.46 9.11 7.35 12.40 13.82 4.66 1.23 -0.85 -6.15 -10.57 -13.69 -12.87 -14.12 -12.71 -13.07 -13.80 -14.09 -13.18 -14.78 -15.17 -15.65 -15.74 -18.49 -16.55 -14.45 -15.28 -14.34 -14.39 -13.83 -11.46 -11.75 -11.93 -11.46
13.35 12.51 11.74 10.70 10.05 9.22 8.62 8.75 8.19 7.10 5.74 4.26 3.90 2.82 0.31 -3.56 -5.08 -6.90 -8.85 -12.38 -13.60 -14.59 -17.39 -17.35 -16.53 -15.99 -19.09 -19.27 -19.05 -15.52 -14.34 -14.59 -11.96 -11.52 -10.84 -13.10 -14.14 -12.96 -13.47 -9.04 -11.25 -14.36 -15.39
10.95 9.91 8.65 7.02 7.44 6.53 5.68 4.47 3.81 3.37 2.24 0.04 -1.72 -4.71 -3.79 -8.63 -10.36 -9.95 -12.27 -14.81 -15.57 -19.11 -19.92 -18.35 -17.93 -17.19 -18.49 -19.56 -20.96 -20.63 -19.25 -16.84 -18.22 -10.18 -7.86 -9.93 -10.17 -10.12 -9.35 -10.61 -13.40 -13.42 -11.02
7.41 6.29 5.60 4.90 4.28 3.51 2.50 1.55 0.24 -1.15 -1.67 -2.23 -6.96 -5.86 -9.61 -10.35 -11.37 -13.94 -16.01 -16.23 -17.46 -17.57 -16.06 -17.55 -18.42 -17.24 -17.04 -15.58 -16.62 -17.30 -15.80 -2.69 -12.05 -10.86 -10.63 -9.27 -7.05 -7.34 -7.06 -7.43 -8.18 -9.68 -12.18
4.76 3.89 3.15 2.83 1.87 1.09 0.21 -0.69 -1.88 -2.47 -5.94 -7.67 -8.49 -12.09 -12.03 -12.00 -13.43 -15.34 -16.35 -17.10 -16.26 -16.91 -18.20 -18.93 -18.29 -16.07 -14.80 -13.07 -12.29 -9.41 -6.14 -0.65 -1.48 -1.51 -8.25 -7.96 -7.87 -8.69 -9.44 -8.95 -8.56 -8.86 -14.20

GFSGL_sfc_wetblb_066.txt.gz
Wetbulb
43.21 43.39 43.51 44.13 44.94 45.65 46.47 47.30 46.59 45.45 45.82 46.37 46.09 48.07 48.42 48.51 48.55 48.64 48.76 48.08 45.46 45.35 44.73 43.78 42.90 43.29 42.46 40.17 39.04 37.35 35.21 34.92 35.03 27.10 28.75 30.28 30.28 30.45 29.95 31.33 30.19 29.70 29.74
43.65 43.34 43.28 43.53 43.67 43.86 44.97 45.76 44.45 44.92 43.64 45.52 43.89 46.04 46.89 46.91 46.75 46.39 46.22 45.72 43.48 43.03 42.97 42.53 42.15 42.22 41.32 40.77 38.48 34.82 34.83 32.75 30.92 26.69 27.01 27.78 28.54 29.32 28.91 29.64 27.95 28.61 27.72
42.57 42.34 42.46 42.60 42.54 43.21 43.94 43.46 43.03 43.13 42.65 41.66 41.55 42.59 43.89 44.74 44.65 44.69 45.75 44.94 43.28 43.77 43.33 41.79 42.34 40.92 38.85 37.66 34.85 34.30 32.89 31.08 29.64 28.45 25.51 26.69 26.44 28.32 26.03 26.67 26.23 26.40 27.34
41.59 41.39 41.25 41.96 42.93 42.89 42.69 42.18 41.76 41.79 41.26 39.87 39.02 41.46 40.70 41.20 41.56 42.27 42.01 41.29 41.04 41.50 41.09 40.79 40.53 37.81 38.11 34.57 33.13 32.51 31.15 30.14 29.08 30.16 27.33 26.46 25.45 25.55 26.22 25.13 24.32 26.24 25.66
40.16 40.00 40.82 41.39 41.14 40.81 39.78 38.93 38.45 38.22 39.64 39.08 37.41 36.14 35.91 35.51 36.97 36.31 37.06 37.90 38.32 38.53 36.68 36.51 37.25 35.93 35.93 34.60 32.36 31.55 31.28 30.89 30.22 28.53 26.19 24.48 23.79 23.89 24.64 25.20 24.89 25.01 25.24
37.82 37.04 37.84 36.53 36.42 36.41 35.96 35.88 35.76 35.92 35.75 35.24 34.66 34.61 33.74 35.88 38.02 38.67 36.57 35.27 35.01 35.11 34.56 32.79 32.46 32.06 34.38 35.29 35.74 34.59 33.05 31.00 28.67 26.24 25.48 24.61 25.10 26.54 26.86 26.89 25.73 23.77 23.52
33.57 33.65 32.77 32.23 32.38 34.18 34.70 34.55 34.48 34.46 33.71 33.47 33.17 32.37 31.68 31.67 36.86 37.92 37.13 32.79 33.03 33.07 32.59 31.35 30.53 31.35 31.70 32.45 35.15 33.75 33.64 35.35 32.33 28.97 26.49 27.26 27.34 28.70 28.46 26.43 26.13 25.98 24.66
31.86 31.57 32.31 33.92 32.71 31.53 31.02 31.09 33.21 32.26 29.98 29.70 28.18 27.71 27.95 28.95 35.12 36.76 36.23 31.74 31.01 31.26 31.00 30.46 30.41 29.54 30.55 30.66 30.96 30.56 30.39 31.47 31.70 31.51 31.71 31.07 31.08 30.33 29.61 29.16 28.48 27.06 24.73
32.68 31.95 31.18 30.50 32.08 29.42 29.04 28.53 27.07 26.21 24.85 24.22 25.60 27.11 29.80 29.81 33.77 35.52 34.95 30.30 29.75 29.40 29.61 29.90 29.93 29.27 31.71 33.29 30.36 28.68 29.35 30.18 33.93 34.63 33.58 33.87 33.89 32.94 31.43 28.10 23.46 23.00 21.16
31.29 30.58 29.91 28.93 29.27 27.22 26.62 24.42 24.31 22.93 25.28 28.41 29.65 30.00 29.74 30.13 32.82 34.87 32.79 29.36 27.79 27.58 28.33 29.08 29.90 29.94 33.69 34.42 29.45 28.66 27.81 28.98 29.21 30.03 30.58 32.27 32.92 31.88 33.03 29.51 27.07 23.61 22.99
27.10 26.45 25.57 25.81 24.92 24.30 22.35 22.17 20.66 22.81 28.25 27.97 27.62 27.55 28.23 28.94 30.77 34.47 31.32 28.73 27.57 27.13 27.55 27.98 29.97 33.15 34.19 34.09 31.95 29.56 29.53 30.40 31.42 28.92 27.98 27.70 27.89 28.01 27.49 27.57 27.98 25.96 21.11
23.37 22.34 21.16 19.27 22.17 22.49 17.82 17.26 16.77 23.49 27.14 26.23 25.83 26.11 26.93 28.05 31.02 34.48 32.12 30.19 30.28 27.49 27.25 28.45 29.79 33.75 34.57 34.69 32.88 33.04 34.34 30.48 29.21 26.27 25.20 24.63 24.63 24.52 24.91 25.52 25.40 25.00 24.45
18.26 25.11 26.57 18.72 20.05 20.63 17.66 16.68 17.95 18.18 24.50 24.70 25.09 25.52 25.81 27.48 29.70 33.91 33.13 32.87 32.14 28.37 28.86 29.82 31.70 34.03 34.56 34.42 33.41 34.35 31.84 28.77 25.57 25.11 23.90 22.60 23.69 23.78 24.38 22.40 21.61 20.10 19.20
22.32 25.66 22.39 19.43 23.45 21.62 21.49 22.47 22.68 22.21 25.21 24.76 24.64 24.95 24.94 25.82 26.80 30.53 31.31 31.41 31.05 29.09 30.05 30.13 31.25 32.06 33.77 32.42 30.92 32.84 31.20 30.52 28.55 26.90 24.64 20.94 22.08 20.52 18.07 18.46 15.89 15.32 12.67
17.05 21.08 21.25 26.52 25.64 24.81 21.10 25.23 25.16 24.88 26.45 25.94 25.68 25.27 24.52 23.89 26.36 31.05 31.51 30.07 29.46 28.76 28.84 28.99 28.52 28.17 26.63 27.76 27.71 27.91 27.97 27.89 28.03 25.68 21.37 18.42 18.38 17.87 17.04 16.53 14.71 12.13 9.12
23.76 25.15 26.47 26.32 25.17 25.77 24.81 28.01 32.42 31.01 31.82 31.53 29.68 26.91 24.79 27.13 30.94 31.67 32.31 31.92 31.62 32.12 29.69 27.82 27.03 27.53 26.41 26.13 25.84 25.45 24.23 21.90 20.29 19.14 16.76 16.75 16.33 16.04 14.55 13.78 12.71 11.00 9.86
25.56 26.22 25.36 25.06 25.11 25.47 25.51 26.24 26.33 30.15 33.24 33.52 33.29 33.25 32.17 31.07 31.44 32.32 32.74 33.36 33.58 31.90 27.00 26.44 25.62 25.12 24.05 23.13 22.79 20.88 17.36 14.92 14.97 16.20 14.58 13.50 13.71 13.80 13.42 11.92 10.61 8.52 6.48
27.92 27.27 26.07 25.12 25.40 25.31 24.40 23.38 23.41 23.74 22.42 21.92 29.49 30.40 31.12 31.27 32.45 33.05 31.88 27.12 21.94 21.49 21.88 21.26 20.07 19.65 18.81 17.74 15.63 11.64 10.57 10.14 9.77 10.57 9.29 7.27 8.86 8.56 5.59 5.67 6.60 3.16 -1.14
27.66 26.81 26.62 26.57 26.18 25.56 24.59 21.83 21.28 20.96 19.50 18.64 19.76 20.38 19.88 25.83 25.42 25.13 24.14 18.50 16.15 13.50 12.97 9.11 4.41 2.27 1.12 2.45 3.66 1.02 0.65 1.65 2.14 1.69 1.69 2.46 2.98 1.99 0.55 4.09 3.04 -1.03 -8.99
25.76 26.12 26.38 25.63 24.86 23.66 22.16 20.06 19.21 17.24 15.72 14.89 14.04 12.76 11.37 12.01 10.99 7.83 7.38 7.24 6.45 2.25 -0.90 2.38 -5.18 -7.75 -7.53 -7.68 -6.19 -7.21 -6.92 -5.72 -3.56 -3.29 -4.74 -2.68 -0.58 -3.19 -8.01 -12.21 -10.91 -12.71 -14.19
21.77 21.59 21.52 21.18 20.29 21.08 20.70 19.22 17.67 15.07 14.07 13.84 13.22 15.79 16.78 9.47 5.15 1.92 1.30 1.26 0.85 -1.51 -6.03 -9.26 -11.23 -11.83 -12.81 -14.19 -12.83 -11.23 -10.49 -7.97 -10.05 -13.01 -15.40 -17.03 -18.74 -14.93 -16.07 -8.60 -14.40 -15.79 -14.18
18.25 17.90 18.10 16.70 16.89 16.56 15.53 14.84 14.07 13.15 11.51 10.51 9.09 13.82 13.88 6.27 3.39 1.08 -1.44 -5.12 -8.76 -10.05 -13.01 -11.13 -13.45 -15.04 -15.55 -15.55 -16.67 -15.46 -16.11 -16.87 -20.82 -20.26 -18.50 -19.06 -18.99 -17.70 -15.35 -11.59 -11.29 -11.36 -12.56
15.76 14.55 13.82 12.87 12.83 12.38 11.66 11.26 10.43 9.28 7.27 6.07 4.88 3.89 2.65 0.67 -0.33 -1.85 -4.73 -11.11 -10.89 -9.69 -12.35 -13.33 -13.58 -14.33 -18.18 -19.95 -21.15 -16.91 -15.62 -16.74 -16.94 -19.52 -15.47 -17.18 -17.45 -15.46 -15.71 -12.65 -11.12 -11.49 -10.60
13.75 13.00 11.74 10.70 10.29 9.17 8.09 6.34 6.13 5.92 4.62 2.83 1.48 0.13 0.48 -2.98 -5.50 -6.30 -9.66 -12.03 -11.54 -14.96 -15.92 -16.29 -17.00 -17.85 -19.84 -22.33 -25.10 -25.72 -24.21 -21.69 -23.47 -20.21 -18.20 -16.87 -14.29 -12.97 -15.04 -12.45 -10.41 -8.78 -7.43
9.96 9.55 8.87 7.92 6.74 4.96 3.90 3.34 3.38 2.37 1.18 0.80 -1.74 -1.58 -4.77 -7.31 -8.34 -10.55 -11.47 -13.22 -14.78 -15.10 -15.66 -18.03 -19.50 -19.21 -19.52 -19.77 -20.80 -22.31 -21.90 -7.70 -18.18 -18.06 -19.73 -15.60 -13.53 -14.08 -14.37 -9.56 -8.79 -7.61 -7.80
6.10 5.82 5.30 4.50 3.88 3.29 2.87 2.30 1.28 0.67 -0.73 -2.18 -3.70 -7.17 -7.77 -5.78 -7.76 -12.83 -14.93 -16.20 -14.66 -16.37 -18.97 -20.60 -21.04 -21.22 -20.13 -17.50 -15.71 -11.94 -10.49 -4.49 -9.20 -7.96 -17.23 -16.18 -15.06 -13.84 -10.69 -8.72 -8.46 -7.16 -7.38

GFSGL_sfc_wetblb_069.txt.gz
Wetbulb
42.47 42.38 42.48 42.83 43.47 44.08 44.59 45.76 45.90 45.35 44.84 45.52 45.65 45.83 46.15 45.97 46.59 48.57 49.62 49.42 48.25 47.71 47.26 45.96 45.36 45.63 44.92 43.62 42.02 40.96 39.48 40.25 39.72 37.16 29.89 30.63 30.72 30.64 30.47 32.26 33.25 32.58 31.75
42.06 42.10 42.06 42.46 42.48 42.48 42.95 43.97 43.92 44.33 43.71 44.89 44.30 44.39 45.27 46.86 47.97 47.47 47.69 47.65 47.22 45.56 45.82 44.46 44.40 44.13 43.07 43.79 40.93 39.81 38.69 38.66 38.85 37.67 27.88 28.46 29.39 30.30 30.64 30.51 31.26 32.13 31.05
40.96 41.01 41.31 41.59 41.67 41.93 42.33 42.62 42.50 42.37 42.26 41.55 41.53 41.86 44.33 46.40 46.33 46.31 47.08 46.48 45.87 45.47 45.10 43.33 43.54 42.28 41.23 41.86 40.26 39.77 38.80 37.44 35.65 33.02 26.91 28.67 28.14 30.00 28.38 30.16 29.53 29.10 28.88
39.69 39.76 39.71 40.14 40.53 40.99 41.31 41.16 40.97 40.88 40.37 39.78 39.36 40.81 40.53 43.92 43.99 44.62 44.35 43.92 43.68 43.68 43.45 42.97 42.41 41.74 40.80 40.61 37.28 36.57 34.84 33.37 31.95 32.39 27.77 27.31 27.57 27.91 28.63 26.77 25.42 26.26 25.76
37.11 37.09 37.73 38.10 38.17 37.88 37.29 36.94 36.56 36.19 37.92 38.24 37.43 36.26 36.57 38.19 41.41 40.24 39.44 40.43 40.12 40.45 38.14 38.05 38.67 38.23 37.82 39.35 36.26 34.20 32.76 32.33 30.77 31.01 28.34 26.22 25.47 25.00 25.05 26.37 25.52 26.04 26.38
35.11 34.35 34.85 33.23 32.73 33.19 33.56 33.94 34.14 34.39 34.41 34.53 34.54 34.45 34.32 36.38 39.02 40.30 39.31 37.05 35.79 35.89 36.27 35.30 35.39 33.60 35.25 38.07 38.18 37.29 34.53 32.57 31.34 31.45 27.91 26.63 25.72 26.39 27.02 25.83 25.83 25.06 23.88
32.06 32.34 32.11 32.00 32.27 32.52 32.22 32.39 33.10 33.63 33.32 33.24 33.16 32.90 32.07 32.76 37.79 39.02 38.49 34.63 34.37 34.31 34.31 33.65 32.33 32.13 32.28 33.32 36.40 36.84 35.47 36.43 35.41 31.11 27.58 27.48 26.33 27.57 27.46 26.63 26.83 26.46 25.72
32.56 30.57 29.14 30.41 30.06 30.45 30.82 30.80 31.27 31.71 29.83 29.48 29.19 28.67 27.86 29.60 35.97 37.52 37.10 33.42 32.25 32.17 32.27 32.08 31.61 30.83 31.45 31.52 32.03 31.09 30.99 31.89 31.71 30.88 30.42 29.73 29.93 30.02 29.33 29.69 28.49 27.65 26.03
31.95 32.03 31.02 29.31 29.13 29.42 27.87 27.90 27.67 25.83 24.89 24.34 25.71 23.24 23.88 30.78 33.93 35.66 35.39 32.16 30.58 30.19 30.52 30.53 30.71 30.05 31.68 33.89 30.76 29.31 29.71 30.12 33.38 34.25 34.12 34.06 34.61 34.24 32.31 29.07 25.61 24.73 22.52
31.20 30.86 29.33 27.99 28.51 30.06 29.12 27.17 24.40 21.84 25.37 25.03 27.43 29.87 30.50 31.12 32.36 34.61 34.22 30.37 28.99 28.17 28.75 29.43 29.97 30.25 32.58 34.38 30.29 29.52 28.15 29.10 30.16 30.54 31.18 32.75 33.00 32.74 33.53 29.88 27.48 24.53 22.98
27.54 26.52 25.09 24.88 23.99 24.60 23.79 21.17 19.69 19.67 22.68 21.42 25.27 26.66 28.27 28.68 29.80 34.39 32.98 29.57 28.52 27.63 27.98 28.16 29.68 32.88 34.02 34.46 32.29 30.23 29.86 30.28 32.14 29.68 29.27 29.34 29.51 29.33 29.82 29.87 28.52 26.95 21.87
24.30 23.31 22.76 25.27 21.78 23.78 15.21 16.56 14.41 15.76 18.68 24.13 26.39 25.90 25.76 28.09 30.79 34.18 32.71 30.43 30.20 27.71 27.51 28.27 29.42 32.98 33.87 34.27 31.33 33.32 33.94 31.20 29.62 27.84 26.44 25.84 25.69 25.66 25.37 25.31 26.09 25.71 25.09
22.98 22.90 25.63 27.28 20.95 18.57 14.54 16.12 15.32 13.49 15.49 21.78 24.79 25.36 24.45 25.86 30.06 34.30 33.22 32.70 31.04 28.37 29.00 29.96 31.77 33.35 34.23 33.74 33.87 34.52 29.87 28.54 27.00 25.25 24.67 24.18 22.45 22.92 24.21 21.99 20.84 19.98 19.76
19.17 21.31 26.07 25.65 20.41 16.22 18.71 18.71 22.03 21.54 25.20 25.39 24.92 25.70 25.69 26.02 28.32 30.23 31.03 31.08 30.28 29.42 30.61 30.25 31.88 32.70 33.84 32.37 31.16 32.38 30.79 29.42 27.71 26.99 25.95 24.05 23.67 21.59 19.87 19.22 15.28 15.63 13.38
20.87 20.22 22.68 21.66 18.33 18.59 21.13 21.13 21.60 22.24 26.68 25.87 26.01 26.22 25.42 25.20 27.77 31.94 31.01 29.10 27.70 29.44 29.08 29.01 28.72 28.02 28.02 28.01 28.03 28.17 28.02 27.81 27.30 25.48 23.22 19.52 18.68 17.39 16.59 16.05 14.78 12.76 10.08
24.23 24.96 25.55 25.64 20.42 21.67 25.61 26.43 31.23 30.75 31.06 31.25 29.95 27.82 26.56 29.03 33.00 33.61 32.50 32.20 31.98 31.36 28.70 27.36 26.79 26.59 25.11 23.58 23.49 24.02 23.29 19.47 17.61 17.20 15.51 15.97 15.06 15.59 14.48 12.87 12.20 8.40 8.40
23.18 26.22 26.19 24.95 21.78 20.67 23.20 24.29 27.33 29.86 33.35 33.16 32.88 32.50 30.83 31.80 32.54 32.81 32.71 33.09 33.17 30.55 26.81 25.62 24.07 23.31 22.50 20.56 19.25 17.31 13.58 11.52 12.66 14.62 12.77 12.13 13.04 11.48 8.99 9.11 9.62 9.03 6.58
15.74 21.33 25.90 24.09 19.25 19.61 23.37 23.52 23.49 23.41 21.81 21.47 28.32 30.36 32.70 32.65 32.97 33.51 31.17 27.48 22.40 22.09 21.28 19.98 18.31 16.89 13.76 11.64 7.18 6.74 6.28 7.09 7.21 7.00 6.47 3.67 2.81 3.62 5.22 7.18 6.82 3.07 3.80
14.32 19.73 24.53 23.84 24.56 24.02 24.25 22.54 21.91 20.95 19.51 18.40 19.44 21.47 20.15 27.21 26.72 26.26 25.85 20.75 17.91 14.23 9.33 7.00 4.37 2.60 1.23 0.61 -0.82 0.52 0.29 0.41 -2.14 -3.45 -3.05 -2.50 -0.64 0.97 1.06 2.47 4.81 3.36 -1.47
14.29 19.19 24.60 25.79 25.93 24.45 22.19 20.63 18.77 17.77 16.94 16.33 15.67 14.54 14.06 16.01 11.70 8.85 8.78 8.88 6.42 3.05 3.72 3.38 -2.21 -4.46 -7.51 -6.67 -6.80 -7.27 -4.84 -6.46 -7.56 -7.78 -7.80 -4.52 -3.06 -1.89 -0.15 -5.15 -6.62 -6.82 -10.02
15.36 20.36 25.35 25.95 25.13 23.13 21.40 20.06 17.77 16.84 15.10 14.63 14.72 16.27 17.03 10.81 6.69 5.37 4.27 2.59 1.31 -1.33 -1.06 -1.06 -3.94 -6.98 -14.94 -15.07 -13.91 -12.49 -12.97 -12.55 -15.07 -14.87 -16.61 -18.86 -19.69 -15.32 -18.55 -10.54 -14.90 -12.68 -10.00
16.32 19.58 20.87 22.37 21.22 21.05 19.69 17.98 16.80 15.04 14.04 12.74 11.68 15.93 15.15 7.50 4.85 2.33 -0.77 -3.79 -7.85 -8.53 -11.79 -8.95 -13.19 -14.38 -14.94 -12.69 -15.34 -15.24 -16.48 -17.68 -21.69 -21.23 -19.89 -21.52 -21.78 -21.54 -19.04 -13.60 -10.51 -9.03 -12.69
15.01 16.29 16.79 17.12 17.33 16.65 15.74 15.42 14.27 12.40 10.36 8.64 7.29 5.92 4.08 2.51 1.10 -0.80 -3.71 -7.64 -6.13 -7.64 -12.83 -12.45 -10.42 -12.61 -14.96 -18.21 -19.91 -15.24 -16.17 -17.04 -19.18 -22.32 -20.00 -21.72 -21.92 -21.23 -20.98 -17.52 -16.01 -13.44 -12.80
14.03 14.61 14.03 13.69 14.16 13.58 12.54 10.87 9.89 9.20 7.11 5.11 3.63 2.56 1.76 -0.58 -1.09 -2.28 -4.31 -6.69 -6.29 -12.32 -13.25 -10.35 -12.25 -16.13 -20.07 -22.01 -25.18 -28.18 -26.91 -24.80 -26.76 -23.21 -20.78 -20.33 -21.05 -19.65 -20.36 -19.73 -15.96 -13.68 -11.79
11.21 11.16 11.09 10.73 10.61 9.46 8.73 8.25 7.17 5.88 4.39 3.26 1.13 -0.54 -0.95 -1.67 -3.84 -6.51 -7.13 -8.93 -10.26 -10.00 -12.91 -16.43 -18.68 -19.64 -20.47 -21.43 -23.15 -25.28 -24.64 -9.16 -22.43 -22.10 -25.11 -21.12 -20.42 -21.94 -22.01 -20.07 -17.37 -15.54 -13.80
7.42 7.32 7.17 7.32 6.91 6.83 6.47 5.25 3.56 2.58 1.58 1.34 -0.58 -3.33 -2.79 -2.98 -4.14 -7.42 -9.00 -8.90 -12.74 -16.02 -18.53 -20.72 -21.92 -22.30 -21.43 -20.11 -19.06 -15.74 -12.67 -6.44 -13.07 -11.62 -20.94 -20.11 -20.22 -21.34 -21.79 -20.07 -18.01 -15.39 -11.91

GFSGL_sfc_wetblb_072.txt.gz
Wetbulb
40.63 40.81 40.94 41.27 41.78 42.12 42.25 43.03 43.29 43.54 43.80 43.91 44.03 44.10 44.67 44.85 44.61 46.46 48.80 50.05 49.97 49.81 49.24 47.61 47.04 47.54 47.29 46.48 45.06 44.27 42.67 41.99 39.98 43.18 34.31 32.80 32.50 32.55 32.30 33.88 34.43 34.80 35.76
39.98 40.20 40.44 40.69 40.86 41.03 41.47 42.23 42.20 42.46 42.54 43.08 42.80 42.66 43.58 44.08 44.02 44.27 46.03 47.50 47.58 47.31 47.56 47.34 46.19 45.90 44.89 46.05 45.17 42.60 41.96 41.86 40.37 39.36 34.70 29.56 30.29 31.93 31.54 31.30 32.08 33.51 33.02
38.72 38.93 39.46 39.50 39.35 39.51 39.84 40.34 40.60 40.58 40.39 40.07 40.12 40.36 41.31 42.46 43.41 45.30 47.13 46.80 46.61 47.04 47.00 45.40 45.58 43.62 42.52 43.12 43.18 41.66 41.22 40.42 39.71 38.42 37.26 29.45 29.31 30.08 29.43 30.46 30.63 31.26 32.01
37.41 37.29 37.22 37.49 37.51 37.64 37.74 37.88 37.80 37.90 37.80 38.00 38.12 38.66 38.92 39.85 41.04 44.19 45.07 44.57 44.60 45.19 44.99 44.81 43.64 42.56 41.98 41.61 40.64 40.14 39.33 37.83 35.88 35.37 29.38 28.07 28.33 29.01 29.52 27.99 26.52 28.03 28.08
35.54 35.29 35.51 35.46 35.29 34.78 34.77 34.57 34.67 34.40 35.79 35.54 35.46 35.16 35.14 35.97 38.91 40.83 41.35 41.99 41.49 41.85 40.02 39.56 39.75 39.33 38.75 40.53 38.86 37.94 35.95 35.37 32.94 33.06 31.07 27.51 26.16 26.10 26.44 27.29 26.64 26.43 26.75
33.46 33.14 33.47 32.32 31.92 32.01 31.96 32.09 32.24 32.98 33.27 33.50 33.52 33.37 33.50 35.86 38.49 40.11 40.46 37.62 36.63 37.16 37.90 36.47 36.36 34.46 36.28 38.70 40.10 40.25 37.10 34.69 33.34 32.43 31.67 28.75 26.62 26.91 27.55 26.87 26.07 24.49 22.96
31.34 30.62 29.86 30.37 30.05 30.75 30.79 30.83 31.17 31.18 31.58 31.67 31.90 31.92 31.57 32.22 37.18 38.76 38.81 36.69 35.55 35.71 35.21 34.46 33.93 33.36 33.23 33.84 36.26 38.64 38.24 38.17 36.96 33.06 30.60 29.26 27.00 28.16 27.95 26.40 26.60 26.66 26.08
31.48 30.22 28.38 29.04 28.52 28.00 28.30 28.34 29.58 30.00 30.11 29.74 29.50 28.80 28.00 29.98 35.92 37.14 37.41 34.61 34.29 33.55 33.17 32.82 32.73 32.48 32.01 31.74 32.22 32.54 32.43 32.39 33.01 31.96 31.69 30.16 30.18 29.89 29.72 29.10 28.29 26.82 26.52
31.56 31.10 30.29 28.92 27.80 27.54 27.42 27.49 26.55 26.61 25.71 26.12 26.47 25.40 22.75 26.70 34.40 35.56 35.82 33.12 32.31 31.56 31.06 31.03 31.09 30.85 32.05 34.15 31.40 30.49 30.14 29.95 33.32 33.97 33.76 34.28 34.46 33.53 32.16 29.60 26.63 25.87 23.44
30.53 29.92 28.42 27.25 25.72 25.75 26.66 26.55 24.13 22.08 26.38 26.04 25.67 22.09 23.15 28.89 32.87 33.97 34.39 31.64 30.45 28.96 28.89 29.49 29.92 30.58 32.16 34.45 30.59 29.73 28.19 28.84 30.28 30.91 31.67 33.17 33.97 33.62 34.06 30.69 28.44 25.58 23.55
26.82 26.20 25.40 24.86 23.68 23.74 23.89 22.34 22.56 22.07 22.88 21.15 21.74 20.92 22.02 27.00 29.32 32.78 35.16 30.18 29.52 28.28 28.21 28.12 29.43 33.06 33.20 34.52 32.65 30.29 29.57 31.17 32.28 29.85 29.42 29.22 29.33 29.81 29.43 28.95 29.06 27.44 23.68
23.46 23.09 23.10 21.90 25.24 25.07 18.46 19.46 17.42 16.13 17.39 19.55 18.89 22.94 22.08 23.08 29.33 33.60 33.07 31.22 30.48 27.98 27.71 28.01 29.15 32.78 34.03 34.28 31.10 34.10 34.44 30.99 29.54 28.14 27.27 26.42 26.19 26.18 26.62 26.49 26.75 25.31 25.39
20.32 21.52 21.66 22.06 26.13 20.66 15.58 18.76 17.40 12.32 15.28 18.66 19.72 18.79 24.21 26.43 29.56 33.71 32.91 32.66 30.90 28.41 29.08 29.73 31.68 33.40 34.59 33.17 34.01 33.99 30.01 29.20 27.43 26.27 24.98 24.03 23.41 24.49 24.06 20.97 20.13 19.16 18.69
25.94 25.40 23.27 24.27 26.32 23.83 20.03 19.34 18.04 18.52 18.63 20.90 20.40 20.43 25.36 25.38 27.75 29.30 30.13 29.12 29.72 29.75 31.01 30.25 32.58 33.05 33.45 32.00 31.32 30.82 29.54 28.51 27.24 26.94 26.21 24.60 23.46 21.91 19.23 19.29 16.47 15.77 11.89
21.21 25.52 26.46 26.84 25.61 23.76 22.50 22.21 22.05 21.41 22.61 18.47 19.40 19.19 20.27 22.78 27.82 30.99 29.17 28.08 28.47 30.00 29.48 29.74 29.02 28.55 27.81 27.51 27.50 26.92 26.89 26.47 25.90 23.80 22.38 20.37 19.13 18.68 17.23 17.16 14.88 11.12 7.96
19.62 23.42 25.39 26.60 26.62 26.54 23.45 22.95 28.20 31.54 31.47 31.20 31.37 25.84 25.30 29.20 33.52 33.30 32.93 32.92 32.60 31.41 26.22 25.66 26.24 26.12 25.30 25.23 24.72 21.38 18.69 19.19 18.62 18.66 16.84 16.55 15.24 14.65 13.35 11.58 11.21 7.06 8.41
12.62 16.90 19.96 22.73 25.56 25.79 21.66 20.53 25.08 27.23 31.81 32.66 31.41 31.03 30.74 31.99 33.78 33.29 33.37 33.16 32.46 29.48 24.20 22.62 21.91 21.26 20.00 19.27 17.81 16.02 14.60 14.02 13.41 13.89 13.07 13.25 12.80 10.68 5.84 5.74 8.49 9.22 5.76
6.45 10.82 13.83 17.19 21.13 24.85 23.42 21.76 17.96 17.49 18.49 20.78 26.07 31.52 33.14 33.74 33.77 33.45 31.88 27.43 21.68 21.12 18.70 17.21 15.20 14.27 13.39 12.45 12.14 10.95 10.13 9.68 8.87 8.83 7.62 5.94 4.82 2.70 2.47 4.85 5.37 1.00 0.75
7.11 10.53 13.26 17.50 21.54 24.07 24.09 23.63 21.07 20.87 20.17 19.63 20.52 22.02 22.32 29.15 28.32 27.70 26.41 20.26 16.80 12.42 10.32 8.27 6.91 6.67 4.86 4.68 4.96 4.84 3.92 4.29 2.17 -1.21 -3.45 -4.36 -5.81 -4.57 -4.20 -1.92 0.67 -0.85 -3.08
6.35 8.79 11.62 14.99 18.95 23.76 24.01 23.03 20.90 20.13 19.38 18.89 18.19 16.71 13.10 18.87 14.98 11.69 11.50 11.25 9.31 7.31 6.01 4.19 2.01 1.41 1.38 1.14 -0.90 -1.67 -2.09 -3.41 -5.19 -6.72 -10.02 -8.53 -9.73 -6.58 -7.88 -10.34 -10.87 -12.61 -14.75
7.35 9.80 12.51 15.94 19.45 24.49 23.11 21.99 20.79 19.56 17.85 16.33 15.56 16.03 18.26 13.53 9.88 7.89 6.19 4.45 3.08 1.07 -0.31 -0.93 -4.29 -5.90 -8.60 -6.39 -5.76 -5.61 -6.79 -8.64 -12.03 -12.97 -15.84 -19.03 -20.15 -16.27 -19.04 -11.75 -18.00 -17.85 -17.43
8.27 10.37 12.99 15.68 20.46 23.16 22.45 21.34 19.44 17.93 16.66 15.47 15.70 17.69 17.12 9.10 6.90 3.75 0.14 -2.57 -7.71 -7.58 -10.02 -6.32 -7.86 -8.29 -7.83 -7.15 -8.97 -8.84 -9.16 -14.31 -20.21 -20.98 -20.48 -22.92 -23.36 -23.81 -20.73 -17.78 -16.18 -17.27 -19.09
10.81 11.61 13.09 15.55 19.32 21.19 19.57 18.59 17.22 15.91 13.92 12.41 10.42 8.52 7.60 5.25 3.10 0.84 -2.07 -4.87 -5.46 -6.76 -8.65 -7.06 -5.86 -9.22 -13.67 -15.86 -16.33 -13.35 -13.14 -16.40 -18.08 -22.71 -21.31 -24.05 -23.87 -23.76 -23.47 -20.31 -20.84 -20.37 -19.43
9.49 11.29 12.97 13.79 15.83 16.92 16.61 15.46 14.37 12.90 10.77 9.03 7.49 5.51 3.88 1.52 -0.72 -2.04 -4.25 -5.81 -5.69 -11.09 -10.35 -9.10 -8.15 -9.47 -13.11 -18.12 -23.37 -26.57 -25.70 -25.12 -28.54 -25.06 -21.95 -22.02 -23.65 -22.58 -22.94 -23.09 -20.71 -20.06 -18.03
8.41 9.26 9.18 11.31 12.74 12.45 12.02 11.58 10.31 8.81 7.39 6.37 3.90 2.20 0.08 -0.93 -2.79 -3.33 -4.99 -8.31 -11.75 -9.45 -7.64 -8.25 -9.56 -12.84 -14.90 -17.13 -19.81 -23.94 -25.86 -8.61 -25.35 -24.36 -27.31 -23.12 -22.20 -23.32 -25.17 -23.29 -22.31 -19.84 -18.21
6.49 6.51 7.86 8.84 8.94 9.34 9.09 8.19 6.74 6.05 4.67 3.26 2.15 1.46 0.79 -0.41 -1.36 -3.20 -5.65 -6.54 -4.53 -5.61 -7.92 -8.95 -12.84 -16.09 -16.25 -15.02 -20.70 -18.86 -14.33 -7.91 -15.20 -14.13 -22.89 -21.44 -22.36 -25.05 -25.48 -23.43 -23.49 -20.31 -18.92

GFSGL_sfc_wetblb_075.txt.gz
Wetbulb
41.09 41.52 41.98 42.12 42.52 43.00 43.20 43.59 43.80 44.18 44.45 44.67 45.19 45.58 45.98 46.54 47.04 47.34 48.94 50.45 50.86 51.02 50.93 49.64 48.92 49.47 48.80 48.44 47.30 46.52 45.66 44.66 41.94 44.59 41.99 37.33 34.74 34.70 34.92 35.82 36.30 36.36 37.05
39.73 40.09 40.10 40.32 40.36 40.53 40.77 41.34 41.90 42.10 42.54 42.70 42.77 42.98 43.68 44.49 45.34 45.40 46.10 46.90 47.63 47.64 48.51 48.43 48.08 47.67 46.72 47.89 47.31 45.71 44.61 44.55 42.87 41.26 43.43 33.41 33.02 33.35 33.75 32.59 33.73 34.61 34.65
38.41 38.59 38.81 38.59 38.43 38.37 38.40 38.69 38.96 39.31 39.39 39.95 40.19 40.53 41.34 42.26 43.11 44.11 45.12 45.80 46.54 47.36 47.22 46.29 46.60 46.72 44.58 45.14 44.81 44.75 43.34 43.35 42.85 40.95 40.76 30.77 31.03 31.19 30.26 31.11 31.61 32.23 32.85
37.19 37.24 37.18 36.93 36.63 36.63 36.85 36.95 36.97 36.87 37.20 37.84 38.07 38.25 38.71 39.39 40.11 41.36 43.14 44.51 44.81 45.09 45.45 45.92 45.74 43.88 44.06 43.51 41.93 42.33 41.61 40.27 39.53 38.96 38.62 31.05 29.31 29.69 30.12 28.67 28.02 30.00 30.18
35.61 35.59 35.56 35.45 35.07 34.64 34.56 34.30 34.38 34.39 35.38 35.63 35.86 36.37 36.61 36.48 37.98 38.90 39.05 40.30 40.79 41.56 42.02 42.10 42.96 41.87 39.56 42.25 40.14 40.45 39.01 38.04 38.04 35.90 35.93 29.38 27.97 27.33 27.16 28.58 27.79 28.29 28.80
34.03 33.71 33.95 33.14 32.54 32.36 32.35 32.34 32.62 33.10 33.52 33.83 34.01 34.21 34.39 36.04 37.96 38.63 38.76 37.58 37.38 36.79 37.82 38.78 37.66 35.48 36.94 38.69 40.23 40.90 39.87 36.94 35.17 35.14 34.91 32.11 29.71 28.33 28.87 27.98 27.32 25.46 23.75
32.45 31.84 31.18 31.15 30.37 30.63 30.53 30.49 30.88 31.39 31.62 31.71 32.20 32.61 32.81 33.51 35.85 37.46 37.47 36.31 36.00 36.57 36.26 35.71 35.13 34.66 34.20 35.07 36.58 38.19 38.49 39.81 40.13 34.81 33.51 31.43 29.42 29.28 29.25 28.44 28.13 27.77 26.87
30.69 30.24 29.34 29.58 28.78 28.48 28.18 28.47 29.21 29.62 29.44 29.91 30.26 30.78 30.68 31.29 34.91 36.19 36.50 35.47 35.43 35.56 35.35 34.74 33.87 33.74 33.65 32.62 32.89 32.86 33.18 33.25 33.41 33.14 32.41 31.98 32.03 31.75 31.36 30.49 29.82 28.81 28.38
30.58 30.30 29.40 28.17 26.93 26.75 25.57 26.73 27.29 27.71 27.51 27.27 28.81 28.37 27.58 28.53 32.74 34.76 35.49 33.40 33.54 33.48 33.08 32.75 32.17 31.83 32.74 34.00 32.53 31.69 31.24 30.80 33.22 34.00 33.87 34.16 34.23 33.59 32.37 30.34 27.99 27.82 25.34
29.62 29.08 27.94 26.97 24.93 25.18 26.35 25.86 26.18 24.55 26.09 26.59 27.11 27.06 24.94 25.43 29.88 32.75 33.54 32.35 31.55 31.66 30.54 30.32 30.36 31.86 32.44 33.53 32.30 31.19 28.96 29.90 31.35 31.65 31.86 33.07 33.51 33.38 33.56 32.09 30.40 27.97 25.73
26.20 25.79 25.27 25.00 23.46 24.07 24.72 23.68 23.92 23.09 23.41 23.31 24.47 25.58 24.38 25.29 26.52 31.39 33.39 32.48 31.28 30.15 29.23 29.17 29.74 32.21 33.68 34.05 33.03 31.58 30.91 31.93 32.49 30.92 30.24 30.55 30.49 30.25 29.87 30.51 30.67 29.61 26.64
22.95 22.47 22.91 21.17 22.13 24.57 25.28 22.13 20.67 19.72 20.14 21.53 21.95 24.37 25.77 25.67 27.17 31.66 34.57 33.19 31.54 29.37 28.25 29.05 29.83 32.82 33.68 33.57 31.89 33.99 34.38 31.61 30.61 29.66 28.81 28.29 28.08 27.53 26.61 26.03 25.73 25.00 25.71
19.55 22.55 26.12 25.94 21.52 26.30 25.99 22.99 22.49 19.01 20.00 22.75 23.08 23.86 25.13 25.81 26.98 32.33 32.81 31.91 30.43 28.20 29.06 29.55 31.18 34.06 33.73 33.33 34.49 34.03 30.83 30.18 29.45 28.21 27.06 26.07 26.16 25.39 23.14 21.24 20.84 19.98 18.98
17.72 20.21 22.96 24.82 27.41 28.33 27.54 25.09 22.42 22.85 22.28 22.61 22.65 23.25 23.30 24.11 25.63 30.15 30.79 28.16 28.84 29.56 31.42 32.22 33.16 33.01 33.36 31.58 30.58 30.77 30.46 30.23 28.88 27.79 26.49 25.00 24.86 23.41 21.23 20.71 18.72 17.76 15.58
16.95 18.61 21.36 24.72 25.30 26.79 28.01 28.09 25.28 25.09 24.71 25.73 25.85 25.02 24.60 23.58 26.21 29.91 28.83 28.02 29.25 30.61 31.15 31.08 30.19 29.24 28.56 28.19 27.34 26.71 26.96 27.61 26.61 25.60 24.53 23.00 22.17 20.99 19.48 19.46 17.98 16.51 15.23
15.31 17.43 19.14 20.80 22.73 23.77 24.85 25.90 28.65 29.42 31.00 32.09 32.23 31.46 27.70 28.78 31.17 32.98 32.18 31.91 32.94 32.25 28.78 27.99 26.93 26.58 26.06 25.50 22.98 21.08 20.96 20.98 21.30 21.97 21.57 21.23 20.17 19.16 17.29 16.07 15.54 15.23 13.96
9.88 13.14 14.49 15.49 17.18 18.81 20.92 22.29 22.74 25.74 30.91 31.33 31.77 31.68 30.82 29.51 32.87 33.42 33.42 33.60 32.94 29.62 25.02 23.83 23.15 22.48 21.42 20.36 19.41 18.96 17.04 16.43 17.65 18.24 18.19 17.76 17.08 15.34 14.52 13.91 13.52 12.27 10.55
5.02 7.86 9.38 11.61 13.52 15.63 18.69 21.52 23.51 22.29 22.96 23.66 25.36 31.31 32.04 32.00 33.92 33.75 33.43 28.40 23.09 22.01 20.70 19.47 17.57 16.85 16.52 16.03 15.54 14.33 13.96 13.59 13.26 13.71 13.00 12.48 12.68 12.32 11.55 11.04 10.44 8.09 8.39
6.71 8.21 9.45 10.59 12.20 14.26 17.31 19.96 22.28 22.57 21.25 20.87 22.20 25.28 22.61 33.87 33.35 31.76 29.60 23.56 18.78 15.53 13.68 11.89 11.91 11.53 10.80 10.82 10.60 9.98 10.13 9.30 8.96 8.54 7.64 7.60 7.20 8.54 5.95 6.70 6.32 3.23 2.64
3.78 5.49 7.33 8.84 10.69 12.98 15.57 18.75 21.87 22.42 21.64 21.65 21.91 21.90 19.97 21.05 19.66 15.16 14.98 15.17 13.18 10.94 9.85 8.28 6.99 7.14 7.15 7.33 6.94 6.51 5.68 5.45 4.83 4.60 3.00 3.67 3.58 6.22 4.07 2.49 2.42 2.54 1.07
3.65 5.10 6.47 8.09 9.59 11.76 14.76 18.00 22.36 21.97 21.59 21.30 21.44 19.65 21.36 18.15 13.94 12.28 10.59 9.44 8.93 7.72 6.30 4.88 3.00 1.61 0.71 1.32 2.20 2.92 3.06 2.26 1.17 0.28 0.09 -1.80 -2.65 -1.83 -3.72 0.05 -2.58 -3.75 -3.06
2.16 3.85 6.09 7.76 10.37 12.36 15.26 19.24 22.71 21.32 20.85 19.50 18.14 20.89 21.30 12.69 9.86 7.51 4.95 2.93 1.53 1.06 1.78 1.17 -1.05 -1.39 -0.82 0.53 0.94 0.82 0.05 -1.78 -3.39 -4.61 -5.32 -7.79 -6.20 -6.54 -5.59 -4.72 -4.16 -5.33 -5.51
5.22 5.77 7.22 9.36 11.61 13.09 15.23 18.85 21.15 20.15 18.59 17.41 14.44 11.60 10.38 8.29 6.42 4.54 1.51 -0.49 -0.68 -1.83 -2.21 -0.85 -2.08 -4.00 -4.51 -4.56 -3.44 -0.91 -0.94 -2.58 -4.16 -7.35 -6.64 -7.43 -7.77 -6.40 -6.97 -4.98 -7.03 -7.13 -5.70
4.34 5.63 6.78 8.27 10.76 13.11 14.95 17.80 18.52 17.93 15.74 12.89 10.70 8.94 7.38 5.50 3.86 1.04 -0.60 -1.94 -2.65 -3.56 -2.65 -2.79 -2.32 -3.10 -5.54 -7.44 -9.21 -11.01 -10.59 -12.78 -13.16 -11.29 -9.48 -7.98 -8.34 -11.02 -8.84 -8.91 -7.21 -8.25 -6.61
4.35 5.23 6.53 8.10 9.95 12.11 13.71 13.72 12.94 12.10 10.78 9.43 7.16 5.57 3.59 2.91 1.19 -0.49 -1.22 -1.36 -2.45 -3.04 -4.04 -3.90 -3.65 -4.45 -5.37 -8.89 -8.92 -11.47 -13.77 -6.00 -14.92 -17.04 -15.08 -10.82 -9.99 -12.64 -12.35 -9.81 -10.04 -9.02 -8.45
2.66 3.58 4.85 6.19 7.66 9.21 10.08 9.61 8.81 8.27 6.91 5.89 4.71 3.76 3.20 2.10 0.54 -0.77 -1.86 -1.68 -1.69 -1.61 -2.69 -4.15 -5.31 -6.89 -7.71 -7.79 -9.66 -11.52 -11.99 -7.58 -11.16 -14.46 -13.50 -9.97 -10.43 -12.24 -13.31 -11.01 -13.32 -8.95 -8.51

GFSGL_sfc_wetblb_078.txt.gz
Wetbulb
46.54 46.79 46.63 46.21 46.46 46.70 46.51 46.46 46.26 47.02 46.75 46.82 47.10 47.41 47.89 48.38 49.20 49.41 49.96 50.31 50.22 51.27 52.44 51.57 50.78 51.20 50.75 50.77 49.89 48.44 47.99 47.11 43.94 46.52 48.00 45.77 40.84 39.84 38.91 37.49 37.71 37.61 38.14
44.91 45.15 44.39 44.33 44.34 44.11 43.85 43.80 43.98 43.93 44.39 44.05 44.08 44.44 45.05 45.64 46.51 46.70 46.89 47.83 47.88 47.93 48.27 47.74 47.90 48.29 48.58 48.95 48.89 47.69 46.81 46.86 45.00 43.22 45.83 45.14 37.51 37.22 36.60 35.16 35.15 35.97 36.22
43.07 43.26 42.70 42.01 41.69 41.41 41.51 41.59 41.71 41.57 42.18 42.68 42.39 41.97 42.24 42.89 43.07 43.88 44.56 45.16 45.90 46.17 46.48 46.15 46.15 45.98 45.09 46.00 46.14 46.13 46.41 45.77 44.98 42.84 42.98 39.21 34.35 32.32 31.98 31.80 32.56 33.28 33.94
41.81 41.58 40.64 39.96 39.66 39.66 39.77 39.58 39.75 39.98 40.35 40.46 40.70 40.58 40.85 40.89 41.08 41.56 42.15 42.66 43.60 44.28 45.17 45.21 44.87 44.50 43.75 44.00 43.71 43.55 43.01 42.71 41.71 41.01 41.11 41.13 32.61 30.73 31.13 29.92 29.25 31.18 30.87
40.85 40.45 39.20 39.10 38.68 38.33 38.05 37.89 38.15 38.24 38.32 38.35 38.13 38.43 39.06 39.39 39.67 39.78 40.06 40.57 39.96 40.10 40.72 41.48 42.40 41.62 39.21 41.36 41.59 41.88 40.57 39.83 39.64 38.82 38.11 37.96 30.57 28.41 28.48 29.56 29.24 29.04 29.55
39.31 37.90 37.56 36.77 35.77 35.91 35.64 35.20 35.37 35.68 35.87 35.62 35.84 36.11 35.99 37.16 37.89 37.73 37.83 38.60 38.15 37.53 37.60 38.62 39.21 36.40 38.06 38.75 39.60 40.13 40.34 37.80 35.85 36.83 37.51 35.85 35.24 30.54 29.44 28.73 28.05 26.79 26.66
37.12 35.76 34.66 33.93 33.68 33.93 33.18 33.35 33.49 33.60 33.74 33.41 33.90 34.28 34.70 35.82 36.01 36.44 36.61 36.72 37.42 37.36 36.89 36.94 36.48 36.59 35.58 37.19 37.55 37.83 37.57 38.31 39.52 37.28 35.20 35.16 32.63 31.03 30.75 29.53 29.94 29.73 29.54
34.85 34.32 33.45 32.89 32.26 32.13 31.75 31.64 32.32 32.62 32.25 32.07 32.51 32.96 33.47 33.84 34.97 35.39 35.40 36.22 37.09 37.16 37.18 36.80 36.15 36.02 36.85 34.73 34.19 33.86 34.27 34.41 34.28 33.95 33.68 32.44 32.30 32.28 32.52 32.47 31.45 30.31 29.74
33.15 32.97 32.31 31.69 30.57 30.11 29.45 30.70 31.28 31.34 31.33 31.55 31.62 31.58 31.59 32.11 33.39 33.96 34.30 34.74 34.77 35.00 35.58 36.37 35.73 34.31 33.88 34.01 32.92 32.37 32.47 32.10 33.24 33.76 33.62 34.10 34.32 34.47 33.61 31.84 29.91 29.42 27.11
31.11 30.66 30.56 30.47 29.27 29.16 29.95 30.02 30.99 30.36 29.87 30.45 30.84 31.44 30.83 30.46 31.88 32.69 33.28 33.86 33.08 33.59 34.67 34.64 32.03 32.67 33.02 33.96 32.45 31.96 30.93 30.84 31.61 31.81 32.01 33.10 33.43 33.10 33.36 32.54 32.38 29.63 27.38
28.87 28.66 28.73 28.98 28.32 28.60 29.20 29.93 29.42 28.68 29.19 29.22 29.77 31.20 31.24 30.80 31.03 31.97 32.86 32.92 32.64 31.76 31.60 31.68 32.82 32.08 32.94 34.24 34.63 32.19 32.36 32.36 32.63 31.86 31.59 31.19 31.16 31.19 31.46 31.68 31.68 31.50 29.60
26.53 25.76 26.68 27.68 28.36 28.73 27.90 29.95 29.59 28.17 27.72 28.44 29.92 30.46 32.43 32.40 30.80 31.70 32.33 33.15 34.59 31.66 29.72 30.79 31.22 31.92 34.28 33.48 32.48 33.49 34.44 32.59 32.19 31.45 30.86 29.84 28.61 27.44 26.96 26.60 25.94 25.20 25.78
22.60 21.99 23.82 25.98 27.33 29.44 29.49 29.78 28.69 27.98 27.08 28.82 29.60 29.52 29.79 30.92 31.01 31.25 31.77 33.99 32.47 30.07 30.52 30.63 31.33 33.50 32.86 33.26 34.20 33.85 31.53 32.38 31.38 30.16 28.82 27.49 27.01 25.47 24.81 23.83 22.60 21.58 20.17
19.97 21.41 23.29 23.83 25.76 27.53 29.08 29.86 30.09 29.13 27.76 28.04 28.43 28.56 28.60 28.06 29.21 31.18 31.82 32.35 30.44 30.20 31.36 32.84 32.71 33.34 32.87 32.06 32.05 32.64 32.74 32.54 31.26 29.64 27.27 26.22 26.31 25.74 23.70 23.36 21.73 20.77 19.01
19.25 20.82 21.95 23.43 24.52 25.46 26.69 27.65 27.84 29.00 28.81 27.28 26.90 28.41 28.44 27.81 29.92 31.02 30.84 30.76 31.28 31.71 31.91 32.26 31.97 31.29 30.06 29.61 29.55 29.95 30.73 30.97 29.45 28.76 27.68 26.22 24.40 23.52 21.90 22.26 21.23 20.62 19.73
16.28 18.63 19.69 19.21 20.49 21.54 22.50 23.50 26.89 27.95 28.86 30.21 30.99 31.23 31.33 32.43 32.17 31.48 32.55 32.24 31.58 32.44 31.44 30.72 29.81 29.77 28.54 27.70 26.75 25.51 25.82 25.64 26.20 26.42 25.74 24.90 23.29 21.81 20.17 19.75 20.11 20.45 17.94
12.50 13.69 15.37 15.88 17.69 18.28 19.25 19.96 19.65 23.77 27.29 29.27 30.01 31.67 31.61 32.27 32.14 31.34 33.20 32.91 33.42 31.87 30.30 29.63 27.80 27.01 25.88 25.36 24.54 23.73 21.75 21.17 22.69 23.18 22.94 22.08 21.03 19.03 20.08 18.84 18.03 17.27 15.57
9.85 10.40 12.12 13.78 14.63 15.54 16.52 17.49 18.35 19.67 20.30 23.40 28.44 29.71 30.50 32.52 32.42 32.82 33.90 31.12 28.34 28.23 28.07 25.48 24.20 23.44 22.58 21.74 20.94 20.31 19.57 19.44 18.82 18.51 17.99 18.15 18.41 18.47 17.72 16.84 16.45 14.85 14.11
8.31 9.76 10.91 11.72 12.38 12.98 13.75 14.83 16.50 17.56 19.25 21.75 25.53 27.79 27.61 31.09 33.20 34.12 33.55 29.53 25.84 23.01 21.39 20.75 20.36 19.57 18.59 18.45 17.70 17.30 16.78 15.47 15.60 15.45 14.94 14.66 15.04 15.72 14.02 13.56 11.39 9.04 10.05
7.73 7.37 7.78 9.26 10.28 11.16 12.90 13.93 15.73 17.25 19.02 22.18 24.92 26.64 27.30 26.12 27.39 24.69 23.15 23.57 22.44 19.30 18.53 17.13 16.12 16.19 16.01 15.73 15.06 14.25 13.33 13.24 12.74 12.42 11.74 11.79 12.11 13.32 11.02 9.96 10.54 9.74 8.90
6.78 7.20 6.67 7.66 8.96 10.49 11.69 12.88 14.94 16.94 18.78 22.26 24.97 27.41 26.59 25.27 23.06 20.20 18.64 19.00 18.20 16.25 15.62 14.36 12.87 12.10 11.83 11.81 12.12 11.96 11.55 10.58 9.73 9.06 8.67 7.34 7.63 6.55 7.21 7.50 5.81 4.90 5.36
5.55 6.05 6.87 7.26 8.70 9.94 11.48 13.40 14.78 16.10 17.99 21.75 24.83 25.69 27.52 21.30 18.04 15.04 13.36 12.03 11.39 12.83 12.51 11.18 9.76 9.32 9.22 9.70 9.62 9.28 7.99 6.56 5.72 5.45 4.12 2.52 3.93 3.18 4.08 4.27 4.57 3.57 3.06
6.71 6.21 6.51 7.38 8.93 9.58 11.07 13.28 14.91 16.70 18.60 23.30 24.18 20.90 18.03 15.82 12.92 10.63 8.26 6.73 6.92 6.81 6.81 6.61 5.00 3.18 3.20 3.72 5.61 7.49 6.94 5.63 4.75 4.03 3.08 2.68 2.88 2.88 3.77 3.49 1.54 1.45 2.00
6.37 6.14 6.44 7.26 8.53 9.33 10.93 12.84 14.99 16.69 19.90 21.62 18.60 16.00 13.28 11.15 8.89 6.53 5.37 4.62 4.53 4.07 4.29 4.22 4.27 2.98 1.02 1.23 1.19 1.01 0.70 -0.33 -0.26 0.22 1.93 2.52 0.84 -1.02 1.37 0.20 0.94 -0.10 0.83
4.87 4.79 5.09 5.92 7.18 8.40 10.34 12.42 14.79 16.64 16.82 15.43 13.53 11.33 9.04 7.21 5.50 4.46 3.97 3.57 2.58 2.64 1.95 2.41 2.66 1.52 0.70 -0.56 -0.93 -1.49 -2.50 -1.57 -3.58 -4.65 -2.37 0.30 -0.31 -1.71 -1.47 0.02 -0.20 -0.12 -0.62
3.34 3.61 4.03 5.30 5.50 6.15 7.45 9.52 11.32 11.90 11.54 10.53 9.26 8.05 7.13 6.06 4.88 4.33 3.16 2.66 2.35 2.60 1.87 1.89 1.37 0.57 -0.28 -0.28 -1.40 -2.31 -5.15 -2.16 -5.96 -6.77 -2.35 -0.26 -1.38 -2.04 -2.63 -2.10 -3.59 -1.11 -1.43

GFSGL_sfc_wetblb_081.txt.gz
Wetbulb
47.93 47.69 47.42 46.92 47.05 46.95 46.43 46.07 45.90 46.75 46.11 45.89 45.96 46.38 46.74 47.13 47.82 48.03 48.49 48.89 48.49 49.11 49.97 49.95 49.85 50.42 50.07 50.13 50.03 49.88 48.94 48.25 45.19 46.97 48.38 48.86 43.31 41.32 40.75 39.48 39.16 38.39 38.55
46.06 45.50 44.95 44.67 44.70 44.18 43.77 43.78 44.17 43.68 44.64 44.18 43.94 44.13 44.33 44.68 45.19 45.07 45.14 45.90 45.78 45.92 46.81 47.12 46.65 46.77 46.25 47.20 47.65 47.19 46.92 47.42 45.91 43.44 45.90 46.14 44.55 39.97 39.37 37.80 36.59 36.78 36.30
44.62 44.03 43.07 42.56 42.35 42.05 41.84 41.99 42.07 41.80 42.37 42.66 42.43 42.03 42.10 42.78 42.55 43.04 43.24 43.28 43.68 44.19 44.82 44.94 45.25 45.12 43.52 43.79 43.96 44.28 45.33 45.57 45.15 43.77 43.58 45.35 42.22 34.67 33.69 32.90 32.92 33.33 34.19
43.24 42.20 41.26 40.65 40.36 40.35 40.33 40.10 39.97 40.16 40.13 40.19 40.34 40.39 40.52 40.62 40.99 41.58 41.14 40.89 41.62 42.19 42.67 42.50 42.28 42.02 41.32 41.62 41.69 41.77 42.24 41.89 42.24 41.87 41.67 41.77 41.61 32.04 31.61 31.87 31.68 31.40 31.59
41.29 40.16 39.13 39.29 38.55 38.39 38.07 38.09 38.01 37.82 37.99 38.00 37.61 37.49 38.33 38.38 38.87 38.32 37.35 37.73 38.34 38.85 39.09 39.20 39.47 38.74 36.66 38.84 39.55 39.45 39.22 38.93 39.04 38.79 38.73 39.28 37.39 30.13 30.87 31.02 30.24 30.11 29.92
38.49 37.06 36.82 36.67 36.02 36.21 35.50 35.19 35.30 35.46 35.82 35.59 35.10 35.05 34.87 36.39 37.73 37.69 36.78 35.61 35.93 36.27 36.53 37.07 37.64 36.35 37.41 38.11 38.51 38.62 38.75 36.77 35.08 35.74 36.17 35.91 36.22 32.90 30.43 30.23 29.18 27.35 27.05
36.74 35.28 34.62 34.59 34.24 34.17 33.75 33.52 33.58 33.82 34.10 33.47 33.72 33.94 33.67 34.34 36.46 36.73 36.04 34.36 34.42 35.28 35.97 36.06 35.71 35.69 35.39 35.82 36.71 37.34 36.81 37.21 37.89 35.88 33.81 34.12 34.00 33.18 31.57 29.53 29.49 29.49 29.58
35.28 35.35 34.10 33.33 32.34 32.22 31.91 31.65 32.48 32.92 32.53 32.35 32.38 32.75 32.50 32.68 35.22 35.37 35.08 33.83 34.03 34.57 35.11 35.25 35.03 35.10 35.78 34.69 34.34 33.25 33.31 34.04 34.17 33.84 33.33 33.53 33.62 32.53 32.07 32.12 31.56 29.81 29.35
33.30 32.98 32.27 31.96 30.51 30.35 29.30 30.64 31.17 31.38 31.12 31.11 31.38 31.16 31.00 31.56 34.05 34.35 33.63 32.30 32.37 32.79 33.54 34.07 34.07 34.07 34.92 34.91 32.61 31.81 32.05 32.75 34.44 35.28 35.43 35.20 34.60 34.58 33.54 31.62 29.00 27.50 25.58
30.01 29.85 30.23 30.53 29.28 28.82 29.84 29.56 30.72 30.92 30.06 30.23 30.20 30.79 30.69 30.61 33.24 33.84 33.32 31.92 31.05 31.49 32.59 33.01 32.59 33.53 33.87 33.65 31.19 31.78 30.94 31.68 31.67 31.83 31.82 32.61 33.04 32.98 33.63 32.10 31.76 28.77 26.55
28.43 28.08 27.57 28.21 27.49 28.69 29.22 29.80 29.34 29.89 29.43 28.50 28.53 30.09 30.88 31.41 31.69 33.76 33.74 31.50 30.53 30.36 31.50 31.41 31.17 32.75 32.47 32.94 34.45 32.33 31.93 32.16 32.49 31.48 30.81 30.73 30.39 29.18 28.48 28.28 27.62 28.21 27.83
25.64 24.54 24.40 24.35 26.65 28.08 27.70 28.72 29.18 29.57 28.64 27.97 28.32 29.26 31.34 31.95 31.94 32.69 32.54 33.02 32.92 31.48 31.34 30.28 29.92 31.54 32.94 34.60 32.77 33.72 33.95 32.64 31.99 31.12 29.75 28.11 26.41 24.58 24.12 24.16 23.81 23.15 23.70
20.28 19.34 21.59 23.69 24.69 26.26 27.06 27.13 28.43 29.47 29.31 28.76 28.40 28.20 29.33 31.01 31.81 32.50 32.07 32.43 32.83 31.56 30.86 30.38 31.35 32.53 33.78 33.60 33.74 33.63 31.74 32.02 31.28 29.33 26.61 24.52 24.70 25.14 24.74 23.17 22.02 20.67 19.27
17.76 19.96 22.11 22.92 24.34 25.18 27.37 27.87 27.43 27.76 27.76 27.86 27.53 27.32 27.70 28.20 29.21 31.06 31.27 31.23 30.22 30.61 30.86 31.33 31.90 32.75 33.15 32.11 31.75 32.28 31.72 31.49 30.45 27.87 25.87 26.06 26.53 24.57 22.91 23.82 21.35 20.68 18.05
17.38 19.32 21.33 23.00 23.15 22.57 23.36 24.13 24.48 25.76 26.71 25.66 26.15 27.14 26.14 26.33 28.70 31.93 32.43 31.30 31.03 31.58 31.37 31.49 31.35 31.08 30.06 29.66 29.12 28.67 29.56 29.97 28.89 28.73 26.90 25.12 24.11 22.85 22.06 22.47 21.43 20.44 18.20
14.89 17.97 19.05 17.95 19.11 19.52 19.70 20.41 24.58 25.74 26.67 27.58 28.45 28.19 27.78 30.12 32.07 33.16 32.85 32.92 32.86 33.24 30.97 30.46 30.38 30.22 28.82 28.24 26.64 25.43 25.76 25.58 26.41 26.48 25.67 24.80 23.00 21.42 19.89 20.11 21.19 19.20 16.03
11.51 12.57 14.34 14.65 15.56 15.94 16.94 16.81 15.67 19.42 23.53 24.87 26.32 27.83 29.00 29.91 31.21 32.19 32.68 33.02 33.23 32.89 29.97 30.76 29.96 28.84 27.52 26.19 25.12 23.71 21.23 21.74 22.72 23.74 23.09 21.91 19.97 19.82 19.81 18.54 18.01 16.41 14.09
8.73 10.03 11.56 13.41 14.26 14.42 14.41 14.49 14.85 14.17 13.93 15.94 21.66 24.08 26.46 28.66 30.10 31.25 33.08 32.87 31.22 31.52 30.56 29.20 27.10 26.11 25.07 23.40 22.18 20.98 20.12 19.28 18.53 18.71 18.84 19.01 18.96 18.64 17.48 16.30 15.61 13.78 11.98
7.59 9.58 10.76 11.10 11.17 11.34 11.58 12.15 13.25 13.84 14.35 15.53 17.83 21.67 25.09 28.54 30.04 31.17 32.73 31.18 29.40 27.65 25.72 24.77 24.40 23.00 21.82 20.77 20.03 19.04 17.44 16.17 16.25 16.28 15.69 14.58 15.11 15.40 13.47 12.44 8.76 9.19 9.32
8.05 8.62 8.71 9.00 9.25 9.90 10.64 10.72 11.37 12.26 13.23 14.58 16.08 18.18 22.30 26.53 25.71 27.74 29.48 29.04 27.26 23.90 22.57 21.04 20.48 20.00 18.78 18.01 16.78 14.88 14.05 13.99 13.76 13.51 11.84 12.09 13.18 13.26 10.36 8.24 7.25 5.61 3.66
8.19 8.76 7.86 7.93 8.84 9.55 9.48 9.57 10.61 11.56 12.26 13.50 15.15 18.39 23.01 24.07 26.01 26.78 24.33 24.53 23.32 20.52 19.24 18.12 16.44 15.13 15.06 14.80 14.18 13.42 12.69 11.85 10.58 8.96 8.85 8.63 8.66 5.24 6.31 5.84 -0.00 -1.57 -2.05
6.71 8.08 8.75 8.11 8.20 8.20 8.83 9.93 10.02 10.50 11.72 12.98 14.93 17.84 22.97 25.08 25.70 21.67 19.38 16.95 16.48 16.76 16.61 15.13 13.33 12.46 12.47 12.31 11.55 10.72 9.46 7.34 6.33 5.93 4.88 3.86 3.50 2.24 0.11 -1.32 -1.87 -3.17 -5.19
7.79 7.87 8.09 8.27 8.50 8.18 8.58 9.60 10.18 11.22 12.53 14.36 15.89 17.85 22.52 22.28 19.49 16.81 13.56 11.16 10.80 10.31 10.95 10.79 7.86 5.98 6.21 6.97 7.98 8.92 6.87 5.15 4.92 5.18 3.62 2.68 2.82 0.69 -1.77 -3.60 -6.52 -6.26 -6.63
7.26 6.81 6.75 6.95 7.39 6.86 7.37 8.24 9.48 10.78 12.98 15.33 17.83 19.62 17.33 15.44 13.55 10.50 8.93 8.10 7.63 7.30 7.77 7.21 6.40 5.14 4.08 4.04 2.86 2.65 2.00 2.07 2.09 2.74 2.92 3.17 -0.54 -1.93 -3.79 -7.43 -6.27 -7.56 -7.40
5.63 5.36 5.28 5.49 5.43 5.60 5.79 6.69 7.82 9.82 11.56 12.95 13.72 13.84 11.61 10.09 8.33 6.98 6.14 6.02 5.60 5.63 5.06 4.94 4.99 3.60 3.05 2.44 2.01 1.13 2.00 0.76 -1.07 -0.18 -0.68 -0.67 -2.67 -4.42 -8.83 -7.55 -8.06 -8.06 -8.46
4.01 4.05 4.08 4.56 4.38 4.53 4.44 4.87 5.79 7.38 7.89 8.86 9.62 9.51 8.85 7.66 6.71 6.01 5.40 4.99 4.94 4.65 3.89 3.89 3.30 3.05 2.35 2.13 0.91 0.56 0.23 -0.20 -4.55 -1.01 -1.90 -3.27 -6.70 -8.54 -10.51 -11.41 -12.01 -9.62 -10.38

GFSGL_sfc_wetblb_084.txt.gz
Wetbulb
42.59 42.23 41.50 41.25 41.43 41.28 40.67 40.56 40.71 40.91 41.21 41.16 41.22 41.36 41.46 41.46 41.84 41.79 41.95 42.66 42.49 42.76 43.39 43.62 44.03 44.57 45.15 44.88 46.17 46.43 46.05 46.40 44.03 45.28 47.23 48.19 46.89 42.94 42.33 42.18 42.15 41.35 40.69
41.11 40.32 40.03 40.07 39.62 38.84 38.61 38.92 39.23 38.97 39.73 39.65 39.70 39.58 39.72 40.11 40.47 40.02 40.00 40.26 40.26 40.42 41.20 41.40 42.25 43.83 41.87 42.40 43.08 43.78 43.38 44.13 43.21 41.31 43.68 44.26 44.09 44.82 42.70 40.56 39.38 38.52 37.31
39.86 38.81 38.40 38.11 37.74 37.38 37.39 37.73 37.87 37.69 37.74 37.82 38.11 37.92 38.11 38.71 38.36 38.87 39.31 38.77 38.61 39.00 39.66 39.71 39.88 39.78 38.20 38.38 39.72 40.50 40.99 41.40 41.46 40.42 40.23 42.05 42.75 39.35 36.47 34.81 34.44 34.36 34.78
38.95 37.95 36.47 35.94 36.41 36.32 36.49 36.23 36.12 36.49 35.99 35.88 35.97 36.11 36.19 36.37 36.44 37.18 36.41 35.59 35.71 36.54 37.57 38.14 37.98 37.37 36.57 37.12 37.30 36.88 37.61 38.30 38.44 38.32 38.74 39.37 39.99 38.46 32.30 32.54 34.30 32.15 32.39
36.56 35.57 35.15 35.15 35.27 34.74 33.77 33.40 33.30 32.73 34.04 33.99 33.64 32.69 33.60 34.09 35.31 35.04 34.03 33.56 33.28 33.57 34.18 34.96 35.67 35.60 35.67 37.20 35.83 35.50 35.39 34.95 35.69 35.54 35.57 36.56 36.85 37.38 32.69 33.36 31.57 31.73 30.41
34.24 33.24 33.65 32.45 31.45 30.97 30.91 30.87 30.91 30.92 30.87 30.97 30.58 30.57 30.63 33.40 36.15 36.85 35.96 32.88 32.00 31.47 31.50 32.73 33.41 32.37 34.14 36.93 36.84 36.82 36.29 33.66 32.77 33.43 33.88 33.50 34.21 35.17 34.15 33.35 32.78 28.03 27.22
31.23 30.83 30.45 30.63 30.02 29.97 29.99 29.62 29.53 29.65 29.94 29.75 29.42 29.49 29.49 29.85 34.37 35.55 35.66 32.53 31.27 30.96 31.01 31.58 32.20 33.03 32.58 33.87 34.86 36.09 35.28 35.56 36.41 34.31 32.52 32.88 32.64 33.64 33.74 32.64 29.98 28.91 28.38
30.85 29.69 29.29 29.23 28.16 28.58 28.36 28.15 28.54 28.78 28.43 28.56 28.55 28.23 28.17 29.19 33.55 34.39 34.71 31.85 30.46 30.32 30.53 30.91 31.78 32.14 32.84 32.56 32.88 31.93 31.75 32.27 32.73 32.93 33.01 32.89 32.81 32.83 32.34 31.68 30.53 28.38 28.79
29.05 28.45 28.43 28.16 26.01 26.21 24.09 26.17 27.22 26.87 26.23 25.05 27.04 24.43 24.08 27.57 32.22 33.57 33.45 30.77 30.24 30.34 31.03 31.96 31.98 31.79 33.74 34.62 31.88 29.90 29.78 30.82 33.97 35.47 35.45 35.93 35.66 35.10 33.08 30.80 27.76 25.85 24.51
27.12 27.23 26.89 26.46 22.66 23.04 25.33 24.43 24.78 23.26 27.27 27.56 27.05 25.81 24.71 25.61 31.13 33.22 33.50 30.42 30.03 30.01 31.02 31.35 32.16 33.59 33.35 33.42 30.65 30.18 29.44 31.04 31.33 31.22 31.15 31.53 31.18 30.00 30.53 29.18 31.15 25.99 24.93
26.63 25.34 23.49 23.85 20.92 22.11 22.66 21.97 20.81 22.31 25.19 24.78 25.18 26.06 23.05 24.25 26.95 33.50 34.36 31.16 29.53 29.30 29.24 29.73 31.80 32.55 32.34 33.03 34.32 32.10 30.23 32.70 32.19 28.68 28.76 26.89 25.75 24.93 24.58 24.61 25.00 26.21 24.54
21.77 19.69 16.86 14.50 18.36 21.54 14.96 17.29 18.26 19.61 21.03 23.77 20.24 25.30 26.32 23.02 28.14 32.38 33.61 33.29 32.79 30.08 29.49 30.98 30.56 31.96 32.95 34.10 33.23 34.24 34.32 32.08 30.17 27.92 26.32 24.20 22.89 22.00 21.83 21.45 21.39 21.23 22.24
13.51 11.97 11.62 13.10 15.92 15.84 13.46 16.35 16.13 14.36 17.56 22.76 23.55 23.86 24.85 26.59 25.16 30.73 31.48 32.29 33.01 31.16 30.56 31.30 32.43 32.73 33.45 33.43 33.73 33.22 31.13 30.20 26.31 24.87 23.28 23.08 23.77 24.08 23.69 21.86 20.89 19.81 18.59
8.86 10.95 13.50 13.01 14.47 12.30 17.37 18.71 13.11 12.79 18.85 20.45 20.64 21.19 22.51 23.60 24.52 25.60 27.62 29.71 31.24 31.81 31.04 30.45 31.28 33.13 33.11 32.07 30.96 30.20 28.77 27.26 26.47 25.27 24.55 25.04 24.26 22.59 21.69 21.05 18.91 18.33 15.96
11.49 13.20 12.29 13.65 9.41 14.30 16.05 16.24 18.61 18.21 19.04 19.85 20.57 21.34 21.46 21.54 23.56 27.90 28.67 28.43 30.11 32.45 31.56 26.85 29.37 28.46 27.61 27.23 24.74 24.22 26.03 26.21 26.25 26.86 24.56 21.02 21.67 21.00 20.24 19.66 19.83 17.90 14.60
9.90 12.14 10.45 10.37 9.75 13.04 13.69 14.37 19.96 22.31 23.84 24.71 25.61 24.38 22.93 26.34 28.03 28.64 29.37 30.20 31.66 33.17 31.14 24.17 26.30 28.83 27.31 26.52 24.37 23.34 23.73 24.24 25.24 24.14 22.83 21.70 19.42 18.68 18.70 19.31 17.89 14.55 12.32
1.78 4.95 5.44 8.60 7.97 7.71 10.66 10.48 9.82 14.07 19.70 21.10 22.13 23.05 24.21 25.07 26.07 27.25 28.68 30.14 31.62 32.70 29.75 28.13 27.82 28.50 26.48 25.04 23.88 22.46 20.54 20.72 20.92 21.04 19.04 18.29 18.77 18.27 16.95 15.46 15.12 13.41 10.55
-3.92 3.62 0.68 2.08 2.40 2.35 3.60 7.58 8.38 7.91 8.26 10.67 16.67 19.17 21.84 23.93 25.28 26.71 28.55 30.31 28.44 30.54 29.95 27.73 27.86 26.45 24.96 23.11 21.68 19.94 18.06 16.51 14.54 14.66 15.76 15.26 15.35 15.09 12.98 12.11 11.80 9.18 7.63
-1.65 -1.20 -1.23 -0.95 -0.33 1.87 4.91 6.89 7.83 8.39 8.56 9.33 11.21 15.08 16.31 21.01 22.87 24.79 27.98 26.29 27.41 28.02 23.02 24.78 24.99 23.47 22.08 21.26 20.09 17.89 15.89 12.82 10.05 9.97 11.75 12.36 10.70 11.56 9.41 7.95 9.42 8.33 6.12
-5.31 2.14 1.41 -2.20 -0.73 -0.19 4.29 5.86 6.84 7.13 7.57 8.34 9.38 10.65 13.11 14.70 15.73 17.89 21.06 25.61 27.46 22.83 23.80 22.17 21.37 20.62 19.52 18.38 16.44 13.65 12.34 10.21 9.71 9.73 8.77 10.30 7.95 10.55 9.16 6.23 4.37 4.21 -0.81
-4.61 -3.69 1.15 -1.73 -2.97 -1.05 3.86 4.98 6.08 6.94 7.22 7.64 8.59 11.45 18.90 17.92 17.11 18.24 21.50 18.57 22.04 21.60 21.12 19.64 18.13 17.11 16.51 15.39 13.88 12.84 10.62 7.89 6.35 6.85 6.45 5.31 4.27 5.08 4.53 4.73 1.57 -0.66 -1.86
-6.75 -5.46 -4.06 -4.33 -0.75 3.32 2.92 5.11 5.84 6.28 6.99 7.90 9.46 11.83 18.80 14.81 16.62 19.64 12.54 13.36 15.14 15.88 17.20 16.76 15.10 14.43 13.88 12.88 11.83 10.10 7.46 5.15 3.82 2.42 3.61 3.09 2.14 1.97 1.81 1.40 -0.47 -6.49 -11.17
-2.87 -3.46 -3.36 -4.53 -2.63 0.75 0.98 1.06 4.31 5.93 6.67 7.78 9.49 11.76 14.12 15.63 13.13 9.11 8.45 9.31 11.21 11.02 11.39 11.50 10.16 8.47 8.74 8.03 8.77 9.27 6.56 3.84 3.19 2.44 2.66 1.25 1.29 1.37 -0.00 -0.47 -4.48 -10.28 -11.24
-4.90 -3.70 -4.30 -5.42 -5.45 -4.84 -2.81 0.53 2.79 4.05 5.17 6.78 7.81 9.78 10.86 7.99 6.46 1.65 2.55 6.75 7.88 7.53 7.91 8.07 7.71 6.66 5.52 3.84 4.05 4.06 3.31 0.83 1.79 2.70 2.79 2.84 1.03 0.81 -1.12 -7.27 -9.56 -11.27 -10.49
-7.25 -6.80 -7.18 -7.56 -8.30 -5.93 -4.90 -2.75 0.80 1.51 3.56 4.28 5.61 6.48 6.58 3.97 2.91 -1.49 1.50 4.42 5.81 5.94 5.71 5.91 5.87 4.87 2.45 2.87 2.45 1.58 5.33 3.12 -0.33 1.39 0.98 0.32 -0.54 -1.85 -5.45 -4.45 -7.31 -11.59 -13.74
-9.65 -9.94 -10.39 -9.47 -8.99 -9.57 -8.69 -4.00 -1.57 -0.15 1.32 2.90 3.77 4.43 4.38 1.79 1.35 -0.35 0.60 2.65 4.72 4.90 4.75 4.76 4.18 3.55 2.96 2.53 1.99 3.07 1.33 2.14 -0.40 0.89 -0.20 -1.02 -2.06 -4.27 -5.79 -7.84 -7.80 -12.42 -15.68

GFSGL_sfc_wetblb_087.txt.gz
Wetbulb
41.28 40.75 39.99 39.30 39.14 39.04 38.70 38.39 38.64 38.90 38.81 38.60 38.66 38.55 38.46 38.42 38.57 38.23 38.36 38.97 38.38 38.33 38.73 38.78 39.61 40.22 41.24 42.08 42.21 42.18 42.11 42.50 39.17 40.37 42.06 43.55 43.00 43.14 43.95 43.11 43.69 43.96 43.64
39.60 38.94 38.16 38.14 37.51 37.09 36.73 36.95 37.12 36.83 37.10 36.94 36.67 36.52 36.49 36.80 36.61 36.35 36.85 37.29 36.15 36.08 36.84 37.37 37.63 39.18 38.26 38.99 39.11 38.72 39.04 39.47 38.70 36.94 38.70 39.67 39.41 41.16 42.12 40.10 41.83 41.30 40.59
37.92 37.32 36.59 36.13 35.99 35.56 35.45 35.45 35.46 35.21 35.04 34.91 34.88 34.68 34.82 35.35 34.89 35.39 36.61 35.00 34.65 34.90 35.31 35.04 35.32 35.98 34.79 34.92 35.43 35.72 36.48 36.61 36.33 35.27 35.35 37.85 38.21 39.31 39.29 39.54 36.84 37.93 36.45
36.42 35.45 34.67 34.37 34.37 33.89 33.71 33.48 33.56 33.69 33.24 32.92 32.96 32.92 33.17 33.35 33.35 33.86 34.26 33.57 33.38 33.65 33.95 33.90 33.57 33.47 33.23 33.46 33.67 34.63 34.66 33.29 33.44 33.28 33.43 34.13 35.32 37.05 35.35 34.40 34.91 35.83 34.92
34.69 33.88 33.43 33.15 32.80 32.14 31.32 31.13 30.96 30.68 31.70 31.78 31.21 30.35 31.06 31.48 32.90 32.91 32.45 32.01 31.45 31.45 31.19 31.27 31.75 32.22 33.51 34.69 34.19 33.38 32.96 32.34 31.88 31.55 31.26 31.71 32.55 33.54 33.51 35.57 34.81 35.55 32.23
33.00 32.16 31.99 30.78 30.02 29.77 29.59 29.55 29.52 29.37 29.37 29.16 28.61 28.50 28.58 30.99 33.78 34.62 34.12 31.04 30.50 29.98 29.48 29.90 29.98 29.88 32.34 33.73 34.30 35.00 34.42 32.35 31.95 31.67 31.31 30.73 31.43 32.22 33.87 33.19 32.65 31.66 30.20
29.87 29.68 29.49 29.45 29.07 28.93 28.71 28.52 28.45 28.04 28.01 27.43 27.55 27.91 27.79 27.83 32.57 34.09 34.38 30.94 30.33 29.67 29.26 29.46 29.91 31.11 31.82 31.83 33.39 34.30 33.30 33.97 34.69 32.20 30.30 30.23 30.28 31.55 31.90 30.38 30.28 31.19 28.26
29.48 28.73 28.46 28.16 27.41 27.48 27.05 26.65 26.71 27.06 26.72 26.60 26.83 26.78 26.59 27.38 32.21 33.20 33.82 30.26 29.04 28.83 29.78 30.45 30.45 30.79 31.55 31.67 32.46 31.51 31.28 31.29 31.35 31.52 31.70 31.90 32.29 32.68 32.08 31.50 30.72 28.08 28.70
28.50 28.01 27.80 27.31 25.37 24.83 22.29 24.08 25.60 25.01 24.30 23.47 26.03 23.19 20.94 24.55 30.71 32.75 32.65 28.94 29.46 28.83 29.26 30.71 30.77 30.68 32.58 34.65 31.34 29.68 29.05 29.61 33.72 35.30 34.93 34.07 32.47 32.84 33.89 30.29 26.87 25.90 24.30
27.16 26.98 26.19 26.02 21.51 21.06 23.70 21.90 23.70 22.18 25.18 25.17 25.19 22.29 21.57 21.55 28.63 31.95 32.43 28.57 26.07 28.22 28.25 30.56 31.22 31.96 33.61 33.13 30.53 30.34 30.12 29.65 29.53 30.29 26.16 26.82 26.67 26.15 27.57 25.77 29.39 25.21 24.42
25.10 24.20 22.96 22.96 20.42 21.52 20.77 20.72 18.83 16.82 19.79 14.93 20.39 21.26 19.01 21.34 22.95 31.23 32.34 29.35 27.60 28.10 29.58 29.55 30.23 32.41 32.61 33.50 34.35 31.84 31.24 32.96 29.36 24.17 23.35 24.27 23.81 22.95 22.55 23.06 24.05 25.78 23.70
20.92 19.77 18.03 16.85 20.34 20.82 12.59 14.20 11.71 10.40 11.05 15.48 16.46 20.22 19.86 20.60 25.58 29.12 30.53 31.10 31.19 28.03 29.21 29.98 30.51 32.66 32.78 33.52 32.94 33.51 33.02 31.56 24.06 22.27 23.02 22.69 22.04 21.33 21.27 20.86 20.94 20.98 21.84
18.92 17.36 18.11 15.31 15.46 13.65 9.63 10.69 13.77 9.92 9.06 14.30 17.34 18.35 19.69 21.46 20.46 27.15 28.17 29.15 29.90 28.40 29.71 30.90 33.39 33.47 32.91 32.55 31.81 33.03 30.79 27.33 20.77 21.47 22.85 23.28 23.95 24.36 23.72 21.03 20.43 20.22 18.67
17.83 17.84 17.00 15.31 12.80 9.70 14.92 16.17 9.16 7.89 9.17 13.34 14.24 16.87 18.65 19.87 20.05 20.34 23.74 26.69 27.91 28.63 29.84 30.56 31.81 32.17 32.63 32.14 27.13 27.40 24.74 24.05 23.55 24.42 24.44 24.08 23.74 22.91 20.17 21.02 17.68 17.74 15.75
15.67 16.41 14.76 13.50 11.11 11.22 13.43 11.51 15.03 15.06 14.31 9.15 9.03 12.83 17.34 17.61 19.74 25.46 25.94 25.16 26.05 27.37 28.08 29.38 30.07 21.52 25.67 23.95 22.21 22.89 23.21 23.17 23.72 25.72 23.81 19.59 21.60 20.32 19.70 19.82 19.01 14.53 12.25
14.37 13.27 11.44 11.16 9.35 10.95 9.00 9.11 16.40 19.40 21.42 22.38 23.20 21.88 19.48 23.28 24.80 25.79 26.69 27.50 28.34 29.16 28.09 27.32 27.72 24.80 25.67 25.71 22.18 23.44 22.54 23.42 24.94 24.50 19.84 20.44 17.58 17.70 18.79 16.97 15.74 13.05 11.23
7.16 8.38 7.75 9.40 6.64 5.30 4.17 3.04 4.82 9.23 16.81 18.46 19.80 20.88 21.57 22.40 23.79 24.44 25.32 26.44 27.63 28.59 26.54 27.61 27.61 24.03 25.95 26.14 24.53 24.02 21.84 21.07 22.28 22.24 21.06 16.79 18.05 17.40 16.46 14.85 14.12 12.10 9.50
2.76 6.81 2.40 1.75 -0.57 -1.28 -0.52 -0.85 -0.95 1.60 4.45 6.58 12.87 16.65 19.32 20.54 21.51 22.82 24.33 24.88 19.82 24.11 25.61 26.89 26.56 26.36 26.91 25.45 23.30 21.45 20.39 19.60 18.94 18.61 15.29 15.87 16.82 15.84 12.90 12.56 11.64 9.31 7.96
1.60 -0.34 -1.08 -1.78 -1.96 -0.31 -1.22 -0.63 -0.83 0.91 3.98 5.23 6.87 11.14 11.54 17.04 19.31 21.89 23.29 16.15 17.16 21.17 23.37 24.51 27.71 27.22 25.33 24.18 22.60 20.93 19.18 17.62 15.59 13.09 8.14 10.10 13.03 12.94 7.96 9.60 10.77 8.87 5.13
-5.80 0.43 -0.67 -4.06 -3.93 -3.67 -1.75 -1.76 -0.06 0.27 2.97 4.14 5.24 6.20 8.27 11.26 14.20 13.95 15.00 16.09 18.54 20.00 20.43 21.24 23.26 22.62 22.47 21.67 19.81 17.98 16.21 15.08 12.63 10.43 5.62 7.31 8.85 9.96 7.48 5.96 7.08 7.50 2.34
-6.58 -4.60 0.92 -4.55 -5.22 -4.75 -4.27 -2.66 -1.10 -1.50 2.39 3.29 4.78 8.05 16.73 14.28 11.91 12.27 14.52 14.51 13.14 13.52 14.44 16.80 14.34 17.66 19.17 18.50 17.01 15.80 15.25 13.89 11.32 6.91 6.01 6.13 6.12 3.82 4.86 6.09 3.00 3.13 1.82
-5.30 -5.90 -6.61 -6.20 -4.40 -3.02 -4.82 -4.09 -2.97 -2.27 1.37 3.08 4.79 6.99 14.84 10.77 11.97 10.75 9.53 8.71 8.65 8.66 10.32 12.19 14.34 14.32 15.15 15.88 15.73 14.82 12.95 10.35 9.19 7.44 5.17 2.76 3.02 3.37 2.60 2.19 1.82 0.02 -2.36
-2.29 -3.69 -4.98 -5.98 -8.34 -6.07 -7.14 -9.19 -7.97 -5.92 -2.00 0.72 3.01 4.78 5.69 6.64 6.89 5.68 5.26 4.18 3.92 5.02 6.67 7.72 9.75 10.50 10.28 10.38 11.32 11.90 9.70 8.13 8.51 6.54 4.08 1.89 2.40 1.18 1.78 0.03 -0.17 -3.36 -3.18
-5.34 -5.29 -6.63 -8.44 -8.46 -7.81 -8.63 -8.88 -7.86 -3.93 -3.72 -2.36 -1.56 1.58 3.47 4.27 3.18 2.25 0.68 0.36 1.55 2.45 4.96 6.46 6.41 6.79 6.51 5.94 5.31 1.21 3.48 5.53 6.26 4.64 4.24 2.97 1.41 1.50 -0.16 -2.28 -2.12 -3.53 -5.60
-8.06 -7.65 -7.61 -7.34 -10.91 -9.84 -10.51 -10.29 -8.20 -11.31 -9.28 -6.09 -3.05 -1.15 0.99 1.98 1.21 -0.81 -1.97 -1.30 0.34 2.69 3.76 4.82 5.47 5.04 4.94 4.16 2.62 2.04 5.77 5.16 5.15 5.49 4.84 3.52 1.80 0.08 -1.80 -1.42 -3.06 -6.57 -9.91
-8.75 -9.21 -10.24 -11.02 -11.20 -12.72 -13.38 -12.31 -11.64 -9.71 -9.59 -7.32 -5.47 -3.58 -1.78 0.56 0.72 -1.50 -0.67 0.04 2.55 4.72 4.83 4.85 4.65 4.07 3.31 2.34 0.78 2.64 3.40 4.40 3.09 3.82 1.71 1.09 -0.13 -1.40 -2.94 -3.37 -4.85 -4.15 -6.55

GFSGL_sfc_wetblb_090.txt.gz
Wetbulb
40.97 40.66 40.08 38.87 38.48 38.39 38.15 37.29 37.06 36.90 36.87 36.62 36.46 35.97 35.84 35.25 35.24 35.31 35.90 35.47 33.98 34.11 34.58 34.72 35.08 36.03 36.59 36.80 37.18 37.44 37.83 38.06 34.76 35.43 37.22 38.16 37.37 37.12 38.09 39.81 40.58 40.36 41.40
38.73 38.14 37.31 36.94 36.71 36.43 35.59 35.68 35.66 35.04 35.16 34.81 34.39 33.87 33.94 33.96 33.43 33.74 34.34 33.03 32.37 32.19 32.94 32.84 32.86 34.60 33.70 34.33 34.64 34.20 34.72 35.33 33.79 31.61 33.53 34.16 34.60 36.24 37.09 36.70 37.43 38.71 39.66
37.38 36.79 36.00 35.43 34.96 33.93 33.90 34.28 34.15 33.61 32.94 32.83 32.42 31.91 31.91 32.20 31.79 32.47 32.87 32.38 32.00 32.01 32.22 32.11 32.02 31.59 30.33 30.60 31.35 32.37 33.30 34.01 34.06 31.96 30.87 33.23 33.55 34.40 34.13 35.20 35.95 36.89 37.04
36.06 35.42 33.91 33.07 32.82 32.52 32.75 32.60 32.36 31.85 31.23 30.74 30.41 30.46 30.54 30.51 30.76 31.45 32.00 31.43 31.10 31.95 32.43 31.54 30.79 29.85 29.52 29.88 30.79 31.41 31.77 31.56 31.00 30.63 30.40 30.84 32.07 33.31 33.22 32.22 32.61 35.20 35.06
34.37 33.29 32.52 32.17 31.68 31.15 30.43 29.88 29.71 29.52 29.74 29.30 28.69 28.39 28.92 29.44 30.83 30.68 30.37 30.29 30.22 30.10 30.20 29.96 29.89 29.97 31.51 32.01 31.21 31.20 31.25 30.70 30.22 29.48 29.11 29.75 29.56 29.62 29.57 31.49 31.64 32.01 32.11
32.73 31.83 31.31 30.35 29.32 28.82 28.78 28.73 28.45 27.90 27.74 27.67 27.48 27.46 27.17 29.25 32.63 34.10 32.82 29.59 29.62 29.22 28.69 29.00 30.13 30.10 31.18 32.59 33.51 34.10 33.66 30.95 29.81 29.15 29.14 28.09 28.05 29.27 30.11 30.17 29.95 29.14 26.86
30.68 29.71 29.35 28.93 28.24 28.12 27.82 27.58 27.18 26.93 26.94 26.73 26.94 27.06 26.74 26.55 31.95 33.38 33.59 29.88 28.82 28.53 28.33 29.07 29.06 29.49 30.60 29.77 31.68 33.85 32.80 33.62 33.55 30.97 28.94 28.00 28.13 29.65 30.43 29.85 29.74 29.31 28.05
29.56 28.78 28.07 27.86 26.93 26.38 26.13 26.10 25.93 26.44 26.21 26.08 26.03 25.96 25.99 26.43 31.08 32.50 33.23 29.70 28.84 28.51 27.90 27.99 28.00 28.33 29.75 30.18 31.15 30.62 30.25 29.00 30.11 31.09 31.72 31.66 31.03 30.48 29.42 30.43 29.40 27.73 28.40
28.68 27.87 27.26 26.55 25.03 24.41 23.96 24.07 25.42 24.72 23.77 22.70 25.40 21.96 20.48 23.10 29.93 31.63 31.43 27.52 28.64 28.48 28.69 27.95 27.51 29.85 31.60 32.71 30.80 29.48 29.10 31.12 32.63 33.59 32.82 31.59 30.36 29.41 29.06 26.83 25.64 25.46 23.93
28.06 27.66 26.59 25.25 22.79 22.71 24.19 22.99 23.73 21.93 24.20 24.55 23.96 21.45 20.55 19.24 27.17 30.61 30.50 25.85 23.76 26.77 26.57 28.43 30.13 31.30 32.28 32.83 30.85 30.82 29.81 29.71 30.87 20.26 19.74 23.17 24.39 23.91 25.93 23.18 25.26 24.00 23.83
25.78 24.43 23.41 22.75 21.87 22.38 21.67 21.34 18.49 16.72 18.68 13.01 17.54 18.59 18.09 18.03 19.83 29.01 30.04 26.96 25.37 25.13 25.41 26.35 29.40 31.52 31.99 33.36 33.84 31.49 30.61 32.37 30.28 15.47 15.18 17.42 18.43 21.14 21.18 21.85 22.47 23.21 23.59
22.35 20.98 19.72 18.26 22.32 20.38 18.20 16.94 14.10 10.73 9.78 10.79 11.22 15.07 17.90 18.14 23.93 26.59 28.32 28.65 28.77 23.94 24.78 25.99 26.64 30.64 32.13 33.48 33.27 33.08 33.37 31.85 25.76 13.21 12.85 13.78 16.49 20.81 20.98 20.81 20.55 19.92 20.38
19.02 16.76 16.12 17.87 19.06 19.05 16.89 17.54 13.91 8.23 9.84 12.67 15.83 14.38 16.51 18.90 18.27 24.98 25.78 27.19 27.81 25.19 25.84 27.39 29.81 30.44 31.19 31.87 32.38 31.98 29.96 28.96 22.75 13.78 14.18 18.90 21.84 24.54 21.84 20.54 20.16 19.86 18.87
16.92 17.10 18.02 17.96 17.24 16.28 18.21 18.25 12.69 10.02 10.91 12.66 9.69 9.34 11.45 13.73 15.29 17.95 21.50 22.54 24.70 25.50 26.38 25.73 27.88 29.82 30.93 31.79 28.67 28.05 25.40 26.69 25.09 18.08 17.82 21.11 23.08 21.58 17.85 18.97 17.59 19.06 13.78
18.93 19.20 18.02 17.05 16.16 14.64 14.98 14.17 15.80 14.43 14.44 5.26 5.21 7.73 9.86 12.61 13.97 24.32 24.79 23.96 23.96 25.46 26.48 24.34 25.12 24.84 25.65 24.97 19.47 21.44 21.95 22.50 24.01 18.88 16.78 16.93 20.79 19.32 18.11 19.85 17.99 14.04 12.38
18.41 17.36 16.66 15.59 13.86 13.06 11.24 10.48 16.29 19.18 20.32 21.46 22.14 19.66 12.84 21.70 23.71 24.71 25.31 26.11 26.96 27.53 23.72 22.99 23.66 24.93 24.43 24.12 19.94 20.25 20.32 23.11 23.83 22.93 18.67 19.12 20.39 16.99 17.30 16.74 15.43 10.93 8.97
17.38 14.54 13.12 12.31 11.17 9.51 7.37 5.43 5.56 8.84 15.40 17.65 18.33 19.56 20.34 21.54 21.98 23.29 24.34 25.83 25.10 23.79 18.68 21.18 23.56 24.53 25.39 24.00 22.27 19.85 20.44 22.75 23.07 23.07 22.79 21.63 16.17 15.57 16.53 13.46 12.02 11.25 8.30
11.96 10.84 9.82 8.13 6.91 5.50 5.32 5.14 3.47 2.48 -1.29 0.50 10.36 15.21 17.55 18.86 20.67 22.41 23.83 19.85 12.49 15.01 15.19 20.16 19.29 20.59 23.51 25.48 22.35 21.27 21.44 21.75 20.77 21.19 20.81 18.99 14.56 14.38 15.04 11.50 11.66 5.93 4.88
7.05 6.13 6.35 5.77 4.64 5.06 3.80 3.16 1.46 -0.99 -2.06 -1.19 0.81 7.16 8.93 15.71 18.77 20.01 20.07 3.56 10.81 13.28 13.70 13.93 16.51 17.98 20.25 23.32 25.15 22.63 20.83 20.94 20.39 19.19 18.29 15.59 11.37 10.93 10.78 9.70 10.42 7.80 4.45
4.68 5.69 4.06 2.30 0.76 0.39 1.12 0.06 -0.48 -0.83 -2.23 -2.78 -2.93 -1.40 1.86 6.00 6.83 5.04 2.02 3.76 8.04 8.70 9.71 9.78 11.66 13.82 16.60 19.45 21.20 20.52 18.36 18.14 17.56 16.66 15.56 13.96 11.14 8.97 9.46 8.74 8.68 5.50 2.35
2.21 2.61 2.52 -0.34 -3.49 -3.47 -2.60 -2.07 -0.12 -3.78 -3.60 -3.63 -0.85 3.75 16.18 6.64 4.36 7.52 6.40 5.00 5.17 5.32 5.75 6.68 8.40 10.16 14.07 16.64 15.77 15.45 14.25 16.69 16.11 15.02 13.58 11.63 9.49 5.46 4.66 9.96 7.44 4.26 1.55
1.89 1.14 -0.49 -2.25 -1.89 -1.36 -4.34 -2.60 -3.65 -4.17 -3.82 -3.08 -0.34 1.22 11.83 -0.94 -1.09 1.08 2.94 2.92 3.24 2.58 3.67 4.88 5.53 7.79 10.04 11.56 13.33 14.34 13.82 13.29 13.59 12.31 10.69 7.51 5.56 2.54 2.53 4.65 4.47 2.30 -0.07
-0.59 -1.56 -3.44 -5.60 -4.88 -2.99 -5.07 -5.98 -4.22 -5.10 -5.44 -6.52 -4.55 -2.95 -3.64 -6.32 -4.33 -2.07 -0.38 0.18 -0.36 -0.13 1.06 1.44 3.55 4.88 5.15 7.65 8.16 8.89 11.97 12.50 10.17 6.27 8.82 7.08 3.76 3.57 2.83 2.97 0.33 -1.37 -0.80
-2.85 -2.45 -1.76 -2.26 -2.25 -1.94 -1.79 -4.04 -6.18 -5.85 -7.78 -9.59 -12.30 -9.95 -4.17 -3.63 -3.13 -2.09 -2.70 -3.06 -3.04 -3.87 -4.02 -0.97 3.72 4.25 4.76 5.31 5.16 5.69 6.06 6.40 4.49 5.83 6.93 6.35 4.63 4.34 2.46 -0.96 0.20 -3.00 -0.06
-3.34 -2.28 -1.74 -1.61 -3.17 -2.86 -5.63 -8.16 -7.81 -10.69 -12.30 -11.58 -10.14 -9.77 -8.32 -6.72 -5.44 -5.65 -5.49 -4.94 -4.56 -3.49 -3.13 -0.30 -0.04 4.22 5.07 4.38 3.85 4.12 4.74 4.74 4.76 6.86 6.93 6.58 5.49 3.90 2.49 -0.47 -1.75 -3.80 -3.50
-3.37 -3.39 -4.26 -6.03 -7.82 -10.15 -10.14 -7.45 -8.70 -9.45 -10.68 -10.70 -10.16 -10.15 -8.90 -7.81 -6.22 -6.01 -4.96 -4.02 -3.47 -2.63 -3.12 -2.92 -2.55 -0.12 3.98 4.67 3.93 5.65 4.60 7.09 4.54 5.94 5.83 5.29 3.71 2.00 -0.71 -2.50 -2.15 -2.42 -2.78

GFSGL_sfc_wetblb_093.txt.gz
Wetbulb
44.68 42.64 42.00 42.34 41.13 40.99 40.04 38.27 36.80 36.45 35.87 35.21 34.95 34.55 34.01 33.22 33.55 33.79 33.45 32.13 31.21 31.10 31.52 31.37 31.15 32.00 31.66 32.39 33.42 33.30 33.09 32.99 30.40 31.52 33.43 34.41 33.43 33.29 34.35 35.57 36.01 35.95 36.71
40.73 40.68 39.89 39.33 38.02 37.32 35.95 35.23 35.20 34.40 34.21 33.61 33.22 32.70 32.18 31.79 31.72 32.07 31.00 30.94 30.12 29.81 30.46 30.07 29.94 31.89 29.93 30.63 30.50 30.90 31.85 32.64 31.39 28.92 30.51 31.67 31.93 33.38 33.86 33.80 34.43 35.50 36.02
38.94 37.97 36.70 35.98 35.69 34.71 34.12 33.88 33.63 32.66 32.18 31.78 31.19 30.66 30.39 30.56 30.16 30.72 30.65 30.38 30.14 30.13 30.09 29.59 29.46 29.04 27.87 27.65 30.19 30.52 30.99 31.60 31.68 29.35 28.78 30.95 31.54 32.12 31.16 31.52 31.53 32.06 33.25
36.07 35.60 34.29 33.83 33.88 33.56 32.88 32.34 32.12 31.46 30.37 29.38 29.21 29.24 29.12 29.04 29.49 30.17 30.34 30.03 29.81 30.01 30.43 30.05 29.33 28.44 28.65 29.44 29.79 29.97 30.40 29.82 30.19 29.39 29.17 29.06 29.60 30.64 30.89 29.27 28.67 30.91 30.22
34.45 33.85 32.42 31.74 31.86 31.51 30.88 30.33 29.99 29.62 28.77 28.12 27.56 27.50 27.61 28.33 30.68 30.09 30.00 29.29 28.73 28.66 29.14 29.24 29.39 29.25 31.12 31.55 30.54 30.26 30.42 30.30 30.50 28.95 27.93 28.26 28.07 28.35 27.64 29.53 28.68 28.83 29.62
32.66 31.70 31.30 30.64 30.06 29.91 29.24 28.66 28.30 27.89 27.21 27.09 26.84 26.81 26.20 28.00 32.71 33.51 31.90 29.16 28.89 28.42 27.89 28.43 28.47 27.88 29.48 32.16 32.34 33.42 33.34 31.14 28.90 28.66 28.24 27.53 27.65 28.53 29.28 26.44 26.90 26.57 26.12
30.95 30.49 29.89 29.32 28.91 29.05 28.54 27.72 27.15 26.63 26.44 26.04 25.96 25.97 25.61 25.75 31.89 32.87 33.13 29.59 28.77 28.03 28.35 28.71 28.88 29.27 28.36 29.87 31.51 32.60 31.92 32.99 33.20 30.87 28.84 28.62 28.63 28.58 27.39 24.94 24.74 25.80 24.51
30.32 29.75 28.82 28.89 28.14 27.04 26.07 26.02 25.80 25.65 25.22 25.00 25.05 25.17 24.94 25.75 30.78 32.11 32.62 28.73 28.16 28.43 28.26 28.38 27.84 27.78 28.19 30.12 30.37 30.07 29.20 30.64 31.03 31.64 31.52 31.38 29.68 28.61 27.56 26.57 26.81 24.45 25.96
29.62 29.31 28.85 28.18 26.11 24.65 24.23 23.74 24.92 24.11 23.30 22.62 25.13 20.71 19.31 21.44 29.42 30.89 30.55 26.91 27.81 27.18 28.23 28.13 27.13 26.92 30.57 32.50 30.03 29.50 28.33 30.84 32.87 32.91 31.20 30.75 29.74 28.63 27.96 18.20 19.01 17.32 17.12
29.63 28.87 27.01 26.04 24.22 22.93 24.14 23.36 23.42 22.58 23.82 23.45 22.53 19.53 19.47 16.46 26.53 29.57 29.33 25.44 19.33 24.66 24.93 27.01 28.19 28.81 30.57 31.58 29.72 30.43 28.99 27.35 29.67 27.48 23.23 21.53 22.58 21.53 24.52 19.47 22.06 12.96 17.10
27.23 25.87 24.02 23.26 22.48 22.79 22.25 21.33 20.10 19.28 19.52 16.79 19.08 19.59 19.34 18.73 20.55 27.80 28.80 25.93 23.87 20.38 21.07 23.47 25.21 28.95 30.26 31.34 31.94 31.14 30.45 31.77 30.26 26.24 22.21 14.44 15.15 16.84 18.29 18.76 18.66 18.13 15.56
25.07 23.08 21.31 20.96 23.09 21.37 19.22 17.43 16.86 17.14 17.36 18.93 18.94 19.33 19.70 19.11 22.58 25.21 26.86 27.42 27.75 15.60 18.79 23.57 23.49 29.12 30.36 30.89 30.58 31.80 32.55 30.95 27.94 25.00 21.11 12.35 13.65 15.02 17.05 18.13 19.24 19.01 19.78
22.39 19.82 18.29 19.78 20.03 18.47 17.50 17.32 17.10 17.56 19.33 19.01 19.20 16.74 17.37 19.69 18.62 23.24 24.48 26.34 26.35 23.69 24.13 26.17 28.71 29.17 29.47 29.13 30.13 31.72 31.06 29.75 27.33 24.18 21.63 16.62 19.24 20.78 20.31 17.97 17.98 19.14 18.14
20.27 19.06 18.96 17.48 16.94 19.14 20.26 19.50 18.71 17.91 17.39 17.85 17.41 16.66 15.56 15.76 15.51 17.83 20.23 18.84 22.98 23.31 24.32 23.20 26.19 27.84 28.53 28.60 24.84 27.38 26.29 23.86 23.26 21.08 21.69 19.17 22.50 21.61 14.90 15.86 13.11 16.27 12.02
19.41 18.70 18.55 18.91 18.76 17.71 18.20 18.36 18.85 18.77 19.15 16.53 15.66 14.92 10.27 9.71 14.83 24.03 23.96 21.52 21.90 24.56 25.35 15.22 17.00 24.33 24.48 23.62 22.04 20.19 22.74 21.81 23.36 19.58 19.74 19.67 20.45 20.84 16.10 16.27 16.27 11.52 7.15
18.80 18.79 18.73 17.72 17.32 16.73 16.03 13.86 18.38 20.18 20.69 21.71 21.63 18.97 15.13 20.81 23.16 23.97 24.91 25.83 26.83 26.30 14.23 9.44 15.86 18.89 19.11 20.62 22.89 23.27 17.00 21.12 22.32 24.18 22.08 21.70 21.18 20.49 16.11 15.66 14.51 6.23 7.56
20.20 18.77 17.83 16.75 15.98 14.70 13.46 13.74 13.05 12.80 15.97 17.69 17.94 18.49 19.70 20.17 21.29 22.77 24.42 24.95 22.07 19.22 3.73 5.45 11.89 13.95 15.59 19.24 21.09 23.51 23.30 20.11 23.51 24.21 24.29 22.88 22.20 19.74 16.40 13.79 12.99 10.53 7.93
19.56 18.13 16.96 15.75 14.48 12.14 11.10 9.91 8.82 9.30 9.57 8.99 11.08 15.31 16.76 17.95 20.03 21.78 21.38 15.30 3.59 7.04 -0.91 2.42 8.21 11.07 12.99 15.76 18.18 20.76 22.75 21.79 21.71 21.34 23.04 23.19 20.75 18.45 14.09 12.98 12.23 9.61 6.37
15.89 14.52 13.77 12.16 10.99 10.23 9.09 7.71 7.28 6.61 5.69 4.98 4.14 8.25 9.32 15.49 17.77 16.94 16.68 -0.46 -2.26 -1.73 -1.77 0.66 6.23 8.01 9.58 12.07 14.71 17.03 19.15 20.89 19.72 21.49 20.75 20.72 19.16 17.02 13.02 11.26 13.06 10.11 7.31
13.21 12.24 10.44 8.82 7.39 6.87 7.23 6.60 5.66 5.05 3.74 2.80 2.95 3.31 2.19 2.92 -1.35 -1.90 -1.73 -4.89 -5.80 -4.35 -0.97 0.89 3.54 4.67 6.34 8.31 11.36 13.53 14.90 15.46 14.53 16.00 18.31 18.41 17.58 16.28 14.22 9.07 10.42 8.18 5.97
9.78 7.95 7.87 6.65 5.95 5.14 4.59 4.45 4.48 2.78 2.54 1.97 1.61 3.09 15.07 -1.19 -2.56 -5.34 -5.94 -6.49 -6.96 -3.16 -0.94 0.05 1.55 2.28 3.74 6.77 7.73 9.90 12.13 13.50 12.63 11.91 15.66 15.59 14.97 13.31 12.17 10.88 7.41 5.98 5.09
6.32 5.47 4.17 3.79 3.28 3.24 2.56 3.37 2.84 2.14 -0.21 -0.97 0.16 -0.59 10.47 -1.08 -4.51 -6.12 -6.45 -6.19 -2.82 -3.14 -3.35 -1.41 -0.01 0.64 2.73 4.70 5.82 5.64 7.76 11.67 12.66 9.95 10.84 13.23 12.05 10.78 9.26 7.95 7.16 3.13 3.02
3.62 2.65 1.76 0.40 1.55 1.36 -0.02 0.08 -0.82 -1.62 -1.71 -5.42 -4.55 -2.30 -4.80 -5.69 -5.42 -4.50 -3.66 -4.30 -4.57 -3.90 -4.72 -9.01 -4.14 -1.27 -2.48 -0.02 2.73 3.83 3.25 5.81 8.82 8.45 8.94 9.20 9.63 8.50 6.79 6.32 5.06 2.70 3.82
3.84 3.18 2.44 1.92 0.56 -0.36 -0.14 -1.95 -2.96 -3.17 -5.14 -6.68 -9.57 -8.67 -3.84 -3.45 -4.78 -4.38 -5.26 -6.62 -6.65 -8.05 -8.75 -8.84 -5.86 -4.40 -3.26 -3.88 -2.33 -0.76 2.73 6.81 7.25 7.08 6.53 4.36 4.18 7.11 6.48 5.06 4.84 3.67 2.83
2.04 1.72 3.24 2.14 0.09 -1.98 -4.44 -5.30 -4.42 -5.83 -5.77 -4.44 -3.75 -4.34 -4.35 -5.17 -6.46 -7.86 -9.31 -9.67 -9.85 -8.87 -6.55 -5.42 -5.24 -5.80 -4.66 -4.29 -2.94 -2.02 1.46 4.59 5.96 7.55 6.51 6.44 3.71 0.62 3.15 4.41 2.65 1.28 0.14
0.92 2.81 2.07 0.02 -3.26 -4.76 -5.58 -4.35 -4.46 -3.56 -3.54 -2.35 -2.84 -4.12 -4.84 -7.53 -9.10 -10.56 -8.95 -9.41 -7.43 -7.30 -6.77 -5.17 -4.90 -3.94 -3.61 -3.88 -3.47 2.27 6.61 9.08 7.37 6.99 6.24 6.24 6.18 5.16 4.11 3.11 1.64 0.85 -0.22

GFSGL_sfc_wetblb_096.txt.gz
Wetbulb
49.86 49.52 48.87 47.33 46.73 45.48 43.56 41.70 40.61 39.04 37.71 35.26 34.05 33.26 32.91 32.91 32.90 31.89 30.90 30.45 29.87 29.54 29.86 29.33 29.37 29.83 29.04 29.49 29.67 29.84 30.16 30.23 27.59 28.89 30.89 31.40 31.07 31.30 32.15 33.11 33.50 32.56 33.14
45.32 45.32 44.43 43.66 42.74 40.91 39.74 38.67 37.90 36.42 34.11 33.28 32.69 31.84 31.08 31.06 30.97 30.39 29.99 29.28 28.62 28.87 29.10 28.90 28.32 30.11 27.58 27.63 29.48 29.61 28.70 29.09 28.99 26.66 28.53 29.71 30.90 32.22 32.48 31.93 31.67 32.43 31.52
42.55 41.61 40.41 39.90 40.34 38.67 37.11 35.70 34.36 33.03 31.63 31.22 30.73 30.08 29.80 29.80 29.59 29.99 29.63 29.57 29.31 29.33 29.14 28.49 28.04 27.86 26.62 27.07 26.84 27.01 28.05 30.13 30.31 28.79 28.30 30.58 30.86 31.50 30.24 30.07 29.86 29.66 30.91
40.38 40.20 38.87 37.82 37.55 36.52 34.71 32.66 31.82 31.08 30.14 29.55 29.21 28.71 29.05 28.81 29.71 29.64 29.60 29.23 28.86 29.01 29.81 29.43 28.65 27.93 26.78 26.34 27.03 26.44 29.43 29.57 29.64 29.58 28.49 28.71 29.41 30.42 30.32 27.81 26.27 27.86 28.68
38.42 37.72 36.26 34.59 34.57 33.35 31.51 30.77 29.69 29.43 28.74 28.51 27.88 27.58 27.61 28.52 30.22 29.58 29.63 28.52 28.43 28.17 28.40 28.89 28.92 28.22 30.57 30.51 29.46 29.74 29.97 29.85 29.80 27.93 28.16 28.13 28.02 28.55 27.16 27.37 25.91 26.93 24.62
36.05 34.71 33.33 33.00 31.09 30.51 29.77 29.30 28.84 28.26 27.58 27.49 27.36 26.63 26.42 28.73 33.73 33.93 30.80 28.53 28.51 28.28 27.92 27.98 28.18 26.84 28.96 31.30 31.30 32.50 32.05 29.10 28.36 28.81 28.38 27.79 28.06 28.58 27.13 26.09 24.40 24.78 21.23
32.49 31.76 30.92 30.38 29.73 29.21 28.69 28.16 27.54 26.77 26.75 26.31 26.10 26.00 25.59 26.98 32.81 33.26 32.80 29.11 28.51 28.13 28.10 28.54 28.78 28.94 27.50 27.89 30.76 32.42 32.01 32.74 33.01 31.13 28.93 28.68 28.67 27.69 26.61 25.20 20.35 20.58 19.96
30.41 30.00 28.89 29.15 28.45 27.47 26.85 26.41 26.07 25.90 25.47 25.03 25.15 25.15 24.72 27.57 32.07 32.31 31.98 28.63 28.10 28.01 27.81 27.57 27.39 27.40 27.54 28.03 29.45 28.26 28.23 30.27 31.12 31.20 30.54 29.17 29.02 28.78 27.63 26.38 24.23 22.55 19.54
30.13 29.55 28.77 28.87 27.85 26.42 25.84 25.10 25.22 25.28 23.81 23.24 24.55 21.58 22.01 23.25 30.44 31.27 29.49 27.20 27.65 26.75 27.68 27.60 26.84 26.50 28.81 30.78 26.61 21.15 25.00 29.89 31.57 33.48 32.85 31.49 29.93 27.95 27.74 16.34 12.42 11.70 10.41
30.44 29.75 28.93 28.28 27.69 26.28 25.45 25.07 24.41 23.95 23.98 23.59 23.12 20.39 20.40 20.73 28.78 29.67 28.95 26.95 22.94 24.76 25.32 26.22 27.16 27.25 29.50 30.76 25.87 20.90 23.08 28.45 27.99 29.42 27.36 26.70 21.69 20.62 23.94 17.55 20.21 19.58 14.66
29.88 27.94 26.65 25.96 25.76 25.59 24.55 23.19 22.80 21.97 20.21 18.39 19.78 20.04 20.79 21.35 23.27 27.93 28.66 26.72 24.60 22.37 21.73 22.80 24.77 27.64 29.79 31.06 31.15 22.54 24.65 30.51 30.91 28.50 26.17 24.68 14.95 15.38 17.77 16.38 16.40 17.07 13.63
27.81 26.51 25.38 24.62 24.77 24.11 22.30 20.21 20.08 19.47 19.03 18.55 19.46 19.59 20.75 21.15 23.92 25.47 26.48 26.98 27.48 19.91 21.00 23.10 22.18 28.12 30.00 30.38 29.26 30.57 31.48 31.54 28.99 27.75 25.01 24.18 14.91 17.28 19.51 17.67 18.39 18.41 18.63
26.94 25.02 23.04 22.84 22.78 21.90 20.00 18.57 18.52 19.79 20.30 19.40 20.50 19.59 19.93 20.86 20.54 23.00 24.69 25.97 26.39 23.71 23.97 24.99 28.28 28.39 28.73 27.28 28.64 30.00 27.30 28.97 29.15 27.27 25.71 24.49 21.57 22.45 21.83 18.82 17.30 17.61 17.23
25.21 22.56 21.90 21.01 19.03 19.34 20.87 20.82 20.29 19.89 19.96 20.07 20.09 19.98 18.62 18.40 18.24 19.44 21.22 21.90 23.38 24.24 25.01 21.58 23.98 26.28 27.55 27.14 22.85 24.81 23.74 21.46 25.10 26.13 24.85 22.02 22.50 21.56 20.82 19.49 13.83 14.81 8.88
23.26 21.24 20.77 19.99 19.72 19.41 20.28 20.52 20.42 20.24 21.52 20.15 19.81 18.95 17.01 16.23 17.95 23.58 23.33 21.44 20.32 21.89 17.53 12.86 14.11 17.47 19.10 19.25 18.93 21.35 19.02 17.89 18.68 18.76 22.92 20.24 20.47 21.17 20.85 19.81 16.17 12.04 6.02
21.44 20.87 19.97 19.22 18.97 18.97 17.98 16.91 22.34 22.58 23.75 24.13 23.83 20.34 19.22 21.22 23.38 23.90 24.75 25.93 26.13 24.65 11.11 9.90 10.36 13.52 13.54 14.29 15.75 19.56 21.69 21.63 16.63 21.72 21.06 20.51 19.08 20.81 20.91 17.98 16.00 10.91 8.22
22.57 19.96 19.31 19.18 18.53 17.48 17.21 16.92 14.70 16.23 19.36 21.21 20.51 20.16 21.10 20.90 21.63 22.87 24.19 24.03 21.07 17.90 6.46 3.99 4.31 6.28 9.09 12.04 12.42 16.51 17.61 20.34 22.96 21.43 22.18 21.03 20.58 21.53 19.05 16.72 14.92 11.83 9.72
21.55 20.75 20.08 19.27 18.45 17.49 17.09 17.48 18.01 15.74 12.95 11.77 15.16 16.43 18.07 18.53 20.44 21.74 20.74 14.91 7.22 6.31 -0.26 -0.50 -1.56 0.75 5.72 7.06 9.71 11.21 14.59 16.94 18.67 19.55 20.12 20.55 20.88 20.59 15.52 14.22 14.48 9.77 9.12
19.98 19.56 19.09 18.11 17.53 16.80 15.16 13.52 12.93 12.16 11.71 10.70 8.24 11.33 12.01 15.81 18.08 16.37 15.54 3.09 0.20 -2.17 -2.70 -3.62 -5.74 -3.01 2.28 4.32 5.17 7.55 9.67 11.90 14.02 15.44 17.60 17.99 19.27 18.66 16.09 17.34 15.54 12.95 9.88
19.20 18.02 16.98 15.81 13.64 12.57 12.18 10.71 9.76 9.55 8.95 8.33 7.41 7.89 6.95 5.41 3.32 1.41 0.08 -3.81 -6.71 -6.87 -7.11 -7.50 -4.60 -3.57 -0.04 1.57 2.61 5.73 6.04 7.83 10.11 12.36 14.25 16.58 18.24 16.22 16.48 15.95 14.17 10.25 7.52
15.92 14.27 14.67 13.06 11.68 11.23 10.01 9.56 9.14 8.33 7.69 6.89 7.01 7.41 10.98 4.22 2.95 1.10 -1.54 -4.30 -5.36 -6.09 -5.91 -5.42 -3.68 -3.02 -1.75 -1.69 1.38 1.31 1.10 4.08 7.21 11.20 12.97 13.84 14.38 12.35 15.17 15.67 12.92 8.80 7.30
11.08 10.87 10.57 9.94 8.71 7.85 7.45 7.84 7.48 7.06 6.56 5.92 4.68 4.30 13.95 3.68 0.71 -1.83 -4.22 -5.59 -5.23 -6.84 -4.19 -4.44 -3.28 -3.47 -2.35 -3.20 -1.47 0.28 -0.70 -0.10 2.72 6.97 8.23 10.94 11.13 11.90 12.56 11.40 10.47 7.48 5.40
8.44 7.38 7.36 6.12 6.00 5.96 5.39 5.80 5.55 5.35 4.61 3.69 3.44 2.91 1.02 -2.04 -4.95 -6.65 -6.75 -6.50 -5.37 -5.36 -5.83 -8.61 -7.59 -6.82 -7.24 -7.55 -5.43 -0.27 -0.45 -0.56 1.49 4.17 5.27 8.06 9.70 10.56 10.05 9.68 7.52 4.25 4.54
7.78 7.36 6.09 3.87 3.92 3.96 4.64 4.26 3.98 3.72 2.88 1.73 -0.96 -2.98 -2.07 -4.44 -5.60 -4.16 -3.94 -4.40 -6.37 -7.93 -8.89 -9.95 -10.74 -9.28 -7.03 -7.46 -10.42 -9.12 -4.81 -0.97 2.68 3.56 4.06 6.11 8.07 9.10 8.86 7.69 6.18 3.01 3.69
7.05 6.58 6.09 5.42 4.93 4.59 4.14 3.74 2.49 1.55 -0.43 -1.13 -2.48 -3.67 -4.70 -3.42 -4.20 -4.96 -5.26 -8.92 -8.78 -9.34 -9.08 -9.36 -8.60 -9.02 -7.85 -6.75 -6.26 -6.57 -5.92 0.46 -0.27 1.70 2.76 4.42 5.45 5.92 5.74 5.31 5.46 5.33 4.43
1.62 4.12 5.51 4.91 4.18 3.56 2.58 2.38 1.52 0.10 -0.58 -1.33 -2.98 -3.70 -4.22 -3.58 -3.32 -5.54 -7.80 -10.71 -10.68 -9.78 -9.33 -9.06 -8.61 -8.04 -6.92 -5.73 -5.43 -1.66 1.12 6.87 6.83 7.00 4.83 2.77 4.31 5.86 6.03 4.99 4.48 3.31 3.35

GFSGL_sfc_wetblb_099.txt.gz
Wetbulb
53.36 57.54 55.81 54.14 53.75 52.16 50.98 48.05 45.38 42.53 40.39 38.57 37.78 37.50 36.83 35.89 34.93 34.48 34.19 33.62 32.90 33.09 33.04 32.82 32.16 32.16 31.93 31.86 32.67 32.82 32.20 31.84 29.06 30.87 32.59 33.85 33.88 33.94 34.74 35.46 35.49 33.96 34.20
50.86 51.78 50.76 50.24 48.77 47.78 45.76 44.05 42.25 40.04 38.31 36.54 35.71 35.52 34.57 34.24 33.45 33.15 32.56 32.21 32.21 31.95 31.80 31.66 30.89 30.97 30.38 31.08 31.64 31.22 31.26 31.62 30.03 28.17 30.97 32.24 32.22 33.68 33.96 33.49 32.53 32.49 33.19
46.21 47.25 46.55 46.01 46.06 44.36 41.90 40.09 39.37 37.23 35.85 34.25 34.14 33.32 32.87 32.57 32.17 32.44 32.41 32.12 31.94 31.82 31.55 30.95 30.43 30.40 29.82 30.19 30.51 30.56 31.03 31.12 31.46 30.13 29.75 32.07 32.74 33.73 32.87 31.99 31.38 31.72 32.52
44.15 43.84 43.50 43.28 42.89 41.14 39.10 37.42 36.25 35.91 33.93 33.18 32.36 31.75 31.82 31.58 31.93 31.74 31.67 31.45 31.28 31.43 31.84 31.29 30.70 30.20 29.80 29.72 30.03 30.11 30.84 31.00 30.99 30.40 29.70 30.49 31.57 32.51 32.12 28.46 27.75 30.72 29.82
42.10 42.06 40.71 38.94 37.80 37.00 35.53 35.20 33.42 33.35 32.05 31.26 30.53 30.39 30.49 31.12 31.24 31.64 31.29 30.87 30.58 30.16 30.80 30.84 30.85 30.30 30.69 31.40 30.88 30.46 30.81 30.70 30.28 28.94 28.87 29.59 29.71 29.31 27.31 27.93 26.55 28.07 29.36
40.39 39.40 36.88 35.89 34.58 34.15 32.84 31.96 31.42 30.39 29.88 29.68 29.17 29.08 29.26 31.23 34.89 33.54 31.60 30.52 30.03 29.73 29.64 30.14 30.42 29.28 30.29 31.17 31.35 32.17 32.65 30.80 29.52 29.47 29.24 28.15 28.60 29.47 28.76 27.19 26.21 24.92 24.39
36.84 34.33 34.41 33.92 33.06 32.22 31.24 30.14 29.08 28.71 28.68 28.02 27.92 28.09 28.43 31.06 34.64 34.47 32.49 30.44 29.91 29.56 29.33 29.45 29.50 29.82 29.20 29.40 30.57 32.06 31.86 32.37 33.04 32.04 29.94 29.36 28.69 29.10 28.06 26.57 26.31 25.44 25.96
35.07 33.82 32.77 32.89 31.66 29.82 29.30 28.77 27.39 27.79 27.53 27.16 26.85 27.20 27.58 30.23 34.07 33.71 31.53 29.83 29.33 28.83 28.91 28.88 28.66 28.37 28.67 29.57 29.89 29.41 29.33 29.92 30.89 31.81 32.08 31.96 31.12 30.75 28.84 27.70 25.85 25.10 26.55
33.56 33.09 32.13 31.76 30.47 28.96 28.25 26.99 26.80 26.90 26.08 25.81 26.27 25.97 27.39 29.03 32.96 33.02 30.15 28.82 27.85 27.48 28.20 28.21 27.74 27.56 28.29 30.05 29.25 26.07 25.83 28.75 32.46 33.88 34.37 33.66 31.10 29.20 28.45 24.94 23.50 22.46 25.01
31.80 31.49 31.30 31.24 31.03 28.96 27.66 26.65 26.06 26.80 25.78 25.47 24.62 24.06 23.63 27.08 31.67 31.78 29.38 27.94 26.58 26.55 26.40 26.46 26.84 28.02 28.54 30.05 29.88 25.57 22.56 26.28 29.90 31.22 31.35 30.69 27.02 24.53 24.55 22.47 22.92 23.17 23.52
31.28 29.62 28.69 28.92 28.88 28.14 26.82 25.27 25.58 25.03 24.01 22.94 22.25 21.60 22.62 24.48 28.37 30.46 30.07 27.43 26.54 25.83 24.90 24.95 25.82 27.05 28.73 30.66 31.20 26.97 25.77 29.38 30.88 31.34 30.12 29.12 26.98 24.28 22.95 21.88 21.80 22.36 21.47
29.42 28.58 27.82 27.75 27.30 26.76 25.63 24.49 23.75 22.85 21.64 21.17 21.13 21.29 22.19 22.91 25.68 28.28 28.11 27.92 28.12 25.33 24.59 25.10 25.41 27.50 29.78 30.16 30.16 29.88 30.78 30.52 29.83 29.63 28.84 27.51 27.34 25.90 23.88 21.97 21.36 21.46 21.80
29.14 28.13 27.13 26.25 25.91 25.38 24.19 22.61 21.85 22.31 21.84 20.87 21.11 20.80 20.50 21.55 22.47 25.41 25.91 26.67 26.80 26.00 26.01 25.99 28.54 28.42 28.39 28.07 28.04 28.51 26.08 26.67 26.90 27.27 27.29 27.41 28.01 26.89 24.93 22.34 21.24 20.34 18.81
28.60 26.47 24.89 24.44 23.04 23.05 23.33 22.96 22.25 21.98 21.69 21.53 21.96 21.56 21.22 20.55 20.72 21.79 23.49 24.62 24.71 25.43 25.65 24.66 24.74 25.77 26.62 26.87 22.61 22.97 23.97 24.07 24.22 25.09 26.14 27.32 26.76 24.46 23.75 23.08 20.94 20.00 18.72
26.63 24.65 24.56 23.37 23.11 21.60 21.84 22.18 22.26 22.41 24.66 23.01 23.16 23.01 20.98 20.24 20.88 23.31 24.65 23.73 23.65 24.40 23.40 20.05 19.74 19.61 19.42 18.54 18.70 19.68 22.27 23.08 23.01 23.05 23.28 24.77 24.85 23.86 23.33 23.10 21.50 19.62 18.59
24.53 23.77 23.26 22.38 21.60 21.02 20.68 20.59 24.42 24.32 25.87 25.52 25.58 23.05 21.63 23.32 24.90 25.34 25.19 25.85 26.69 24.75 18.25 16.58 15.50 14.27 13.41 14.34 14.70 14.97 18.12 19.82 21.36 22.46 22.87 22.42 23.09 23.42 23.67 22.84 21.21 18.79 18.10
25.16 23.68 22.07 21.43 20.85 19.69 19.51 20.07 18.13 22.07 24.85 26.07 26.02 25.11 24.01 23.02 23.99 23.79 24.63 25.44 21.67 19.39 15.13 12.26 10.63 10.05 9.75 10.66 10.82 12.23 13.33 15.50 17.74 19.59 20.39 21.19 22.35 22.86 22.89 22.62 20.77 18.61 16.20
23.77 22.18 21.98 21.63 21.15 20.53 20.03 19.86 19.09 16.99 16.25 15.93 21.02 20.54 22.63 21.78 21.92 22.95 23.23 18.72 13.84 11.09 9.12 8.45 7.36 6.41 6.31 6.61 7.73 8.44 9.14 10.99 12.58 14.71 15.80 16.90 19.52 21.38 21.84 20.82 20.49 18.22 17.06
21.29 21.18 21.78 21.51 21.26 20.93 20.59 20.46 20.83 19.75 18.71 15.20 11.58 14.98 18.75 18.95 20.75 19.68 17.50 11.15 9.79 7.80 6.30 5.37 3.87 3.28 3.50 4.12 4.63 5.21 5.92 7.47 8.61 9.76 11.81 13.73 16.19 18.86 20.19 20.66 20.22 18.20 16.24
21.34 21.19 20.88 20.26 19.08 18.35 17.99 17.89 16.30 16.10 15.37 14.14 12.34 12.63 10.60 11.03 10.67 9.34 8.26 5.68 4.44 4.20 3.51 2.51 1.77 0.27 0.65 1.35 2.10 2.30 4.02 4.60 5.53 7.03 9.64 12.25 14.18 16.51 17.65 18.46 19.06 17.15 15.32
16.39 16.18 17.25 17.36 17.47 17.02 16.18 15.94 14.94 14.24 13.39 11.81 11.91 11.34 13.21 10.83 10.19 7.55 5.37 3.70 2.95 1.74 1.11 0.42 -0.28 -0.54 -0.93 -0.62 -0.55 0.75 1.10 2.29 2.79 3.59 6.66 8.76 10.07 11.95 14.72 16.59 18.17 17.32 15.35
13.74 13.67 13.57 12.00 12.33 12.62 12.41 12.60 12.21 12.25 11.61 10.57 9.24 9.05 17.53 9.82 7.72 5.62 4.16 2.88 1.89 0.38 -0.62 -0.88 -1.44 -1.46 -1.49 -1.51 -1.29 -0.73 -0.57 -0.07 0.51 1.33 3.30 3.82 6.74 10.43 12.05 13.51 14.31 14.84 12.95
11.29 11.73 11.59 10.08 11.22 10.85 10.17 10.31 10.30 9.98 9.19 8.97 8.53 7.41 6.72 6.79 4.93 3.54 3.09 2.10 0.35 -0.31 -1.77 -2.96 -3.02 -4.44 -3.64 -4.77 -3.41 -1.02 -0.39 0.18 0.60 2.08 2.39 2.94 4.60 8.11 10.59 10.98 11.95 11.31 10.81
7.82 8.70 8.01 8.85 9.45 8.99 8.86 7.49 6.44 5.91 6.27 6.75 6.45 5.79 5.07 3.58 1.85 1.66 1.08 -0.64 -1.58 -2.39 -5.59 -5.95 -6.25 -6.39 -5.52 -5.56 -4.27 -5.07 -4.55 -2.45 -0.32 0.94 1.02 2.37 4.01 6.24 8.02 9.03 9.77 9.74 9.89
0.35 5.42 6.13 5.73 6.78 6.79 7.10 6.56 6.05 5.90 5.58 5.38 4.15 3.19 2.80 1.79 0.67 -0.21 -1.28 -3.79 -4.72 -4.07 -2.30 -3.95 -5.32 -6.25 -6.11 -5.89 -5.26 -5.20 -4.89 -0.53 -1.56 -0.32 1.07 3.54 3.88 3.88 5.29 6.57 7.24 8.50 7.84
-3.07 -0.16 2.09 5.91 7.03 6.94 6.34 5.98 5.47 4.70 3.71 3.49 2.67 2.61 2.41 1.59 1.23 0.78 -0.42 -2.19 -2.92 -2.17 -2.96 -3.80 -6.45 -7.39 -6.78 -5.18 -4.93 -2.87 -0.92 4.34 4.77 4.37 6.02 5.60 4.88 4.09 5.55 5.98 6.07 6.30 6.43

GFSGL_sfc_wetblb_102.txt.gz
Wetbulb
60.56 61.51 61.58 61.03 60.79 60.93 59.86 58.50 56.32 49.59 48.24 44.78 42.89 41.26 40.40 40.20 40.88 40.44 39.55 38.95 38.32 37.41 37.80 37.77 36.58 36.55 36.68 36.54 36.90 36.77 36.16 35.95 33.65 35.94 36.33 36.88 35.87 35.93 36.51 36.72 35.76 35.33 34.92
58.02 59.37 59.00 58.67 57.08 55.73 54.80 52.72 49.58 47.63 45.26 42.45 40.62 39.56 38.56 39.27 39.33 38.74 36.89 37.21 37.07 36.46 36.21 36.02 34.98 34.52 35.18 35.74 35.97 35.01 35.28 35.35 33.82 31.87 34.59 34.38 34.69 35.80 35.84 34.37 33.73 34.55 34.04
51.86 56.67 54.82 53.49 53.16 53.15 50.71 48.25 46.73 44.05 43.17 39.38 38.70 37.72 38.21 38.93 37.91 37.81 36.85 36.45 36.62 36.39 35.79 35.10 34.55 34.76 34.32 34.77 34.88 34.54 34.53 34.15 34.90 32.94 32.56 34.58 34.91 35.31 34.04 33.97 33.14 33.91 33.89
50.59 51.78 52.60 51.88 51.89 49.80 48.01 45.94 42.95 41.04 40.15 37.07 38.47 36.52 37.65 37.46 36.70 36.01 35.75 35.59 35.44 35.46 35.20 34.86 34.22 34.32 34.32 34.03 33.55 33.55 33.24 33.78 33.58 32.69 32.29 32.85 33.50 34.06 33.26 29.93 29.49 32.51 32.12
49.25 48.86 49.47 48.23 47.20 45.54 42.92 42.44 39.79 38.19 38.19 35.68 35.58 35.20 36.75 35.92 35.27 35.11 34.80 34.63 34.40 34.10 33.98 33.34 33.91 32.88 32.09 33.43 33.44 32.99 32.83 33.01 32.37 31.64 31.40 31.66 31.41 30.50 29.06 29.33 28.23 28.99 32.24
47.91 47.86 46.97 42.89 39.24 39.08 37.86 36.39 35.02 34.59 33.42 33.82 33.66 33.00 34.69 33.41 35.12 35.49 34.49 33.80 33.16 32.65 32.11 32.71 32.68 30.79 31.60 32.23 32.11 32.08 32.86 31.58 31.80 30.72 30.83 29.73 29.65 29.89 29.78 28.19 27.57 26.63 26.08
44.72 40.36 38.22 37.98 37.31 36.32 34.20 33.00 33.65 32.90 32.45 32.54 32.07 33.02 33.13 33.97 35.10 34.64 33.88 32.96 32.68 32.59 31.87 31.59 30.95 30.90 30.81 31.88 31.94 32.34 32.23 32.14 32.51 32.08 30.37 31.20 30.26 31.74 29.81 27.68 27.66 27.13 25.81
41.07 38.75 36.52 36.14 34.56 33.00 32.43 33.09 30.60 30.54 30.58 30.16 31.30 32.21 32.83 33.55 35.58 34.61 32.59 32.52 32.23 31.67 31.33 31.25 30.91 30.41 30.73 30.86 31.09 30.95 30.90 31.61 32.32 32.85 32.99 32.83 32.74 33.05 31.12 28.86 27.71 26.50 27.65
38.10 37.45 36.27 35.78 33.21 31.25 31.04 29.64 29.40 29.91 28.94 30.05 30.11 30.57 31.56 32.98 35.14 34.12 32.16 31.22 29.97 29.30 29.91 30.05 29.88 29.42 29.76 30.46 30.57 29.55 30.02 31.01 32.51 32.47 33.56 34.62 34.51 31.73 30.35 28.98 26.37 24.63 26.70
36.74 35.97 35.30 34.59 33.48 32.21 31.03 29.82 29.41 29.77 29.36 28.89 29.14 30.69 31.54 32.55 34.24 33.77 31.55 30.99 29.41 28.22 28.40 27.95 27.29 28.78 29.07 30.04 30.93 30.23 28.23 29.32 31.00 31.99 32.01 33.14 33.49 30.01 28.62 28.15 27.60 24.42 24.79
35.32 33.75 33.35 33.42 33.25 32.63 30.53 28.83 29.35 28.50 28.16 28.21 27.51 27.90 29.72 31.86 32.62 33.16 31.54 29.84 29.53 28.45 28.09 27.08 27.62 27.98 28.88 29.96 31.38 31.73 30.10 31.37 30.75 31.52 32.20 32.79 32.20 29.46 28.11 27.30 26.93 26.22 26.25
33.26 32.51 32.19 32.74 31.65 30.59 30.08 28.75 28.60 28.17 27.01 26.46 25.88 25.36 26.67 27.76 30.27 31.97 31.34 29.69 29.83 28.56 27.50 27.51 27.77 27.85 29.20 30.68 30.79 30.94 30.76 30.87 31.97 30.46 28.79 29.48 29.95 29.73 29.66 28.72 26.72 25.71 26.24
32.15 31.64 31.47 31.45 30.85 30.70 29.18 27.95 27.41 27.69 26.51 25.06 24.60 24.21 23.36 24.66 27.74 30.01 29.72 29.64 29.53 27.45 27.67 27.25 27.90 29.33 28.95 28.91 28.74 28.56 27.11 27.67 28.02 26.87 28.17 28.36 29.26 29.51 29.40 27.48 25.74 24.42 23.14
31.94 30.90 30.12 29.30 28.86 29.07 29.04 28.06 27.58 26.84 26.06 24.76 24.62 24.24 23.37 23.07 23.88 26.47 26.29 27.93 27.87 27.11 27.14 27.63 26.60 26.64 26.57 27.41 24.45 24.45 24.95 26.08 25.76 25.76 26.60 27.65 28.59 27.98 27.19 27.77 25.86 24.67 22.56
31.60 29.48 29.30 29.50 28.50 27.50 27.85 27.79 27.13 28.31 28.18 26.03 26.53 26.33 23.98 22.79 23.74 25.28 26.10 25.76 26.34 26.74 26.29 24.59 23.51 22.94 22.67 22.37 21.79 21.48 22.11 23.35 24.06 24.71 24.17 24.21 25.45 26.74 26.44 27.60 25.86 25.53 22.47
29.13 27.99 28.40 27.23 27.29 26.26 25.03 24.03 26.21 26.81 28.00 28.71 29.22 28.09 25.89 27.45 27.46 27.22 28.04 28.32 28.15 27.80 24.00 22.67 21.47 20.50 18.96 18.73 18.42 18.04 18.76 20.06 21.38 21.99 22.20 22.60 22.87 23.42 24.66 26.58 26.27 24.52 23.33
29.41 28.36 26.73 26.02 25.15 24.21 24.07 23.83 22.91 25.86 27.62 27.84 28.17 27.32 26.60 27.01 28.10 28.74 28.53 27.81 27.29 25.34 21.71 20.52 19.54 17.94 16.71 15.66 15.33 15.12 15.55 16.75 16.44 17.78 19.77 20.42 20.81 21.04 22.14 23.92 25.54 24.49 23.19
28.17 26.69 26.33 26.01 25.46 24.78 24.67 24.54 23.87 22.18 22.10 22.75 27.24 26.67 26.84 27.47 27.96 27.44 27.23 25.82 20.37 18.49 18.21 17.85 16.15 14.74 13.48 12.74 12.65 12.72 12.83 13.25 14.10 14.84 15.60 16.60 16.99 17.96 19.31 21.25 23.65 24.07 23.56
25.98 25.06 25.58 25.44 25.13 24.77 24.33 23.26 22.75 22.06 22.28 21.02 18.18 22.50 24.84 25.70 25.71 26.20 26.39 19.99 19.28 17.40 14.62 13.05 12.38 11.35 10.58 10.39 10.24 9.99 10.00 10.46 11.28 10.72 12.64 13.66 15.20 16.05 16.79 18.77 20.87 21.70 22.09
24.59 23.87 24.34 24.42 23.48 23.04 23.01 23.06 22.69 22.85 22.84 20.36 17.49 17.99 18.30 19.69 20.51 18.74 17.41 14.90 13.80 14.03 12.54 11.16 10.12 8.91 8.41 8.36 8.63 8.54 8.65 9.42 10.08 10.26 10.93 11.59 13.32 14.26 14.44 16.02 17.75 18.87 20.59
22.56 22.28 21.69 22.99 22.82 22.84 22.85 22.76 22.87 23.30 22.65 21.19 20.25 18.34 17.48 15.90 16.72 16.46 14.48 11.88 11.48 11.36 10.43 9.72 8.97 7.95 7.65 7.25 6.88 7.20 6.92 8.37 8.37 7.76 8.54 9.59 10.06 9.40 12.04 14.00 15.54 17.64 19.02
19.58 19.20 19.61 19.60 19.38 19.49 19.96 20.22 19.39 19.47 18.20 17.47 15.96 15.08 20.71 16.36 15.09 14.24 12.70 11.44 10.34 9.88 9.30 8.62 7.96 7.46 7.12 6.53 6.88 7.09 6.53 6.51 7.34 7.22 7.22 6.75 7.34 8.95 10.55 12.34 13.83 15.44 16.37
17.41 17.11 17.17 17.02 17.91 16.11 17.56 17.84 17.56 16.92 16.49 15.79 15.35 13.69 13.53 16.91 14.03 12.28 11.05 10.49 8.91 7.61 6.89 5.89 5.80 5.08 5.56 4.12 5.23 5.56 5.58 6.33 7.00 6.64 5.15 5.67 6.52 7.62 9.30 10.47 11.88 12.58 13.55
14.84 15.73 15.74 15.54 15.38 15.48 15.67 15.12 13.94 12.15 13.12 13.22 12.69 12.11 11.51 11.24 10.73 9.79 9.06 8.55 6.96 6.32 5.26 3.83 3.43 3.40 3.62 3.22 4.35 4.65 3.88 3.39 4.61 4.49 4.09 4.30 4.98 6.70 8.24 8.97 9.65 10.91 11.26
11.93 12.27 12.53 12.74 12.80 13.20 12.84 12.82 12.28 11.93 11.76 11.61 11.47 10.70 10.19 9.38 8.22 7.57 7.10 6.53 5.18 4.35 3.93 3.28 2.89 2.78 2.26 1.77 1.88 2.17 2.38 2.80 2.17 3.15 4.44 4.51 4.56 5.66 6.33 7.30 8.10 8.75 9.33
8.31 9.06 10.02 10.79 11.28 11.59 11.54 11.48 11.04 10.90 10.30 10.43 10.06 9.54 8.65 7.71 7.28 6.82 6.04 4.87 3.96 3.65 3.58 3.71 3.06 2.05 1.63 1.61 1.54 1.97 1.35 2.84 3.13 2.57 4.51 6.88 7.17 7.90 8.18 7.92 7.52 7.62 8.22

GFSGL_sfc_wetblb_105.txt.gz
Wetbulb
60.41 62.08 62.75 63.04 63.49 63.92 63.67 63.55 62.90 60.78 56.16 53.74 51.64 49.30 46.86 43.65 43.02 43.63 41.78 41.31 40.32 39.27 39.83 39.19 38.24 38.16 37.36 37.32 37.99 37.73 36.85 36.31 34.41 35.66 36.54 36.80 35.77 35.49 36.15 36.01 35.46 34.95 34.41
58.90 60.86 61.55 62.54 62.60 62.02 61.74 61.65 60.12 57.00 54.18 53.19 49.42 46.29 43.28 41.78 41.13 41.03 39.88 39.55 38.59 37.09 37.76 37.25 35.75 36.48 35.73 36.33 36.66 36.27 36.12 35.80 34.16 32.27 34.27 34.24 34.33 35.39 34.96 33.62 33.63 34.53 33.92
55.55 58.94 60.03 60.62 60.20 60.11 59.95 57.64 53.11 51.67 49.63 47.25 45.05 43.87 41.34 40.23 39.53 40.09 38.95 38.54 38.08 37.57 36.64 35.90 35.07 34.82 34.44 34.91 35.36 35.14 35.09 34.22 34.92 33.17 32.30 34.19 34.10 33.91 32.52 32.45 31.76 32.41 33.82
51.92 54.90 57.79 56.87 57.04 57.29 55.45 52.28 49.77 47.50 45.64 43.56 43.97 42.26 39.96 39.59 38.39 37.87 37.53 36.95 36.79 36.66 36.41 36.00 34.99 34.64 34.60 34.26 34.10 34.11 34.06 33.78 33.15 32.08 31.93 31.99 32.04 32.12 31.80 29.75 28.65 30.27 30.16
50.91 51.26 53.65 54.61 53.53 50.58 47.11 46.12 43.99 43.38 43.65 42.01 40.99 38.65 37.35 37.99 36.64 36.23 36.03 35.47 35.08 34.46 34.56 33.83 34.40 33.69 34.36 35.30 33.95 33.62 33.44 32.82 32.27 31.49 31.10 31.03 30.62 29.65 28.40 29.19 28.00 28.94 29.20
49.80 49.90 50.49 49.28 46.25 44.03 42.63 40.25 38.70 38.47 37.47 38.02 35.91 35.70 34.33 35.51 37.25 37.30 35.85 34.50 33.46 32.83 32.31 32.39 32.70 30.90 31.94 32.97 33.02 33.28 34.48 32.19 29.62 29.83 30.63 29.45 29.12 28.68 30.21 28.56 27.62 26.45 24.83
47.40 44.11 42.88 40.63 39.41 38.95 37.98 37.19 35.76 34.99 35.24 33.26 34.96 33.50 32.69 32.46 36.95 36.81 35.50 33.29 32.73 32.98 32.23 31.88 30.98 30.56 31.46 31.55 32.65 32.79 32.76 33.33 32.97 31.11 29.60 29.52 29.09 28.52 26.64 27.32 27.11 27.03 26.02
43.36 40.85 39.28 39.04 37.71 35.25 34.57 34.76 34.55 33.21 33.10 32.56 31.76 32.12 32.25 32.35 36.47 35.86 34.09 32.88 32.62 32.47 32.04 31.94 31.03 30.48 30.49 30.71 30.97 30.88 31.32 31.25 31.27 31.17 30.82 31.27 31.36 32.06 31.37 29.81 27.88 27.03 26.46
41.15 40.28 38.36 37.40 35.33 34.03 33.84 32.34 31.66 31.16 30.38 31.60 31.57 32.70 32.51 33.18 36.12 34.74 32.96 31.78 30.83 30.44 30.88 31.15 30.83 30.06 31.07 31.62 30.81 30.12 30.20 30.61 32.67 32.99 33.07 33.65 34.63 35.16 32.77 29.95 26.41 25.22 23.47
40.38 39.28 37.96 36.54 34.73 33.55 32.97 31.87 30.87 31.77 30.76 29.63 30.39 32.01 32.49 33.29 35.79 34.49 32.37 31.23 29.89 29.01 28.96 29.12 29.13 30.01 30.87 30.86 29.99 29.87 28.04 29.47 30.28 30.35 30.02 31.73 32.54 32.60 32.60 30.04 28.39 24.07 24.46
37.75 36.17 34.96 34.99 34.08 34.55 32.55 30.65 30.70 30.54 29.13 30.13 29.61 31.43 32.20 32.80 33.53 34.44 33.14 30.81 29.82 28.40 27.82 27.42 27.93 29.73 30.49 30.84 31.33 30.34 29.89 31.23 30.29 29.29 29.96 30.81 31.38 30.99 28.38 28.29 28.59 26.66 24.58
34.61 33.87 33.42 33.64 33.39 32.69 31.87 30.59 30.36 29.74 29.51 28.48 28.21 28.10 29.63 31.56 32.60 34.17 32.95 31.47 31.96 29.49 28.74 28.64 28.67 29.58 29.94 30.68 30.58 31.65 31.84 31.12 30.15 29.50 29.12 28.47 28.76 29.96 30.15 29.09 28.05 27.13 26.70
32.37 31.50 32.54 32.75 32.49 32.26 31.14 29.83 28.79 29.32 28.16 26.96 26.19 26.14 26.02 27.83 30.78 33.24 32.41 31.22 31.32 29.77 29.50 29.01 29.31 29.48 30.31 30.45 30.47 30.54 28.62 26.88 26.41 26.37 26.65 27.23 29.33 29.34 28.87 27.72 27.76 25.48 24.89
32.11 32.07 31.87 31.63 31.81 32.10 31.10 30.06 29.75 28.47 27.78 26.53 26.08 25.75 25.14 25.56 27.60 29.71 29.81 30.19 30.00 28.72 28.58 28.37 28.80 28.84 27.98 27.72 26.70 27.32 25.50 25.46 25.25 25.12 25.82 27.17 27.78 27.47 27.18 27.52 26.43 25.16 22.74
32.16 30.87 31.32 31.51 30.85 30.28 30.04 29.58 29.11 29.86 30.02 27.87 27.75 27.24 24.24 23.64 25.74 28.73 28.26 27.79 28.16 27.85 27.50 27.11 25.28 24.37 23.87 24.36 24.48 23.51 22.91 22.87 22.55 23.86 24.53 23.96 24.04 24.63 25.18 26.71 26.54 25.52 23.74
31.04 29.77 30.19 29.64 29.12 28.29 27.71 25.94 28.00 28.99 30.31 31.18 30.86 29.30 27.90 28.40 28.44 29.04 29.29 29.02 29.05 29.24 25.58 24.41 24.09 23.66 22.69 22.61 21.63 21.06 20.56 19.64 21.08 21.27 20.73 21.01 21.03 22.45 22.69 24.52 25.81 25.40 22.63
30.47 29.88 28.95 27.67 27.59 26.74 26.31 25.39 23.92 26.53 28.65 28.97 30.24 29.90 28.89 28.69 29.40 29.26 29.43 29.56 30.08 29.71 24.50 23.94 23.19 22.53 21.33 19.98 18.86 18.02 17.23 18.52 16.35 15.82 17.39 18.19 18.63 20.62 19.69 20.36 21.94 23.22 23.99
28.94 27.35 28.61 28.13 27.54 27.08 26.49 26.40 26.38 24.74 23.74 25.09 28.49 28.00 28.74 29.63 29.89 29.76 30.60 30.73 26.71 28.11 23.08 22.38 21.16 19.95 18.26 16.95 16.25 15.27 15.17 14.71 14.13 14.71 14.37 14.11 14.15 15.85 16.69 17.45 19.19 20.43 21.98
26.91 26.97 27.31 27.53 27.38 26.54 26.49 25.91 25.40 24.60 24.25 23.60 23.14 24.80 27.06 29.46 30.42 30.76 30.85 25.74 21.95 19.71 18.89 18.13 17.92 16.69 15.16 14.35 13.58 12.74 11.60 11.26 11.45 10.37 10.04 10.67 12.34 14.74 14.35 15.56 16.57 17.44 17.54
25.88 23.56 24.65 26.20 25.53 25.13 24.56 23.83 23.47 23.60 23.52 21.81 20.78 22.06 22.46 24.74 23.96 24.00 25.25 23.02 19.68 19.48 18.18 16.49 15.01 13.69 12.61 11.44 11.08 10.48 9.68 9.67 9.77 10.03 9.72 9.88 8.69 12.38 12.15 11.92 13.10 14.23 15.51
23.51 23.14 19.66 24.33 24.11 24.20 24.13 24.01 24.27 24.22 23.92 23.48 22.58 21.79 20.92 20.38 20.60 21.32 20.41 16.85 16.58 16.60 15.30 14.25 13.12 11.52 10.62 10.28 9.86 9.41 8.58 9.10 9.40 6.95 5.42 5.31 6.07 4.92 4.71 9.73 11.40 12.06 13.51
20.78 20.85 21.19 20.99 21.21 21.63 22.49 22.86 22.74 23.05 23.18 21.35 18.25 18.42 22.60 18.36 18.35 18.48 17.95 16.60 15.30 14.16 13.82 12.84 11.65 11.23 10.26 9.50 8.81 8.59 8.58 7.66 7.50 7.29 6.49 4.29 4.65 5.83 4.24 6.51 7.05 10.03 11.69
18.94 19.23 19.42 18.72 19.04 16.52 18.78 19.38 19.54 19.37 19.10 18.24 17.57 15.96 16.12 19.81 17.09 16.15 15.83 14.90 13.09 11.26 10.22 9.37 9.19 9.14 8.89 7.80 8.58 8.64 7.82 7.73 8.06 7.44 5.58 4.91 5.08 5.60 5.53 3.72 4.40 4.75 5.66
15.30 16.04 16.45 16.87 16.34 16.94 17.56 17.46 16.47 13.50 15.65 16.13 15.96 15.51 14.89 14.96 15.68 14.61 13.86 12.98 11.28 10.00 9.39 7.49 7.32 7.51 7.20 7.19 6.96 6.71 6.38 6.53 6.90 6.20 5.05 3.98 3.73 4.56 4.78 5.83 3.99 2.54 6.23
11.83 12.04 12.88 12.86 12.52 13.01 13.23 13.56 13.24 13.47 13.63 13.79 13.91 13.64 13.61 13.13 12.59 12.24 11.88 10.80 9.11 8.20 7.32 6.21 5.94 5.62 5.31 4.82 4.85 5.35 6.01 7.14 6.10 5.53 4.79 3.90 3.28 3.10 3.61 3.91 4.18 3.81 3.49
8.34 8.53 9.11 9.72 10.20 10.71 11.28 11.63 12.03 12.01 10.81 10.74 10.51 10.33 10.19 9.95 9.72 8.84 8.26 7.43 6.55 6.05 6.03 6.10 5.80 5.20 5.00 4.76 4.38 4.79 4.47 5.22 3.65 3.42 1.93 2.55 2.76 3.92 5.07 5.19 4.70 5.31 2.89

GFSGL_sfc_wetblb_108.txt.gz
Wetbulb
59.04 60.65 61.39 61.96 62.59 62.82 62.65 62.42 62.59 61.24 59.50 57.80 55.45 52.09 50.56 48.75 47.58 45.03 42.73 41.99 40.78 39.39 37.94 36.04 35.01 35.27 34.49 34.56 34.53 34.32 33.50 33.05 31.29 32.00 32.87 33.02 32.52 32.11 32.61 32.36 32.35 31.45 31.14
55.44 57.11 57.94 59.72 60.04 61.03 61.70 62.00 60.31 60.51 57.11 55.43 52.10 50.10 48.42 47.50 45.52 43.31 41.39 40.72 39.03 36.62 36.53 34.91 34.05 35.49 33.30 33.79 33.54 33.33 33.20 33.01 32.23 30.35 31.52 31.37 31.63 31.75 31.41 29.55 31.70 33.02 30.66
49.15 52.78 55.07 56.20 57.46 59.01 59.50 58.38 56.01 53.43 53.11 51.52 50.56 48.40 46.36 45.35 43.45 42.53 40.89 39.31 37.67 36.78 35.80 34.53 33.72 32.95 31.48 31.90 32.60 32.69 32.89 33.38 32.18 31.11 30.76 31.17 30.63 29.73 28.48 28.44 28.44 28.42 31.65
47.40 48.92 51.23 52.78 54.71 56.28 57.12 54.76 52.27 50.30 49.28 47.77 48.70 47.64 46.26 44.26 42.10 40.83 38.95 37.52 36.50 36.06 34.71 33.95 32.95 32.47 31.91 31.84 32.14 31.89 32.12 30.47 31.07 30.57 29.86 29.01 28.21 28.48 26.50 25.89 24.48 25.19 25.09
46.56 46.69 47.94 51.14 53.30 53.17 51.36 49.66 47.36 46.19 47.15 46.43 45.22 43.91 42.97 41.28 40.88 38.91 37.67 36.19 35.27 34.38 33.48 32.29 32.50 32.60 34.17 34.01 32.27 31.22 31.20 30.10 30.06 30.01 29.76 26.39 25.49 26.15 26.54 26.58 27.76 28.25 25.17
46.03 45.47 46.57 47.35 46.26 45.71 43.76 41.98 41.10 40.41 39.96 40.07 38.77 38.50 37.91 39.27 38.98 38.35 36.73 34.90 33.99 33.15 32.13 30.79 30.99 31.11 34.70 36.19 36.16 35.44 33.83 31.56 29.71 29.48 29.50 27.40 27.17 26.59 25.88 24.87 26.99 25.58 23.49
42.62 40.29 39.85 38.97 38.61 39.27 39.51 38.84 38.25 37.98 36.86 36.33 36.11 34.98 34.79 34.84 38.45 37.89 36.21 33.53 32.81 32.20 31.63 30.59 29.77 29.76 30.36 31.10 33.72 34.09 33.75 34.32 33.55 31.06 28.92 27.49 25.40 26.92 25.06 21.27 26.79 26.09 25.44
38.86 37.98 37.10 36.82 35.73 34.52 34.65 36.13 35.27 34.59 34.74 33.60 33.96 33.86 33.20 32.57 37.97 37.46 35.56 32.77 32.28 31.80 31.17 30.55 30.00 29.26 29.99 30.06 30.22 29.99 30.26 30.85 31.42 31.22 29.32 28.02 30.50 31.16 29.07 29.22 27.37 26.44 26.68
36.90 36.59 35.44 34.75 31.89 34.06 33.30 33.23 33.11 32.62 31.45 32.20 31.93 32.07 32.00 33.60 37.30 36.73 34.02 31.87 31.01 31.04 30.42 30.37 29.89 29.18 31.74 32.94 29.86 28.79 29.31 30.05 32.79 33.43 33.19 33.49 33.56 34.13 33.05 28.13 25.51 23.84 23.21
35.82 35.85 34.84 32.98 32.63 33.95 33.19 31.72 30.39 31.12 31.19 30.54 31.24 32.41 32.45 33.42 36.58 35.95 33.53 31.87 30.32 29.39 28.63 29.26 30.18 29.99 32.51 33.02 29.20 28.82 27.49 28.39 29.54 27.74 28.31 30.59 31.86 30.56 34.42 29.97 26.17 24.09 23.62
33.73 32.56 30.40 29.83 31.36 33.07 31.82 30.01 30.98 30.62 29.64 30.29 30.60 31.65 32.86 33.60 35.15 35.72 34.06 30.80 29.85 28.06 27.64 27.14 28.73 32.07 32.44 32.66 31.80 29.47 28.99 30.55 30.52 28.37 27.44 27.95 27.21 29.75 26.90 28.73 27.61 27.29 24.59
27.83 27.37 26.45 26.92 29.11 32.17 32.28 30.83 30.38 30.15 29.89 29.19 29.61 29.64 30.67 32.48 33.73 35.15 34.22 32.31 31.98 27.55 26.64 27.26 27.57 31.53 31.98 32.08 31.26 31.74 32.26 31.80 28.71 27.27 27.02 27.15 26.39 27.97 29.66 28.45 28.29 28.26 28.28
25.16 23.09 23.42 25.54 31.90 32.13 31.68 30.52 29.33 30.32 29.41 28.10 27.88 27.97 27.73 29.62 32.68 34.77 33.78 32.52 32.59 29.43 29.02 29.02 29.96 31.25 31.53 31.32 31.72 31.99 30.28 27.25 24.81 24.01 25.14 25.73 26.29 28.17 28.44 27.88 27.80 27.50 26.63
23.43 23.36 23.79 24.28 24.17 28.58 30.40 30.24 30.05 29.21 28.54 27.45 27.21 27.18 26.74 27.84 30.05 31.56 31.10 30.52 30.71 29.33 30.26 29.58 29.82 29.77 30.14 29.08 27.53 29.28 27.24 25.09 24.40 23.99 23.94 24.08 25.66 25.09 25.05 26.16 25.78 25.15 23.30
22.98 22.96 23.20 23.42 23.41 23.60 27.28 28.95 28.28 28.88 30.21 28.82 28.67 28.41 25.87 25.60 27.93 30.76 30.44 28.97 28.93 27.76 26.64 26.16 25.35 24.99 24.21 24.63 25.04 24.70 23.53 22.63 21.88 21.70 20.61 21.62 22.77 22.90 23.48 23.51 25.65 25.35 23.22
22.24 22.12 21.91 21.47 21.39 22.13 21.54 20.45 29.33 29.81 31.79 32.19 31.71 29.44 27.71 28.77 30.44 31.83 31.84 31.17 30.74 30.26 24.37 23.10 23.38 23.68 23.31 23.44 22.99 21.88 21.38 20.23 19.09 20.66 19.02 18.68 18.55 19.06 19.63 20.30 23.11 22.88 22.78
21.30 20.49 19.92 21.35 19.78 18.18 17.84 18.71 19.35 24.04 29.96 30.49 31.15 30.91 30.38 29.59 30.70 31.50 31.70 31.47 31.19 30.38 24.63 24.45 24.35 24.01 23.43 22.57 21.46 19.99 18.51 18.41 16.52 15.14 14.51 14.60 15.81 14.83 16.28 14.14 15.44 18.06 20.57
18.45 19.38 18.70 17.74 17.15 16.78 16.95 17.19 17.85 17.86 17.94 22.69 29.08 29.37 29.84 29.95 30.84 31.01 31.32 30.70 27.42 29.09 26.65 24.04 23.23 23.18 21.66 20.11 18.52 17.49 16.64 15.68 12.96 12.21 11.97 10.47 8.78 9.23 7.95 9.07 11.51 14.28 17.14
16.11 15.03 14.82 15.12 15.29 16.55 16.15 15.99 15.71 15.93 17.03 19.09 23.07 25.57 27.44 29.97 30.54 30.82 31.00 27.80 26.29 26.13 22.83 21.69 21.34 20.16 18.75 17.58 16.58 15.43 14.52 13.25 11.62 9.21 6.55 6.23 6.81 7.02 7.31 9.86 12.20 13.95 14.39
13.32 16.68 15.10 13.23 12.85 13.10 13.67 13.25 13.43 14.44 14.50 13.77 15.25 16.84 19.97 24.36 26.47 27.58 28.00 25.67 22.57 21.72 19.99 18.64 17.42 16.77 15.60 14.61 13.55 12.74 11.49 10.44 9.79 8.42 8.00 8.81 7.64 5.48 8.57 5.87 4.44 7.92 9.51
10.09 10.19 13.60 11.48 12.14 10.20 10.31 11.74 20.73 13.89 14.88 13.59 13.31 16.10 23.14 18.93 19.09 19.08 19.94 18.29 17.97 17.77 17.63 16.49 14.79 13.12 11.74 11.61 11.26 10.68 10.15 10.29 10.50 10.28 9.68 8.40 8.02 7.55 7.32 7.33 6.29 6.50 8.50
7.84 6.40 7.71 8.13 9.25 10.65 8.33 8.56 8.73 10.45 11.64 10.05 8.04 11.01 24.72 12.22 14.98 15.71 17.13 17.27 16.18 16.09 15.21 14.11 13.07 12.18 11.46 10.74 10.22 9.72 9.35 8.86 9.16 9.60 8.83 8.18 7.48 6.60 6.11 6.69 6.98 7.88 8.37
7.56 8.48 8.80 7.29 6.33 7.22 7.14 4.98 6.21 5.65 5.70 5.32 5.47 6.77 7.04 11.33 9.26 11.21 13.07 12.93 12.85 12.56 12.01 11.55 11.23 10.67 10.86 10.60 10.67 10.19 9.22 9.07 9.40 9.46 8.33 7.27 6.35 6.14 6.18 5.94 6.26 5.95 6.27
4.17 4.45 3.48 2.62 1.93 3.05 4.02 4.62 4.94 6.72 7.69 9.77 9.62 10.13 9.83 10.18 10.48 9.41 9.04 8.81 7.57 6.94 7.71 8.41 8.92 8.82 8.59 7.85 7.54 7.72 8.09 8.11 7.88 7.93 7.61 5.90 4.98 5.27 5.38 4.87 4.96 5.81 6.07
-3.06 -1.51 -0.91 -0.37 -1.13 -2.67 -2.00 -1.27 -0.13 -0.44 0.74 2.99 3.40 5.77 7.32 7.06 8.09 6.98 5.94 5.36 4.17 3.65 2.72 3.69 4.54 5.10 5.98 5.81 5.45 6.08 6.71 8.62 7.24 6.09 5.21 4.74 3.56 3.60 3.97 4.30 5.08 5.09 4.95
-2.93 -3.22 -4.20 -5.75 -5.50 -5.92 -4.68 -3.09 -4.05 -1.93 -0.71 -0.08 -0.13 -0.77 -0.62 -0.79 -2.44 -2.56 -2.25 -1.38 -0.53 0.71 1.41 1.07 2.31 3.82 3.29 4.31 4.35 5.82 6.23 7.51 6.20 6.11 4.36 3.30 2.50 2.59 3.06 2.92 3.57 4.36 4.72

GFSGL_sfc_wetblb_111.txt.gz
Wetbulb
60.31 61.47 61.52 61.67 61.44 60.90 60.59 60.98 61.31 59.72 60.02 58.96 58.81 58.27 56.56 54.94 52.93 52.84 50.66 47.58 46.53 41.65 39.27 39.31 37.05 36.16 34.44 33.68 33.74 33.66 32.87 33.02 31.00 30.87 32.24 32.69 32.36 32.37 32.69 31.95 31.89 30.62 30.76
56.25 58.81 58.82 60.32 60.48 60.72 60.79 61.22 60.49 59.43 60.16 59.72 58.51 56.89 55.12 53.19 51.39 51.13 48.20 46.39 44.96 40.89 38.48 36.34 35.96 35.31 33.68 33.65 33.26 32.81 32.57 32.60 32.22 29.75 30.67 30.45 31.06 32.01 32.47 29.79 30.86 31.90 29.52
48.85 52.73 54.32 55.91 57.97 59.42 60.53 61.02 59.96 59.65 59.75 58.54 56.22 54.91 52.08 50.73 49.30 49.45 48.19 44.87 43.53 41.87 39.17 36.88 35.32 34.11 32.40 32.53 32.64 32.40 32.58 33.06 31.51 30.25 29.54 30.67 30.96 31.24 30.42 29.03 27.54 27.48 30.59
44.37 44.92 47.36 50.09 52.64 55.36 56.21 54.83 54.28 54.28 53.69 53.30 53.86 53.39 51.52 49.76 48.57 48.14 46.32 43.28 41.78 41.30 38.76 36.67 35.16 34.30 33.29 32.18 32.16 31.80 31.77 30.20 30.28 29.31 28.55 29.06 29.60 30.09 29.27 27.55 24.14 25.14 26.33
44.45 44.62 45.08 46.32 49.88 50.88 51.33 50.94 50.35 49.43 50.55 49.82 48.19 47.32 46.98 46.96 46.28 45.33 43.26 41.81 39.67 37.48 36.47 35.76 34.19 33.71 34.11 34.65 32.52 31.24 31.37 29.06 29.44 28.74 28.66 28.33 29.13 28.61 28.13 27.03 25.10 26.39 26.22
44.21 44.03 44.09 44.41 44.61 44.82 44.80 43.73 44.06 43.39 43.54 43.29 43.13 42.74 43.48 45.40 42.84 41.97 41.24 39.75 36.95 35.52 34.42 33.12 32.55 32.07 34.48 35.94 36.03 35.16 33.44 31.14 29.84 28.58 29.14 29.39 29.71 29.08 27.59 25.67 24.17 23.79 22.48
42.21 39.74 39.14 39.34 40.94 40.23 39.56 40.07 39.71 39.46 38.42 38.85 38.58 38.12 37.88 38.89 40.55 40.44 38.55 37.58 35.72 35.16 33.48 32.33 31.20 31.54 32.77 33.47 36.12 35.96 35.13 35.82 34.47 31.28 29.78 29.87 28.87 29.29 25.78 21.01 23.42 24.47 25.58
38.32 37.72 37.16 36.98 36.13 35.72 37.62 37.89 36.98 36.44 36.50 36.04 35.96 35.90 35.69 34.88 39.41 39.05 36.50 34.13 34.02 33.39 32.65 32.64 31.91 31.20 32.37 32.19 31.88 31.23 30.53 31.09 31.91 31.71 30.97 30.59 30.11 29.56 27.76 27.20 25.86 24.89 26.57
37.13 36.92 36.25 35.71 31.18 34.87 34.21 35.17 35.72 34.63 32.86 33.49 32.51 33.27 33.05 32.49 38.35 37.93 35.65 32.56 32.04 31.83 32.17 32.19 31.96 31.07 32.48 33.85 30.85 29.56 28.69 29.01 33.47 34.04 33.58 33.50 33.53 33.88 32.37 28.99 22.09 20.37 19.95
35.47 35.62 34.95 33.29 30.43 34.35 34.36 32.61 30.99 31.52 31.70 31.10 31.44 32.21 32.08 33.08 37.71 37.41 34.25 32.23 31.79 30.96 31.09 30.93 30.75 30.90 33.04 33.86 29.54 28.68 27.34 28.17 29.47 28.51 29.52 32.29 33.42 32.73 34.37 31.92 28.50 22.85 21.72
31.82 31.35 29.23 29.05 32.46 33.30 32.74 30.53 31.39 31.13 30.37 31.08 30.98 31.43 32.25 32.98 34.53 36.88 35.31 32.18 32.06 30.81 29.91 29.30 29.99 32.63 33.56 34.09 32.15 29.16 28.33 29.10 30.67 28.91 28.37 28.47 28.21 28.26 28.55 29.66 30.60 28.38 24.50
26.21 26.11 25.03 29.56 31.82 32.19 32.72 31.15 31.02 31.10 30.75 30.08 30.05 29.72 30.07 30.70 33.72 36.41 35.66 32.76 32.80 29.80 28.89 28.81 29.70 33.17 33.60 33.91 32.39 31.92 32.67 30.83 29.49 28.64 27.61 27.32 27.48 27.84 29.59 28.45 28.51 29.11 29.49
24.45 22.34 28.33 26.16 32.00 32.07 32.30 31.21 30.00 30.79 29.77 28.35 28.38 28.39 27.89 29.53 32.20 35.43 34.42 33.49 32.34 29.52 29.38 29.36 30.75 32.78 33.24 32.94 33.38 32.60 30.49 30.24 28.49 27.17 26.75 27.07 27.44 27.97 27.92 28.24 28.09 28.35 27.84
21.85 22.32 21.53 21.27 21.57 24.99 29.94 30.39 30.86 29.88 28.96 27.95 28.06 27.90 27.47 28.53 30.71 32.22 31.71 31.96 31.52 30.55 30.96 30.48 30.53 31.44 31.86 30.59 29.47 31.55 30.24 28.73 27.61 26.74 26.15 25.77 26.26 25.59 25.68 26.57 25.72 25.84 24.90
21.22 21.55 21.52 20.46 18.13 19.65 22.34 27.23 28.00 28.46 30.12 29.47 29.39 28.96 27.09 27.13 29.57 32.08 31.23 30.02 29.75 29.63 28.28 28.61 28.28 27.80 27.32 27.00 25.99 26.19 26.82 26.08 24.48 24.54 23.51 22.93 23.30 23.64 23.68 24.24 24.99 24.49 22.51
21.83 21.14 19.95 18.95 18.05 18.78 17.38 18.13 28.56 29.62 31.30 32.59 32.24 30.19 28.66 29.90 31.78 33.42 33.39 32.49 31.67 31.25 26.07 25.50 25.24 25.37 24.79 24.98 24.38 24.48 24.19 23.32 23.23 22.71 22.02 21.85 22.07 22.27 22.15 21.87 22.56 22.10 21.66
17.37 17.29 16.33 17.77 16.38 15.46 14.53 14.29 15.16 21.07 30.37 31.23 31.51 31.10 30.41 29.88 31.71 32.73 33.51 33.32 32.72 31.46 22.51 23.62 23.75 23.91 24.18 24.38 24.27 23.57 22.34 22.11 21.82 20.84 20.43 19.75 19.03 18.63 18.65 19.35 19.60 18.69 17.91
13.82 15.45 14.60 13.00 13.05 12.93 13.02 12.94 11.92 12.40 12.99 23.09 28.98 29.18 29.83 30.20 30.82 31.48 31.88 31.82 28.35 29.49 26.71 18.85 22.68 23.63 24.11 23.29 21.59 20.98 19.86 18.48 17.48 17.43 16.65 16.19 15.77 15.45 14.86 15.06 15.49 14.84 15.23
15.04 14.29 11.10 10.25 10.87 11.65 11.30 11.33 10.66 10.85 10.50 14.33 22.07 24.04 24.22 29.00 29.80 30.32 30.90 27.96 25.58 25.60 26.34 24.19 18.34 21.01 21.40 20.39 19.28 18.42 17.04 15.84 15.63 14.52 13.92 13.29 12.94 12.16 11.66 12.78 12.99 13.57 13.73
12.48 15.19 12.52 11.10 11.05 11.11 10.85 10.47 10.31 9.47 8.84 7.97 8.89 9.75 11.29 16.40 25.22 26.75 27.50 27.39 24.89 22.87 17.57 18.44 17.97 19.32 18.79 18.00 16.34 15.23 12.61 12.90 12.46 11.77 11.07 10.98 10.92 10.68 10.77 10.58 10.75 10.81 10.41
5.93 6.41 7.87 7.73 7.87 4.36 4.63 7.31 21.01 16.28 9.32 7.42 6.49 8.85 22.78 12.47 9.43 9.63 12.93 14.25 14.12 14.09 15.79 16.95 14.14 13.97 13.63 13.02 12.89 12.11 11.78 11.50 11.33 11.06 10.60 10.35 10.41 8.66 9.60 9.99 9.73 9.17 9.16
3.63 2.65 2.84 1.33 0.95 4.73 2.02 2.38 3.20 6.96 12.02 13.05 12.76 8.15 23.38 19.35 10.57 10.11 11.07 11.59 13.33 13.89 11.12 11.02 11.01 11.56 10.39 11.03 10.96 10.24 10.11 9.87 10.53 10.87 10.62 10.23 9.24 8.61 8.24 7.72 7.47 7.76 8.12
2.06 1.81 1.66 -0.81 -1.63 1.76 2.52 -0.28 -0.19 0.02 0.84 0.66 1.44 3.34 2.42 4.21 7.40 6.92 9.79 9.94 8.49 8.76 9.55 8.27 7.73 4.54 5.16 5.36 7.63 9.30 7.90 8.24 10.18 10.61 9.42 8.56 7.81 7.37 6.79 6.34 6.47 6.22 6.67
-2.50 -3.31 -3.70 -4.63 -3.91 -4.34 -5.11 -3.75 -3.08 -0.56 -0.56 0.24 2.13 4.00 5.15 5.05 5.50 6.16 5.18 4.28 2.90 1.55 0.69 0.77 1.95 2.32 2.26 1.82 3.58 4.56 4.48 5.49 5.04 4.85 6.20 5.69 5.67 6.25 5.91 5.69 5.78 5.67 5.84
-6.24 -5.90 -5.42 -5.89 -8.64 -7.95 -7.55 -7.28 -4.94 -6.77 -6.21 -4.45 -3.04 -3.66 -3.66 -3.47 -2.93 -4.60 -4.63 -2.48 -2.15 -3.04 -2.55 -2.50 -2.33 0.59 2.10 2.05 0.90 0.38 4.22 8.72 4.27 4.90 3.16 3.10 2.40 1.11 3.48 4.23 4.43 4.96 5.59
-7.97 -8.90 -10.05 -10.94 -10.62 -11.52 -10.62 -9.98 -9.84 -10.44 -9.67 -6.45 -5.83 -7.01 -7.15 -6.74 -6.85 -8.13 -7.84 -7.17 -4.00 -3.37 -2.15 -1.37 -1.14 0.17 0.27 2.06 2.80 4.91 6.00 7.95 6.49 7.22 4.04 2.63 0.10 0.13 2.32 2.54 2.75 3.11 3.60

GFSGL_sfc_wetblb_114.txt.gz
Wetbulb
59.90 60.49 59.60 59.03 58.56 58.40 58.02 58.34 58.84 59.72 59.98 59.59 59.41 59.18 58.98 59.11 59.09 57.89 57.54 56.53 53.20 53.40 46.83 47.49 46.53 38.42 37.42 34.14 35.82 34.78 32.82 32.04 29.62 29.10 31.12 31.45 31.29 31.73 32.47 31.75 33.91 32.38 33.28
56.62 58.21 58.87 60.31 60.06 59.07 58.32 58.47 59.01 59.48 60.02 59.85 59.21 58.62 58.35 58.74 58.14 56.03 55.81 53.86 51.72 50.62 47.42 43.50 41.51 38.20 35.77 36.25 35.34 34.59 33.88 32.92 32.19 28.99 29.37 29.50 30.05 31.71 31.46 30.74 31.61 32.32 31.42
51.24 53.51 54.56 55.43 58.12 59.23 59.73 59.49 59.37 59.16 59.48 58.45 58.88 58.18 57.92 57.98 56.35 54.95 55.33 53.16 51.14 50.85 48.53 42.93 40.58 38.71 36.19 35.54 34.93 33.89 33.67 33.38 32.42 29.24 28.02 29.11 29.73 30.47 29.59 30.16 30.13 30.40 31.14
42.61 43.23 45.74 48.46 51.30 53.24 54.66 56.13 57.27 58.33 58.81 58.50 58.52 58.37 57.03 55.51 53.70 53.12 52.50 51.07 48.86 48.34 46.53 44.57 43.41 39.90 39.85 36.66 33.81 33.55 32.87 31.78 30.55 29.12 27.68 27.45 28.82 29.02 28.88 28.61 27.51 28.48 28.41
42.95 42.65 42.84 43.38 45.67 47.70 48.67 50.03 50.93 51.52 53.02 53.02 52.45 51.42 51.57 50.52 50.37 50.01 50.15 49.01 47.24 45.38 42.45 41.62 40.93 38.47 38.21 36.37 34.63 33.12 32.40 30.85 29.58 29.21 29.17 28.45 26.75 27.98 28.47 27.86 27.97 27.87 26.98
42.70 42.58 42.76 42.41 42.96 44.69 44.51 43.25 43.24 43.24 43.73 43.37 42.33 42.48 43.53 45.98 44.29 43.37 44.39 44.43 41.84 39.84 37.62 36.88 34.84 33.34 36.26 37.68 35.99 35.51 34.45 31.87 30.66 29.36 29.05 28.70 28.34 27.37 27.64 27.57 27.17 25.05 23.04
40.84 39.13 38.71 38.65 40.16 39.63 39.27 39.81 39.45 39.79 39.55 39.22 39.71 39.50 39.69 39.74 40.67 41.50 39.84 38.59 37.31 37.11 35.52 33.76 32.86 33.28 34.16 34.93 35.99 36.10 35.17 35.61 34.35 31.80 30.02 28.96 27.91 28.56 28.85 25.78 26.24 25.19 24.90
37.98 37.49 37.07 37.36 36.48 36.70 38.34 37.93 36.41 36.15 36.78 37.18 37.43 37.25 37.09 36.75 39.27 40.61 37.96 36.50 35.45 34.82 34.25 33.54 32.73 32.15 33.17 33.18 33.45 32.76 32.39 32.79 32.82 32.12 31.14 29.72 30.06 31.38 30.42 28.83 27.45 25.77 26.10
36.35 36.25 35.83 35.37 31.08 34.38 35.23 36.09 37.01 34.88 33.69 34.08 32.80 33.74 33.39 33.66 37.28 39.19 36.86 33.24 32.72 32.17 32.32 32.83 32.88 32.68 34.27 35.18 32.39 31.68 31.39 30.68 34.37 34.70 33.82 34.14 34.35 33.87 31.37 28.56 25.01 22.94 21.93
33.60 34.36 34.27 32.70 30.67 34.72 34.26 33.09 31.46 31.86 31.71 31.36 32.10 32.28 32.31 33.07 36.14 38.42 35.56 32.38 31.82 30.66 30.92 31.02 31.74 32.24 35.01 35.33 32.29 31.67 29.41 30.05 29.42 27.62 29.05 32.26 32.92 32.04 33.89 30.84 28.48 23.56 21.47
30.78 30.07 29.53 29.86 33.16 33.27 32.80 31.25 31.65 31.59 31.20 31.79 31.30 31.56 31.95 32.12 33.77 37.99 35.98 32.27 31.82 30.58 30.06 29.72 31.25 34.25 34.87 35.21 33.11 30.69 30.63 29.69 30.60 28.25 28.21 27.91 28.22 29.10 30.76 32.07 31.35 29.06 25.41
26.65 28.43 30.59 32.41 32.20 32.41 32.88 31.67 31.76 31.86 31.56 30.72 30.79 30.17 30.22 30.60 33.48 36.99 36.10 33.46 33.88 31.22 30.28 30.31 31.15 34.05 34.24 34.86 33.22 32.51 32.60 30.99 29.19 28.00 27.86 27.29 27.35 27.75 28.55 29.17 29.69 30.67 30.62
24.52 28.58 28.23 29.77 31.93 32.10 32.39 31.41 30.65 31.22 30.50 29.48 28.99 29.05 28.39 29.70 31.53 36.23 35.88 33.95 33.99 30.49 30.40 30.75 32.57 34.06 34.09 34.25 34.53 33.04 30.84 29.13 28.55 28.21 27.62 27.57 28.17 28.84 28.84 28.59 28.14 28.41 28.91
21.89 22.14 21.61 21.88 20.88 28.33 30.08 29.89 31.14 29.80 29.11 28.52 28.59 28.55 27.98 28.82 30.13 31.28 32.02 32.35 31.67 30.91 30.93 31.05 31.98 32.92 33.28 32.35 31.41 32.53 30.66 30.16 29.02 28.18 27.78 27.88 27.33 26.95 27.10 27.53 26.78 27.11 25.97
20.70 20.60 20.46 19.85 17.49 18.66 21.23 23.72 27.56 28.65 30.28 30.06 30.03 29.67 28.11 27.71 29.86 32.55 31.72 31.00 30.50 30.07 29.43 29.40 28.75 28.90 28.92 28.75 28.35 29.00 30.05 29.19 27.94 28.37 25.51 25.07 25.01 25.59 25.43 25.51 25.74 24.16 23.47
20.11 19.98 18.84 18.78 17.42 17.70 16.70 18.34 28.16 30.79 31.90 32.39 32.58 28.57 22.85 30.05 31.52 33.62 33.97 32.88 32.09 31.83 23.74 23.11 25.27 26.06 25.57 26.03 25.75 24.28 26.11 24.99 26.20 25.14 24.19 24.08 23.36 23.03 22.86 23.13 23.97 22.97 22.02
16.81 17.33 17.21 17.68 16.97 14.50 13.25 13.35 14.79 20.76 29.13 31.77 31.84 31.49 31.40 31.17 31.56 32.47 33.64 34.48 34.05 32.76 23.72 23.54 21.60 19.14 19.65 18.59 19.29 20.13 22.42 23.92 24.25 23.39 22.84 21.56 21.92 20.92 20.94 20.95 21.50 21.01 19.68
12.28 12.68 11.51 9.94 10.14 10.46 10.48 10.10 8.65 10.03 10.58 20.75 25.72 28.69 29.33 29.61 29.80 30.25 30.95 31.88 28.76 30.66 26.83 22.78 15.44 14.83 15.89 16.95 18.11 20.91 23.04 21.45 20.65 20.45 19.74 19.02 18.51 18.14 17.06 17.15 17.72 17.65 17.31
11.28 10.55 7.28 7.76 7.80 8.84 9.01 9.93 8.22 8.05 7.00 18.23 21.96 20.10 20.13 28.31 30.06 29.91 29.95 26.66 25.64 25.15 25.82 25.70 23.31 17.73 14.85 17.11 17.14 19.08 20.56 19.78 18.69 17.41 16.69 15.80 14.91 14.01 13.05 14.59 15.21 15.21 14.81
7.24 11.63 8.00 5.82 8.68 8.72 9.51 8.95 10.20 8.27 6.64 5.19 6.09 6.98 9.11 13.53 22.01 25.45 26.56 26.30 25.55 25.11 24.93 24.31 20.98 18.37 17.25 18.30 17.22 16.31 15.74 13.95 14.58 14.54 13.82 13.46 13.28 13.05 12.11 11.93 12.48 12.27 12.25
4.33 5.34 5.80 6.37 5.13 2.28 2.10 6.09 8.42 4.82 5.00 4.10 4.81 7.14 25.76 21.27 17.10 7.82 11.35 13.28 13.28 12.73 13.96 14.51 13.98 12.75 12.76 11.65 11.82 11.99 12.31 12.81 13.47 12.92 12.38 12.00 11.64 10.39 11.22 12.06 11.62 10.92 10.56
0.48 0.48 0.70 -1.34 -0.07 3.74 0.29 0.47 -0.07 1.38 6.77 7.54 8.76 8.05 20.19 16.69 16.22 5.72 5.18 7.47 9.38 9.57 8.49 10.08 10.62 10.93 10.38 9.10 9.46 8.57 8.73 8.19 9.09 10.80 10.28 9.77 9.90 10.04 9.85 9.29 8.76 8.73 8.40
-0.47 -0.62 -0.78 -3.55 -4.60 -1.64 -0.70 -2.79 -2.97 -4.06 -2.79 -2.61 -1.16 2.28 0.65 -1.52 0.47 0.47 0.47 1.55 2.27 2.97 5.24 6.28 6.27 6.45 6.77 7.48 7.31 7.82 7.80 7.23 7.41 6.75 6.04 6.39 5.68 5.85 6.16 6.14 5.10 4.95 5.94
-2.65 -2.42 -1.00 -1.66 -1.32 -3.24 -4.63 -5.69 -4.97 -3.33 -4.79 -5.87 -8.05 -5.69 -4.24 -5.33 -5.33 -4.24 -2.61 -0.62 0.29 -1.88 -0.82 0.79 1.49 3.94 2.90 3.03 3.58 3.39 3.92 4.63 4.29 5.35 6.33 4.78 3.70 3.19 2.47 0.54 1.43 2.46 2.66
-4.15 -4.31 -3.43 -6.44 -7.87 -10.77 -8.95 -10.22 -9.14 -12.94 -11.31 -8.95 -8.05 -7.87 -8.05 -7.32 -6.78 -7.50 -8.23 -10.04 -8.59 -6.78 -4.06 -4.79 -4.42 -0.64 2.10 3.27 3.62 3.57 4.46 8.66 4.46 4.88 1.26 1.76 2.96 3.09 2.60 3.14 1.91 2.43 1.58
-5.90 -6.98 -7.34 -9.69 -10.22 -12.76 -13.67 -12.94 -11.67 -11.67 -11.67 -8.60 -9.50 -10.41 -10.59 -8.59 -6.24 -8.41 -8.77 -9.68 -6.24 -3.01 -2.51 -2.70 -1.81 -1.32 -0.94 0.45 2.67 5.08 5.28 7.66 5.89 6.67 1.92 1.05 -0.90 -0.89 -1.42 -0.42 0.60 1.82 0.82

GFSGL_sfc_wetblb_117.txt.gz
Wetbulb
55.56 56.59 57.38 57.92 58.42 58.87 58.61 58.44 58.26 58.09 58.12 57.91 58.16 58.31 58.24 58.14 58.40 58.17 57.95 58.18 57.07 56.61 56.57 55.20 54.54 53.15 49.13 43.75 40.96 39.99 37.11 36.00 38.64 31.11 32.26 32.09 31.92 31.83 32.54 31.43 32.12 32.78 33.51
56.96 56.75 55.94 56.08 55.94 55.99 56.53 56.99 56.88 56.75 57.31 58.12 57.97 57.78 58.24 58.73 58.90 58.44 57.75 57.29 56.83 55.19 54.92 51.15 51.85 48.88 46.66 43.82 42.11 41.48 40.04 36.67 34.19 30.55 30.32 29.58 30.19 32.31 31.42 29.89 31.37 32.53 32.08
52.60 54.32 55.28 56.10 56.65 57.53 56.97 56.60 56.10 56.26 57.75 58.17 58.40 58.04 58.04 58.14 58.20 58.34 58.24 57.23 55.77 55.15 54.68 51.71 51.24 46.50 45.30 43.93 41.91 41.01 38.83 36.08 33.85 32.34 30.17 30.88 30.52 29.76 29.73 29.96 29.27 30.73 31.88
42.17 45.00 48.68 50.11 51.93 53.21 54.61 56.43 57.17 57.88 57.67 57.20 57.67 58.60 58.14 58.23 57.76 57.65 56.41 55.65 54.97 53.51 52.69 52.13 50.47 46.21 45.73 43.30 40.31 38.83 35.56 34.12 33.28 31.59 30.24 29.87 29.93 29.76 30.13 29.03 27.89 28.93 29.13
42.04 41.81 42.03 41.94 43.06 44.50 45.47 46.32 47.43 49.49 52.26 53.10 53.83 52.66 51.91 51.75 51.91 51.99 51.14 50.22 48.97 48.05 44.81 43.78 43.43 40.84 38.51 40.36 38.00 35.24 35.17 32.93 32.06 31.35 30.22 29.44 28.66 28.46 28.94 28.84 28.80 28.17 28.14
42.45 42.26 42.21 41.53 41.11 43.56 43.58 42.69 42.74 42.74 43.77 43.45 42.57 43.10 44.37 46.24 43.84 44.21 44.37 44.66 43.20 41.63 40.48 38.43 37.51 35.22 37.54 37.83 37.90 37.17 36.44 33.55 31.85 31.24 30.07 30.03 30.46 29.82 29.22 27.99 27.13 25.53 24.11
40.42 38.47 38.01 38.19 39.48 39.48 39.48 39.66 39.11 39.26 39.59 39.25 39.39 39.71 39.56 39.99 40.57 41.81 40.50 40.61 39.25 38.97 36.90 34.84 33.48 33.43 34.18 34.75 36.78 36.62 36.09 36.68 35.64 32.84 31.45 31.02 30.68 30.67 29.61 27.00 26.98 25.73 25.43
36.99 36.79 36.43 36.42 36.00 36.53 37.88 37.73 37.77 37.31 36.43 36.83 36.35 36.95 37.31 36.56 38.95 39.87 38.82 37.66 36.73 36.10 35.50 34.66 33.61 32.98 33.52 33.72 33.84 33.22 32.84 33.58 33.84 32.83 33.14 32.15 32.83 32.59 31.71 29.57 28.40 26.10 25.20
34.62 34.99 34.89 34.44 32.72 35.03 35.62 36.52 35.59 34.53 33.19 33.49 32.41 32.05 32.86 33.33 37.01 38.12 37.59 33.78 33.87 32.55 33.09 32.94 32.97 32.35 34.73 35.74 32.86 31.98 31.73 31.91 35.21 35.46 34.88 35.01 35.09 34.60 31.81 27.97 24.45 24.92 21.08
32.82 33.03 32.92 32.63 33.25 34.19 34.10 33.07 31.62 32.05 31.46 31.68 32.67 32.50 32.02 32.95 35.67 37.91 35.30 32.47 32.32 31.03 31.18 31.48 31.82 32.85 35.42 35.98 32.73 31.98 30.84 31.31 31.52 31.61 31.61 32.92 34.13 33.27 33.84 29.27 27.12 24.61 22.98
30.98 31.20 31.34 32.00 33.42 33.40 32.44 31.45 32.17 32.07 32.14 32.43 32.02 31.89 32.14 32.01 33.45 37.99 35.55 32.35 31.78 31.12 30.73 30.30 31.34 34.82 35.89 36.12 34.76 32.52 32.86 31.91 32.83 30.82 29.58 27.90 26.30 27.17 30.18 31.68 29.32 27.50 21.48
29.09 30.13 31.66 32.60 32.21 32.59 32.73 32.13 32.08 32.43 32.23 29.51 30.42 31.22 30.74 31.15 33.54 36.49 35.97 34.27 33.93 31.75 30.90 30.20 31.16 35.24 35.84 36.25 33.88 33.79 34.53 31.30 29.49 29.08 25.71 26.78 27.08 27.76 29.18 30.08 31.20 30.36 30.24
29.15 28.46 29.53 31.18 31.89 32.17 32.53 31.90 31.17 31.56 31.13 29.45 29.49 29.61 29.02 30.25 30.77 35.95 35.44 34.43 34.41 30.82 30.23 30.09 32.54 34.76 35.13 34.85 35.71 34.28 31.83 29.81 28.93 28.36 27.47 27.47 26.44 28.56 27.92 25.91 27.67 27.03 29.25
23.15 22.87 22.11 22.24 26.64 29.50 30.02 30.16 31.16 30.02 29.92 29.47 29.55 29.54 28.64 28.80 29.80 30.81 31.78 32.05 31.48 30.80 31.07 30.90 32.06 33.02 33.48 32.60 30.93 32.99 30.87 29.94 27.39 24.73 20.89 22.88 27.08 27.50 27.11 26.25 26.86 25.97 25.92
21.43 20.84 20.71 19.76 18.06 19.01 20.51 24.80 26.60 27.66 29.77 28.10 28.76 28.83 26.29 26.86 27.97 32.22 32.07 30.63 28.07 29.33 26.11 25.07 28.61 29.02 29.06 28.34 28.82 29.25 29.49 29.05 28.11 28.00 27.04 21.39 25.06 26.11 25.78 25.68 26.61 25.65 24.20
19.62 19.82 18.79 18.25 16.52 16.45 16.33 17.19 28.83 31.85 32.78 32.89 32.57 26.81 18.32 29.85 32.18 32.48 33.85 33.15 32.17 31.03 26.56 26.37 26.14 26.60 26.27 26.57 26.50 26.51 27.38 27.70 27.24 26.88 25.53 24.99 24.41 24.18 23.47 23.41 24.76 23.51 23.23
16.27 15.78 14.59 15.22 14.05 12.74 11.52 14.86 14.98 18.39 28.78 30.05 30.37 29.81 30.22 30.01 30.62 32.10 33.54 34.43 33.23 30.46 19.75 18.30 16.49 17.40 16.50 16.90 18.70 24.61 22.00 19.37 20.96 24.50 24.83 24.07 23.41 22.57 21.50 21.96 22.09 21.86 21.00
9.89 10.87 9.23 9.46 9.98 10.88 11.60 8.62 8.19 9.67 12.12 19.51 25.12 27.22 28.39 29.95 30.19 30.42 30.44 31.71 29.17 30.85 26.19 24.05 23.45 23.05 20.57 11.35 10.84 11.55 11.89 13.00 18.32 18.78 21.88 21.68 20.45 20.40 17.97 18.33 19.34 18.85 19.04
10.09 8.07 5.87 6.77 7.68 9.25 10.44 10.99 9.51 8.86 9.94 18.09 16.97 18.79 14.95 26.27 29.98 30.05 30.09 27.11 25.84 24.96 25.14 24.94 24.31 23.36 22.35 21.67 20.28 19.44 19.11 16.44 14.99 14.25 13.37 15.12 15.65 16.14 14.64 15.79 16.61 16.81 16.69
3.42 9.34 5.88 4.22 7.10 8.73 8.72 9.97 9.97 7.59 5.96 6.14 6.14 6.46 8.43 12.07 14.41 13.40 21.03 21.99 23.54 24.15 24.36 23.85 14.88 13.41 14.10 12.65 12.64 12.81 11.76 9.11 10.15 12.11 11.76 11.71 12.06 13.23 13.47 12.96 13.44 13.23 12.90
1.11 2.85 4.76 5.88 4.99 2.86 1.42 3.24 3.24 4.13 3.78 1.97 3.60 9.03 24.36 18.92 18.93 14.53 5.86 7.32 8.98 7.48 7.85 7.30 6.42 5.90 6.22 6.57 5.68 6.76 6.06 7.30 9.09 11.55 10.81 9.92 10.43 9.34 10.37 11.89 9.52 10.55 9.32
1.14 0.31 0.64 -1.51 -0.01 2.40 -0.57 -0.21 -0.57 -0.75 -1.12 -0.39 0.52 2.32 16.71 1.91 1.60 1.59 -2.02 -1.66 1.38 4.01 4.54 4.78 3.21 3.73 3.39 4.11 4.10 3.75 4.11 5.33 7.07 7.60 6.37 7.43 8.99 8.08 7.56 7.37 5.97 5.97 4.91
2.29 1.64 0.15 -0.64 -0.11 0.03 -0.61 -4.21 -4.56 -5.83 -6.55 -7.28 -6.19 -2.04 -3.47 -6.55 -5.65 -5.10 -5.65 -6.92 -6.01 -3.11 -2.03 -1.30 -1.30 -1.84 -1.49 -0.39 1.92 4.95 3.89 2.26 5.04 4.87 5.61 5.60 4.70 5.21 4.31 4.66 3.78 2.55 2.55
0.78 0.63 0.16 -1.83 -1.49 -2.05 -6.22 -8.74 -9.29 -7.48 -9.09 -9.82 -11.63 -10.36 -7.64 -9.27 -10.72 -9.45 -9.09 -9.64 -8.19 -9.09 -10.18 -8.55 -7.10 -5.83 -6.74 -6.74 -6.37 -4.92 -3.83 -1.66 -0.04 4.22 5.53 4.51 2.55 2.87 1.84 2.18 1.45 1.28 0.95
-2.78 -2.29 -2.76 -3.60 -6.41 -8.37 -8.05 -6.78 -4.69 -8.56 -9.11 -10.37 -8.22 -10.37 -9.64 -8.02 -7.47 -8.38 -8.55 -9.09 -10.36 -11.27 -5.11 -7.47 -8.37 -5.28 -4.20 -5.47 -6.92 -6.55 -4.39 4.65 2.40 0.95 -1.49 0.27 0.96 0.92 -0.15 0.56 -0.32 0.72 2.12
-3.84 -3.97 -6.94 -8.39 -7.86 -9.84 -11.27 -8.06 -7.03 -6.67 -7.71 -7.20 -7.90 -7.38 -8.96 -8.43 -7.38 -7.51 -6.99 -7.87 -6.42 -5.52 -4.15 -4.28 -4.62 -3.40 -4.08 -4.76 -4.77 -2.38 0.14 5.74 3.77 6.20 3.02 1.62 0.92 0.03 -0.50 -0.03 0.48 -0.33 -1.19

GFSGL_sfc_wetblb_120.txt.gz
Wetbulb
55.44 56.98 57.59 58.11 58.60 59.06 58.96 58.76 58.57 57.82 57.19 56.64 56.79 56.86 57.06 57.26 57.46 57.53 57.82 57.68 56.94 56.60 56.84 56.00 55.61 56.31 56.11 55.26 50.81 49.19 47.28 47.38 46.67 33.42 33.59 33.59 32.93 33.15 33.65 33.19 33.13 33.71 34.33
53.54 53.66 55.24 56.69 56.75 57.26 57.69 58.16 57.11 57.26 56.50 56.75 56.63 56.51 56.80 57.21 57.55 57.29 57.26 57.19 56.74 56.36 56.34 55.84 55.45 55.04 54.38 53.49 49.21 47.82 46.00 42.17 40.92 33.57 32.40 31.84 32.30 33.42 33.42 32.17 31.43 33.06 32.29
53.04 53.35 52.65 52.99 53.44 54.62 55.30 55.57 54.96 55.33 55.35 55.04 56.64 56.78 57.09 57.02 57.61 57.85 57.94 57.51 57.04 56.81 56.76 55.88 54.90 53.47 50.98 50.55 46.17 44.48 42.26 37.87 37.07 34.62 32.19 32.59 31.68 32.43 31.29 31.05 30.79 31.28 32.23
43.27 48.50 50.22 50.92 52.06 53.33 54.56 55.02 54.93 55.32 55.62 55.89 56.41 57.02 57.08 57.27 57.24 57.64 57.43 57.10 56.83 55.82 54.09 52.05 51.60 49.18 47.44 46.54 42.30 40.30 37.50 35.66 35.38 33.26 31.60 31.22 31.05 30.88 31.83 30.19 28.76 29.65 29.82
41.38 41.05 41.09 41.33 42.25 43.32 44.70 46.52 47.06 47.89 50.54 51.38 52.78 52.54 51.96 51.86 49.74 50.59 50.50 49.36 48.65 47.97 45.76 44.44 42.59 39.47 39.50 42.17 39.97 37.28 36.26 34.76 33.62 32.69 31.09 30.39 29.18 28.93 29.51 30.07 29.66 29.50 29.10
40.84 40.46 40.60 39.99 41.47 43.20 43.26 42.48 42.35 42.37 43.08 42.41 41.83 41.43 42.34 44.02 41.44 41.94 43.29 44.31 43.10 41.59 40.65 38.97 38.42 35.25 38.64 39.86 39.44 38.58 37.96 34.41 33.11 33.16 32.03 31.09 30.77 30.64 31.05 29.69 29.61 27.08 26.42
38.34 36.75 36.40 38.18 38.49 38.31 38.60 38.62 38.08 38.44 38.79 38.10 38.46 39.05 38.81 38.78 40.33 40.91 39.61 40.49 39.55 39.75 37.66 36.26 34.92 33.97 34.35 35.47 38.07 38.16 37.66 38.84 37.48 34.62 32.40 32.21 30.82 31.61 31.35 29.18 27.93 26.99 23.99
35.47 35.05 34.94 35.75 36.28 36.75 37.62 37.57 37.47 36.60 36.05 35.17 33.94 33.67 34.24 34.58 38.39 39.32 37.75 37.11 36.70 35.90 35.78 35.23 34.72 33.94 33.86 33.77 34.00 33.41 32.92 33.56 33.86 32.92 33.40 32.86 32.79 32.81 32.43 31.39 29.16 23.31 23.28
33.15 33.49 34.09 34.99 34.22 35.97 34.85 35.34 35.23 34.18 33.08 33.14 32.63 31.92 30.77 32.28 37.56 38.65 35.19 33.21 32.73 32.01 32.57 33.56 33.77 33.34 34.68 35.95 32.90 32.13 31.97 32.00 35.22 35.64 35.82 35.87 36.23 35.75 33.27 29.54 26.01 24.75 20.28
33.22 33.42 33.97 34.12 34.74 34.49 34.15 33.09 31.88 32.13 31.62 31.78 32.31 32.51 32.18 32.76 37.18 37.97 34.15 32.12 32.59 31.48 31.46 31.44 32.00 32.73 34.72 36.51 32.73 32.23 31.07 31.25 32.26 32.12 32.21 33.72 34.85 34.43 34.34 30.09 26.73 17.46 13.84
31.69 32.01 31.74 32.31 33.61 33.44 32.57 31.70 32.38 32.41 32.30 32.39 31.96 31.76 31.90 32.22 33.73 36.87 35.80 30.84 29.19 28.71 26.21 26.67 28.72 34.50 35.61 36.47 34.54 32.29 30.55 31.17 33.24 31.42 29.79 30.04 30.74 26.92 29.20 27.17 25.20 22.82 18.36
29.95 31.17 32.12 32.62 32.33 32.73 32.89 32.16 32.34 32.72 32.16 31.50 31.96 30.72 30.67 31.29 34.71 36.72 36.16 35.15 34.01 26.85 26.94 29.22 30.92 34.76 36.05 36.68 33.30 35.06 35.26 32.25 31.30 29.54 28.51 28.32 28.82 29.37 29.32 30.21 29.86 29.31 28.89
30.52 31.23 31.52 31.78 32.04 32.29 32.53 31.93 31.37 31.97 31.28 29.60 30.03 29.43 28.86 30.43 32.08 36.47 35.42 34.72 33.63 30.20 30.70 31.56 32.88 34.53 35.71 35.28 34.88 34.94 31.52 29.51 28.79 28.34 28.05 27.50 24.64 25.02 26.37 25.52 28.34 28.94 29.48
24.31 25.40 26.55 28.83 28.62 29.50 29.59 30.09 30.71 30.29 30.08 29.63 29.47 29.09 28.63 28.98 30.00 30.75 31.85 31.85 31.33 30.79 31.18 31.06 33.08 33.14 33.32 32.43 29.66 32.88 30.58 29.49 28.42 26.89 26.58 24.88 21.90 20.61 21.32 25.69 27.10 27.29 25.79
22.91 22.56 22.61 22.03 21.87 22.62 23.66 26.46 26.21 27.34 30.19 28.66 26.23 25.88 24.67 22.85 25.64 30.74 32.28 30.57 22.44 27.28 25.86 25.85 27.21 29.37 28.83 28.44 28.63 28.66 28.81 28.67 27.77 27.39 26.76 26.15 25.54 25.01 23.52 26.10 26.69 22.78 24.04
22.05 21.11 20.09 20.11 18.89 18.59 19.76 20.90 32.05 32.21 31.85 31.70 31.32 25.72 20.20 30.64 32.65 33.19 34.00 33.52 32.19 30.41 18.80 15.71 24.82 25.04 24.98 25.55 25.79 25.94 26.54 26.92 26.88 26.68 25.95 25.40 24.88 24.49 18.10 19.84 21.94 23.43 21.74
19.22 18.47 17.88 17.80 16.81 16.03 13.58 15.36 16.88 20.07 28.62 29.31 29.18 29.87 30.10 29.79 31.07 32.48 34.47 34.08 33.09 29.56 24.43 23.88 23.28 23.01 22.55 22.58 21.98 23.38 24.13 22.59 21.03 25.51 25.42 25.16 24.15 21.92 19.69 17.61 19.45 21.10 20.22
14.15 14.42 14.86 13.49 13.97 13.71 13.12 10.79 10.75 12.89 17.67 19.53 24.01 25.87 28.35 30.26 30.18 30.25 30.99 31.38 30.42 29.33 25.84 24.57 24.16 23.95 22.96 21.79 19.93 13.37 12.34 15.49 20.50 22.60 22.60 22.23 20.97 17.40 13.70 14.49 16.84 18.35 18.38
13.58 11.64 10.55 10.96 11.18 11.48 12.19 11.71 10.20 14.21 16.04 16.57 11.22 17.77 14.19 25.64 27.22 28.15 28.66 26.09 25.23 25.06 24.70 24.48 24.24 23.71 23.15 22.73 21.65 17.25 16.45 14.27 11.65 9.92 9.54 10.75 10.77 11.83 12.21 13.97 13.87 15.81 16.25
8.63 10.59 8.54 8.02 9.48 10.28 10.46 10.19 8.61 5.98 6.51 4.29 4.59 16.33 20.49 18.94 13.50 6.71 12.69 15.94 18.55 18.72 18.43 18.00 15.26 4.95 7.10 6.89 5.71 5.47 4.42 3.24 3.61 3.88 3.81 5.03 10.01 11.65 12.10 10.38 10.67 11.07 10.77
4.75 5.53 7.22 6.88 5.18 3.82 3.15 5.08 4.86 1.86 0.18 -1.05 1.14 8.60 20.44 3.51 4.31 5.36 -0.42 -0.07 0.10 0.92 3.17 2.43 1.56 -0.24 -1.05 -1.07 -1.23 -0.76 -1.18 -0.13 -1.29 -0.25 0.91 3.19 5.64 6.35 7.74 9.62 7.91 6.92 8.21
5.33 3.74 3.34 2.43 1.56 2.06 2.33 3.14 3.17 2.12 -2.34 -2.90 -1.43 1.06 14.09 -1.52 -3.30 -3.15 -3.83 -5.53 -5.42 -3.26 -2.28 -2.39 -3.15 -3.86 -3.70 -2.88 -3.19 -3.14 -3.10 -3.10 -3.55 -2.14 -1.05 -0.54 0.85 1.48 1.89 3.69 4.58 3.55 4.04
5.99 5.44 4.00 3.24 3.06 4.05 3.31 1.90 1.61 -0.06 -0.01 -6.20 -4.97 -1.89 -5.35 -7.71 -6.64 -5.02 -4.80 -6.89 -8.72 -6.42 -8.09 -8.65 -7.03 -6.24 -7.98 -7.76 -6.60 -4.32 -3.30 -4.68 -4.68 -4.86 -3.55 -2.48 -0.69 2.04 2.16 -0.13 -2.41 -1.88 0.89
4.13 3.93 3.90 3.15 2.63 1.75 1.10 -0.18 -1.25 -1.45 -2.18 -3.03 -5.53 -7.31 -4.17 -7.13 -7.94 -6.88 -6.51 -8.14 -9.66 -9.88 -12.02 -12.82 -11.28 -9.43 -10.46 -11.40 -12.78 -12.27 -10.42 -7.31 -6.31 -4.28 1.14 2.87 2.82 0.29 1.37 0.89 1.73 2.38 1.62
1.35 1.53 1.59 0.42 0.10 -0.05 -0.66 -0.70 -0.43 -3.54 -5.10 -7.25 -6.91 -5.03 -6.46 -11.22 -9.91 -10.01 -10.23 -10.29 -11.17 -11.42 -7.50 -7.46 -10.49 -10.30 -9.01 -7.32 -7.46 -8.23 -8.25 1.16 -0.79 -2.51 -4.02 -1.18 -0.65 -2.93 -3.28 -0.27 -0.38 -0.78 1.62
1.38 1.08 0.89 0.14 -0.02 -0.90 -2.66 -2.96 -2.86 -4.58 -5.13 -6.08 -7.71 -8.14 -8.37 -8.05 -7.36 -7.51 -7.61 -8.73 -8.21 -7.70 -8.30 -7.83 -7.92 -7.36 -6.44 -5.13 -4.84 -1.74 -0.61 3.97 0.27 1.01 1.78 0.55 -0.42 -4.00 -1.44 -1.83 -1.61 -0.67 -1.29